﻿<?xml version="1.0" encoding="utf-8"?><gpx creator="Garmin Desktop App" version="1.1" xsi:schemaLocation="http://www.topografix.com/GPX/1/1 http://www.topografix.com/GPX/1/1/gpx.xsd http://www.garmin.com/xmlschemas/WaypointExtension/v1 http://www8.garmin.com/xmlschemas/WaypointExtensionv1.xsd http://www.garmin.com/xmlschemas/TrackPointExtension/v1 http://www.garmin.com/xmlschemas/TrackPointExtensionv1.xsd http://www.garmin.com/xmlschemas/GpxExtensions/v3 http://www8.garmin.com/xmlschemas/GpxExtensionsv3.xsd http://www.garmin.com/xmlschemas/ActivityExtension/v1 http://www8.garmin.com/xmlschemas/ActivityExtensionv1.xsd http://www.garmin.com/xmlschemas/AdventuresExtensions/v1 http://www8.garmin.com/xmlschemas/AdventuresExtensionv1.xsd http://www.garmin.com/xmlschemas/PressureExtension/v1 http://www.garmin.com/xmlschemas/PressureExtensionv1.xsd http://www.garmin.com/xmlschemas/TripExtensions/v1 http://www.garmin.com/xmlschemas/TripExtensionsv1.xsd http://www.garmin.com/xmlschemas/TripMetaDataExtensions/v1 http://www.garmin.com/xmlschemas/TripMetaDataExtensionsv1.xsd http://www.garmin.com/xmlschemas/ViaPointTransportationModeExtensions/v1 http://www.garmin.com/xmlschemas/ViaPointTransportationModeExtensionsv1.xsd http://www.garmin.com/xmlschemas/CreationTimeExtension/v1 http://www.garmin.com/xmlschemas/CreationTimeExtensionsv1.xsd http://www.garmin.com/xmlschemas/AccelerationExtension/v1 http://www.garmin.com/xmlschemas/AccelerationExtensionv1.xsd http://www.garmin.com/xmlschemas/PowerExtension/v1 http://www.garmin.com/xmlschemas/PowerExtensionv1.xsd http://www.garmin.com/xmlschemas/VideoExtension/v1 http://www.garmin.com/xmlschemas/VideoExtensionv1.xsd" xmlns="http://www.topografix.com/GPX/1/1" xmlns:xsi="http://www.w3.org/2001/XMLSchema-instance" xmlns:wptx1="http://www.garmin.com/xmlschemas/WaypointExtension/v1" xmlns:gpxtrx="http://www.garmin.com/xmlschemas/GpxExtensions/v3" xmlns:gpxtpx="http://www.garmin.com/xmlschemas/TrackPointExtension/v1" xmlns:gpxx="http://www.garmin.com/xmlschemas/GpxExtensions/v3" xmlns:trp="http://www.garmin.com/xmlschemas/TripExtensions/v1" xmlns:adv="http://www.garmin.com/xmlschemas/AdventuresExtensions/v1" xmlns:prs="http://www.garmin.com/xmlschemas/PressureExtension/v1" xmlns:tmd="http://www.garmin.com/xmlschemas/TripMetaDataExtensions/v1" xmlns:vptm="http://www.garmin.com/xmlschemas/ViaPointTransportationModeExtensions/v1" xmlns:ctx="http://www.garmin.com/xmlschemas/CreationTimeExtension/v1" xmlns:gpxacc="http://www.garmin.com/xmlschemas/AccelerationExtension/v1" xmlns:gpxpx="http://www.garmin.com/xmlschemas/PowerExtension/v1" xmlns:vidx1="http://www.garmin.com/xmlschemas/VideoExtension/v1">

  <metadata>
    <link href="http://www.garmin.com">
      <text>Garmin International</text>
    </link>
    <time>2023-03-10T17:07:04Z</time>
    <bounds maxlat="46.666474314406514" maxlon="12.354825362563133" minlat="46.636775890365243" minlon="12.310218801721931" />
  </metadata>

  <trk>
    <name>tre cime di lavaredo2023-03-10</name>
    <extensions>
      <gpxx:TrackExtension>
        <gpxx:DisplayColor>Yellow</gpxx:DisplayColor>
      </gpxx:TrackExtension>
      <gpxtrkx:TrackStatsExtension xmlns:gpxtrkx="http://www.garmin.com/xmlschemas/TrackStatsExtension/v1">
        <gpxtrkx:Distance>15962</gpxtrkx:Distance>
        <gpxtrkx:TotalElapsedTime>27965</gpxtrkx:TotalElapsedTime>
        <gpxtrkx:MovingTime>19551</gpxtrkx:MovingTime>
        <gpxtrkx:StoppedTime>8404</gpxtrkx:StoppedTime>
        <gpxtrkx:MovingSpeed>0.816</gpxtrkx:MovingSpeed>
        <gpxtrkx:MaxSpeed>4.562</gpxtrkx:MaxSpeed>
        <gpxtrkx:MaxElevation>2419.57</gpxtrkx:MaxElevation>
        <gpxtrkx:MinElevation>1453.53</gpxtrkx:MinElevation>
        <gpxtrkx:Ascent>1101</gpxtrkx:Ascent>
        <gpxtrkx:Descent>1107.769</gpxtrkx:Descent>
        <gpxtrkx:AvgAscentRate>0.063</gpxtrkx:AvgAscentRate>
        <gpxtrkx:MaxAscentRate>0.506</gpxtrkx:MaxAscentRate>
        <gpxtrkx:AvgDescentRate>0.085</gpxtrkx:AvgDescentRate>
        <gpxtrkx:MaxDescentRate>-0.675</gpxtrkx:MaxDescentRate>
      </gpxtrkx:TrackStatsExtension>
    </extensions>
    <trkseg>
      <trkpt lat="46.666262671351433" lon="12.35393738374114">
        <ele>1461.4300000000001</ele>
        <time>2023-03-10T07:43:53Z</time>
      </trkpt>
      <trkpt lat="46.666266275569797" lon="12.353927074000239">
        <ele>1461.29</ele>
        <time>2023-03-10T07:44:04Z</time>
      </trkpt>
      <trkpt lat="46.666261833161116" lon="12.353937719017267">
        <ele>1461.29</ele>
        <time>2023-03-10T07:44:20Z</time>
      </trkpt>
      <trkpt lat="46.666275411844254" lon="12.35395347699523">
        <ele>1461.3399999999999</ele>
        <time>2023-03-10T07:44:33Z</time>
      </trkpt>
      <trkpt lat="46.666276250034571" lon="12.353941071778536">
        <ele>1461.48</ele>
        <time>2023-03-10T07:44:39Z</time>
      </trkpt>
      <trkpt lat="46.666289158165455" lon="12.353847697377205">
        <ele>1461.98</ele>
        <time>2023-03-10T07:44:45Z</time>
      </trkpt>
      <trkpt lat="46.666315477341413" lon="12.353722052648664">
        <ele>1463.0699999999999</ele>
        <time>2023-03-10T07:44:57Z</time>
      </trkpt>
      <trkpt lat="46.666296953335404" lon="12.353701684623957">
        <ele>1461.8299999999999</ele>
        <time>2023-03-10T07:45:05Z</time>
      </trkpt>
      <trkpt lat="46.666288739070296" lon="12.353677293285728">
        <ele>1461.75</ele>
        <time>2023-03-10T07:45:14Z</time>
      </trkpt>
      <trkpt lat="46.666235765442252" lon="12.353643514215946">
        <ele>1461.95</ele>
        <time>2023-03-10T07:45:27Z</time>
      </trkpt>
      <trkpt lat="46.666217660531402" lon="12.353633120656013">
        <ele>1461.9200000000001</ele>
        <time>2023-03-10T07:45:29Z</time>
      </trkpt>
      <trkpt lat="46.666190503165126" lon="12.35361778177321">
        <ele>1461.8399999999999</ele>
        <time>2023-03-10T07:45:32Z</time>
      </trkpt>
      <trkpt lat="46.666139792650938" lon="12.353586433455348">
        <ele>1461.8699999999999</ele>
        <time>2023-03-10T07:45:46Z</time>
      </trkpt>
      <trkpt lat="46.666139792650938" lon="12.353585343807936">
        <ele>1461.8299999999999</ele>
        <time>2023-03-10T07:46:05Z</time>
      </trkpt>
      <trkpt lat="46.666112886741757" lon="12.353586349636316">
        <ele>1462.1300000000001</ele>
        <time>2023-03-10T07:46:22Z</time>
      </trkpt>
      <trkpt lat="46.666092434898019" lon="12.353585511445999">
        <ele>1462.3800000000001</ele>
        <time>2023-03-10T07:46:24Z</time>
      </trkpt>
      <trkpt lat="46.666034013032913" lon="12.353544607758522">
        <ele>1463.0599999999999</ele>
        <time>2023-03-10T07:46:37Z</time>
      </trkpt>
      <trkpt lat="46.665989588946104" lon="12.353532118722796">
        <ele>1462.99</ele>
        <time>2023-03-10T07:46:45Z</time>
      </trkpt>
      <trkpt lat="46.665921276435256" lon="12.353456094861031">
        <ele>1464.51</ele>
        <time>2023-03-10T07:46:55Z</time>
      </trkpt>
      <trkpt lat="46.665900489315391" lon="12.353456011041999">
        <ele>1464.5699999999999</ele>
        <time>2023-03-10T07:46:57Z</time>
      </trkpt>
      <trkpt lat="46.665884898975492" lon="12.353456178680062">
        <ele>1464.9200000000001</ele>
        <time>2023-03-10T07:47:08Z</time>
      </trkpt>
      <trkpt lat="46.665877774357796" lon="12.353461543098092">
        <ele>1464.8</ele>
        <time>2023-03-10T07:47:16Z</time>
      </trkpt>
      <trkpt lat="46.665888587012887" lon="12.353452406823635">
        <ele>1464.3800000000001</ele>
        <time>2023-03-10T07:47:28Z</time>
      </trkpt>
      <trkpt lat="46.665889760479331" lon="12.353445533663034">
        <ele>1463.9400000000001</ele>
        <time>2023-03-10T07:47:54Z</time>
      </trkpt>
      <trkpt lat="46.665889006108046" lon="12.353451736271381">
        <ele>1464.1800000000001</ele>
        <time>2023-03-10T07:48:24Z</time>
      </trkpt>
      <trkpt lat="46.665875678882003" lon="12.353453580290079">
        <ele>1464.25</ele>
        <time>2023-03-10T07:48:40Z</time>
      </trkpt>
      <trkpt lat="46.665869895368814" lon="12.353448634967208">
        <ele>1464.04</ele>
        <time>2023-03-10T07:48:47Z</time>
      </trkpt>
      <trkpt lat="46.66570452041924" lon="12.353305723518133">
        <ele>1464.9200000000001</ele>
        <time>2023-03-10T07:49:06Z</time>
      </trkpt>
      <trkpt lat="46.665670573711395" lon="12.353281667456031">
        <ele>1465.1400000000001</ele>
        <time>2023-03-10T07:49:10Z</time>
      </trkpt>
      <trkpt lat="46.665616929531097" lon="12.353262724354863">
        <ele>1465.1099999999999</ele>
        <time>2023-03-10T07:49:15Z</time>
      </trkpt>
      <trkpt lat="46.665500001981854" lon="12.353211846202612">
        <ele>1464.1900000000001</ele>
        <time>2023-03-10T07:49:26Z</time>
      </trkpt>
      <trkpt lat="46.665443340316415" lon="12.353189382702112">
        <ele>1463.22</ele>
        <time>2023-03-10T07:49:31Z</time>
      </trkpt>
      <trkpt lat="46.66535415686667" lon="12.353137414902449">
        <ele>1462.02</ele>
        <time>2023-03-10T07:49:39Z</time>
      </trkpt>
      <trkpt lat="46.665180148556828" lon="12.353036245331168">
        <ele>1462.1500000000001</ele>
        <time>2023-03-10T07:49:53Z</time>
      </trkpt>
      <trkpt lat="46.664973702281713" lon="12.352908672764897">
        <ele>1463.55</ele>
        <time>2023-03-10T07:50:11Z</time>
      </trkpt>
      <trkpt lat="46.664779577404261" lon="12.352801049128175">
        <ele>1463.99</ele>
        <time>2023-03-10T07:50:28Z</time>
      </trkpt>
      <trkpt lat="46.664595007896423" lon="12.352739442139864">
        <ele>1463.51</ele>
        <time>2023-03-10T07:50:45Z</time>
      </trkpt>
      <trkpt lat="46.664404906332493" lon="12.35267523676157">
        <ele>1463.0699999999999</ele>
        <time>2023-03-10T07:51:02Z</time>
      </trkpt>
      <trkpt lat="46.664318656548858" lon="12.352630728855729">
        <ele>1462.5</ele>
        <time>2023-03-10T07:51:14Z</time>
      </trkpt>
      <trkpt lat="46.664257971569896" lon="12.352579515427351">
        <ele>1462.95</ele>
        <time>2023-03-10T07:51:27Z</time>
      </trkpt>
      <trkpt lat="46.664105923846364" lon="12.352436520159245">
        <ele>1462.23</ele>
        <time>2023-03-10T07:51:42Z</time>
      </trkpt>
      <trkpt lat="46.663943063467741" lon="12.352310121059418">
        <ele>1463.3499999999999</ele>
        <time>2023-03-10T07:51:57Z</time>
      </trkpt>
      <trkpt lat="46.663755476474762" lon="12.352153463289142">
        <ele>1464.8099999999999</ele>
        <time>2023-03-10T07:52:14Z</time>
      </trkpt>
      <trkpt lat="46.663700407370925" lon="12.352111218497157">
        <ele>1465.1300000000001</ele>
        <time>2023-03-10T07:52:19Z</time>
      </trkpt>
      <trkpt lat="46.663685068488121" lon="12.352097807452083">
        <ele>1465.49</ele>
        <time>2023-03-10T07:52:21Z</time>
      </trkpt>
      <trkpt lat="46.663673166185617" lon="12.352100238204002">
        <ele>1465.0999999999999</ele>
        <time>2023-03-10T07:52:26Z</time>
      </trkpt>
      <trkpt lat="46.663622036576271" lon="12.35205078497529">
        <ele>1464.95</ele>
        <time>2023-03-10T07:52:31Z</time>
      </trkpt>
      <trkpt lat="46.663467474281788" lon="12.351910723373294">
        <ele>1465.5799999999999</ele>
        <time>2023-03-10T07:52:46Z</time>
      </trkpt>
      <trkpt lat="46.663342835381627" lon="12.351736212149262">
        <ele>1466.53</ele>
        <time>2023-03-10T07:53:00Z</time>
      </trkpt>
      <trkpt lat="46.663335794582963" lon="12.351728416979313">
        <ele>1466.5599999999999</ele>
        <time>2023-03-10T07:53:01Z</time>
      </trkpt>
      <trkpt lat="46.663289107382298" lon="12.351667732000351">
        <ele>1466.4300000000001</ele>
        <time>2023-03-10T07:53:06Z</time>
      </trkpt>
      <trkpt lat="46.663170335814357" lon="12.35153186134994">
        <ele>1466.5699999999999</ele>
        <time>2023-03-10T07:53:21Z</time>
      </trkpt>
      <trkpt lat="46.663053408265114" lon="12.35130806453526">
        <ele>1466.6700000000001</ele>
        <time>2023-03-10T07:53:36Z</time>
      </trkpt>
      <trkpt lat="46.662977803498507" lon="12.351234387606382">
        <ele>1468.04</ele>
        <time>2023-03-10T07:53:46Z</time>
      </trkpt>
      <trkpt lat="46.6629056353122" lon="12.351220054551959">
        <ele>1468.3599999999999</ele>
        <time>2023-03-10T07:53:52Z</time>
      </trkpt>
      <trkpt lat="46.662690136581659" lon="12.351178396493196">
        <ele>1469.01</ele>
        <time>2023-03-10T07:54:09Z</time>
      </trkpt>
      <trkpt lat="46.662481762468815" lon="12.35113606788218">
        <ele>1468.0799999999999</ele>
        <time>2023-03-10T07:54:26Z</time>
      </trkpt>
      <trkpt lat="46.662317728623748" lon="12.351041436195374">
        <ele>1470.5</ele>
        <time>2023-03-10T07:54:41Z</time>
      </trkpt>
      <trkpt lat="46.662153024226427" lon="12.351002627983689">
        <ele>1473.23</ele>
        <time>2023-03-10T07:54:56Z</time>
      </trkpt>
      <trkpt lat="46.661980440840125" lon="12.351018385961652">
        <ele>1475.1900000000001</ele>
        <time>2023-03-10T07:55:12Z</time>
      </trkpt>
      <trkpt lat="46.661828309297562" lon="12.351060295477509">
        <ele>1474.97</ele>
        <time>2023-03-10T07:55:26Z</time>
      </trkpt>
      <trkpt lat="46.66176519356668" lon="12.351080747321248">
        <ele>1474.8399999999999</ele>
        <time>2023-03-10T07:55:33Z</time>
      </trkpt>
      <trkpt lat="46.661709286272526" lon="12.351096756756306">
        <ele>1474.8199999999999</ele>
        <time>2023-03-10T07:55:38Z</time>
      </trkpt>
      <trkpt lat="46.661491608247161" lon="12.351128859445453">
        <ele>1475.54</ele>
        <time>2023-03-10T07:55:58Z</time>
      </trkpt>
      <trkpt lat="46.661295220255852" lon="12.351120142266154">
        <ele>1479.01</ele>
        <time>2023-03-10T07:56:16Z</time>
      </trkpt>
      <trkpt lat="46.661286251619458" lon="12.351124500855803">
        <ele>1479.1700000000001</ele>
        <time>2023-03-10T07:56:17Z</time>
      </trkpt>
      <trkpt lat="46.66111241094768" lon="12.351212594658136">
        <ele>1478.95</ele>
        <time>2023-03-10T07:56:35Z</time>
      </trkpt>
      <trkpt lat="46.660958183929324" lon="12.351232040673494">
        <ele>1478.1400000000001</ele>
        <time>2023-03-10T07:56:50Z</time>
      </trkpt>
      <trkpt lat="46.660808566957712" lon="12.351251151412725">
        <ele>1478.48</ele>
        <time>2023-03-10T07:57:05Z</time>
      </trkpt>
      <trkpt lat="46.660669930279255" lon="12.351273028180003">
        <ele>1478.3900000000001</ele>
        <time>2023-03-10T07:57:19Z</time>
      </trkpt>
      <trkpt lat="46.66052752174437" lon="12.351282332092524">
        <ele>1479.46</ele>
        <time>2023-03-10T07:57:34Z</time>
      </trkpt>
      <trkpt lat="46.660426268354058" lon="12.351295994594693">
        <ele>1480.0999999999999</ele>
        <time>2023-03-10T07:57:45Z</time>
      </trkpt>
      <trkpt lat="46.660407241433859" lon="12.35129339620471">
        <ele>1480.23</ele>
        <time>2023-03-10T07:57:47Z</time>
      </trkpt>
      <trkpt lat="46.66027782484889" lon="12.351396577432752">
        <ele>1482.55</ele>
        <time>2023-03-10T07:58:03Z</time>
      </trkpt>
      <trkpt lat="46.660176906734705" lon="12.351448377594352">
        <ele>1483.1500000000001</ele>
        <time>2023-03-10T07:58:15Z</time>
      </trkpt>
      <trkpt lat="46.660007257014513" lon="12.351501854136586">
        <ele>1484.77</ele>
        <time>2023-03-10T07:58:32Z</time>
      </trkpt>
      <trkpt lat="46.659969286993146" lon="12.351513924077153">
        <ele>1484.0799999999999</ele>
        <time>2023-03-10T07:58:46Z</time>
      </trkpt>
      <trkpt lat="46.65995922870934" lon="12.351518869400024">
        <ele>1484.3800000000001</ele>
        <time>2023-03-10T07:58:52Z</time>
      </trkpt>
      <trkpt lat="46.659920839592814" lon="12.3515460267663">
        <ele>1484.54</ele>
        <time>2023-03-10T07:58:56Z</time>
      </trkpt>
      <trkpt lat="46.659770049154758" lon="12.351648788899183">
        <ele>1483.5599999999999</ele>
        <time>2023-03-10T07:59:11Z</time>
      </trkpt>
      <trkpt lat="46.659654546529055" lon="12.351807877421379">
        <ele>1484.48</ele>
        <time>2023-03-10T07:59:26Z</time>
      </trkpt>
      <trkpt lat="46.659547593444586" lon="12.351899323984981">
        <ele>1485.52</ele>
        <time>2023-03-10T07:59:42Z</time>
      </trkpt>
      <trkpt lat="46.659402083605528" lon="12.352029159665108">
        <ele>1485.9000000000001</ele>
        <time>2023-03-10T07:59:59Z</time>
      </trkpt>
      <trkpt lat="46.659246096387506" lon="12.352075427770615">
        <ele>1486.52</ele>
        <time>2023-03-10T08:00:14Z</time>
      </trkpt>
      <trkpt lat="46.659097569063306" lon="12.352144829928875">
        <ele>1487.5599999999999</ele>
        <time>2023-03-10T08:00:30Z</time>
      </trkpt>
      <trkpt lat="46.658991454169154" lon="12.35227600671351">
        <ele>1488.8</ele>
        <time>2023-03-10T08:00:45Z</time>
      </trkpt>
      <trkpt lat="46.65892674587667" lon="12.352366615086794">
        <ele>1490.02</ele>
        <time>2023-03-10T08:00:59Z</time>
      </trkpt>
      <trkpt lat="46.658920291811228" lon="12.352372314780951">
        <ele>1490.0799999999999</ele>
        <time>2023-03-10T08:01:01Z</time>
      </trkpt>
      <trkpt lat="46.658902438357472" lon="12.352387988939881">
        <ele>1490.28</ele>
        <time>2023-03-10T08:01:03Z</time>
      </trkpt>
      <trkpt lat="46.658720299601555" lon="12.3525061737746">
        <ele>1492.4000000000001</ele>
        <time>2023-03-10T08:01:22Z</time>
      </trkpt>
      <trkpt lat="46.658638408407569" lon="12.352541796863079">
        <ele>1492.3399999999999</ele>
        <time>2023-03-10T08:01:38Z</time>
      </trkpt>
      <trkpt lat="46.658575627952814" lon="12.352609690278769">
        <ele>1492.8</ele>
        <time>2023-03-10T08:01:50Z</time>
      </trkpt>
      <trkpt lat="46.658477978780866" lon="12.352761067450047">
        <ele>1494.54</ele>
        <time>2023-03-10T08:02:04Z</time>
      </trkpt>
      <trkpt lat="46.658360380679369" lon="12.352891070768237">
        <ele>1496.24</ele>
        <time>2023-03-10T08:02:19Z</time>
      </trkpt>
      <trkpt lat="46.658232053741813" lon="12.352983942255378">
        <ele>1497.7</ele>
        <time>2023-03-10T08:02:33Z</time>
      </trkpt>
      <trkpt lat="46.658094590529799" lon="12.353057116270065">
        <ele>1499.25</ele>
        <time>2023-03-10T08:02:48Z</time>
      </trkpt>
      <trkpt lat="46.65795486420393" lon="12.353118052706122">
        <ele>1501.27</ele>
        <time>2023-03-10T08:03:03Z</time>
      </trkpt>
      <trkpt lat="46.657791417092085" lon="12.353181000798941">
        <ele>1503.0999999999999</ele>
        <time>2023-03-10T08:03:20Z</time>
      </trkpt>
      <trkpt lat="46.65768563747406" lon="12.353251073509455">
        <ele>1503.8299999999999</ele>
        <time>2023-03-10T08:03:33Z</time>
      </trkpt>
      <trkpt lat="46.657575415447354" lon="12.353421812877059">
        <ele>1504.1500000000001</ele>
        <time>2023-03-10T08:03:50Z</time>
      </trkpt>
      <trkpt lat="46.657542306929827" lon="12.353647537529469">
        <ele>1504.22</ele>
        <time>2023-03-10T08:04:06Z</time>
      </trkpt>
      <trkpt lat="46.657544150948524" lon="12.353678969666362">
        <ele>1504.23</ele>
        <time>2023-03-10T08:04:08Z</time>
      </trkpt>
      <trkpt lat="46.657493859529495" lon="12.353881392627954">
        <ele>1502.76</ele>
        <time>2023-03-10T08:04:24Z</time>
      </trkpt>
      <trkpt lat="46.657398724928498" lon="12.354011395946145">
        <ele>1501.8900000000001</ele>
        <time>2023-03-10T08:04:38Z</time>
      </trkpt>
      <trkpt lat="46.657263273373246" lon="12.354123964905739">
        <ele>1500.51</ele>
        <time>2023-03-10T08:04:55Z</time>
      </trkpt>
      <trkpt lat="46.657145842909813" lon="12.354236701503396">
        <ele>1499.52</ele>
        <time>2023-03-10T08:05:10Z</time>
      </trkpt>
      <trkpt lat="46.657035034149885" lon="12.354354886338115">
        <ele>1499.8800000000001</ele>
        <time>2023-03-10T08:05:25Z</time>
      </trkpt>
      <trkpt lat="46.656911065801978" lon="12.35444356687367">
        <ele>1502.55</ele>
        <time>2023-03-10T08:05:39Z</time>
      </trkpt>
      <trkpt lat="46.65684032253921" lon="12.354487236589193">
        <ele>1501.9400000000001</ele>
        <time>2023-03-10T08:05:46Z</time>
      </trkpt>
      <trkpt lat="46.656794808804989" lon="12.354513136669993">
        <ele>1502.54</ele>
        <time>2023-03-10T08:05:51Z</time>
      </trkpt>
      <trkpt lat="46.656766561791301" lon="12.354532079771161">
        <ele>1502.4300000000001</ele>
        <time>2023-03-10T08:05:54Z</time>
      </trkpt>
      <trkpt lat="46.656746612861753" lon="12.354546245187521">
        <ele>1502.54</ele>
        <time>2023-03-10T08:05:56Z</time>
      </trkpt>
      <trkpt lat="46.656728591769934" lon="12.354549933224916">
        <ele>1502.77</ele>
        <time>2023-03-10T08:05:58Z</time>
      </trkpt>
      <trkpt lat="46.656719371676445" lon="12.354556135833263">
        <ele>1502.9200000000001</ele>
        <time>2023-03-10T08:05:59Z</time>
      </trkpt>
      <trkpt lat="46.656709648668766" lon="12.354561248794198">
        <ele>1502.97</ele>
        <time>2023-03-10T08:06:00Z</time>
      </trkpt>
      <trkpt lat="46.656699255108833" lon="12.354567870497704">
        <ele>1503.0999999999999</ele>
        <time>2023-03-10T08:06:01Z</time>
      </trkpt>
      <trkpt lat="46.656646113842726" lon="12.35461950302124">
        <ele>1503.96</ele>
        <time>2023-03-10T08:06:09Z</time>
      </trkpt>
      <trkpt lat="46.656607808545232" lon="12.354623107239604">
        <ele>1504.48</ele>
        <time>2023-03-10T08:06:15Z</time>
      </trkpt>
      <trkpt lat="46.656560953706503" lon="12.354623777791858">
        <ele>1504.74</ele>
        <time>2023-03-10T08:06:20Z</time>
      </trkpt>
      <trkpt lat="46.656430531293154" lon="12.354638362303376">
        <ele>1504.53</ele>
        <time>2023-03-10T08:06:34Z</time>
      </trkpt>
      <trkpt lat="46.656316956505179" lon="12.354660490527749">
        <ele>1504.3299999999999</ele>
        <time>2023-03-10T08:06:46Z</time>
      </trkpt>
      <trkpt lat="46.656229365617037" lon="12.354678427800536">
        <ele>1504.6800000000001</ele>
        <time>2023-03-10T08:06:55Z</time>
      </trkpt>
      <trkpt lat="46.656125765293837" lon="12.354704411700368">
        <ele>1506.3499999999999</ele>
        <time>2023-03-10T08:07:09Z</time>
      </trkpt>
      <trkpt lat="46.655962485820055" lon="12.354744477197528">
        <ele>1508.3199999999999</ele>
        <time>2023-03-10T08:07:26Z</time>
      </trkpt>
      <trkpt lat="46.655778922140598" lon="12.354782447218895">
        <ele>1510.3699999999999</ele>
        <time>2023-03-10T08:07:45Z</time>
      </trkpt>
      <trkpt lat="46.655626874417067" lon="12.354799630120397">
        <ele>1512.03</ele>
        <time>2023-03-10T08:08:02Z</time>
      </trkpt>
      <trkpt lat="46.655606422573328" lon="12.354801390320063">
        <ele>1512.3399999999999</ele>
        <time>2023-03-10T08:08:08Z</time>
      </trkpt>
      <trkpt lat="46.65559527464211" lon="12.354802563786507">
        <ele>1512.45</ele>
        <time>2023-03-10T08:08:09Z</time>
      </trkpt>
      <trkpt lat="46.655585048720241" lon="12.354802144691348">
        <ele>1512.3299999999999</ele>
        <time>2023-03-10T08:08:10Z</time>
      </trkpt>
      <trkpt lat="46.655575325712562" lon="12.354800384491682">
        <ele>1512.4100000000001</ele>
        <time>2023-03-10T08:08:11Z</time>
      </trkpt>
      <trkpt lat="46.655397126451135" lon="12.354805413633585">
        <ele>1513.96</ele>
        <time>2023-03-10T08:08:28Z</time>
      </trkpt>
      <trkpt lat="46.655358402058482" lon="12.354821590706706">
        <ele>1514.28</ele>
        <time>2023-03-10T08:08:40Z</time>
      </trkpt>
      <trkpt lat="46.655355971306562" lon="12.354825362563133">
        <ele>1513.6300000000001</ele>
        <time>2023-03-10T08:08:50Z</time>
      </trkpt>
      <trkpt lat="46.655350523069501" lon="12.354814046993852">
        <ele>1513.4200000000001</ele>
        <time>2023-03-10T08:09:14Z</time>
      </trkpt>
      <trkpt lat="46.655343314632773" lon="12.354800133034587">
        <ele>1514.52</ele>
        <time>2023-03-10T08:09:42Z</time>
      </trkpt>
      <trkpt lat="46.655343482270837" lon="12.354797115549445">
        <ele>1514.7</ele>
        <time>2023-03-10T08:10:09Z</time>
      </trkpt>
      <trkpt lat="46.655352031812072" lon="12.354800216853619">
        <ele>1514.71</ele>
        <time>2023-03-10T08:10:27Z</time>
      </trkpt>
      <trkpt lat="46.655354294925928" lon="12.354794936254621">
        <ele>1515.3099999999999</ele>
        <time>2023-03-10T08:10:38Z</time>
      </trkpt>
      <trkpt lat="46.655360581353307" lon="12.354800216853619">
        <ele>1516.1500000000001</ele>
        <time>2023-03-10T08:11:00Z</time>
      </trkpt>
      <trkpt lat="46.655363934114575" lon="12.354818321764469">
        <ele>1516.78</ele>
        <time>2023-03-10T08:11:13Z</time>
      </trkpt>
      <trkpt lat="46.655363095924258" lon="12.354817315936089">
        <ele>1516.52</ele>
        <time>2023-03-10T08:11:34Z</time>
      </trkpt>
      <trkpt lat="46.655352283269167" lon="12.354816058650613">
        <ele>1516.28</ele>
        <time>2023-03-10T08:11:48Z</time>
      </trkpt>
      <trkpt lat="46.655343230813742" lon="12.354809688404202">
        <ele>1516.0899999999999</ele>
        <time>2023-03-10T08:11:51Z</time>
      </trkpt>
      <trkpt lat="46.655331747606397" lon="12.354807006195188">
        <ele>1516.1400000000001</ele>
        <time>2023-03-10T08:11:52Z</time>
      </trkpt>
      <trkpt lat="46.65532018058002" lon="12.354803485795856">
        <ele>1516.1300000000001</ele>
        <time>2023-03-10T08:11:53Z</time>
      </trkpt>
      <trkpt lat="46.655308865010738" lon="12.354803569614887">
        <ele>1516</ele>
        <time>2023-03-10T08:11:54Z</time>
      </trkpt>
      <trkpt lat="46.655295873060822" lon="12.354805916547775">
        <ele>1516.03</ele>
        <time>2023-03-10T08:11:55Z</time>
      </trkpt>
      <trkpt lat="46.65528304874897" lon="12.354806838557124">
        <ele>1516.1800000000001</ele>
        <time>2023-03-10T08:11:56Z</time>
      </trkpt>
      <trkpt lat="46.655270643532276" lon="12.354804575443268">
        <ele>1516.1300000000001</ele>
        <time>2023-03-10T08:11:57Z</time>
      </trkpt>
      <trkpt lat="46.655258322134614" lon="12.35480222851038">
        <ele>1516.1300000000001</ele>
        <time>2023-03-10T08:11:58Z</time>
      </trkpt>
      <trkpt lat="46.655245833098888" lon="12.354800971224904">
        <ele>1516.1900000000001</ele>
        <time>2023-03-10T08:11:59Z</time>
      </trkpt>
      <trkpt lat="46.65505045093596" lon="12.354795522987843">
        <ele>1518.46</ele>
        <time>2023-03-10T08:12:15Z</time>
      </trkpt>
      <trkpt lat="46.654865210875869" lon="12.354782363399863">
        <ele>1519.6400000000001</ele>
        <time>2023-03-10T08:12:31Z</time>
      </trkpt>
      <trkpt lat="46.654708553105593" lon="12.35470256768167">
        <ele>1519.1300000000001</ele>
        <time>2023-03-10T08:12:46Z</time>
      </trkpt>
      <trkpt lat="46.654555331915617" lon="12.354634758085012">
        <ele>1520.02</ele>
        <time>2023-03-10T08:13:01Z</time>
      </trkpt>
      <trkpt lat="46.654361542314291" lon="12.354560829699039">
        <ele>1520.3699999999999</ele>
        <time>2023-03-10T08:13:19Z</time>
      </trkpt>
      <trkpt lat="46.654166243970394" lon="12.354491259902716">
        <ele>1520.6600000000001</ele>
        <time>2023-03-10T08:13:37Z</time>
      </trkpt>
      <trkpt lat="46.654004724696279" lon="12.354430072009563">
        <ele>1521.28</ele>
        <time>2023-03-10T08:13:52Z</time>
      </trkpt>
      <trkpt lat="46.653828034177423" lon="12.354351114481688">
        <ele>1522.8099999999999</ele>
        <time>2023-03-10T08:14:09Z</time>
      </trkpt>
      <trkpt lat="46.653645057231188" lon="12.354318089783192">
        <ele>1523.6199999999999</ele>
        <time>2023-03-10T08:14:26Z</time>
      </trkpt>
      <trkpt lat="46.653449172154069" lon="12.354297889396548">
        <ele>1524.6600000000001</ele>
        <time>2023-03-10T08:14:44Z</time>
      </trkpt>
      <trkpt lat="46.653257310390472" lon="12.354286825284362">
        <ele>1526.8699999999999</ele>
        <time>2023-03-10T08:15:02Z</time>
      </trkpt>
      <trkpt lat="46.653058575466275" lon="12.354264529421926">
        <ele>1527.72</ele>
        <time>2023-03-10T08:15:20Z</time>
      </trkpt>
      <trkpt lat="46.652872497215867" lon="12.354247011244297">
        <ele>1528.6300000000001</ele>
        <time>2023-03-10T08:15:37Z</time>
      </trkpt>
      <trkpt lat="46.652687760069966" lon="12.354240557178855">
        <ele>1530.01</ele>
        <time>2023-03-10T08:15:54Z</time>
      </trkpt>
      <trkpt lat="46.652522385120392" lon="12.354207113385201">
        <ele>1531.3099999999999</ele>
        <time>2023-03-10T08:16:10Z</time>
      </trkpt>
      <trkpt lat="46.652386263012886" lon="12.354165036231279">
        <ele>1531.8099999999999</ele>
        <time>2023-03-10T08:16:24Z</time>
      </trkpt>
      <trkpt lat="46.652376456186175" lon="12.354161599650979">
        <ele>1531.9200000000001</ele>
        <time>2023-03-10T08:16:25Z</time>
      </trkpt>
      <trkpt lat="46.652366230264306" lon="12.35415380448103">
        <ele>1531.79</ele>
        <time>2023-03-10T08:16:26Z</time>
      </trkpt>
      <trkpt lat="46.652356004342437" lon="12.354147350415587">
        <ele>1531.9000000000001</ele>
        <time>2023-03-10T08:16:27Z</time>
      </trkpt>
      <trkpt lat="46.652193730697036" lon="12.354034781455994">
        <ele>1532.02</ele>
        <time>2023-03-10T08:16:43Z</time>
      </trkpt>
      <trkpt lat="46.652036234736443" lon="12.353955321013927">
        <ele>1532.9300000000001</ele>
        <time>2023-03-10T08:16:59Z</time>
      </trkpt>
      <trkpt lat="46.651890724897385" lon="12.353934701532125">
        <ele>1533.3399999999999</ele>
        <time>2023-03-10T08:17:13Z</time>
      </trkpt>
      <trkpt lat="46.651879074051976" lon="12.353931684046984">
        <ele>1533.22</ele>
        <time>2023-03-10T08:17:14Z</time>
      </trkpt>
      <trkpt lat="46.651868177577853" lon="12.353926738724113">
        <ele>1533.1600000000001</ele>
        <time>2023-03-10T08:17:15Z</time>
      </trkpt>
      <trkpt lat="46.651851078495383" lon="12.353918021544814">
        <ele>1533.28</ele>
        <time>2023-03-10T08:17:16Z</time>
      </trkpt>
      <trkpt lat="46.651834398508072" lon="12.353909891098738">
        <ele>1533.3299999999999</ele>
        <time>2023-03-10T08:17:17Z</time>
      </trkpt>
      <trkpt lat="46.651782933622599" lon="12.35388457775116">
        <ele>1533.51</ele>
        <time>2023-03-10T08:17:22Z</time>
      </trkpt>
      <trkpt lat="46.651708669960499" lon="12.353818109259009">
        <ele>1533.28</ele>
        <time>2023-03-10T08:17:30Z</time>
      </trkpt>
      <trkpt lat="46.651578918099403" lon="12.353681568056345">
        <ele>1534.1099999999999</ele>
        <time>2023-03-10T08:17:45Z</time>
      </trkpt>
      <trkpt lat="46.651457799598575" lon="12.353579979389906">
        <ele>1534.02</ele>
        <time>2023-03-10T08:18:00Z</time>
      </trkpt>
      <trkpt lat="46.651429301127791" lon="12.353545697405934">
        <ele>1533.1500000000001</ele>
        <time>2023-03-10T08:18:15Z</time>
      </trkpt>
      <trkpt lat="46.651414548978209" lon="12.353516193106771">
        <ele>1532.6600000000001</ele>
        <time>2023-03-10T08:18:33Z</time>
      </trkpt>
      <trkpt lat="46.651421170681715" lon="12.353542931377888">
        <ele>1533.1700000000001</ele>
        <time>2023-03-10T08:18:43Z</time>
      </trkpt>
      <trkpt lat="46.651436258107424" lon="12.353552067652345">
        <ele>1533.47</ele>
        <time>2023-03-10T08:18:52Z</time>
      </trkpt>
      <trkpt lat="46.651434414088726" lon="12.353578051552176">
        <ele>1533.4000000000001</ele>
        <time>2023-03-10T08:19:01Z</time>
      </trkpt>
      <trkpt lat="46.651441287249327" lon="12.353530861437321">
        <ele>1533.97</ele>
        <time>2023-03-10T08:19:12Z</time>
      </trkpt>
      <trkpt lat="46.651425361633301" lon="12.353486018255353">
        <ele>1534.1700000000001</ele>
        <time>2023-03-10T08:19:22Z</time>
      </trkpt>
      <trkpt lat="46.65142921730876" lon="12.353467661887407">
        <ele>1534.3299999999999</ele>
        <time>2023-03-10T08:19:27Z</time>
      </trkpt>
      <trkpt lat="46.651433072984219" lon="12.353452071547508">
        <ele>1534.3499999999999</ele>
        <time>2023-03-10T08:19:28Z</time>
      </trkpt>
      <trkpt lat="46.651419913396239" lon="12.353456178680062">
        <ele>1532.1300000000001</ele>
        <time>2023-03-10T08:19:34Z</time>
      </trkpt>
      <trkpt lat="46.651417315006256" lon="12.353479228913784">
        <ele>1533.04</ele>
        <time>2023-03-10T08:20:02Z</time>
      </trkpt>
      <trkpt lat="46.651429301127791" lon="12.353476546704769">
        <ele>1534.48</ele>
        <time>2023-03-10T08:20:10Z</time>
      </trkpt>
      <trkpt lat="46.651440029963851" lon="12.353462046012282">
        <ele>1534.3900000000001</ele>
        <time>2023-03-10T08:20:11Z</time>
      </trkpt>
      <trkpt lat="46.651449417695403" lon="12.353483755141497">
        <ele>1533.97</ele>
        <time>2023-03-10T08:20:15Z</time>
      </trkpt>
      <trkpt lat="46.651437180116773" lon="12.353564472869039">
        <ele>1534.3099999999999</ele>
        <time>2023-03-10T08:20:22Z</time>
      </trkpt>
      <trkpt lat="46.651437096297741" lon="12.353579308837652">
        <ele>1533.9200000000001</ele>
        <time>2023-03-10T08:20:23Z</time>
      </trkpt>
      <trkpt lat="46.651436341926455" lon="12.353595485910773">
        <ele>1533.7</ele>
        <time>2023-03-10T08:20:24Z</time>
      </trkpt>
      <trkpt lat="46.651434330269694" lon="12.353612668812275">
        <ele>1533.71</ele>
        <time>2023-03-10T08:20:25Z</time>
      </trkpt>
      <trkpt lat="46.651401557028294" lon="12.35369648784399">
        <ele>1533.3299999999999</ele>
        <time>2023-03-10T08:20:36Z</time>
      </trkpt>
      <trkpt lat="46.651387726888061" lon="12.353720795363188">
        <ele>1533.8599999999999</ele>
        <time>2023-03-10T08:20:53Z</time>
      </trkpt>
      <trkpt lat="46.651380686089396" lon="12.353727668523788">
        <ele>1533.52</ele>
        <time>2023-03-10T08:21:07Z</time>
      </trkpt>
      <trkpt lat="46.651337184011936" lon="12.353715095669031">
        <ele>1534.21</ele>
        <time>2023-03-10T08:21:28Z</time>
      </trkpt>
      <trkpt lat="46.651347996667027" lon="12.353668827563524">
        <ele>1534.3699999999999</ele>
        <time>2023-03-10T08:21:41Z</time>
      </trkpt>
      <trkpt lat="46.651374818757176" lon="12.353573441505432">
        <ele>1534.99</ele>
        <time>2023-03-10T08:21:47Z</time>
      </trkpt>
      <trkpt lat="46.65140625089407" lon="12.353516109287739">
        <ele>1535.9300000000001</ele>
        <time>2023-03-10T08:21:59Z</time>
      </trkpt>
      <trkpt lat="46.6514150518924" lon="12.353458357974887">
        <ele>1536.3</ele>
        <time>2023-03-10T08:22:09Z</time>
      </trkpt>
      <trkpt lat="46.651422176510096" lon="12.353463973850012">
        <ele>1535.9400000000001</ele>
        <time>2023-03-10T08:22:20Z</time>
      </trkpt>
      <trkpt lat="46.651433324441314" lon="12.353490879759192">
        <ele>1535.8499999999999</ele>
        <time>2023-03-10T08:22:44Z</time>
      </trkpt>
      <trkpt lat="46.651456039398909" lon="12.353462381288409">
        <ele>1536.6400000000001</ele>
        <time>2023-03-10T08:23:03Z</time>
      </trkpt>
      <trkpt lat="46.651452854275703" lon="12.353442767634988">
        <ele>1536.5799999999999</ele>
        <time>2023-03-10T08:23:14Z</time>
      </trkpt>
      <trkpt lat="46.65145268663764" lon="12.353452490642667">
        <ele>1536.8099999999999</ele>
        <time>2023-03-10T08:23:22Z</time>
      </trkpt>
      <trkpt lat="46.651465930044651" lon="12.353465985506773">
        <ele>1536.46</ele>
        <time>2023-03-10T08:23:34Z</time>
      </trkpt>
      <trkpt lat="46.651468612253666" lon="12.353453664109111">
        <ele>1536.4400000000001</ele>
        <time>2023-03-10T08:23:39Z</time>
      </trkpt>
      <trkpt lat="46.651461068540812" lon="12.353460704907775">
        <ele>1535.73</ele>
        <time>2023-03-10T08:23:53Z</time>
      </trkpt>
      <trkpt lat="46.651471294462681" lon="12.353442935273051">
        <ele>1534.8099999999999</ele>
        <time>2023-03-10T08:24:15Z</time>
      </trkpt>
      <trkpt lat="46.651478670537472" lon="12.3534404207021">
        <ele>1533.9000000000001</ele>
        <time>2023-03-10T08:24:34Z</time>
      </trkpt>
      <trkpt lat="46.651463834568858" lon="12.353446539491415">
        <ele>1534.5599999999999</ele>
        <time>2023-03-10T08:24:51Z</time>
      </trkpt>
      <trkpt lat="46.651445310562849" lon="12.353448970243335">
        <ele>1533.3399999999999</ele>
        <time>2023-03-10T08:25:26Z</time>
      </trkpt>
      <trkpt lat="46.651452518999577" lon="12.353443689644337">
        <ele>1532.6099999999999</ele>
        <time>2023-03-10T08:26:00Z</time>
      </trkpt>
      <trkpt lat="46.651458805426955" lon="12.35345559194684">
        <ele>1532.9200000000001</ele>
        <time>2023-03-10T08:26:13Z</time>
      </trkpt>
      <trkpt lat="46.651451764628291" lon="12.353473948314786">
        <ele>1532.9300000000001</ele>
        <time>2023-03-10T08:26:28Z</time>
      </trkpt>
      <trkpt lat="46.651464002206922" lon="12.353481408208609">
        <ele>1533.26</ele>
        <time>2023-03-10T08:26:46Z</time>
      </trkpt>
      <trkpt lat="46.651451764628291" lon="12.353469841182232">
        <ele>1533.48</ele>
        <time>2023-03-10T08:26:59Z</time>
      </trkpt>
      <trkpt lat="46.651448663324118" lon="12.353466572239995">
        <ele>1533.0999999999999</ele>
        <time>2023-03-10T08:27:17Z</time>
      </trkpt>
      <trkpt lat="46.651455452665687" lon="12.353457938879728">
        <ele>1529.77</ele>
        <time>2023-03-10T08:27:34Z</time>
      </trkpt>
      <trkpt lat="46.65145511738956" lon="12.353480150923133">
        <ele>1532.24</ele>
        <time>2023-03-10T08:27:55Z</time>
      </trkpt>
      <trkpt lat="46.651443969458342" lon="12.353487275540829">
        <ele>1534.9000000000001</ele>
        <time>2023-03-10T08:28:12Z</time>
      </trkpt>
      <trkpt lat="46.651436341926455" lon="12.353493561968207">
        <ele>1538.8499999999999</ele>
        <time>2023-03-10T08:28:30Z</time>
      </trkpt>
      <trkpt lat="46.651434833183885" lon="12.353482330217957">
        <ele>1538.0599999999999</ele>
        <time>2023-03-10T08:28:54Z</time>
      </trkpt>
      <trkpt lat="46.651435168460011" lon="12.353465985506773">
        <ele>1535.97</ele>
        <time>2023-03-10T08:29:12Z</time>
      </trkpt>
      <trkpt lat="46.651434581726789" lon="12.353481324389577">
        <ele>1536.73</ele>
        <time>2023-03-10T08:29:39Z</time>
      </trkpt>
      <trkpt lat="46.651426618918777" lon="12.353498172014952">
        <ele>1537.3699999999999</ele>
        <time>2023-03-10T08:29:54Z</time>
      </trkpt>
      <trkpt lat="46.65142041631043" lon="12.35350102186203">
        <ele>1536.79</ele>
        <time>2023-03-10T08:30:11Z</time>
      </trkpt>
      <trkpt lat="46.651422847062349" lon="12.353496914729476">
        <ele>1536.48</ele>
        <time>2023-03-10T08:30:28Z</time>
      </trkpt>
      <trkpt lat="46.651417817920446" lon="12.353499261662364">
        <ele>1536.77</ele>
        <time>2023-03-10T08:30:40Z</time>
      </trkpt>
      <trkpt lat="46.651405664160848" lon="12.353516360744834">
        <ele>1537.3199999999999</ele>
        <time>2023-03-10T08:30:52Z</time>
      </trkpt>
      <trkpt lat="46.651404239237309" lon="12.353516025468707">
        <ele>1539.0899999999999</ele>
        <time>2023-03-10T08:31:03Z</time>
      </trkpt>
      <trkpt lat="46.651374818757176" lon="12.353445952758193">
        <ele>1538.73</ele>
        <time>2023-03-10T08:31:12Z</time>
      </trkpt>
      <trkpt lat="46.651318827643991" lon="12.353401612490416">
        <ele>1538.3599999999999</ele>
        <time>2023-03-10T08:31:20Z</time>
      </trkpt>
      <trkpt lat="46.651290580630302" lon="12.35335978679359">
        <ele>1537.03</ele>
        <time>2023-03-10T08:31:24Z</time>
      </trkpt>
      <trkpt lat="46.651274403557181" lon="12.353359116241336">
        <ele>1536.8800000000001</ele>
        <time>2023-03-10T08:31:25Z</time>
      </trkpt>
      <trkpt lat="46.651196954771876" lon="12.353322906419635">
        <ele>1537.4100000000001</ele>
        <time>2023-03-10T08:31:37Z</time>
      </trkpt>
      <trkpt lat="46.651193350553513" lon="12.3533143568784">
        <ele>1536.9400000000001</ele>
        <time>2023-03-10T08:31:54Z</time>
      </trkpt>
      <trkpt lat="46.651181532070041" lon="12.353295497596264">
        <ele>1537.6900000000001</ele>
        <time>2023-03-10T08:32:12Z</time>
      </trkpt>
      <trkpt lat="46.651163678616285" lon="12.353241434320807">
        <ele>1538.27</ele>
        <time>2023-03-10T08:32:25Z</time>
      </trkpt>
      <trkpt lat="46.651154542341828" lon="12.353231459856033">
        <ele>1538.75</ele>
        <time>2023-03-10T08:32:26Z</time>
      </trkpt>
      <trkpt lat="46.651060162112117" lon="12.353132218122482">
        <ele>1538.54</ele>
        <time>2023-03-10T08:32:38Z</time>
      </trkpt>
      <trkpt lat="46.650953460484743" lon="12.353052841499448">
        <ele>1539.98</ele>
        <time>2023-03-10T08:32:51Z</time>
      </trkpt>
      <trkpt lat="46.650918256491423" lon="12.353023672476411">
        <ele>1540.26</ele>
        <time>2023-03-10T08:32:55Z</time>
      </trkpt>
      <trkpt lat="46.65091666392982" lon="12.353005986660719">
        <ele>1539.9400000000001</ele>
        <time>2023-03-10T08:32:56Z</time>
      </trkpt>
      <trkpt lat="46.650909455493093" lon="12.352999532595277">
        <ele>1540.01</ele>
        <time>2023-03-10T08:32:57Z</time>
      </trkpt>
      <trkpt lat="46.650856314226985" lon="12.352939937263727">
        <ele>1539.3599999999999</ele>
        <time>2023-03-10T08:33:05Z</time>
      </trkpt>
      <trkpt lat="46.65080132894218" lon="12.352868691086769">
        <ele>1537.8</ele>
        <time>2023-03-10T08:33:13Z</time>
      </trkpt>
      <trkpt lat="46.650671660900116" lon="12.352770119905472">
        <ele>1536.6199999999999</ele>
        <time>2023-03-10T08:33:27Z</time>
      </trkpt>
      <trkpt lat="46.650545261800289" lon="12.352661490440369">
        <ele>1537.51</ele>
        <time>2023-03-10T08:33:42Z</time>
      </trkpt>
      <trkpt lat="46.650415007025003" lon="12.352604996412992">
        <ele>1540.1500000000001</ele>
        <time>2023-03-10T08:33:55Z</time>
      </trkpt>
      <trkpt lat="46.650270251557231" lon="12.352560237050056">
        <ele>1542.8900000000001</ele>
        <time>2023-03-10T08:34:09Z</time>
      </trkpt>
      <trkpt lat="46.650166986510158" lon="12.352472059428692">
        <ele>1546.1500000000001</ele>
        <time>2023-03-10T08:34:20Z</time>
      </trkpt>
      <trkpt lat="46.650141086429358" lon="12.352384552359581">
        <ele>1548.27</ele>
        <time>2023-03-10T08:34:27Z</time>
      </trkpt>
      <trkpt lat="46.650115102529526" lon="12.352285478264093">
        <ele>1549.51</ele>
        <time>2023-03-10T08:34:34Z</time>
      </trkpt>
      <trkpt lat="46.650110157206655" lon="12.352258991450071">
        <ele>1549.46</ele>
        <time>2023-03-10T08:34:35Z</time>
      </trkpt>
      <trkpt lat="46.650090711191297" lon="12.352209538221359">
        <ele>1550.5899999999999</ele>
        <time>2023-03-10T08:34:39Z</time>
      </trkpt>
      <trkpt lat="46.650052908807993" lon="12.352108955383301">
        <ele>1551.6400000000001</ele>
        <time>2023-03-10T08:34:49Z</time>
      </trkpt>
      <trkpt lat="46.650026841089129" lon="12.352074757218361">
        <ele>1552.7</ele>
        <time>2023-03-10T08:34:54Z</time>
      </trkpt>
      <trkpt lat="46.650021141394973" lon="12.35204391181469">
        <ele>1551.5799999999999</ele>
        <time>2023-03-10T08:34:57Z</time>
      </trkpt>
      <trkpt lat="46.650014352053404" lon="12.352036284282804">
        <ele>1548.9300000000001</ele>
        <time>2023-03-10T08:34:59Z</time>
      </trkpt>
      <trkpt lat="46.649982249364257" lon="12.352028237655759">
        <ele>1550.51</ele>
        <time>2023-03-10T08:35:06Z</time>
      </trkpt>
      <trkpt lat="46.649965066462755" lon="12.352025387808681">
        <ele>1550.5899999999999</ele>
        <time>2023-03-10T08:35:15Z</time>
      </trkpt>
      <trkpt lat="46.649955427274108" lon="12.352016670629382">
        <ele>1550.5999999999999</ele>
        <time>2023-03-10T08:35:16Z</time>
      </trkpt>
      <trkpt lat="46.649924078956246" lon="12.351986495777965">
        <ele>1550.73</ele>
        <time>2023-03-10T08:35:20Z</time>
      </trkpt>
      <trkpt lat="46.649914188310504" lon="12.351977359503508">
        <ele>1550.78</ele>
        <time>2023-03-10T08:35:21Z</time>
      </trkpt>
      <trkpt lat="46.649906393140554" lon="12.351962858811021">
        <ele>1550.24</ele>
        <time>2023-03-10T08:35:22Z</time>
      </trkpt>
      <trkpt lat="46.649889042600989" lon="12.35195062123239">
        <ele>1550.24</ele>
        <time>2023-03-10T08:35:24Z</time>
      </trkpt>
      <trkpt lat="46.649770690128207" lon="12.351876776665449">
        <ele>1547.3800000000001</ele>
        <time>2023-03-10T08:35:38Z</time>
      </trkpt>
      <trkpt lat="46.649761805310845" lon="12.35188071615994">
        <ele>1548.5599999999999</ele>
        <time>2023-03-10T08:36:02Z</time>
      </trkpt>
      <trkpt lat="46.649725344032049" lon="12.351865209639072">
        <ele>1549.05</ele>
        <time>2023-03-10T08:36:07Z</time>
      </trkpt>
      <trkpt lat="46.649712938815355" lon="12.351862108334899">
        <ele>1549.1099999999999</ele>
        <time>2023-03-10T08:36:08Z</time>
      </trkpt>
      <trkpt lat="46.649656109511852" lon="12.351819109171629">
        <ele>1550.2</ele>
        <time>2023-03-10T08:36:13Z</time>
      </trkpt>
      <trkpt lat="46.649643201380968" lon="12.351813325658441">
        <ele>1550.5599999999999</ele>
        <time>2023-03-10T08:36:14Z</time>
      </trkpt>
      <trkpt lat="46.649628868326545" lon="12.351800501346588">
        <ele>1550.7</ele>
        <time>2023-03-10T08:36:15Z</time>
      </trkpt>
      <trkpt lat="46.649613361805677" lon="12.351788682863116">
        <ele>1551.25</ele>
        <time>2023-03-10T08:36:16Z</time>
      </trkpt>
      <trkpt lat="46.649602297693491" lon="12.351777954027057">
        <ele>1551.71</ele>
        <time>2023-03-10T08:36:17Z</time>
      </trkpt>
      <trkpt lat="46.649592239409685" lon="12.351765716448426">
        <ele>1552</ele>
        <time>2023-03-10T08:36:18Z</time>
      </trkpt>
      <trkpt lat="46.649583773687482" lon="12.351753395050764">
        <ele>1552.47</ele>
        <time>2023-03-10T08:36:19Z</time>
      </trkpt>
      <trkpt lat="46.649564579129219" lon="12.351717688143253">
        <ele>1553.5</ele>
        <time>2023-03-10T08:36:22Z</time>
      </trkpt>
      <trkpt lat="46.649552341550589" lon="12.351708384230733">
        <ele>1553.8199999999999</ele>
        <time>2023-03-10T08:36:23Z</time>
      </trkpt>
      <trkpt lat="46.649478832259774" lon="12.351579805836082">
        <ele>1555.6199999999999</ele>
        <time>2023-03-10T08:36:33Z</time>
      </trkpt>
      <trkpt lat="46.649467851966619" lon="12.351541416719556">
        <ele>1555.6400000000001</ele>
        <time>2023-03-10T08:36:36Z</time>
      </trkpt>
      <trkpt lat="46.649461481720209" lon="12.351521300151944">
        <ele>1555.5999999999999</ele>
        <time>2023-03-10T08:36:37Z</time>
      </trkpt>
      <trkpt lat="46.649455614387989" lon="12.351505542173982">
        <ele>1555.49</ele>
        <time>2023-03-10T08:36:38Z</time>
      </trkpt>
      <trkpt lat="46.649448573589325" lon="12.351490622386336">
        <ele>1555.51</ele>
        <time>2023-03-10T08:36:39Z</time>
      </trkpt>
      <trkpt lat="46.649442203342915" lon="12.351477043703198">
        <ele>1555.5999999999999</ele>
        <time>2023-03-10T08:36:40Z</time>
      </trkpt>
      <trkpt lat="46.649436922743917" lon="12.351463548839092">
        <ele>1555.55</ele>
        <time>2023-03-10T08:36:41Z</time>
      </trkpt>
      <trkpt lat="46.649357210844755" lon="12.351286187767982">
        <ele>1556.47</ele>
        <time>2023-03-10T08:36:54Z</time>
      </trkpt>
      <trkpt lat="46.649343967437744" lon="12.351263221353292">
        <ele>1556.26</ele>
        <time>2023-03-10T08:36:56Z</time>
      </trkpt>
      <trkpt lat="46.649326449260116" lon="12.351238913834095">
        <ele>1555.97</ele>
        <time>2023-03-10T08:36:58Z</time>
      </trkpt>
      <trkpt lat="46.649271212518215" lon="12.351125674322248">
        <ele>1555.3800000000001</ele>
        <time>2023-03-10T08:37:08Z</time>
      </trkpt>
      <trkpt lat="46.649251347407699" lon="12.351113269105554">
        <ele>1555.28</ele>
        <time>2023-03-10T08:37:10Z</time>
      </trkpt>
      <trkpt lat="46.649184040725231" lon="12.351017128676176">
        <ele>1555.3499999999999</ele>
        <time>2023-03-10T08:37:20Z</time>
      </trkpt>
      <trkpt lat="46.649168785661459" lon="12.350997179746628">
        <ele>1555.3599999999999</ele>
        <time>2023-03-10T08:37:22Z</time>
      </trkpt>
      <trkpt lat="46.649137856438756" lon="12.35096943564713">
        <ele>1555.3</ele>
        <time>2023-03-10T08:37:25Z</time>
      </trkpt>
      <trkpt lat="46.649088989943266" lon="12.35090933740139">
        <ele>1553.6700000000001</ele>
        <time>2023-03-10T08:37:33Z</time>
      </trkpt>
      <trkpt lat="46.649039201438427" lon="12.350879078730941">
        <ele>1551.1700000000001</ele>
        <time>2023-03-10T08:37:41Z</time>
      </trkpt>
      <trkpt lat="46.648951191455126" lon="12.350846640765667">
        <ele>1548.21</ele>
        <time>2023-03-10T08:37:52Z</time>
      </trkpt>
      <trkpt lat="46.648883800953627" lon="12.350836163386703">
        <ele>1547.4100000000001</ele>
        <time>2023-03-10T08:38:00Z</time>
      </trkpt>
      <trkpt lat="46.648778775706887" lon="12.350830128416419">
        <ele>1547.74</ele>
        <time>2023-03-10T08:38:12Z</time>
      </trkpt>
      <trkpt lat="46.648664446547627" lon="12.350778747349977">
        <ele>1549.74</ele>
        <time>2023-03-10T08:38:27Z</time>
      </trkpt>
      <trkpt lat="46.648559253662825" lon="12.350676404312253">
        <ele>1551.8099999999999</ele>
        <time>2023-03-10T08:38:42Z</time>
      </trkpt>
      <trkpt lat="46.648440901190042" lon="12.350598704069853">
        <ele>1552.3800000000001</ele>
        <time>2023-03-10T08:39:00Z</time>
      </trkpt>
      <trkpt lat="46.648346018046141" lon="12.350551430135965">
        <ele>1552.4100000000001</ele>
        <time>2023-03-10T08:39:13Z</time>
      </trkpt>
      <trkpt lat="46.648217607289553" lon="12.350512621924281">
        <ele>1551.4100000000001</ele>
        <time>2023-03-10T08:39:30Z</time>
      </trkpt>
      <trkpt lat="46.648095650598407" lon="12.350436765700579">
        <ele>1550.76</ele>
        <time>2023-03-10T08:39:46Z</time>
      </trkpt>
      <trkpt lat="46.647971011698246" lon="12.350390497595072">
        <ele>1551.79</ele>
        <time>2023-03-10T08:40:01Z</time>
      </trkpt>
      <trkpt lat="46.647885767742991" lon="12.350315731018782">
        <ele>1552.6099999999999</ele>
        <time>2023-03-10T08:40:17Z</time>
      </trkpt>
      <trkpt lat="46.647787196561694" lon="12.350169466808438">
        <ele>1555.74</ele>
        <time>2023-03-10T08:40:33Z</time>
      </trkpt>
      <trkpt lat="46.647705473005772" lon="12.350086737424135">
        <ele>1557.76</ele>
        <time>2023-03-10T08:40:48Z</time>
      </trkpt>
      <trkpt lat="46.647691307589412" lon="12.35008304938674">
        <ele>1558.48</ele>
        <time>2023-03-10T08:41:00Z</time>
      </trkpt>
      <trkpt lat="46.647620731964707" lon="12.350039128214121">
        <ele>1560.1800000000001</ele>
        <time>2023-03-10T08:41:17Z</time>
      </trkpt>
      <trkpt lat="46.647511180490255" lon="12.349979784339666">
        <ele>1563.95</ele>
        <time>2023-03-10T08:41:32Z</time>
      </trkpt>
      <trkpt lat="46.647457536309958" lon="12.349942568689585">
        <ele>1565.74</ele>
        <time>2023-03-10T08:41:42Z</time>
      </trkpt>
      <trkpt lat="46.647455440834165" lon="12.349939635023475">
        <ele>1566.72</ele>
        <time>2023-03-10T08:41:45Z</time>
      </trkpt>
      <trkpt lat="46.647451082244515" lon="12.349949441850185">
        <ele>1569.2</ele>
        <time>2023-03-10T08:41:53Z</time>
      </trkpt>
      <trkpt lat="46.647447980940342" lon="12.349960338324308">
        <ele>1570.48</ele>
        <time>2023-03-10T08:41:58Z</time>
      </trkpt>
      <trkpt lat="46.647413866594434" lon="12.349949525669217">
        <ele>1571.45</ele>
        <time>2023-03-10T08:42:06Z</time>
      </trkpt>
      <trkpt lat="46.647398443892598" lon="12.349933432415128">
        <ele>1574.99</ele>
        <time>2023-03-10T08:42:20Z</time>
      </trkpt>
      <trkpt lat="46.647386206313968" lon="12.349921027198434">
        <ele>1575.1600000000001</ele>
        <time>2023-03-10T08:42:21Z</time>
      </trkpt>
      <trkpt lat="46.647373968735337" lon="12.349904347211123">
        <ele>1575.8900000000001</ele>
        <time>2023-03-10T08:42:23Z</time>
      </trkpt>
      <trkpt lat="46.647329712286592" lon="12.349850870668888">
        <ele>1576.3900000000001</ele>
        <time>2023-03-10T08:42:29Z</time>
      </trkpt>
      <trkpt lat="46.647292077541351" lon="12.349781887605786">
        <ele>1577.5899999999999</ele>
        <time>2023-03-10T08:42:37Z</time>
      </trkpt>
      <trkpt lat="46.647271793335676" lon="12.349726064130664">
        <ele>1581.03</ele>
        <time>2023-03-10T08:42:43Z</time>
      </trkpt>
      <trkpt lat="46.64725293405354" lon="12.349690441042185">
        <ele>1582.98</ele>
        <time>2023-03-10T08:42:48Z</time>
      </trkpt>
      <trkpt lat="46.647205157205462" lon="12.349641742184758">
        <ele>1584.79</ele>
        <time>2023-03-10T08:42:57Z</time>
      </trkpt>
      <trkpt lat="46.647172635421157" lon="12.349618775770068">
        <ele>1586.3199999999999</ele>
        <time>2023-03-10T08:43:02Z</time>
      </trkpt>
      <trkpt lat="46.647146986797452" lon="12.34958122484386">
        <ele>1587.0899999999999</ele>
        <time>2023-03-10T08:43:09Z</time>
      </trkpt>
      <trkpt lat="46.647138018161058" lon="12.34955339692533">
        <ele>1587.1199999999999</ele>
        <time>2023-03-10T08:43:13Z</time>
      </trkpt>
      <trkpt lat="46.647109603509307" lon="12.349501345306635">
        <ele>1588.6800000000001</ele>
        <time>2023-03-10T08:43:19Z</time>
      </trkpt>
      <trkpt lat="46.647097198292613" lon="12.349485587328672">
        <ele>1590.4300000000001</ele>
        <time>2023-03-10T08:43:24Z</time>
      </trkpt>
      <trkpt lat="46.647088648751378" lon="12.349458262324333">
        <ele>1591.3499999999999</ele>
        <time>2023-03-10T08:43:28Z</time>
      </trkpt>
      <trkpt lat="46.6470667719841" lon="12.349402606487274">
        <ele>1592.3900000000001</ele>
        <time>2023-03-10T08:43:34Z</time>
      </trkpt>
      <trkpt lat="46.647036597132683" lon="12.349349213764071">
        <ele>1593.8099999999999</ele>
        <time>2023-03-10T08:43:42Z</time>
      </trkpt>
      <trkpt lat="46.647020252421498" lon="12.349303616210818">
        <ele>1593.1800000000001</ele>
        <time>2023-03-10T08:43:48Z</time>
      </trkpt>
      <trkpt lat="46.646993597969413" lon="12.349246283993125">
        <ele>1593.46</ele>
        <time>2023-03-10T08:43:59Z</time>
      </trkpt>
      <trkpt lat="46.646972643211484" lon="12.349206218495965">
        <ele>1594.6700000000001</ele>
        <time>2023-03-10T08:44:04Z</time>
      </trkpt>
      <trkpt lat="46.64695143699646" lon="12.34916246496141">
        <ele>1596.1500000000001</ele>
        <time>2023-03-10T08:44:11Z</time>
      </trkpt>
      <trkpt lat="46.646918831393123" lon="12.349124662578106">
        <ele>1599.0699999999999</ele>
        <time>2023-03-10T08:44:17Z</time>
      </trkpt>
      <trkpt lat="46.646900558844209" lon="12.349112676456571">
        <ele>1600.4300000000001</ele>
        <time>2023-03-10T08:44:19Z</time>
      </trkpt>
      <trkpt lat="46.646884046494961" lon="12.349070766940713">
        <ele>1601.51</ele>
        <time>2023-03-10T08:44:25Z</time>
      </trkpt>
      <trkpt lat="46.646869797259569" lon="12.34902567230165">
        <ele>1604.3800000000001</ele>
        <time>2023-03-10T08:44:32Z</time>
      </trkpt>
      <trkpt lat="46.64683903567493" lon="12.349010836333036">
        <ele>1607.8099999999999</ele>
        <time>2023-03-10T08:44:38Z</time>
      </trkpt>
      <trkpt lat="46.64683660492301" lon="12.348971609026194">
        <ele>1608.5999999999999</ele>
        <time>2023-03-10T08:44:43Z</time>
      </trkpt>
      <trkpt lat="46.646845154464245" lon="12.348932968452573">
        <ele>1608.02</ele>
        <time>2023-03-10T08:44:48Z</time>
      </trkpt>
      <trkpt lat="46.646841466426849" lon="12.348922239616513">
        <ele>1607.6700000000001</ele>
        <time>2023-03-10T08:44:49Z</time>
      </trkpt>
      <trkpt lat="46.646851692348719" lon="12.348878402262926">
        <ele>1606.3800000000001</ele>
        <time>2023-03-10T08:44:54Z</time>
      </trkpt>
      <trkpt lat="46.646852446720004" lon="12.348845629021525">
        <ele>1605.7</ele>
        <time>2023-03-10T08:44:58Z</time>
      </trkpt>
      <trkpt lat="46.64685320109129" lon="12.348822243511677">
        <ele>1605.03</ele>
        <time>2023-03-10T08:45:01Z</time>
      </trkpt>
      <trkpt lat="46.646850351244211" lon="12.348815873265266">
        <ele>1605.1099999999999</ele>
        <time>2023-03-10T08:45:02Z</time>
      </trkpt>
      <trkpt lat="46.646850854158401" lon="12.348808664828539">
        <ele>1604.6500000000001</ele>
        <time>2023-03-10T08:45:03Z</time>
      </trkpt>
      <trkpt lat="46.64684833958745" lon="12.348802629858255">
        <ele>1604.73</ele>
        <time>2023-03-10T08:45:04Z</time>
      </trkpt>
      <trkpt lat="46.646848926320672" lon="12.348794331774116">
        <ele>1604.3399999999999</ele>
        <time>2023-03-10T08:45:05Z</time>
      </trkpt>
      <trkpt lat="46.646844232454896" lon="12.348779831081629">
        <ele>1604.3699999999999</ele>
        <time>2023-03-10T08:45:07Z</time>
      </trkpt>
      <trkpt lat="46.646822774782777" lon="12.348753176629543">
        <ele>1605.0799999999999</ele>
        <time>2023-03-10T08:45:13Z</time>
      </trkpt>
      <trkpt lat="46.646812967956066" lon="12.348763486370444">
        <ele>1606.3099999999999</ele>
        <time>2023-03-10T08:45:19Z</time>
      </trkpt>
      <trkpt lat="46.646804753690958" lon="12.34874228015542">
        <ele>1603.6900000000001</ele>
        <time>2023-03-10T08:45:26Z</time>
      </trkpt>
      <trkpt lat="46.646814728155732" lon="12.34873004257679">
        <ele>1601.9300000000001</ele>
        <time>2023-03-10T08:45:33Z</time>
      </trkpt>
      <trkpt lat="46.64679461158812" lon="12.348686875775456">
        <ele>1602.48</ele>
        <time>2023-03-10T08:45:40Z</time>
      </trkpt>
      <trkpt lat="46.646752702072263" lon="12.348670279607177">
        <ele>1603.4200000000001</ele>
        <time>2023-03-10T08:45:47Z</time>
      </trkpt>
      <trkpt lat="46.646709199994802" lon="12.348620407283306">
        <ele>1604.4100000000001</ele>
        <time>2023-03-10T08:46:02Z</time>
      </trkpt>
      <trkpt lat="46.646681372076273" lon="12.348570870235562">
        <ele>1604.8399999999999</ele>
        <time>2023-03-10T08:46:07Z</time>
      </trkpt>
      <trkpt lat="46.646659914404154" lon="12.34854438342154">
        <ele>1605.8499999999999</ele>
        <time>2023-03-10T08:46:10Z</time>
      </trkpt>
      <trkpt lat="46.646577939391136" lon="12.348461905494332">
        <ele>1608.4400000000001</ele>
        <time>2023-03-10T08:46:22Z</time>
      </trkpt>
      <trkpt lat="46.646497892215848" lon="12.348399795591831">
        <ele>1610.8299999999999</ele>
        <time>2023-03-10T08:46:37Z</time>
      </trkpt>
      <trkpt lat="46.64648624137044" lon="12.348386384546757">
        <ele>1610.3499999999999</ele>
        <time>2023-03-10T08:46:50Z</time>
      </trkpt>
      <trkpt lat="46.646526223048568" lon="12.348328884691">
        <ele>1613.3900000000001</ele>
        <time>2023-03-10T08:47:09Z</time>
      </trkpt>
      <trkpt lat="46.646554721519351" lon="12.348239365965128">
        <ele>1612.96</ele>
        <time>2023-03-10T08:47:20Z</time>
      </trkpt>
      <trkpt lat="46.646611718460917" lon="12.348143393173814">
        <ele>1614.21</ele>
        <time>2023-03-10T08:47:35Z</time>
      </trkpt>
      <trkpt lat="46.646669134497643" lon="12.348030740395188">
        <ele>1616.1199999999999</ele>
        <time>2023-03-10T08:47:44Z</time>
      </trkpt>
      <trkpt lat="46.646669637411833" lon="12.347953710705042">
        <ele>1616.6300000000001</ele>
        <time>2023-03-10T08:47:56Z</time>
      </trkpt>
      <trkpt lat="46.646653544157743" lon="12.347943233326077">
        <ele>1616.8299999999999</ele>
        <time>2023-03-10T08:47:59Z</time>
      </trkpt>
      <trkpt lat="46.64666410535574" lon="12.347903084009886">
        <ele>1617.48</ele>
        <time>2023-03-10T08:48:05Z</time>
      </trkpt>
      <trkpt lat="46.646671146154404" lon="12.34785639680922">
        <ele>1618.0699999999999</ele>
        <time>2023-03-10T08:48:10Z</time>
      </trkpt>
      <trkpt lat="46.646644240245223" lon="12.347820438444614">
        <ele>1618.97</ele>
        <time>2023-03-10T08:48:16Z</time>
      </trkpt>
      <trkpt lat="46.646619429811835" lon="12.347765536978841">
        <ele>1618.8499999999999</ele>
        <time>2023-03-10T08:48:24Z</time>
      </trkpt>
      <trkpt lat="46.646587830036879" lon="12.347697475925088">
        <ele>1619.6300000000001</ele>
        <time>2023-03-10T08:48:33Z</time>
      </trkpt>
      <trkpt lat="46.646538712084293" lon="12.347652381286025">
        <ele>1621.5899999999999</ele>
        <time>2023-03-10T08:48:43Z</time>
      </trkpt>
      <trkpt lat="46.646503591910005" lon="12.347681298851967">
        <ele>1623.79</ele>
        <time>2023-03-10T08:48:48Z</time>
      </trkpt>
      <trkpt lat="46.646456150338054" lon="12.347693368792534">
        <ele>1625.54</ele>
        <time>2023-03-10T08:48:54Z</time>
      </trkpt>
      <trkpt lat="46.646408289670944" lon="12.34771030023694">
        <ele>1628.8199999999999</ele>
        <time>2023-03-10T08:49:02Z</time>
      </trkpt>
      <trkpt lat="46.64634995162487" lon="12.347729746252298">
        <ele>1630.3900000000001</ele>
        <time>2023-03-10T08:49:07Z</time>
      </trkpt>
      <trkpt lat="46.646299324929714" lon="12.347734775394201">
        <ele>1632.52</ele>
        <time>2023-03-10T08:49:14Z</time>
      </trkpt>
      <trkpt lat="46.646230760961771" lon="12.34771809540689">
        <ele>1634.3699999999999</ele>
        <time>2023-03-10T08:49:28Z</time>
      </trkpt>
      <trkpt lat="46.646195305511355" lon="12.347709126770496">
        <ele>1635.78</ele>
        <time>2023-03-10T08:49:36Z</time>
      </trkpt>
      <trkpt lat="46.646178122609854" lon="12.347685573622584">
        <ele>1636.6600000000001</ele>
        <time>2023-03-10T08:49:43Z</time>
      </trkpt>
      <trkpt lat="46.646149372681975" lon="12.347674844786525">
        <ele>1637.0899999999999</ele>
        <time>2023-03-10T08:49:48Z</time>
      </trkpt>
      <trkpt lat="46.646114671602845" lon="12.347679622471333">
        <ele>1636.98</ele>
        <time>2023-03-10T08:49:54Z</time>
      </trkpt>
      <trkpt lat="46.646097237244248" lon="12.347675766795874">
        <ele>1637.5599999999999</ele>
        <time>2023-03-10T08:49:59Z</time>
      </trkpt>
      <trkpt lat="46.646043257787824" lon="12.347688926383853">
        <ele>1638.8299999999999</ele>
        <time>2023-03-10T08:50:08Z</time>
      </trkpt>
      <trkpt lat="46.646022722125053" lon="12.347659589722753">
        <ele>1640.5599999999999</ele>
        <time>2023-03-10T08:50:16Z</time>
      </trkpt>
      <trkpt lat="46.646001432090998" lon="12.347630839794874">
        <ele>1642.3099999999999</ele>
        <time>2023-03-10T08:50:21Z</time>
      </trkpt>
      <trkpt lat="46.645982237532735" lon="12.347584990784526">
        <ele>1645.1900000000001</ele>
        <time>2023-03-10T08:50:28Z</time>
      </trkpt>
      <trkpt lat="46.646000342443585" lon="12.347529670223594">
        <ele>1647.5</ele>
        <time>2023-03-10T08:50:35Z</time>
      </trkpt>
      <trkpt lat="46.645998498424888" lon="12.347509134560823">
        <ele>1649.1800000000001</ele>
        <time>2023-03-10T08:50:42Z</time>
      </trkpt>
      <trkpt lat="46.646004701033235" lon="12.34743369743228">
        <ele>1650.9300000000001</ele>
        <time>2023-03-10T08:50:56Z</time>
      </trkpt>
      <trkpt lat="46.645973855629563" lon="12.347351219505072">
        <ele>1652.8699999999999</ele>
        <time>2023-03-10T08:51:08Z</time>
      </trkpt>
      <trkpt lat="46.645974526181817" lon="12.347205458208919">
        <ele>1654.6400000000001</ele>
        <time>2023-03-10T08:51:22Z</time>
      </trkpt>
      <trkpt lat="46.645987937226892" lon="12.347135972231627">
        <ele>1655.74</ele>
        <time>2023-03-10T08:51:29Z</time>
      </trkpt>
      <trkpt lat="46.645995061844587" lon="12.347098086029291">
        <ele>1655.6900000000001</ele>
        <time>2023-03-10T08:51:33Z</time>
      </trkpt>
      <trkpt lat="46.645995900034904" lon="12.347088865935802">
        <ele>1656.4400000000001</ele>
        <time>2023-03-10T08:51:34Z</time>
      </trkpt>
      <trkpt lat="46.645998749881983" lon="12.347040586173534">
        <ele>1659.5</ele>
        <time>2023-03-10T08:51:42Z</time>
      </trkpt>
      <trkpt lat="46.646000342443585" lon="12.346995994448662">
        <ele>1660.8099999999999</ele>
        <time>2023-03-10T08:51:52Z</time>
      </trkpt>
      <trkpt lat="46.646006377413869" lon="12.346940170973539">
        <ele>1660.1700000000001</ele>
        <time>2023-03-10T08:52:05Z</time>
      </trkpt>
      <trkpt lat="46.646035630255938" lon="12.346849227324128">
        <ele>1659.05</ele>
        <time>2023-03-10T08:52:19Z</time>
      </trkpt>
      <trkpt lat="46.64601031690836" lon="12.346794493496418">
        <ele>1659.0699999999999</ele>
        <time>2023-03-10T08:52:33Z</time>
      </trkpt>
      <trkpt lat="46.645958432927728" lon="12.346742106601596">
        <ele>1659.3199999999999</ele>
        <time>2023-03-10T08:52:47Z</time>
      </trkpt>
      <trkpt lat="46.645948709920049" lon="12.346683349460363">
        <ele>1660.75</ele>
        <time>2023-03-10T08:53:00Z</time>
      </trkpt>
      <trkpt lat="46.645911661908031" lon="12.346679074689746">
        <ele>1661.51</ele>
        <time>2023-03-10T08:53:13Z</time>
      </trkpt>
      <trkpt lat="46.645888863131404" lon="12.346655018627644">
        <ele>1662.96</ele>
        <time>2023-03-10T08:53:24Z</time>
      </trkpt>
      <trkpt lat="46.645884923636913" lon="12.346682427451015">
        <ele>1665.9400000000001</ele>
        <time>2023-03-10T08:53:30Z</time>
      </trkpt>
      <trkpt lat="46.645887941122055" lon="12.346675889566541">
        <ele>1665.1099999999999</ele>
        <time>2023-03-10T08:53:43Z</time>
      </trkpt>
      <trkpt lat="46.645888863131404" lon="12.346679493784904">
        <ele>1667.23</ele>
        <time>2023-03-10T08:54:03Z</time>
      </trkpt>
      <trkpt lat="46.645881403237581" lon="12.346679242327809">
        <ele>1667.25</ele>
        <time>2023-03-10T08:54:05Z</time>
      </trkpt>
      <trkpt lat="46.645881989970803" lon="12.346690725535154">
        <ele>1667.47</ele>
        <time>2023-03-10T08:54:10Z</time>
      </trkpt>
      <trkpt lat="46.645887354388833" lon="12.346686953678727">
        <ele>1668.6900000000001</ele>
        <time>2023-03-10T08:54:34Z</time>
      </trkpt>
      <trkpt lat="46.645885510370135" lon="12.346662813797593">
        <ele>1669.74</ele>
        <time>2023-03-10T08:54:51Z</time>
      </trkpt>
      <trkpt lat="46.645885678008199" lon="12.346655437722802">
        <ele>1667.1199999999999</ele>
        <time>2023-03-10T08:54:59Z</time>
      </trkpt>
      <trkpt lat="46.645894981920719" lon="12.346641356125474">
        <ele>1668.54</ele>
        <time>2023-03-10T08:55:20Z</time>
      </trkpt>
      <trkpt lat="46.645897580310702" lon="12.346633058041334">
        <ele>1669.6900000000001</ele>
        <time>2023-03-10T08:55:38Z</time>
      </trkpt>
      <trkpt lat="46.645904118195176" lon="12.346549155190587">
        <ele>1670.8599999999999</ele>
        <time>2023-03-10T08:55:50Z</time>
      </trkpt>
      <trkpt lat="46.645894395187497" lon="12.346429796889424">
        <ele>1672.3699999999999</ele>
        <time>2023-03-10T08:56:04Z</time>
      </trkpt>
      <trkpt lat="46.645842343568802" lon="12.346330890432">
        <ele>1674.71</ele>
        <time>2023-03-10T08:56:17Z</time>
      </trkpt>
      <trkpt lat="46.645786855369806" lon="12.34622435644269">
        <ele>1676.8299999999999</ele>
        <time>2023-03-10T08:56:32Z</time>
      </trkpt>
      <trkpt lat="46.645769504830241" lon="12.346194935962558">
        <ele>1677.75</ele>
        <time>2023-03-10T08:56:45Z</time>
      </trkpt>
      <trkpt lat="46.645790627226233" lon="12.346184039488435">
        <ele>1676.45</ele>
        <time>2023-03-10T08:57:03Z</time>
      </trkpt>
      <trkpt lat="46.64578995667398" lon="12.346180016174912">
        <ele>1677.02</ele>
        <time>2023-03-10T08:57:18Z</time>
      </trkpt>
      <trkpt lat="46.645790208131075" lon="12.346186554059386">
        <ele>1677.45</ele>
        <time>2023-03-10T08:57:37Z</time>
      </trkpt>
      <trkpt lat="46.645792303606868" lon="12.346190828830004">
        <ele>1678.05</ele>
        <time>2023-03-10T08:58:01Z</time>
      </trkpt>
      <trkpt lat="46.645797584205866" lon="12.346195606514812">
        <ele>1679.03</ele>
        <time>2023-03-10T08:58:18Z</time>
      </trkpt>
      <trkpt lat="46.645771767944098" lon="12.346206335350871">
        <ele>1679.3299999999999</ele>
        <time>2023-03-10T08:58:31Z</time>
      </trkpt>
      <trkpt lat="46.645766906440258" lon="12.346201222389936">
        <ele>1680.3299999999999</ele>
        <time>2023-03-10T08:58:52Z</time>
      </trkpt>
      <trkpt lat="46.645772606134415" lon="12.346203234046698">
        <ele>1680.6199999999999</ele>
        <time>2023-03-10T08:59:02Z</time>
      </trkpt>
      <trkpt lat="46.645786603912711" lon="12.346199378371239">
        <ele>1682.1900000000001</ele>
        <time>2023-03-10T08:59:19Z</time>
      </trkpt>
      <trkpt lat="46.645809235051274" lon="12.346181608736515">
        <ele>1682.8599999999999</ele>
        <time>2023-03-10T08:59:31Z</time>
      </trkpt>
      <trkpt lat="46.645813090726733" lon="12.346176747232676">
        <ele>1682.8299999999999</ele>
        <time>2023-03-10T08:59:47Z</time>
      </trkpt>
      <trkpt lat="46.645806804299355" lon="12.346179680898786">
        <ele>1683.3499999999999</ele>
        <time>2023-03-10T08:59:57Z</time>
      </trkpt>
      <trkpt lat="46.645804205909371" lon="12.346178339794278">
        <ele>1683.3900000000001</ele>
        <time>2023-03-10T09:00:05Z</time>
      </trkpt>
      <trkpt lat="46.645816946402192" lon="12.346177836880088">
        <ele>1683.55</ele>
        <time>2023-03-10T09:00:13Z</time>
      </trkpt>
      <trkpt lat="46.645805966109037" lon="12.346173645928502">
        <ele>1684.52</ele>
        <time>2023-03-10T09:00:29Z</time>
      </trkpt>
      <trkpt lat="46.64580512791872" lon="12.34618772752583">
        <ele>1684.3499999999999</ele>
        <time>2023-03-10T09:00:46Z</time>
      </trkpt>
      <trkpt lat="46.645812503993511" lon="12.346197199076414">
        <ele>1684.55</ele>
        <time>2023-03-10T09:01:05Z</time>
      </trkpt>
      <trkpt lat="46.6458182875067" lon="12.34620189294219">
        <ele>1684.8299999999999</ele>
        <time>2023-03-10T09:01:21Z</time>
      </trkpt>
      <trkpt lat="46.645816694945097" lon="12.346197115257382">
        <ele>1685.3900000000001</ele>
        <time>2023-03-10T09:01:33Z</time>
      </trkpt>
      <trkpt lat="46.645804541185498" lon="12.346201390028">
        <ele>1686.25</ele>
        <time>2023-03-10T09:01:51Z</time>
      </trkpt>
      <trkpt lat="46.645795656368136" lon="12.346208598464727">
        <ele>1687.0899999999999</ele>
        <time>2023-03-10T09:02:07Z</time>
      </trkpt>
      <trkpt lat="46.645786352455616" lon="12.346211113035679">
        <ele>1688.29</ele>
        <time>2023-03-10T09:02:28Z</time>
      </trkpt>
      <trkpt lat="46.645779982209206" lon="12.346207844093442">
        <ele>1688.76</ele>
        <time>2023-03-10T09:02:47Z</time>
      </trkpt>
      <trkpt lat="46.645782999694347" lon="12.34620088711381">
        <ele>1688.79</ele>
        <time>2023-03-10T09:03:02Z</time>
      </trkpt>
      <trkpt lat="46.64579976350069" lon="12.346198623999953">
        <ele>1688.4100000000001</ele>
        <time>2023-03-10T09:03:27Z</time>
      </trkpt>
      <trkpt lat="46.645824909210205" lon="12.346212705597281">
        <ele>1688.95</ele>
        <time>2023-03-10T09:03:50Z</time>
      </trkpt>
      <trkpt lat="46.645832536742091" lon="12.346196277067065">
        <ele>1688.9000000000001</ele>
        <time>2023-03-10T09:04:21Z</time>
      </trkpt>
      <trkpt lat="46.645812587812543" lon="12.346179848536849">
        <ele>1689.7</ele>
        <time>2023-03-10T09:04:28Z</time>
      </trkpt>
      <trkpt lat="46.645771181210876" lon="12.346168281510472">
        <ele>1690.72</ele>
        <time>2023-03-10T09:04:37Z</time>
      </trkpt>
      <trkpt lat="46.645756596699357" lon="12.346103573217988">
        <ele>1692.51</ele>
        <time>2023-03-10T09:04:48Z</time>
      </trkpt>
      <trkpt lat="46.645749639719725" lon="12.346002738922834">
        <ele>1694.3</ele>
        <time>2023-03-10T09:05:02Z</time>
      </trkpt>
      <trkpt lat="46.645751986652613" lon="12.345968289300799">
        <ele>1695.02</ele>
        <time>2023-03-10T09:05:16Z</time>
      </trkpt>
      <trkpt lat="46.645731450989842" lon="12.345973486080766">
        <ele>1694.8099999999999</ele>
        <time>2023-03-10T09:05:34Z</time>
      </trkpt>
      <trkpt lat="46.645725835114717" lon="12.345954040065408">
        <ele>1695.5999999999999</ele>
        <time>2023-03-10T09:05:54Z</time>
      </trkpt>
      <trkpt lat="46.645706305280328" lon="12.345982035622001">
        <ele>1695.1500000000001</ele>
        <time>2023-03-10T09:06:18Z</time>
      </trkpt>
      <trkpt lat="46.645702198147774" lon="12.345973066985607">
        <ele>1694.95</ele>
        <time>2023-03-10T09:06:38Z</time>
      </trkpt>
      <trkpt lat="46.645728936418891" lon="12.345859492197633">
        <ele>1695.75</ele>
        <time>2023-03-10T09:06:54Z</time>
      </trkpt>
      <trkpt lat="46.645819628611207" lon="12.345789084210992">
        <ele>1695.9000000000001</ele>
        <time>2023-03-10T09:07:11Z</time>
      </trkpt>
      <trkpt lat="46.645889114588499" lon="12.345690177753568">
        <ele>1696.53</ele>
        <time>2023-03-10T09:07:26Z</time>
      </trkpt>
      <trkpt lat="46.645847791805863" lon="12.345625553280115">
        <ele>1697.96</ele>
        <time>2023-03-10T09:07:39Z</time>
      </trkpt>
      <trkpt lat="46.645821807906032" lon="12.345534777268767">
        <ele>1700.0899999999999</ele>
        <time>2023-03-10T09:07:53Z</time>
      </trkpt>
      <trkpt lat="46.645755004137754" lon="12.345501082018018">
        <ele>1702.55</ele>
        <time>2023-03-10T09:08:05Z</time>
      </trkpt>
      <trkpt lat="46.645696917548776" lon="12.34544106759131">
        <ele>1705.8299999999999</ele>
        <time>2023-03-10T09:08:20Z</time>
      </trkpt>
      <trkpt lat="46.645644530653954" lon="12.345380801707506">
        <ele>1708.76</ele>
        <time>2023-03-10T09:08:33Z</time>
      </trkpt>
      <trkpt lat="46.645608237013221" lon="12.3453120701015">
        <ele>1710.9000000000001</ele>
        <time>2023-03-10T09:08:44Z</time>
      </trkpt>
      <trkpt lat="46.645577307790518" lon="12.345288852229714">
        <ele>1711.97</ele>
        <time>2023-03-10T09:08:51Z</time>
      </trkpt>
      <trkpt lat="46.645582336932421" lon="12.345201848074794">
        <ele>1713.9200000000001</ele>
        <time>2023-03-10T09:09:06Z</time>
      </trkpt>
      <trkpt lat="46.645632376894355" lon="12.345107719302177">
        <ele>1715.72</ele>
        <time>2023-03-10T09:09:17Z</time>
      </trkpt>
      <trkpt lat="46.645659534260631" lon="12.345049967989326">
        <ele>1716.95</ele>
        <time>2023-03-10T09:09:30Z</time>
      </trkpt>
      <trkpt lat="46.645713010802865" lon="12.344997245818377">
        <ele>1718</ele>
        <time>2023-03-10T09:09:42Z</time>
      </trkpt>
      <trkpt lat="46.645748801529408" lon="12.344987606629729">
        <ele>1718.77</ele>
        <time>2023-03-10T09:09:53Z</time>
      </trkpt>
      <trkpt lat="46.645775036886334" lon="12.344993306323886">
        <ele>1719.9000000000001</ele>
        <time>2023-03-10T09:10:07Z</time>
      </trkpt>
      <trkpt lat="46.645795488730073" lon="12.344979308545589">
        <ele>1720.03</ele>
        <time>2023-03-10T09:10:23Z</time>
      </trkpt>
      <trkpt lat="46.6457923874259" lon="12.344937231391668">
        <ele>1720.4100000000001</ele>
        <time>2023-03-10T09:10:37Z</time>
      </trkpt>
      <trkpt lat="46.645793141797185" lon="12.344882413744926">
        <ele>1721.3699999999999</ele>
        <time>2023-03-10T09:10:53Z</time>
      </trkpt>
      <trkpt lat="46.645787442103028" lon="12.344761379063129">
        <ele>1724.4000000000001</ele>
        <time>2023-03-10T09:11:10Z</time>
      </trkpt>
      <trkpt lat="46.645735641941428" lon="12.344694491475821">
        <ele>1724.6600000000001</ele>
        <time>2023-03-10T09:11:25Z</time>
      </trkpt>
      <trkpt lat="46.645748214796185" lon="12.344573540613055">
        <ele>1727.3599999999999</ele>
        <time>2023-03-10T09:11:41Z</time>
      </trkpt>
      <trkpt lat="46.645726086571813" lon="12.344526434317231">
        <ele>1727.6500000000001</ele>
        <time>2023-03-10T09:11:50Z</time>
      </trkpt>
      <trkpt lat="46.645717788487673" lon="12.344440687447786">
        <ele>1730.1800000000001</ele>
        <time>2023-03-10T09:12:05Z</time>
      </trkpt>
      <trkpt lat="46.64569079875946" lon="12.344380421563983">
        <ele>1732.46</ele>
        <time>2023-03-10T09:12:18Z</time>
      </trkpt>
      <trkpt lat="46.645685601979494" lon="12.344305738806725">
        <ele>1734.49</ele>
        <time>2023-03-10T09:12:32Z</time>
      </trkpt>
      <trkpt lat="46.645650984719396" lon="12.344277324154973">
        <ele>1736.23</ele>
        <time>2023-03-10T09:12:43Z</time>
      </trkpt>
      <trkpt lat="46.645608488470316" lon="12.344239521771669">
        <ele>1737.77</ele>
        <time>2023-03-10T09:13:00Z</time>
      </trkpt>
      <trkpt lat="46.645589964464307" lon="12.344176573678851">
        <ele>1738.98</ele>
        <time>2023-03-10T09:13:15Z</time>
      </trkpt>
      <trkpt lat="46.645585857331753" lon="12.344161067157984">
        <ele>1738.54</ele>
        <time>2023-03-10T09:13:34Z</time>
      </trkpt>
      <trkpt lat="46.645586779341102" lon="12.344158384948969">
        <ele>1738.7</ele>
        <time>2023-03-10T09:13:40Z</time>
      </trkpt>
      <trkpt lat="46.645589461550117" lon="12.34415989369154">
        <ele>1739.1099999999999</ele>
        <time>2023-03-10T09:13:46Z</time>
      </trkpt>
      <trkpt lat="46.645609410479665" lon="12.344162240624428">
        <ele>1739.04</ele>
        <time>2023-03-10T09:13:54Z</time>
      </trkpt>
      <trkpt lat="46.645587533712387" lon="12.344131311401725">
        <ele>1740.6199999999999</ele>
        <time>2023-03-10T09:14:10Z</time>
      </trkpt>
      <trkpt lat="46.645587533712387" lon="12.344077248126268">
        <ele>1740.99</ele>
        <time>2023-03-10T09:14:16Z</time>
      </trkpt>
      <trkpt lat="46.645540343597531" lon="12.344038775190711">
        <ele>1744.0699999999999</ele>
        <time>2023-03-10T09:14:23Z</time>
      </trkpt>
      <trkpt lat="46.645486196503043" lon="12.343987142667174">
        <ele>1746.6800000000001</ele>
        <time>2023-03-10T09:14:34Z</time>
      </trkpt>
      <trkpt lat="46.645458620041609" lon="12.343896115198731">
        <ele>1749.1900000000001</ele>
        <time>2023-03-10T09:14:49Z</time>
      </trkpt>
      <trkpt lat="46.645434647798538" lon="12.343864683061838">
        <ele>1750.6500000000001</ele>
        <time>2023-03-10T09:14:59Z</time>
      </trkpt>
      <trkpt lat="46.645385948941112" lon="12.343834592029452">
        <ele>1751.5699999999999</ele>
        <time>2023-03-10T09:15:10Z</time>
      </trkpt>
      <trkpt lat="46.645329874008894" lon="12.343814056366682">
        <ele>1752.51</ele>
        <time>2023-03-10T09:15:21Z</time>
      </trkpt>
      <trkpt lat="46.64531696587801" lon="12.343765525147319">
        <ele>1753.4200000000001</ele>
        <time>2023-03-10T09:15:34Z</time>
      </trkpt>
      <trkpt lat="46.645364407449961" lon="12.343736859038472">
        <ele>1754.75</ele>
        <time>2023-03-10T09:15:51Z</time>
      </trkpt>
      <trkpt lat="46.645412687212229" lon="12.343691429123282">
        <ele>1755.4000000000001</ele>
        <time>2023-03-10T09:16:05Z</time>
      </trkpt>
      <trkpt lat="46.645486447960138" lon="12.343657230958343">
        <ele>1756.45</ele>
        <time>2023-03-10T09:16:19Z</time>
      </trkpt>
      <trkpt lat="46.645512096583843" lon="12.343624122440815">
        <ele>1756.4100000000001</ele>
        <time>2023-03-10T09:16:32Z</time>
      </trkpt>
      <trkpt lat="46.6455436963588" lon="12.343599144369364">
        <ele>1757.24</ele>
        <time>2023-03-10T09:16:47Z</time>
      </trkpt>
      <trkpt lat="46.645591137930751" lon="12.343537705019116">
        <ele>1758.02</ele>
        <time>2023-03-10T09:17:02Z</time>
      </trkpt>
      <trkpt lat="46.645564818754792" lon="12.343496130779386">
        <ele>1759.74</ele>
        <time>2023-03-10T09:17:14Z</time>
      </trkpt>
      <trkpt lat="46.645579738542438" lon="12.343413066118956">
        <ele>1762.52</ele>
        <time>2023-03-10T09:17:31Z</time>
      </trkpt>
      <trkpt lat="46.64551486261189" lon="12.343413066118956">
        <ele>1764.6600000000001</ele>
        <time>2023-03-10T09:17:40Z</time>
      </trkpt>
      <trkpt lat="46.645508408546448" lon="12.343431757763028">
        <ele>1765.3499999999999</ele>
        <time>2023-03-10T09:17:49Z</time>
      </trkpt>
      <trkpt lat="46.645517041906714" lon="12.343420358374715">
        <ele>1765.8499999999999</ele>
        <time>2023-03-10T09:18:00Z</time>
      </trkpt>
      <trkpt lat="46.645529279485345" lon="12.343423878774047">
        <ele>1766.1600000000001</ele>
        <time>2023-03-10T09:18:13Z</time>
      </trkpt>
      <trkpt lat="46.645531458780169" lon="12.343420190736651">
        <ele>1766.1700000000001</ele>
        <time>2023-03-10T09:18:27Z</time>
      </trkpt>
      <trkpt lat="46.645519221201539" lon="12.343414491042495">
        <ele>1765.8800000000001</ele>
        <time>2023-03-10T09:18:36Z</time>
      </trkpt>
      <trkpt lat="46.645459039136767" lon="12.343451706692576">
        <ele>1766.1900000000001</ele>
        <time>2023-03-10T09:18:43Z</time>
      </trkpt>
      <trkpt lat="46.64548996835947" lon="12.343437960371375">
        <ele>1766.01</ele>
        <time>2023-03-10T09:18:49Z</time>
      </trkpt>
      <trkpt lat="46.645481754094362" lon="12.343438798561692">
        <ele>1765.3900000000001</ele>
        <time>2023-03-10T09:18:58Z</time>
      </trkpt>
      <trkpt lat="46.645483430474997" lon="12.343431003391743">
        <ele>1765.1500000000001</ele>
        <time>2023-03-10T09:19:16Z</time>
      </trkpt>
      <trkpt lat="46.645515114068985" lon="12.343412563204765">
        <ele>1763.51</ele>
        <time>2023-03-10T09:19:30Z</time>
      </trkpt>
      <trkpt lat="46.645528273656964" lon="12.343402672559023">
        <ele>1762.6099999999999</ele>
        <time>2023-03-10T09:19:52Z</time>
      </trkpt>
      <trkpt lat="46.645540092140436" lon="12.343398565426469">
        <ele>1761.77</ele>
        <time>2023-03-10T09:20:09Z</time>
      </trkpt>
      <trkpt lat="46.645516455173492" lon="12.343420190736651">
        <ele>1762.1400000000001</ele>
        <time>2023-03-10T09:20:20Z</time>
      </trkpt>
      <trkpt lat="46.645495751872659" lon="12.343401415273547">
        <ele>1762.9300000000001</ele>
        <time>2023-03-10T09:20:34Z</time>
      </trkpt>
      <trkpt lat="46.645443616434932" lon="12.343348860740662">
        <ele>1766.3599999999999</ele>
        <time>2023-03-10T09:20:45Z</time>
      </trkpt>
      <trkpt lat="46.645385110750794" lon="12.343315165489912">
        <ele>1769.8199999999999</ele>
        <time>2023-03-10T09:20:57Z</time>
      </trkpt>
      <trkpt lat="46.645342782139778" lon="12.343252720311284">
        <ele>1772.71</ele>
        <time>2023-03-10T09:21:11Z</time>
      </trkpt>
      <trkpt lat="46.6453140322119" lon="12.34318264760077">
        <ele>1774.2</ele>
        <time>2023-03-10T09:21:24Z</time>
      </trkpt>
      <trkpt lat="46.645240690559149" lon="12.343121627345681">
        <ele>1777.1700000000001</ele>
        <time>2023-03-10T09:21:40Z</time>
      </trkpt>
      <trkpt lat="46.645256699994206" lon="12.343049291521311">
        <ele>1780.1500000000001</ele>
        <time>2023-03-10T09:21:54Z</time>
      </trkpt>
      <trkpt lat="46.645390307530761" lon="12.342977374792099">
        <ele>1784.47</ele>
        <time>2023-03-10T09:22:13Z</time>
      </trkpt>
      <trkpt lat="46.64548116736114" lon="12.342969495803118">
        <ele>1787.5</ele>
        <time>2023-03-10T09:22:28Z</time>
      </trkpt>
      <trkpt lat="46.645566243678331" lon="12.342949211597443">
        <ele>1790.5699999999999</ele>
        <time>2023-03-10T09:22:42Z</time>
      </trkpt>
      <trkpt lat="46.645595664158463" lon="12.342875199392438">
        <ele>1793.8199999999999</ele>
        <time>2023-03-10T09:22:59Z</time>
      </trkpt>
      <trkpt lat="46.645594825968146" lon="12.342835636809468">
        <ele>1795.5899999999999</ele>
        <time>2023-03-10T09:23:06Z</time>
      </trkpt>
      <trkpt lat="46.645614858716726" lon="12.342803282663226">
        <ele>1794.1900000000001</ele>
        <time>2023-03-10T09:23:15Z</time>
      </trkpt>
      <trkpt lat="46.645570602267981" lon="12.342708902433515">
        <ele>1796.6500000000001</ele>
        <time>2023-03-10T09:23:32Z</time>
      </trkpt>
      <trkpt lat="46.645490722730756" lon="12.342639164999127">
        <ele>1799.0999999999999</ele>
        <time>2023-03-10T09:23:47Z</time>
      </trkpt>
      <trkpt lat="46.645454512909055" lon="12.342621814459562">
        <ele>1800.8299999999999</ele>
        <time>2023-03-10T09:23:58Z</time>
      </trkpt>
      <trkpt lat="46.645439844578505" lon="12.342605218291283">
        <ele>1799.6400000000001</ele>
        <time>2023-03-10T09:24:04Z</time>
      </trkpt>
      <trkpt lat="46.645406568422914" lon="12.342508658766747">
        <ele>1800.03</ele>
        <time>2023-03-10T09:24:16Z</time>
      </trkpt>
      <trkpt lat="46.645394498482347" lon="12.342487955465913">
        <ele>1800.28</ele>
        <time>2023-03-10T09:24:19Z</time>
      </trkpt>
      <trkpt lat="46.645374214276671" lon="12.342485273256898">
        <ele>1800.5</ele>
        <time>2023-03-10T09:24:21Z</time>
      </trkpt>
      <trkpt lat="46.645373711362481" lon="12.342489212751389">
        <ele>1800.78</ele>
        <time>2023-03-10T09:24:29Z</time>
      </trkpt>
      <trkpt lat="46.645380835980177" lon="12.342490302398801">
        <ele>1801.0699999999999</ele>
        <time>2023-03-10T09:24:35Z</time>
      </trkpt>
      <trkpt lat="46.64538879878819" lon="12.342488123103976">
        <ele>1800.8699999999999</ele>
        <time>2023-03-10T09:24:43Z</time>
      </trkpt>
      <trkpt lat="46.64539810270071" lon="12.342481501400471">
        <ele>1799.8699999999999</ele>
        <time>2023-03-10T09:25:00Z</time>
      </trkpt>
      <trkpt lat="46.645406987518072" lon="12.342478483915329">
        <ele>1799.98</ele>
        <time>2023-03-10T09:25:18Z</time>
      </trkpt>
      <trkpt lat="46.645405227318406" lon="12.342482758685946">
        <ele>1799.28</ele>
        <time>2023-03-10T09:25:35Z</time>
      </trkpt>
      <trkpt lat="46.645403550937772" lon="12.342483261600137">
        <ele>1798.96</ele>
        <time>2023-03-10T09:25:40Z</time>
      </trkpt>
      <trkpt lat="46.64537513628602" lon="12.342435736209154">
        <ele>1799.6199999999999</ele>
        <time>2023-03-10T09:25:58Z</time>
      </trkpt>
      <trkpt lat="46.645347727462649" lon="12.342358455061913">
        <ele>1801.01</ele>
        <time>2023-03-10T09:26:14Z</time>
      </trkpt>
      <trkpt lat="46.645325934514403" lon="12.342298524454236">
        <ele>1802.8399999999999</ele>
        <time>2023-03-10T09:26:29Z</time>
      </trkpt>
      <trkpt lat="46.64529643021524" lon="12.34215997159481">
        <ele>1803.8499999999999</ele>
        <time>2023-03-10T09:26:46Z</time>
      </trkpt>
      <trkpt lat="46.645246306434274" lon="12.342101633548737">
        <ele>1805.3099999999999</ele>
        <time>2023-03-10T09:26:58Z</time>
      </trkpt>
      <trkpt lat="46.645232979208231" lon="12.342096185311675">
        <ele>1805.9200000000001</ele>
        <time>2023-03-10T09:27:00Z</time>
      </trkpt>
      <trkpt lat="46.64525787346065" lon="12.342073386535048">
        <ele>1805.78</ele>
        <time>2023-03-10T09:27:11Z</time>
      </trkpt>
      <trkpt lat="46.645201295614243" lon="12.341984789818525">
        <ele>1806.3399999999999</ele>
        <time>2023-03-10T09:27:24Z</time>
      </trkpt>
      <trkpt lat="46.645152764394879" lon="12.341913878917694">
        <ele>1807.3099999999999</ele>
        <time>2023-03-10T09:27:33Z</time>
      </trkpt>
      <trkpt lat="46.645100461319089" lon="12.341821007430553">
        <ele>1810.24</ele>
        <time>2023-03-10T09:27:47Z</time>
      </trkpt>
      <trkpt lat="46.644988479092717" lon="12.341796867549419">
        <ele>1812.1500000000001</ele>
        <time>2023-03-10T09:27:59Z</time>
      </trkpt>
      <trkpt lat="46.644930308684707" lon="12.341763507574797">
        <ele>1813.76</ele>
        <time>2023-03-10T09:28:05Z</time>
      </trkpt>
      <trkpt lat="46.644859481602907" lon="12.341667618602514">
        <ele>1816.22</ele>
        <time>2023-03-10T09:28:16Z</time>
      </trkpt>
      <trkpt lat="46.64482050575316" lon="12.341583129018545">
        <ele>1818.8399999999999</ele>
        <time>2023-03-10T09:28:28Z</time>
      </trkpt>
      <trkpt lat="46.644826624542475" lon="12.341476427391171">
        <ele>1821.8599999999999</ele>
        <time>2023-03-10T09:28:40Z</time>
      </trkpt>
      <trkpt lat="46.644842298701406" lon="12.341384813189507">
        <ele>1823.49</ele>
        <time>2023-03-10T09:28:53Z</time>
      </trkpt>
      <trkpt lat="46.644802987575531" lon="12.34128967858851">
        <ele>1825.3800000000001</ele>
        <time>2023-03-10T09:29:05Z</time>
      </trkpt>
      <trkpt lat="46.644770298153162" lon="12.341228825971484">
        <ele>1826.52</ele>
        <time>2023-03-10T09:29:12Z</time>
      </trkpt>
      <trkpt lat="46.644741296768188" lon="12.341195298358798">
        <ele>1827.47</ele>
        <time>2023-03-10T09:29:16Z</time>
      </trkpt>
      <trkpt lat="46.644640797749162" lon="12.341166129335761">
        <ele>1828.6300000000001</ele>
        <time>2023-03-10T09:29:28Z</time>
      </trkpt>
      <trkpt lat="46.644599558785558" lon="12.341107036918402">
        <ele>1828.8099999999999</ele>
        <time>2023-03-10T09:29:36Z</time>
      </trkpt>
      <trkpt lat="46.644544154405594" lon="12.341019865125418">
        <ele>1830.24</ele>
        <time>2023-03-10T09:29:48Z</time>
      </trkpt>
      <trkpt lat="46.644475003704429" lon="12.340939147397876">
        <ele>1832.74</ele>
        <time>2023-03-10T09:30:04Z</time>
      </trkpt>
      <trkpt lat="46.644467962905765" lon="12.340843761339784">
        <ele>1834.78</ele>
        <time>2023-03-10T09:30:18Z</time>
      </trkpt>
      <trkpt lat="46.644452372565866" lon="12.34073219820857">
        <ele>1835.8</ele>
        <time>2023-03-10T09:30:32Z</time>
      </trkpt>
      <trkpt lat="46.644442062824965" lon="12.340629519894719">
        <ele>1836.1300000000001</ele>
        <time>2023-03-10T09:30:44Z</time>
      </trkpt>
      <trkpt lat="46.644418342038989" lon="12.340530948713422">
        <ele>1838.8299999999999</ele>
        <time>2023-03-10T09:30:57Z</time>
      </trkpt>
      <trkpt lat="46.644409373402596" lon="12.340487530454993">
        <ele>1839.1800000000001</ele>
        <time>2023-03-10T09:31:11Z</time>
      </trkpt>
      <trkpt lat="46.644408199936152" lon="12.340496247634292">
        <ele>1838.1500000000001</ele>
        <time>2023-03-10T09:31:26Z</time>
      </trkpt>
      <trkpt lat="46.644409708678722" lon="12.340517621487379">
        <ele>1836.6900000000001</ele>
        <time>2023-03-10T09:31:56Z</time>
      </trkpt>
      <trkpt lat="46.644399566575885" lon="12.340528769418597">
        <ele>1835.8599999999999</ele>
        <time>2023-03-10T09:32:23Z</time>
      </trkpt>
      <trkpt lat="46.644393531605601" lon="12.340537905693054">
        <ele>1834.47</ele>
        <time>2023-03-10T09:32:54Z</time>
      </trkpt>
      <trkpt lat="46.644394537433982" lon="12.34053966589272">
        <ele>1833.9200000000001</ele>
        <time>2023-03-10T09:33:08Z</time>
      </trkpt>
      <trkpt lat="46.644384060055017" lon="12.34053430147469">
        <ele>1832.49</ele>
        <time>2023-03-10T09:33:19Z</time>
      </trkpt>
      <trkpt lat="46.644371654838324" lon="12.340434808284044">
        <ele>1833.4400000000001</ele>
        <time>2023-03-10T09:33:30Z</time>
      </trkpt>
      <trkpt lat="46.64439495652914" lon="12.340380074456334">
        <ele>1836.1199999999999</ele>
        <time>2023-03-10T09:33:41Z</time>
      </trkpt>
      <trkpt lat="46.644408954307437" lon="12.340327268466353">
        <ele>1837</ele>
        <time>2023-03-10T09:33:50Z</time>
      </trkpt>
      <trkpt lat="46.644383976235986" lon="12.340262811630964">
        <ele>1838.8399999999999</ele>
        <time>2023-03-10T09:33:59Z</time>
      </trkpt>
      <trkpt lat="46.644358327612281" lon="12.340218806639314">
        <ele>1840.52</ele>
        <time>2023-03-10T09:34:06Z</time>
      </trkpt>
      <trkpt lat="46.644291691482067" lon="12.340090312063694">
        <ele>1844.24</ele>
        <time>2023-03-10T09:34:21Z</time>
      </trkpt>
      <trkpt lat="46.644227067008615" lon="12.339941700920463">
        <ele>1847.79</ele>
        <time>2023-03-10T09:34:39Z</time>
      </trkpt>
      <trkpt lat="46.644208123907447" lon="12.339851511642337">
        <ele>1848.1300000000001</ele>
        <time>2023-03-10T09:34:48Z</time>
      </trkpt>
      <trkpt lat="46.644164202734828" lon="12.339737266302109">
        <ele>1850.0699999999999</ele>
        <time>2023-03-10T09:34:59Z</time>
      </trkpt>
      <trkpt lat="46.644144840538502" lon="12.339692255482078">
        <ele>1850.3399999999999</ele>
        <time>2023-03-10T09:35:03Z</time>
      </trkpt>
      <trkpt lat="46.644105613231659" lon="12.339606592431664">
        <ele>1850.53</ele>
        <time>2023-03-10T09:35:11Z</time>
      </trkpt>
      <trkpt lat="46.644018273800611" lon="12.339420598000288">
        <ele>1851.3299999999999</ele>
        <time>2023-03-10T09:35:27Z</time>
      </trkpt>
      <trkpt lat="46.6439273301512" lon="12.339296797290444">
        <ele>1852.6300000000001</ele>
        <time>2023-03-10T09:35:41Z</time>
      </trkpt>
      <trkpt lat="46.643857341259718" lon="12.339119520038366">
        <ele>1852.76</ele>
        <time>2023-03-10T09:35:55Z</time>
      </trkpt>
      <trkpt lat="46.643837979063392" lon="12.339008627459407">
        <ele>1853.6300000000001</ele>
        <time>2023-03-10T09:36:03Z</time>
      </trkpt>
      <trkpt lat="46.643834626302123" lon="12.338964873924851">
        <ele>1854.1099999999999</ele>
        <time>2023-03-10T09:36:06Z</time>
      </trkpt>
      <trkpt lat="46.64384133182466" lon="12.338787261396646">
        <ele>1855.98</ele>
        <time>2023-03-10T09:36:20Z</time>
      </trkpt>
      <trkpt lat="46.643801182508469" lon="12.338707214221358">
        <ele>1857.3399999999999</ele>
        <time>2023-03-10T09:36:32Z</time>
      </trkpt>
      <trkpt lat="46.643802523612976" lon="12.338696988299489">
        <ele>1856.73</ele>
        <time>2023-03-10T09:36:40Z</time>
      </trkpt>
      <trkpt lat="46.643793052062392" lon="12.338668992742896">
        <ele>1856.71</ele>
        <time>2023-03-10T09:36:42Z</time>
      </trkpt>
      <trkpt lat="46.643750891089439" lon="12.338521555066109">
        <ele>1858.1700000000001</ele>
        <time>2023-03-10T09:36:52Z</time>
      </trkpt>
      <trkpt lat="46.643742844462395" lon="12.338479729369283">
        <ele>1859.3900000000001</ele>
        <time>2023-03-10T09:36:55Z</time>
      </trkpt>
      <trkpt lat="46.643708059564233" lon="12.338294070214033">
        <ele>1860.78</ele>
        <time>2023-03-10T09:37:08Z</time>
      </trkpt>
      <trkpt lat="46.643676292151213" lon="12.338143698871136">
        <ele>1862.78</ele>
        <time>2023-03-10T09:37:20Z</time>
      </trkpt>
      <trkpt lat="46.643652487546206" lon="12.337998943403363">
        <ele>1864.6800000000001</ele>
        <time>2023-03-10T09:37:31Z</time>
      </trkpt>
      <trkpt lat="46.643650643527508" lon="12.337985783815384">
        <ele>1864.8900000000001</ele>
        <time>2023-03-10T09:37:32Z</time>
      </trkpt>
      <trkpt lat="46.643646787852049" lon="12.337812865152955">
        <ele>1866.6900000000001</ele>
        <time>2023-03-10T09:37:45Z</time>
      </trkpt>
      <trkpt lat="46.643669418990612" lon="12.337676323950291">
        <ele>1867.99</ele>
        <time>2023-03-10T09:37:56Z</time>
      </trkpt>
      <trkpt lat="46.643645782023668" lon="12.337485803291202">
        <ele>1870.55</ele>
        <time>2023-03-10T09:38:10Z</time>
      </trkpt>
      <trkpt lat="46.643669921904802" lon="12.337352531030774">
        <ele>1872.04</ele>
        <time>2023-03-10T09:38:21Z</time>
      </trkpt>
      <trkpt lat="46.643682662397623" lon="12.337309028953314">
        <ele>1872.98</ele>
        <time>2023-03-10T09:38:25Z</time>
      </trkpt>
      <trkpt lat="46.643707472831011" lon="12.3372682929039">
        <ele>1872.72</ele>
        <time>2023-03-10T09:38:29Z</time>
      </trkpt>
      <trkpt lat="46.643707389011979" lon="12.337012896314263">
        <ele>1871.74</ele>
        <time>2023-03-10T09:38:44Z</time>
      </trkpt>
      <trkpt lat="46.643685596063733" lon="12.33687836676836">
        <ele>1872.8199999999999</ele>
        <time>2023-03-10T09:38:56Z</time>
      </trkpt>
      <trkpt lat="46.643634047359228" lon="12.336775520816445">
        <ele>1874.73</ele>
        <time>2023-03-10T09:39:08Z</time>
      </trkpt>
      <trkpt lat="46.643601777032018" lon="12.336668986827135">
        <ele>1875.6600000000001</ele>
        <time>2023-03-10T09:39:22Z</time>
      </trkpt>
      <trkpt lat="46.643568417057395" lon="12.336562369018793">
        <ele>1876.4100000000001</ele>
        <time>2023-03-10T09:39:35Z</time>
      </trkpt>
      <trkpt lat="46.643524412065744" lon="12.336421217769384">
        <ele>1875.95</ele>
        <time>2023-03-10T09:39:48Z</time>
      </trkpt>
      <trkpt lat="46.643507648259401" lon="12.336325077340007">
        <ele>1876.04</ele>
        <time>2023-03-10T09:39:59Z</time>
      </trkpt>
      <trkpt lat="46.643509324640036" lon="12.336223907768726">
        <ele>1876.72</ele>
        <time>2023-03-10T09:40:09Z</time>
      </trkpt>
      <trkpt lat="46.643511671572924" lon="12.336057024076581">
        <ele>1877.52</ele>
        <time>2023-03-10T09:40:23Z</time>
      </trkpt>
      <trkpt lat="46.643504714593291" lon="12.335921907797456">
        <ele>1878.46</ele>
        <time>2023-03-10T09:40:36Z</time>
      </trkpt>
      <trkpt lat="46.643497589975595" lon="12.335910508409142">
        <ele>1877.9100000000001</ele>
        <time>2023-03-10T09:40:37Z</time>
      </trkpt>
      <trkpt lat="46.643498511984944" lon="12.335861474275589">
        <ele>1877.47</ele>
        <time>2023-03-10T09:40:43Z</time>
      </trkpt>
      <trkpt lat="46.643502283841372" lon="12.335842614993453">
        <ele>1878.05</ele>
        <time>2023-03-10T09:40:57Z</time>
      </trkpt>
      <trkpt lat="46.643512509763241" lon="12.335757035762072">
        <ele>1879</ele>
        <time>2023-03-10T09:41:13Z</time>
      </trkpt>
      <trkpt lat="46.643497925251722" lon="12.335682017728686">
        <ele>1878.73</ele>
        <time>2023-03-10T09:41:19Z</time>
      </trkpt>
      <trkpt lat="46.643492812290788" lon="12.335669696331024">
        <ele>1878.8399999999999</ele>
        <time>2023-03-10T09:41:20Z</time>
      </trkpt>
      <trkpt lat="46.643386529758573" lon="12.335550086572766">
        <ele>1879.8399999999999</ele>
        <time>2023-03-10T09:41:35Z</time>
      </trkpt>
      <trkpt lat="46.643289886415005" lon="12.33547699637711">
        <ele>1883.49</ele>
        <time>2023-03-10T09:41:49Z</time>
      </trkpt>
      <trkpt lat="46.643263315781951" lon="12.335457131266594">
        <ele>1883.8299999999999</ele>
        <time>2023-03-10T09:41:53Z</time>
      </trkpt>
      <trkpt lat="46.643179161474109" lon="12.335417484864593">
        <ele>1884.8599999999999</ele>
        <time>2023-03-10T09:42:05Z</time>
      </trkpt>
      <trkpt lat="46.643108250573277" lon="12.335381023585796">
        <ele>1885.5999999999999</ele>
        <time>2023-03-10T09:42:21Z</time>
      </trkpt>
      <trkpt lat="46.64305267855525" lon="12.335346573963761">
        <ele>1886.9400000000001</ele>
        <time>2023-03-10T09:42:35Z</time>
      </trkpt>
      <trkpt lat="46.643042117357254" lon="12.335337940603495">
        <ele>1885.6500000000001</ele>
        <time>2023-03-10T09:42:51Z</time>
      </trkpt>
      <trkpt lat="46.643038680776954" lon="12.335341544821858">
        <ele>1885.76</ele>
        <time>2023-03-10T09:43:13Z</time>
      </trkpt>
      <trkpt lat="46.643028119578958" lon="12.335326205939054">
        <ele>1885.26</ele>
        <time>2023-03-10T09:43:37Z</time>
      </trkpt>
      <trkpt lat="46.642977073788643" lon="12.335290750488639">
        <ele>1885.78</ele>
        <time>2023-03-10T09:43:48Z</time>
      </trkpt>
      <trkpt lat="46.642914628610015" lon="12.335264598950744">
        <ele>1886.76</ele>
        <time>2023-03-10T09:43:59Z</time>
      </trkpt>
      <trkpt lat="46.642861738801003" lon="12.33525219373405">
        <ele>1888.3800000000001</ele>
        <time>2023-03-10T09:44:11Z</time>
      </trkpt>
      <trkpt lat="46.642812537029386" lon="12.335228221490979">
        <ele>1890.1600000000001</ele>
        <time>2023-03-10T09:44:22Z</time>
      </trkpt>
      <trkpt lat="46.642826115712523" lon="12.335199890658259">
        <ele>1890.1700000000001</ele>
        <time>2023-03-10T09:44:31Z</time>
      </trkpt>
      <trkpt lat="46.642849920317531" lon="12.335128476843238">
        <ele>1891.1199999999999</ele>
        <time>2023-03-10T09:44:44Z</time>
      </trkpt>
      <trkpt lat="46.642896858975291" lon="12.335102744400501">
        <ele>1892.0999999999999</ele>
        <time>2023-03-10T09:44:57Z</time>
      </trkpt>
      <trkpt lat="46.642908174544573" lon="12.335109617561102">
        <ele>1892.48</ele>
        <time>2023-03-10T09:45:15Z</time>
      </trkpt>
      <trkpt lat="46.642918400466442" lon="12.335119340568781">
        <ele>1893.0899999999999</ele>
        <time>2023-03-10T09:45:42Z</time>
      </trkpt>
      <trkpt lat="46.642963495105505" lon="12.335123782977462">
        <ele>1894.48</ele>
        <time>2023-03-10T09:45:55Z</time>
      </trkpt>
      <trkpt lat="46.642960058525205" lon="12.335136523470283">
        <ele>1894.97</ele>
        <time>2023-03-10T09:46:10Z</time>
      </trkpt>
      <trkpt lat="46.642980594187975" lon="12.335131410509348">
        <ele>1896.1199999999999</ele>
        <time>2023-03-10T09:46:24Z</time>
      </trkpt>
      <trkpt lat="46.643031053245068" lon="12.335101068019867">
        <ele>1896.95</ele>
        <time>2023-03-10T09:46:30Z</time>
      </trkpt>
      <trkpt lat="46.643079165369272" lon="12.33506946824491">
        <ele>1899.04</ele>
        <time>2023-03-10T09:46:39Z</time>
      </trkpt>
      <trkpt lat="46.643011104315519" lon="12.334992857649922">
        <ele>1901.3900000000001</ele>
        <time>2023-03-10T09:46:52Z</time>
      </trkpt>
      <trkpt lat="46.642970871180296" lon="12.334963688626885">
        <ele>1902.6099999999999</ele>
        <time>2023-03-10T09:47:04Z</time>
      </trkpt>
      <trkpt lat="46.642957208678126" lon="12.334938962012529">
        <ele>1903.0699999999999</ele>
        <time>2023-03-10T09:47:16Z</time>
      </trkpt>
      <trkpt lat="46.642931057140231" lon="12.334895292297006">
        <ele>1904.72</ele>
        <time>2023-03-10T09:47:32Z</time>
      </trkpt>
      <trkpt lat="46.642908174544573" lon="12.334854640066624">
        <ele>1905.5699999999999</ele>
        <time>2023-03-10T09:47:42Z</time>
      </trkpt>
      <trkpt lat="46.642905492335558" lon="12.334851454943419">
        <ele>1906.4100000000001</ele>
        <time>2023-03-10T09:47:53Z</time>
      </trkpt>
      <trkpt lat="46.64290071465075" lon="12.334847850725055">
        <ele>1907.9200000000001</ele>
        <time>2023-03-10T09:48:11Z</time>
      </trkpt>
      <trkpt lat="46.642895266413689" lon="12.334814574569464">
        <ele>1908.6700000000001</ele>
        <time>2023-03-10T09:48:29Z</time>
      </trkpt>
      <trkpt lat="46.642795605584979" lon="12.334783561527729">
        <ele>1908.51</ele>
        <time>2023-03-10T09:48:42Z</time>
      </trkpt>
      <trkpt lat="46.642738608643413" lon="12.334778280928731">
        <ele>1907.76</ele>
        <time>2023-03-10T09:48:49Z</time>
      </trkpt>
      <trkpt lat="46.642661076039076" lon="12.334766462445259">
        <ele>1908.45</ele>
        <time>2023-03-10T09:49:01Z</time>
      </trkpt>
      <trkpt lat="46.642605168744922" lon="12.334685996174812">
        <ele>1911.53</ele>
        <time>2023-03-10T09:49:14Z</time>
      </trkpt>
      <trkpt lat="46.642570802941918" lon="12.334648026153445">
        <ele>1912.0699999999999</ele>
        <time>2023-03-10T09:49:20Z</time>
      </trkpt>
      <trkpt lat="46.642543813213706" lon="12.334615336731076">
        <ele>1911.3800000000001</ele>
        <time>2023-03-10T09:49:26Z</time>
      </trkpt>
      <trkpt lat="46.642525875940919" lon="12.33457543887198">
        <ele>1912.48</ele>
        <time>2023-03-10T09:49:32Z</time>
      </trkpt>
      <trkpt lat="46.642493354156613" lon="12.334499750286341">
        <ele>1914.1500000000001</ele>
        <time>2023-03-10T09:49:44Z</time>
      </trkpt>
      <trkpt lat="46.642472902312875" lon="12.334428001195192">
        <ele>1911.3900000000001</ele>
        <time>2023-03-10T09:49:55Z</time>
      </trkpt>
      <trkpt lat="46.642431998625398" lon="12.334343679249287">
        <ele>1912.9100000000001</ele>
        <time>2023-03-10T09:50:07Z</time>
      </trkpt>
      <trkpt lat="46.642391346395016" lon="12.334283497184515">
        <ele>1914.4000000000001</ele>
        <time>2023-03-10T09:50:19Z</time>
      </trkpt>
      <trkpt lat="46.642355723306537" lon="12.334268661215901">
        <ele>1916.51</ele>
        <time>2023-03-10T09:50:31Z</time>
      </trkpt>
      <trkpt lat="46.642346335574985" lon="12.334260530769825">
        <ele>1916.6199999999999</ele>
        <time>2023-03-10T09:50:35Z</time>
      </trkpt>
      <trkpt lat="46.642345162108541" lon="12.334268242120743">
        <ele>1918.8099999999999</ele>
        <time>2023-03-10T09:50:41Z</time>
      </trkpt>
      <trkpt lat="46.642343066632748" lon="12.334267236292362">
        <ele>1919.27</ele>
        <time>2023-03-10T09:50:54Z</time>
      </trkpt>
      <trkpt lat="46.642350358888507" lon="12.33427201397717">
        <ele>1920.45</ele>
        <time>2023-03-10T09:51:10Z</time>
      </trkpt>
      <trkpt lat="46.642313562333584" lon="12.334225913509727">
        <ele>1920.8599999999999</ele>
        <time>2023-03-10T09:51:24Z</time>
      </trkpt>
      <trkpt lat="46.642251117154956" lon="12.334142010658979">
        <ele>1922.0599999999999</ele>
        <time>2023-03-10T09:51:40Z</time>
      </trkpt>
      <trkpt lat="46.642209962010384" lon="12.334054335951805">
        <ele>1924.2</ele>
        <time>2023-03-10T09:51:57Z</time>
      </trkpt>
      <trkpt lat="46.642197472974658" lon="12.333966493606567">
        <ele>1925.78</ele>
        <time>2023-03-10T09:52:12Z</time>
      </trkpt>
      <trkpt lat="46.642184816300869" lon="12.333888541907072">
        <ele>1927.01</ele>
        <time>2023-03-10T09:52:27Z</time>
      </trkpt>
      <trkpt lat="46.642172411084175" lon="12.33379608951509">
        <ele>1928.8299999999999</ele>
        <time>2023-03-10T09:52:42Z</time>
      </trkpt>
      <trkpt lat="46.642182469367981" lon="12.333788881078362">
        <ele>1931.1300000000001</ele>
        <time>2023-03-10T09:52:58Z</time>
      </trkpt>
      <trkpt lat="46.642190599814057" lon="12.333780163899064">
        <ele>1933.48</ele>
        <time>2023-03-10T09:53:27Z</time>
      </trkpt>
      <trkpt lat="46.642192611470819" lon="12.333757448941469">
        <ele>1936.54</ele>
        <time>2023-03-10T09:53:54Z</time>
      </trkpt>
      <trkpt lat="46.642171740531921" lon="12.333628032356501">
        <ele>1938.05</ele>
        <time>2023-03-10T09:54:10Z</time>
      </trkpt>
      <trkpt lat="46.642158078029752" lon="12.333496687933803">
        <ele>1940.3699999999999</ele>
        <time>2023-03-10T09:54:26Z</time>
      </trkpt>
      <trkpt lat="46.642140978947282" lon="12.333443211391568">
        <ele>1941.74</ele>
        <time>2023-03-10T09:54:37Z</time>
      </trkpt>
      <trkpt lat="46.642155228182673" lon="12.33335386030376">
        <ele>1942.8299999999999</ele>
        <time>2023-03-10T09:54:49Z</time>
      </trkpt>
      <trkpt lat="46.642138883471489" lon="12.333350339904428">
        <ele>1943.9000000000001</ele>
        <time>2023-03-10T09:55:06Z</time>
      </trkpt>
      <trkpt lat="46.642167465761304" lon="12.333352351561189">
        <ele>1946.3800000000001</ele>
        <time>2023-03-10T09:55:35Z</time>
      </trkpt>
      <trkpt lat="46.642159502953291" lon="12.333367019891739">
        <ele>1949.0999999999999</ele>
        <time>2023-03-10T09:56:14Z</time>
      </trkpt>
      <trkpt lat="46.642169896513224" lon="12.333359308540821">
        <ele>1949.3199999999999</ele>
        <time>2023-03-10T09:56:49Z</time>
      </trkpt>
      <trkpt lat="46.642161011695862" lon="12.333369618281722">
        <ele>1949.1300000000001</ele>
        <time>2023-03-10T09:57:10Z</time>
      </trkpt>
      <trkpt lat="46.642158916220069" lon="12.333381855860353">
        <ele>1949.8</ele>
        <time>2023-03-10T09:57:44Z</time>
      </trkpt>
      <trkpt lat="46.642158329486847" lon="12.333415802568197">
        <ele>1951.0599999999999</ele>
        <time>2023-03-10T09:58:27Z</time>
      </trkpt>
      <trkpt lat="46.642143409699202" lon="12.333385543897748">
        <ele>1950.8299999999999</ele>
        <time>2023-03-10T09:59:09Z</time>
      </trkpt>
      <trkpt lat="46.642143661156297" lon="12.333381520584226">
        <ele>1950.46</ele>
        <time>2023-03-10T09:59:24Z</time>
      </trkpt>
      <trkpt lat="46.64213846437633" lon="12.333362912759185">
        <ele>1950.8699999999999</ele>
        <time>2023-03-10T09:59:40Z</time>
      </trkpt>
      <trkpt lat="46.642150785773993" lon="12.33333240263164">
        <ele>1951.0899999999999</ele>
        <time>2023-03-10T10:00:00Z</time>
      </trkpt>
      <trkpt lat="46.642093788832426" lon="12.333144899457693">
        <ele>1951.3299999999999</ele>
        <time>2023-03-10T10:00:15Z</time>
      </trkpt>
      <trkpt lat="46.642084820196033" lon="12.33309980481863">
        <ele>1951.96</ele>
        <time>2023-03-10T10:00:19Z</time>
      </trkpt>
      <trkpt lat="46.642061853781343" lon="12.332938117906451">
        <ele>1953.54</ele>
        <time>2023-03-10T10:00:31Z</time>
      </trkpt>
      <trkpt lat="46.642059339210391" lon="12.332924203947186">
        <ele>1953.3699999999999</ele>
        <time>2023-03-10T10:00:32Z</time>
      </trkpt>
      <trkpt lat="46.642020950093865" lon="12.332822950556874">
        <ele>1953.51</ele>
        <time>2023-03-10T10:00:41Z</time>
      </trkpt>
      <trkpt lat="46.64194542914629" lon="12.332693533971906">
        <ele>1954.78</ele>
        <time>2023-03-10T10:00:55Z</time>
      </trkpt>
      <trkpt lat="46.641876697540283" lon="12.332561099901795">
        <ele>1955.6800000000001</ele>
        <time>2023-03-10T10:01:07Z</time>
      </trkpt>
      <trkpt lat="46.641807211562991" lon="12.332406034693122">
        <ele>1959.3199999999999</ele>
        <time>2023-03-10T10:01:22Z</time>
      </trkpt>
      <trkpt lat="46.64174216799438" lon="12.332291873171926">
        <ele>1959.8099999999999</ele>
        <time>2023-03-10T10:01:37Z</time>
      </trkpt>
      <trkpt lat="46.641728170216084" lon="12.332205958664417">
        <ele>1961.97</ele>
        <time>2023-03-10T10:01:51Z</time>
      </trkpt>
      <trkpt lat="46.641762033104897" lon="12.332146698608994">
        <ele>1963.6500000000001</ele>
        <time>2023-03-10T10:02:06Z</time>
      </trkpt>
      <trkpt lat="46.641798494383693" lon="12.332096993923187">
        <ele>1965.4400000000001</ele>
        <time>2023-03-10T10:02:19Z</time>
      </trkpt>
      <trkpt lat="46.641779886558652" lon="12.332064053043723">
        <ele>1965.9200000000001</ele>
        <time>2023-03-10T10:02:33Z</time>
      </trkpt>
      <trkpt lat="46.641776282340288" lon="12.332067489624023">
        <ele>1966.1700000000001</ele>
        <time>2023-03-10T10:02:49Z</time>
      </trkpt>
      <trkpt lat="46.641767397522926" lon="12.332070004194975">
        <ele>1965.5999999999999</ele>
        <time>2023-03-10T10:03:07Z</time>
      </trkpt>
      <trkpt lat="46.641737222671509" lon="12.332011498510838">
        <ele>1965.74</ele>
        <time>2023-03-10T10:03:26Z</time>
      </trkpt>
      <trkpt lat="46.641704952344298" lon="12.331936815753579">
        <ele>1966.8099999999999</ele>
        <time>2023-03-10T10:03:40Z</time>
      </trkpt>
      <trkpt lat="46.641697911545634" lon="12.331852745264769">
        <ele>1968.0699999999999</ele>
        <time>2023-03-10T10:03:51Z</time>
      </trkpt>
      <trkpt lat="46.641666479408741" lon="12.331733219325542">
        <ele>1971.1199999999999</ele>
        <time>2023-03-10T10:04:03Z</time>
      </trkpt>
      <trkpt lat="46.641619792208076" lon="12.331644790247083">
        <ele>1975.6700000000001</ele>
        <time>2023-03-10T10:04:16Z</time>
      </trkpt>
      <trkpt lat="46.641595987603068" lon="12.331602210178971">
        <ele>1974.6099999999999</ele>
        <time>2023-03-10T10:04:33Z</time>
      </trkpt>
      <trkpt lat="46.64156966842711" lon="12.331592822447419">
        <ele>1976.47</ele>
        <time>2023-03-10T10:04:48Z</time>
      </trkpt>
      <trkpt lat="46.641551479697227" lon="12.33160019852221">
        <ele>1977.6300000000001</ele>
        <time>2023-03-10T10:05:05Z</time>
      </trkpt>
      <trkpt lat="46.641545193269849" lon="12.331676473841071">
        <ele>1977.74</ele>
        <time>2023-03-10T10:05:23Z</time>
      </trkpt>
      <trkpt lat="46.641542511060834" lon="12.331656021997333">
        <ele>1977.8800000000001</ele>
        <time>2023-03-10T10:05:35Z</time>
      </trkpt>
      <trkpt lat="46.641522645950317" lon="12.331651747226715">
        <ele>1977.8699999999999</ele>
        <time>2023-03-10T10:05:52Z</time>
      </trkpt>
      <trkpt lat="46.641504876315594" lon="12.331633223220706">
        <ele>1977.96</ele>
        <time>2023-03-10T10:06:11Z</time>
      </trkpt>
      <trkpt lat="46.64147486910224" lon="12.331598773598671">
        <ele>1978.3900000000001</ele>
        <time>2023-03-10T10:06:18Z</time>
      </trkpt>
      <trkpt lat="46.641468247398734" lon="12.331588212400675">
        <ele>1978.6199999999999</ele>
        <time>2023-03-10T10:06:19Z</time>
      </trkpt>
      <trkpt lat="46.641433294862509" lon="12.331475811079144">
        <ele>1978.9100000000001</ele>
        <time>2023-03-10T10:06:33Z</time>
      </trkpt>
      <trkpt lat="46.641422398388386" lon="12.331382017582655">
        <ele>1979.8299999999999</ele>
        <time>2023-03-10T10:06:46Z</time>
      </trkpt>
      <trkpt lat="46.641432708129287" lon="12.331377742812037">
        <ele>1980.5599999999999</ele>
        <time>2023-03-10T10:06:48Z</time>
      </trkpt>
      <trkpt lat="46.64152180776" lon="12.331389728933573">
        <ele>1985.01</ele>
        <time>2023-03-10T10:07:01Z</time>
      </trkpt>
      <trkpt lat="46.641624486073852" lon="12.331330385059118">
        <ele>1988.6300000000001</ele>
        <time>2023-03-10T10:07:17Z</time>
      </trkpt>
      <trkpt lat="46.641692295670509" lon="12.331289397552609">
        <ele>1990.8800000000001</ele>
        <time>2023-03-10T10:07:32Z</time>
      </trkpt>
      <trkpt lat="46.641691876575351" lon="12.331279590725899">
        <ele>1992.0999999999999</ele>
        <time>2023-03-10T10:07:44Z</time>
      </trkpt>
      <trkpt lat="46.641728170216084" lon="12.331266347318888">
        <ele>1993.28</ele>
        <time>2023-03-10T10:08:05Z</time>
      </trkpt>
      <trkpt lat="46.64177879691124" lon="12.331116395071149">
        <ele>1994.3499999999999</ele>
        <time>2023-03-10T10:08:24Z</time>
      </trkpt>
      <trkpt lat="46.641708053648472" lon="12.331059230491519">
        <ele>1995.47</ele>
        <time>2023-03-10T10:08:39Z</time>
      </trkpt>
      <trkpt lat="46.641688942909241" lon="12.331039784476161">
        <ele>1996.3299999999999</ele>
        <time>2023-03-10T10:08:53Z</time>
      </trkpt>
      <trkpt lat="46.641682405024767" lon="12.331051770597696">
        <ele>1996.9400000000001</ele>
        <time>2023-03-10T10:09:16Z</time>
      </trkpt>
      <trkpt lat="46.641679052263498" lon="12.331047328189015">
        <ele>1997.6900000000001</ele>
        <time>2023-03-10T10:09:36Z</time>
      </trkpt>
      <trkpt lat="46.641675028949976" lon="12.331037856638432">
        <ele>1999.01</ele>
        <time>2023-03-10T10:09:56Z</time>
      </trkpt>
      <trkpt lat="46.641669413074851" lon="12.331046489998698">
        <ele>2000.4400000000001</ele>
        <time>2023-03-10T10:10:27Z</time>
      </trkpt>
      <trkpt lat="46.641635298728943" lon="12.33099427074194">
        <ele>2000.7</ele>
        <time>2023-03-10T10:10:42Z</time>
      </trkpt>
      <trkpt lat="46.64156380109489" lon="12.330889916047454">
        <ele>2003.3199999999999</ele>
        <time>2023-03-10T10:10:58Z</time>
      </trkpt>
      <trkpt lat="46.641512252390385" lon="12.33084674924612">
        <ele>2006.03</ele>
        <time>2023-03-10T10:11:11Z</time>
      </trkpt>
      <trkpt lat="46.641450729221106" lon="12.330768629908562">
        <ele>2008.3800000000001</ele>
        <time>2023-03-10T10:11:26Z</time>
      </trkpt>
      <trkpt lat="46.64138593710959" lon="12.330680703744292">
        <ele>2011.0999999999999</ele>
        <time>2023-03-10T10:11:42Z</time>
      </trkpt>
      <trkpt lat="46.641328101977706" lon="12.330599902197719">
        <ele>2012</ele>
        <time>2023-03-10T10:11:57Z</time>
      </trkpt>
      <trkpt lat="46.64130387827754" lon="12.33057894743979">
        <ele>2012.6900000000001</ele>
        <time>2023-03-10T10:12:12Z</time>
      </trkpt>
      <trkpt lat="46.641299352049828" lon="12.330565452575684">
        <ele>2013.8099999999999</ele>
        <time>2023-03-10T10:12:30Z</time>
      </trkpt>
      <trkpt lat="46.641287701204419" lon="12.330548604950309">
        <ele>2014.49</ele>
        <time>2023-03-10T10:13:00Z</time>
      </trkpt>
      <trkpt lat="46.641242355108261" lon="12.330477861687541">
        <ele>2014.8699999999999</ele>
        <time>2023-03-10T10:13:13Z</time>
      </trkpt>
      <trkpt lat="46.641190638765693" lon="12.33034928329289">
        <ele>2016.5799999999999</ele>
        <time>2023-03-10T10:13:31Z</time>
      </trkpt>
      <trkpt lat="46.641161134466529" lon="12.330268817022443">
        <ele>2018.28</ele>
        <time>2023-03-10T10:13:43Z</time>
      </trkpt>
      <trkpt lat="46.641143951565027" lon="12.330164881423116">
        <ele>2018.79</ele>
        <time>2023-03-10T10:13:57Z</time>
      </trkpt>
      <trkpt lat="46.641127355396748" lon="12.330088270828128">
        <ele>2019.5899999999999</ele>
        <time>2023-03-10T10:14:09Z</time>
      </trkpt>
      <trkpt lat="46.641108496114612" lon="12.330080224201083">
        <ele>2020.3099999999999</ele>
        <time>2023-03-10T10:14:23Z</time>
      </trkpt>
      <trkpt lat="46.641119392588735" lon="12.330070836469531">
        <ele>2020.4200000000001</ele>
        <time>2023-03-10T10:14:37Z</time>
      </trkpt>
      <trkpt lat="46.641133558005095" lon="12.330073015764356">
        <ele>2020.9300000000001</ele>
        <time>2023-03-10T10:14:54Z</time>
      </trkpt>
      <trkpt lat="46.641127858310938" lon="12.330107633024454">
        <ele>2020.6500000000001</ele>
        <time>2023-03-10T10:15:04Z</time>
      </trkpt>
      <trkpt lat="46.641126098111272" lon="12.330112662166357">
        <ele>2020.5699999999999</ele>
        <time>2023-03-10T10:15:21Z</time>
      </trkpt>
      <trkpt lat="46.641136072576046" lon="12.330121463164687">
        <ele>2020.98</ele>
        <time>2023-03-10T10:15:43Z</time>
      </trkpt>
      <trkpt lat="46.641154512763023" lon="12.330073518678546">
        <ele>2022.03</ele>
        <time>2023-03-10T10:15:56Z</time>
      </trkpt>
      <trkpt lat="46.641156189143658" lon="12.330034961923957">
        <ele>2022.8299999999999</ele>
        <time>2023-03-10T10:16:13Z</time>
      </trkpt>
      <trkpt lat="46.641150824725628" lon="12.330028088763356">
        <ele>2023.1500000000001</ele>
        <time>2023-03-10T10:16:28Z</time>
      </trkpt>
      <trkpt lat="46.641149986535311" lon="12.330024484544992">
        <ele>2022.8900000000001</ele>
        <time>2023-03-10T10:16:54Z</time>
      </trkpt>
      <trkpt lat="46.641142861917615" lon="12.330021047964692">
        <ele>2023.02</ele>
        <time>2023-03-10T10:17:10Z</time>
      </trkpt>
      <trkpt lat="46.641150992363691" lon="12.330011911690235">
        <ele>2023.05</ele>
        <time>2023-03-10T10:17:28Z</time>
      </trkpt>
      <trkpt lat="46.641152836382389" lon="12.329932786524296">
        <ele>2023.45</ele>
        <time>2023-03-10T10:17:40Z</time>
      </trkpt>
      <trkpt lat="46.641168091446161" lon="12.329833209514618">
        <ele>2025.8199999999999</ele>
        <time>2023-03-10T10:17:53Z</time>
      </trkpt>
      <trkpt lat="46.641184687614441" lon="12.329781912267208">
        <ele>2026.5999999999999</ele>
        <time>2023-03-10T10:18:07Z</time>
      </trkpt>
      <trkpt lat="46.64117437787354" lon="12.32976732775569">
        <ele>2026.9100000000001</ele>
        <time>2023-03-10T10:18:27Z</time>
      </trkpt>
      <trkpt lat="46.641169600188732" lon="12.329758862033486">
        <ele>2027.1400000000001</ele>
        <time>2023-03-10T10:18:50Z</time>
      </trkpt>
      <trkpt lat="46.641171360388398" lon="12.329747378826141">
        <ele>2026.9200000000001</ele>
        <time>2023-03-10T10:19:17Z</time>
      </trkpt>
      <trkpt lat="46.641190722584724" lon="12.329641599208117">
        <ele>2027.6800000000001</ele>
        <time>2023-03-10T10:19:32Z</time>
      </trkpt>
      <trkpt lat="46.641218047589064" lon="12.329525342211127">
        <ele>2029.5799999999999</ele>
        <time>2023-03-10T10:19:47Z</time>
      </trkpt>
      <trkpt lat="46.641232213005424" lon="12.32939844019711">
        <ele>2032.1400000000001</ele>
        <time>2023-03-10T10:20:02Z</time>
      </trkpt>
      <trkpt lat="46.641281582415104" lon="12.329337168484926">
        <ele>2035.1300000000001</ele>
        <time>2023-03-10T10:20:16Z</time>
      </trkpt>
      <trkpt lat="46.64139037951827" lon="12.329419814050198">
        <ele>2041.78</ele>
        <time>2023-03-10T10:20:32Z</time>
      </trkpt>
      <trkpt lat="46.641456261277199" lon="12.32948930002749">
        <ele>2044.53</ele>
        <time>2023-03-10T10:20:46Z</time>
      </trkpt>
      <trkpt lat="46.641527088358998" lon="12.329520061612129">
        <ele>2046.0999999999999</ele>
        <time>2023-03-10T10:20:58Z</time>
      </trkpt>
      <trkpt lat="46.641605459153652" lon="12.329559791833162">
        <ele>2048.1599999999999</ele>
        <time>2023-03-10T10:21:11Z</time>
      </trkpt>
      <trkpt lat="46.641672514379025" lon="12.329573789611459">
        <ele>2049.8899999999999</ele>
        <time>2023-03-10T10:21:23Z</time>
      </trkpt>
      <trkpt lat="46.641705119982362" lon="12.329607484862208">
        <ele>2051.1700000000001</ele>
        <time>2023-03-10T10:21:38Z</time>
      </trkpt>
      <trkpt lat="46.64173143915832" lon="12.329584015533328">
        <ele>2052.0500000000002</ele>
        <time>2023-03-10T10:21:48Z</time>
      </trkpt>
      <trkpt lat="46.641701515763998" lon="12.329476978629827">
        <ele>2054.0900000000001</ele>
        <time>2023-03-10T10:22:00Z</time>
      </trkpt>
      <trkpt lat="46.641715848818421" lon="12.32938670553267">
        <ele>2056.0799999999999</ele>
        <time>2023-03-10T10:22:12Z</time>
      </trkpt>
      <trkpt lat="46.641794219613075" lon="12.329405480995774">
        <ele>2057.1900000000001</ele>
        <time>2023-03-10T10:22:25Z</time>
      </trkpt>
      <trkpt lat="46.641847193241119" lon="12.329406319186091">
        <ele>2057.5700000000002</ele>
        <time>2023-03-10T10:22:36Z</time>
      </trkpt>
      <trkpt lat="46.641928246244788" lon="12.329406067728996">
        <ele>2060.1900000000001</ele>
        <time>2023-03-10T10:22:51Z</time>
      </trkpt>
      <trkpt lat="46.641990020871162" lon="12.329405061900616">
        <ele>2062.2399999999998</ele>
        <time>2023-03-10T10:23:02Z</time>
      </trkpt>
      <trkpt lat="46.642058081924915" lon="12.329391147941351">
        <ele>2064.1300000000001</ele>
        <time>2023-03-10T10:23:16Z</time>
      </trkpt>
      <trkpt lat="46.642051879316568" lon="12.329321578145027">
        <ele>2066.5500000000002</ele>
        <time>2023-03-10T10:23:29Z</time>
      </trkpt>
      <trkpt lat="46.642024219036102" lon="12.329269107431173">
        <ele>2067.5</ele>
        <time>2023-03-10T10:23:38Z</time>
      </trkpt>
      <trkpt lat="46.642005946487188" lon="12.329196268692613">
        <ele>2068.5700000000002</ele>
        <time>2023-03-10T10:23:50Z</time>
      </trkpt>
      <trkpt lat="46.641996810212731" lon="12.329130303114653">
        <ele>2068.1900000000001</ele>
        <time>2023-03-10T10:24:05Z</time>
      </trkpt>
      <trkpt lat="46.641990775242448" lon="12.329090824350715">
        <ele>2068.8299999999999</ele>
        <time>2023-03-10T10:24:17Z</time>
      </trkpt>
      <trkpt lat="46.641974095255136" lon="12.329037515446544">
        <ele>2069.0700000000002</ele>
        <time>2023-03-10T10:24:44Z</time>
      </trkpt>
      <trkpt lat="46.642018184065819" lon="12.32902854681015">
        <ele>2069.9299999999998</ele>
        <time>2023-03-10T10:24:54Z</time>
      </trkpt>
      <trkpt lat="46.64205833338201" lon="12.328952103853226">
        <ele>2071.0100000000002</ele>
        <time>2023-03-10T10:25:08Z</time>
      </trkpt>
      <trkpt lat="46.64210133254528" lon="12.32889368198812">
        <ele>2073.6500000000001</ele>
        <time>2023-03-10T10:25:23Z</time>
      </trkpt>
      <trkpt lat="46.642102338373661" lon="12.328871386125684">
        <ele>2073.6500000000001</ele>
        <time>2023-03-10T10:25:45Z</time>
      </trkpt>
      <trkpt lat="46.642157156020403" lon="12.328834421932697">
        <ele>2075.6999999999998</ele>
        <time>2023-03-10T10:26:00Z</time>
      </trkpt>
      <trkpt lat="46.642201999202371" lon="12.328824866563082">
        <ele>2076.8000000000002</ele>
        <time>2023-03-10T10:26:15Z</time>
      </trkpt>
      <trkpt lat="46.642293864861131" lon="12.328817322850227">
        <ele>2078.8099999999999</ele>
        <time>2023-03-10T10:26:32Z</time>
      </trkpt>
      <trkpt lat="46.64230945520103" lon="12.328784968703985">
        <ele>2079.4099999999999</ele>
        <time>2023-03-10T10:26:46Z</time>
      </trkpt>
      <trkpt lat="46.642294283956289" lon="12.328733084723353">
        <ele>2080.79</ele>
        <time>2023-03-10T10:26:59Z</time>
      </trkpt>
      <trkpt lat="46.642293194308877" lon="12.328723445534706">
        <ele>2081.7399999999998</ele>
        <time>2023-03-10T10:27:16Z</time>
      </trkpt>
      <trkpt lat="46.642317082732916" lon="12.328649433329701">
        <ele>2082.6700000000001</ele>
        <time>2023-03-10T10:27:31Z</time>
      </trkpt>
      <trkpt lat="46.642374079674482" lon="12.328627808019519">
        <ele>2085.7399999999998</ele>
        <time>2023-03-10T10:27:46Z</time>
      </trkpt>
      <trkpt lat="46.642416911199689" lon="12.328618504106998">
        <ele>2087.6799999999998</ele>
        <time>2023-03-10T10:28:02Z</time>
      </trkpt>
      <trkpt lat="46.642451779916883" lon="12.328619593754411">
        <ele>2088.1599999999999</ele>
        <time>2023-03-10T10:28:17Z</time>
      </trkpt>
      <trkpt lat="46.642451779916883" lon="12.328534014523029">
        <ele>2089.5</ele>
        <time>2023-03-10T10:28:31Z</time>
      </trkpt>
      <trkpt lat="46.64244088344276" lon="12.328526554629207">
        <ele>2089.9099999999999</ele>
        <time>2023-03-10T10:28:46Z</time>
      </trkpt>
      <trkpt lat="46.642438871785998" lon="12.328441394492984">
        <ele>2090.2800000000002</ele>
        <time>2023-03-10T10:29:00Z</time>
      </trkpt>
      <trkpt lat="46.642471561208367" lon="12.328368471935391">
        <ele>2090.29</ele>
        <time>2023-03-10T10:29:12Z</time>
      </trkpt>
      <trkpt lat="46.642495533451438" lon="12.328304769471288">
        <ele>2090.5300000000002</ele>
        <time>2023-03-10T10:29:23Z</time>
      </trkpt>
      <trkpt lat="46.642467202618718" lon="12.328214999288321">
        <ele>2089.3699999999999</ele>
        <time>2023-03-10T10:29:36Z</time>
      </trkpt>
      <trkpt lat="46.642409786581993" lon="12.328139478340745">
        <ele>2088.8600000000001</ele>
        <time>2023-03-10T10:29:51Z</time>
      </trkpt>
      <trkpt lat="46.642374750226736" lon="12.328037386760116">
        <ele>2092.0300000000002</ele>
        <time>2023-03-10T10:30:05Z</time>
      </trkpt>
      <trkpt lat="46.642342563718557" lon="12.3279466945678">
        <ele>2095.9699999999998</ele>
        <time>2023-03-10T10:30:17Z</time>
      </trkpt>
      <trkpt lat="46.642309874296188" lon="12.327842675149441">
        <ele>2099.3800000000001</ele>
        <time>2023-03-10T10:30:30Z</time>
      </trkpt>
      <trkpt lat="46.642288081347942" lon="12.327775368466973">
        <ele>2101.27</ele>
        <time>2023-03-10T10:30:43Z</time>
      </trkpt>
      <trkpt lat="46.642277017235756" lon="12.327699428424239">
        <ele>2100.7600000000002</ele>
        <time>2023-03-10T10:30:58Z</time>
      </trkpt>
      <trkpt lat="46.642253715544939" lon="12.327594067901373">
        <ele>2102.3800000000001</ele>
        <time>2023-03-10T10:31:11Z</time>
      </trkpt>
      <trkpt lat="46.642229659482837" lon="12.327480157837272">
        <ele>2106</ele>
        <time>2023-03-10T10:31:24Z</time>
      </trkpt>
      <trkpt lat="46.642262013629079" lon="12.327401116490364">
        <ele>2108.6700000000001</ele>
        <time>2023-03-10T10:31:37Z</time>
      </trkpt>
      <trkpt lat="46.642280705273151" lon="12.327390974387527">
        <ele>2109.4899999999998</ele>
        <time>2023-03-10T10:31:49Z</time>
      </trkpt>
      <trkpt lat="46.642292104661465" lon="12.327384185045958">
        <ele>2108.9499999999998</ele>
        <time>2023-03-10T10:32:09Z</time>
      </trkpt>
      <trkpt lat="46.642339043319225" lon="12.327311094850302">
        <ele>2108.98</ele>
        <time>2023-03-10T10:32:23Z</time>
      </trkpt>
      <trkpt lat="46.642312640324235" lon="12.327192323282361">
        <ele>2109.6999999999998</ele>
        <time>2023-03-10T10:32:38Z</time>
      </trkpt>
      <trkpt lat="46.642310712486506" lon="12.327166339382529">
        <ele>2110.29</ele>
        <time>2023-03-10T10:32:53Z</time>
      </trkpt>
      <trkpt lat="46.642294954508543" lon="12.327062571421266">
        <ele>2111.8000000000002</ele>
        <time>2023-03-10T10:33:08Z</time>
      </trkpt>
      <trkpt lat="46.642264612019062" lon="12.327038515359163">
        <ele>2113.1999999999998</ele>
        <time>2023-03-10T10:33:21Z</time>
      </trkpt>
      <trkpt lat="46.642216499894857" lon="12.327036587521434">
        <ele>2115.1100000000001</ele>
        <time>2023-03-10T10:33:33Z</time>
      </trkpt>
      <trkpt lat="46.642154809087515" lon="12.327036336064339">
        <ele>2116.4499999999998</ele>
        <time>2023-03-10T10:33:44Z</time>
      </trkpt>
      <trkpt lat="46.642092196270823" lon="12.327017141506076">
        <ele>2116.8299999999999</ele>
        <time>2023-03-10T10:33:55Z</time>
      </trkpt>
      <trkpt lat="46.642024135217071" lon="12.326979087665677">
        <ele>2117.0300000000002</ele>
        <time>2023-03-10T10:34:08Z</time>
      </trkpt>
      <trkpt lat="46.641993625089526" lon="12.326915469020605">
        <ele>2118.3600000000001</ele>
        <time>2023-03-10T10:34:19Z</time>
      </trkpt>
      <trkpt lat="46.64197962731123" lon="12.32684095390141">
        <ele>2119.7199999999998</ele>
        <time>2023-03-10T10:34:30Z</time>
      </trkpt>
      <trkpt lat="46.641962109133601" lon="12.326772222295403">
        <ele>2120.7800000000002</ele>
        <time>2023-03-10T10:34:40Z</time>
      </trkpt>
      <trkpt lat="46.641941322013736" lon="12.326693432405591">
        <ele>2122.8899999999999</ele>
        <time>2023-03-10T10:34:53Z</time>
      </trkpt>
      <trkpt lat="46.641931850463152" lon="12.326583042740822">
        <ele>2122.8800000000001</ele>
        <time>2023-03-10T10:35:07Z</time>
      </trkpt>
      <trkpt lat="46.641901340335608" lon="12.326533757150173">
        <ele>2125.1700000000001</ele>
        <time>2023-03-10T10:35:18Z</time>
      </trkpt>
      <trkpt lat="46.641877116635442" lon="12.326453374698758">
        <ele>2127.9099999999999</ele>
        <time>2023-03-10T10:35:31Z</time>
      </trkpt>
      <trkpt lat="46.641861107200384" lon="12.326404927298427">
        <ele>2129.5300000000002</ele>
        <time>2023-03-10T10:35:42Z</time>
      </trkpt>
      <trkpt lat="46.641864376142621" lon="12.326397467404604">
        <ele>2130.0700000000002</ele>
        <time>2023-03-10T10:36:00Z</time>
      </trkpt>
      <trkpt lat="46.641855072230101" lon="12.326326975598931">
        <ele>2130.0900000000001</ele>
        <time>2023-03-10T10:36:18Z</time>
      </trkpt>
      <trkpt lat="46.641809809952974" lon="12.326274504885077">
        <ele>2131.1599999999999</ele>
        <time>2023-03-10T10:36:31Z</time>
      </trkpt>
      <trkpt lat="46.641818191856146" lon="12.326195379719138">
        <ele>2133.1799999999998</ele>
        <time>2023-03-10T10:36:42Z</time>
      </trkpt>
      <trkpt lat="46.641814419999719" lon="12.326102759689093">
        <ele>2136.0700000000002</ele>
        <time>2023-03-10T10:36:56Z</time>
      </trkpt>
      <trkpt lat="46.641798578202724" lon="12.326034363359213">
        <ele>2138.2399999999998</ele>
        <time>2023-03-10T10:37:09Z</time>
      </trkpt>
      <trkpt lat="46.641800673678517" lon="12.325980132445693">
        <ele>2138.5799999999999</ele>
        <time>2023-03-10T10:37:20Z</time>
      </trkpt>
      <trkpt lat="46.641828753054142" lon="12.325902516022325">
        <ele>2139.5100000000002</ele>
        <time>2023-03-10T10:37:34Z</time>
      </trkpt>
      <trkpt lat="46.641822550445795" lon="12.325878627598286">
        <ele>2140.3400000000001</ele>
        <time>2023-03-10T10:37:48Z</time>
      </trkpt>
      <trkpt lat="46.641836548224092" lon="12.325812578201294">
        <ele>2141.0599999999999</ele>
        <time>2023-03-10T10:37:58Z</time>
      </trkpt>
      <trkpt lat="46.641861442476511" lon="12.325736302882433">
        <ele>2142.1399999999999</ele>
        <time>2023-03-10T10:38:11Z</time>
      </trkpt>
      <trkpt lat="46.641841325908899" lon="12.325653322041035">
        <ele>2143.71</ele>
        <time>2023-03-10T10:38:22Z</time>
      </trkpt>
      <trkpt lat="46.641822550445795" lon="12.325530108064413">
        <ele>2145.9099999999999</ele>
        <time>2023-03-10T10:38:35Z</time>
      </trkpt>
      <trkpt lat="46.641858592629433" lon="12.325455844402313">
        <ele>2147.3499999999999</ele>
        <time>2023-03-10T10:38:46Z</time>
      </trkpt>
      <trkpt lat="46.641860352829099" lon="12.325383257120848">
        <ele>2148.3600000000001</ele>
        <time>2023-03-10T10:38:57Z</time>
      </trkpt>
      <trkpt lat="46.641848534345627" lon="12.325369846075773">
        <ele>2149.0500000000002</ele>
        <time>2023-03-10T10:39:10Z</time>
      </trkpt>
      <trkpt lat="46.641849204897881" lon="12.325343023985624">
        <ele>2149.9699999999998</ele>
        <time>2023-03-10T10:39:29Z</time>
      </trkpt>
      <trkpt lat="46.64179740473628" lon="12.325242022052407">
        <ele>2150.4200000000001</ele>
        <time>2023-03-10T10:39:41Z</time>
      </trkpt>
      <trkpt lat="46.641761781647801" lon="12.325176978483796">
        <ele>2151.9499999999998</ele>
        <time>2023-03-10T10:39:56Z</time>
      </trkpt>
      <trkpt lat="46.641712496057153" lon="12.325160801410675">
        <ele>2154.1500000000001</ele>
        <time>2023-03-10T10:40:09Z</time>
      </trkpt>
      <trkpt lat="46.641674023121595" lon="12.32518007978797">
        <ele>2155.3099999999999</ele>
        <time>2023-03-10T10:40:22Z</time>
      </trkpt>
      <trkpt lat="46.641627671197057" lon="12.325170356780291">
        <ele>2156.1100000000001</ele>
        <time>2023-03-10T10:40:35Z</time>
      </trkpt>
      <trkpt lat="46.641631275415421" lon="12.325110258534551">
        <ele>2157.1199999999999</ele>
        <time>2023-03-10T10:40:46Z</time>
      </trkpt>
      <trkpt lat="46.641621720045805" lon="12.325051249936223">
        <ele>2159.0799999999999</ele>
        <time>2023-03-10T10:40:58Z</time>
      </trkpt>
      <trkpt lat="46.641622642055154" lon="12.325035827234387">
        <ele>2160.3800000000001</ele>
        <time>2023-03-10T10:41:28Z</time>
      </trkpt>
      <trkpt lat="46.641597412526608" lon="12.324999449774623">
        <ele>2160.8800000000001</ele>
        <time>2023-03-10T10:41:39Z</time>
      </trkpt>
      <trkpt lat="46.641597747802734" lon="12.324977153912187">
        <ele>2161.1300000000001</ele>
        <time>2023-03-10T10:41:54Z</time>
      </trkpt>
      <trkpt lat="46.641589868813753" lon="12.324838014319539">
        <ele>2162.6500000000001</ele>
        <time>2023-03-10T10:42:08Z</time>
      </trkpt>
      <trkpt lat="46.641556844115257" lon="12.324671549722552">
        <ele>2166.02</ele>
        <time>2023-03-10T10:42:23Z</time>
      </trkpt>
      <trkpt lat="46.641531866043806" lon="12.32457809150219">
        <ele>2168.1599999999999</ele>
        <time>2023-03-10T10:42:32Z</time>
      </trkpt>
      <trkpt lat="46.641525495797396" lon="12.324499804526567">
        <ele>2169.6999999999998</ele>
        <time>2023-03-10T10:42:43Z</time>
      </trkpt>
      <trkpt lat="46.641515856608748" lon="12.324482537806034">
        <ele>2169.9299999999998</ele>
        <time>2023-03-10T10:42:46Z</time>
      </trkpt>
      <trkpt lat="46.641482077538967" lon="12.324433922767639">
        <ele>2170.7199999999998</ele>
        <time>2023-03-10T10:42:54Z</time>
      </trkpt>
      <trkpt lat="46.64148073643446" lon="12.324398048222065">
        <ele>2171.6900000000001</ele>
        <time>2023-03-10T10:42:59Z</time>
      </trkpt>
      <trkpt lat="46.64143773727119" lon="12.324267458170652">
        <ele>2173.1799999999998</ele>
        <time>2023-03-10T10:43:15Z</time>
      </trkpt>
      <trkpt lat="46.64143530651927" lon="12.324224626645446">
        <ele>2173.0799999999999</ele>
        <time>2023-03-10T10:43:21Z</time>
      </trkpt>
      <trkpt lat="46.64138744585216" lon="12.324146255850792">
        <ele>2173.25</ele>
        <time>2023-03-10T10:43:33Z</time>
      </trkpt>
      <trkpt lat="46.641340674832463" lon="12.324079787358642">
        <ele>2173.8499999999999</ele>
        <time>2023-03-10T10:43:46Z</time>
      </trkpt>
      <trkpt lat="46.641293819993734" lon="12.324024802073836">
        <ele>2174.5500000000002</ele>
        <time>2023-03-10T10:43:58Z</time>
      </trkpt>
      <trkpt lat="46.641252497211099" lon="12.323997225612402">
        <ele>2176.1500000000001</ele>
        <time>2023-03-10T10:44:04Z</time>
      </trkpt>
      <trkpt lat="46.641220143064857" lon="12.323965542018414">
        <ele>2177.5700000000002</ele>
        <time>2023-03-10T10:44:11Z</time>
      </trkpt>
      <trkpt lat="46.641167756170034" lon="12.323905611410737">
        <ele>2179.7199999999998</ele>
        <time>2023-03-10T10:44:25Z</time>
      </trkpt>
      <trkpt lat="46.641123834997416" lon="12.323860181495547">
        <ele>2180.8699999999999</ele>
        <time>2023-03-10T10:44:37Z</time>
      </trkpt>
      <trkpt lat="46.641105646267533" lon="12.323854565620422">
        <ele>2182.0799999999999</ele>
        <time>2023-03-10T10:44:47Z</time>
      </trkpt>
      <trkpt lat="46.641087708994746" lon="12.323814248666167">
        <ele>2182.0700000000002</ele>
        <time>2023-03-10T10:45:05Z</time>
      </trkpt>
      <trkpt lat="46.641020905226469" lon="12.323755072429776">
        <ele>2183.3200000000002</ele>
        <time>2023-03-10T10:45:20Z</time>
      </trkpt>
      <trkpt lat="46.641031969338655" lon="12.323752390220761">
        <ele>2182.5799999999999</ele>
        <time>2023-03-10T10:45:51Z</time>
      </trkpt>
      <trkpt lat="46.641023000702262" lon="12.323733614757657">
        <ele>2183.0100000000002</ele>
        <time>2023-03-10T10:46:04Z</time>
      </trkpt>
      <trkpt lat="46.640945384278893" lon="12.323657087981701">
        <ele>2183.9299999999998</ele>
        <time>2023-03-10T10:46:18Z</time>
      </trkpt>
      <trkpt lat="46.640886543318629" lon="12.323588188737631">
        <ele>2185.0100000000002</ele>
        <time>2023-03-10T10:46:30Z</time>
      </trkpt>
      <trkpt lat="46.640824601054192" lon="12.32352708466351">
        <ele>2186.8299999999999</ele>
        <time>2023-03-10T10:46:43Z</time>
      </trkpt>
      <trkpt lat="46.640768107026815" lon="12.323472602292895">
        <ele>2189.0700000000002</ele>
        <time>2023-03-10T10:46:58Z</time>
      </trkpt>
      <trkpt lat="46.640755785629153" lon="12.323455419391394">
        <ele>2190.5100000000002</ele>
        <time>2023-03-10T10:47:10Z</time>
      </trkpt>
      <trkpt lat="46.640743380412459" lon="12.323447456583381">
        <ele>2192.1300000000001</ele>
        <time>2023-03-10T10:47:29Z</time>
      </trkpt>
      <trkpt lat="46.640698788687587" lon="12.323414348065853">
        <ele>2193.1900000000001</ele>
        <time>2023-03-10T10:47:42Z</time>
      </trkpt>
      <trkpt lat="46.640636343508959" lon="12.323405211791396">
        <ele>2195.79</ele>
        <time>2023-03-10T10:47:56Z</time>
      </trkpt>
      <trkpt lat="46.640593511983752" lon="12.323429267853498">
        <ele>2197.23</ele>
        <time>2023-03-10T10:48:11Z</time>
      </trkpt>
      <trkpt lat="46.640556966885924" lon="12.323463298380375">
        <ele>2199.0300000000002</ele>
        <time>2023-03-10T10:48:28Z</time>
      </trkpt>
      <trkpt lat="46.640520421788096" lon="12.323531610891223">
        <ele>2200.7399999999998</ele>
        <time>2023-03-10T10:48:41Z</time>
      </trkpt>
      <trkpt lat="46.640519499778748" lon="12.323543094098568">
        <ele>2201.0999999999999</ele>
        <time>2023-03-10T10:48:53Z</time>
      </trkpt>
      <trkpt lat="46.640476165339351" lon="12.323594475165009">
        <ele>2203.3299999999999</ele>
        <time>2023-03-10T10:49:05Z</time>
      </trkpt>
      <trkpt lat="46.640432914718986" lon="12.323651304468513">
        <ele>2205.0700000000002</ele>
        <time>2023-03-10T10:49:22Z</time>
      </trkpt>
      <trkpt lat="46.640398968011141" lon="12.323710061609745">
        <ele>2205.8099999999999</ele>
        <time>2023-03-10T10:49:36Z</time>
      </trkpt>
      <trkpt lat="46.64038572460413" lon="12.323728501796722">
        <ele>2205.8400000000001</ele>
        <time>2023-03-10T10:49:38Z</time>
      </trkpt>
      <trkpt lat="46.640296457335353" lon="12.323803687468171">
        <ele>2207.2199999999998</ele>
        <time>2023-03-10T10:49:52Z</time>
      </trkpt>
      <trkpt lat="46.640280531719327" lon="12.323733530938625">
        <ele>2207.04</ele>
        <time>2023-03-10T10:50:05Z</time>
      </trkpt>
      <trkpt lat="46.640302995219827" lon="12.323694052174687">
        <ele>2207.4099999999999</ele>
        <time>2023-03-10T10:50:23Z</time>
      </trkpt>
      <trkpt lat="46.64029193110764" lon="12.323642084375024">
        <ele>2208.8899999999999</ele>
        <time>2023-03-10T10:50:36Z</time>
      </trkpt>
      <trkpt lat="46.640228731557727" lon="12.323653986677527">
        <ele>2209.9699999999998</ele>
        <time>2023-03-10T10:50:48Z</time>
      </trkpt>
      <trkpt lat="46.640134435147047" lon="12.323695896193385">
        <ele>2213.4099999999999</ele>
        <time>2023-03-10T10:51:03Z</time>
      </trkpt>
      <trkpt lat="46.640050867572427" lon="12.323696566745639">
        <ele>2213.9400000000001</ele>
        <time>2023-03-10T10:51:16Z</time>
      </trkpt>
      <trkpt lat="46.640012729912996" lon="12.323681730777025">
        <ele>2214.48</ele>
        <time>2023-03-10T10:51:27Z</time>
      </trkpt>
      <trkpt lat="46.639994038268924" lon="12.323631104081869">
        <ele>2215.0900000000001</ele>
        <time>2023-03-10T10:51:42Z</time>
      </trkpt>
      <trkpt lat="46.639971826225519" lon="12.323544267565012">
        <ele>2215.6700000000001</ele>
        <time>2023-03-10T10:51:54Z</time>
      </trkpt>
      <trkpt lat="46.639962857589126" lon="12.323479559272528">
        <ele>2215.4000000000001</ele>
        <time>2023-03-10T10:52:06Z</time>
      </trkpt>
      <trkpt lat="46.639978280290961" lon="12.323339581489563">
        <ele>2217.73</ele>
        <time>2023-03-10T10:52:22Z</time>
      </trkpt>
      <trkpt lat="46.6400211956352" lon="12.323307562619448">
        <ele>2219.3400000000001</ele>
        <time>2023-03-10T10:52:33Z</time>
      </trkpt>
      <trkpt lat="46.640039887279272" lon="12.323290212079883">
        <ele>2219.46</ele>
        <time>2023-03-10T10:52:47Z</time>
      </trkpt>
      <trkpt lat="46.640083137899637" lon="12.323235142976046">
        <ele>2220.6399999999999</ele>
        <time>2023-03-10T10:53:00Z</time>
      </trkpt>
      <trkpt lat="46.64008179679513" lon="12.323210332542658">
        <ele>2221.7399999999998</ele>
        <time>2023-03-10T10:53:13Z</time>
      </trkpt>
      <trkpt lat="46.640112558379769" lon="12.323178732767701">
        <ele>2222.0900000000001</ele>
        <time>2023-03-10T10:53:28Z</time>
      </trkpt>
      <trkpt lat="46.640169722959399" lon="12.323128106072545">
        <ele>2224.9299999999998</ele>
        <time>2023-03-10T10:53:43Z</time>
      </trkpt>
      <trkpt lat="46.640176177024841" lon="12.323135649785399">
        <ele>2226.0999999999999</ele>
        <time>2023-03-10T10:54:00Z</time>
      </trkpt>
      <trkpt lat="46.640209034085274" lon="12.32310002669692">
        <ele>2227.7199999999998</ele>
        <time>2023-03-10T10:54:14Z</time>
      </trkpt>
      <trkpt lat="46.640260834246874" lon="12.323052836582065">
        <ele>2229.8499999999999</ele>
        <time>2023-03-10T10:54:26Z</time>
      </trkpt>
      <trkpt lat="46.640291092917323" lon="12.3230164591223">
        <ele>2231.21</ele>
        <time>2023-03-10T10:54:36Z</time>
      </trkpt>
      <trkpt lat="46.640297630801797" lon="12.323022745549679">
        <ele>2232.0100000000002</ele>
        <time>2023-03-10T10:54:55Z</time>
      </trkpt>
      <trkpt lat="46.64032076485455" lon="12.3229646589607">
        <ele>2233.4099999999999</ele>
        <time>2023-03-10T10:55:05Z</time>
      </trkpt>
      <trkpt lat="46.6403285600245" lon="12.322921240702271">
        <ele>2233.3499999999999</ele>
        <time>2023-03-10T10:55:19Z</time>
      </trkpt>
      <trkpt lat="46.6403319966048" lon="12.32292115688324">
        <ele>2233.4899999999998</ele>
        <time>2023-03-10T10:55:34Z</time>
      </trkpt>
      <trkpt lat="46.640331326052547" lon="12.322921743616462">
        <ele>2234.1199999999999</ele>
        <time>2023-03-10T10:55:51Z</time>
      </trkpt>
      <trkpt lat="46.640335349366069" lon="12.322919312864542">
        <ele>2234.1100000000001</ele>
        <time>2023-03-10T10:56:09Z</time>
      </trkpt>
      <trkpt lat="46.6403319966048" lon="12.322909086942673">
        <ele>2234.1300000000001</ele>
        <time>2023-03-10T10:56:38Z</time>
      </trkpt>
      <trkpt lat="46.64032562635839" lon="12.322901459410787">
        <ele>2233.9299999999998</ele>
        <time>2023-03-10T10:56:52Z</time>
      </trkpt>
      <trkpt lat="46.640321519225836" lon="12.322906740009785">
        <ele>2233.4699999999998</ele>
        <time>2023-03-10T10:57:12Z</time>
      </trkpt>
      <trkpt lat="46.640358567237854" lon="12.322840858250856">
        <ele>2233.8800000000001</ele>
        <time>2023-03-10T10:57:25Z</time>
      </trkpt>
      <trkpt lat="46.640372900292277" lon="12.322679171338677">
        <ele>2235.5100000000002</ele>
        <time>2023-03-10T10:57:41Z</time>
      </trkpt>
      <trkpt lat="46.640368960797787" lon="12.322566015645862">
        <ele>2238.4299999999998</ele>
        <time>2023-03-10T10:57:56Z</time>
      </trkpt>
      <trkpt lat="46.640364015474916" lon="12.322543719783425">
        <ele>2239.8499999999999</ele>
        <time>2023-03-10T10:58:07Z</time>
      </trkpt>
      <trkpt lat="46.640379186719656" lon="12.322460487484932">
        <ele>2240.5799999999999</ele>
        <time>2023-03-10T10:58:17Z</time>
      </trkpt>
      <trkpt lat="46.640418330207467" lon="12.322367280721664">
        <ele>2242.23</ele>
        <time>2023-03-10T10:58:29Z</time>
      </trkpt>
      <trkpt lat="46.640435429289937" lon="12.322251694276929">
        <ele>2245.3400000000001</ele>
        <time>2023-03-10T10:58:43Z</time>
      </trkpt>
      <trkpt lat="46.640454288572073" lon="12.322140969336033">
        <ele>2246.1900000000001</ele>
        <time>2023-03-10T10:58:57Z</time>
      </trkpt>
      <trkpt lat="46.640498545020819" lon="12.322036949917674">
        <ele>2248.6199999999999</ele>
        <time>2023-03-10T10:59:11Z</time>
      </trkpt>
      <trkpt lat="46.640585046261549" lon="12.32201037928462">
        <ele>2251.4099999999999</ele>
        <time>2023-03-10T10:59:25Z</time>
      </trkpt>
      <trkpt lat="46.640676325187087" lon="12.321956316009164">
        <ele>2253.1599999999999</ele>
        <time>2023-03-10T10:59:40Z</time>
      </trkpt>
      <trkpt lat="46.64072485640645" lon="12.321827486157417">
        <ele>2254.21</ele>
        <time>2023-03-10T10:59:57Z</time>
      </trkpt>
      <trkpt lat="46.640746062621474" lon="12.321693291887641">
        <ele>2256.1199999999999</ele>
        <time>2023-03-10T11:00:12Z</time>
      </trkpt>
      <trkpt lat="46.640781685709953" lon="12.321598827838898">
        <ele>2258.02</ele>
        <time>2023-03-10T11:00:25Z</time>
      </trkpt>
      <trkpt lat="46.64080549031496" lon="12.321523306891322">
        <ele>2259.6300000000001</ele>
        <time>2023-03-10T11:00:37Z</time>
      </trkpt>
      <trkpt lat="46.640827031806111" lon="12.321432698518038">
        <ele>2261.02</ele>
        <time>2023-03-10T11:00:49Z</time>
      </trkpt>
      <trkpt lat="46.640846813097596" lon="12.321352483704686">
        <ele>2263.2199999999998</ele>
        <time>2023-03-10T11:01:00Z</time>
      </trkpt>
      <trkpt lat="46.640876568853855" lon="12.321296744048595">
        <ele>2265.0999999999999</ele>
        <time>2023-03-10T11:01:11Z</time>
      </trkpt>
      <trkpt lat="46.64089584723115" lon="12.321270173415542">
        <ele>2265.9000000000001</ele>
        <time>2023-03-10T11:01:24Z</time>
      </trkpt>
      <trkpt lat="46.640931135043502" lon="12.321208734065294">
        <ele>2267.5300000000002</ele>
        <time>2023-03-10T11:01:36Z</time>
      </trkpt>
      <trkpt lat="46.640937086194754" lon="12.321204291656613">
        <ele>2268.1500000000001</ele>
        <time>2023-03-10T11:01:47Z</time>
      </trkpt>
      <trkpt lat="46.640930715948343" lon="12.32120948843658">
        <ele>2268.4299999999998</ele>
        <time>2023-03-10T11:02:04Z</time>
      </trkpt>
      <trkpt lat="46.640959046781063" lon="12.321159532293677">
        <ele>2268.4699999999998</ele>
        <time>2023-03-10T11:02:25Z</time>
      </trkpt>
      <trkpt lat="46.640993161126971" lon="12.321081832051277">
        <ele>2270.8899999999999</ele>
        <time>2023-03-10T11:02:35Z</time>
      </trkpt>
      <trkpt lat="46.641017971560359" lon="12.321051154285669">
        <ele>2271.96</ele>
        <time>2023-03-10T11:02:48Z</time>
      </trkpt>
      <trkpt lat="46.641028029844165" lon="12.321056183427572">
        <ele>2271.5599999999999</ele>
        <time>2023-03-10T11:03:12Z</time>
      </trkpt>
      <trkpt lat="46.641056360676885" lon="12.321028020232916">
        <ele>2272.6199999999999</ele>
        <time>2023-03-10T11:03:26Z</time>
      </trkpt>
      <trkpt lat="46.641110759228468" lon="12.32095836661756">
        <ele>2275.3099999999999</ele>
        <time>2023-03-10T11:03:40Z</time>
      </trkpt>
      <trkpt lat="46.641107574105263" lon="12.320950990542769">
        <ele>2275.5</ele>
        <time>2023-03-10T11:03:50Z</time>
      </trkpt>
      <trkpt lat="46.641118051484227" lon="12.320882510393858">
        <ele>2275.8299999999999</ele>
        <time>2023-03-10T11:04:08Z</time>
      </trkpt>
      <trkpt lat="46.64116364903748" lon="12.320834482088685">
        <ele>2277.8099999999999</ele>
        <time>2023-03-10T11:04:20Z</time>
      </trkpt>
      <trkpt lat="46.641194326803088" lon="12.320781676098704">
        <ele>2279.1300000000001</ele>
        <time>2023-03-10T11:04:32Z</time>
      </trkpt>
      <trkpt lat="46.641199272125959" lon="12.320762732997537">
        <ele>2278.9200000000001</ele>
        <time>2023-03-10T11:04:49Z</time>
      </trkpt>
      <trkpt lat="46.641228860244155" lon="12.320684948936105">
        <ele>2281.2800000000002</ele>
        <time>2023-03-10T11:05:00Z</time>
      </trkpt>
      <trkpt lat="46.641249060630798" lon="12.320623341947794">
        <ele>2282.8400000000001</ele>
        <time>2023-03-10T11:05:13Z</time>
      </trkpt>
      <trkpt lat="46.64124671369791" lon="12.320619653910398">
        <ele>2282.6399999999999</ele>
        <time>2023-03-10T11:05:29Z</time>
      </trkpt>
      <trkpt lat="46.641253419220448" lon="12.320600878447294">
        <ele>2282.6500000000001</ele>
        <time>2023-03-10T11:05:46Z</time>
      </trkpt>
      <trkpt lat="46.641259621828794" lon="12.320578331127763">
        <ele>2283.46</ele>
        <time>2023-03-10T11:06:07Z</time>
      </trkpt>
      <trkpt lat="46.641282588243484" lon="12.320500295609236">
        <ele>2286.3800000000001</ele>
        <time>2023-03-10T11:06:18Z</time>
      </trkpt>
      <trkpt lat="46.641288958489895" lon="12.320459978654981">
        <ele>2287.4200000000001</ele>
        <time>2023-03-10T11:06:29Z</time>
      </trkpt>
      <trkpt lat="46.641294742003083" lon="12.320460397750139">
        <ele>2288.0900000000001</ele>
        <time>2023-03-10T11:06:49Z</time>
      </trkpt>
      <trkpt lat="46.641290802508593" lon="12.320448746904731">
        <ele>2287.6199999999999</ele>
        <time>2023-03-10T11:07:17Z</time>
      </trkpt>
      <trkpt lat="46.641338160261512" lon="12.320434078574181">
        <ele>2287.8499999999999</ele>
        <time>2023-03-10T11:07:31Z</time>
      </trkpt>
      <trkpt lat="46.641411753371358" lon="12.320371298119426">
        <ele>2288.4200000000001</ele>
        <time>2023-03-10T11:07:42Z</time>
      </trkpt>
      <trkpt lat="46.641412591561675" lon="12.320355623960495">
        <ele>2289.27</ele>
        <time>2023-03-10T11:07:56Z</time>
      </trkpt>
      <trkpt lat="46.641467828303576" lon="12.320284713059664">
        <ele>2289.5700000000002</ele>
        <time>2023-03-10T11:08:10Z</time>
      </trkpt>
      <trkpt lat="46.641560783609748" lon="12.320164097473025">
        <ele>2290.0500000000002</ele>
        <time>2023-03-10T11:08:23Z</time>
      </trkpt>
      <trkpt lat="46.641623396426439" lon="12.320034261792898">
        <ele>2290.77</ele>
        <time>2023-03-10T11:08:34Z</time>
      </trkpt>
      <trkpt lat="46.641692882403731" lon="12.319904258474708">
        <ele>2291.3699999999999</ele>
        <time>2023-03-10T11:08:48Z</time>
      </trkpt>
      <trkpt lat="46.641747616231441" lon="12.319757491350174">
        <ele>2292.2600000000002</ele>
        <time>2023-03-10T11:09:04Z</time>
      </trkpt>
      <trkpt lat="46.641793381422758" lon="12.319629918783903">
        <ele>2294.1100000000001</ele>
        <time>2023-03-10T11:09:17Z</time>
      </trkpt>
      <trkpt lat="46.64186772890389" lon="12.319526486098766">
        <ele>2295.77</ele>
        <time>2023-03-10T11:09:30Z</time>
      </trkpt>
      <trkpt lat="46.641949871554971" lon="12.319439146667719">
        <ele>2297.5700000000002</ele>
        <time>2023-03-10T11:09:45Z</time>
      </trkpt>
      <trkpt lat="46.641990188509226" lon="12.319358680397272">
        <ele>2297.9899999999998</ele>
        <time>2023-03-10T11:09:55Z</time>
      </trkpt>
      <trkpt lat="46.642023297026753" lon="12.319240244105458">
        <ele>2299.54</ele>
        <time>2023-03-10T11:10:09Z</time>
      </trkpt>
      <trkpt lat="46.642052046954632" lon="12.319158939644694">
        <ele>2300.8499999999999</ele>
        <time>2023-03-10T11:10:21Z</time>
      </trkpt>
      <trkpt lat="46.642048275098205" lon="12.319148210808635">
        <ele>2301.0599999999999</ele>
        <time>2023-03-10T11:10:33Z</time>
      </trkpt>
      <trkpt lat="46.642038552090526" lon="12.319155419245362">
        <ele>2301.8600000000001</ele>
        <time>2023-03-10T11:10:59Z</time>
      </trkpt>
      <trkpt lat="46.642074258998036" lon="12.319095069542527">
        <ele>2302.9000000000001</ele>
        <time>2023-03-10T11:11:11Z</time>
      </trkpt>
      <trkpt lat="46.642122538760304" lon="12.318949559703469">
        <ele>2304.4400000000001</ele>
        <time>2023-03-10T11:11:25Z</time>
      </trkpt>
      <trkpt lat="46.642149109393358" lon="12.318825926631689">
        <ele>2305.6599999999999</ele>
        <time>2023-03-10T11:11:39Z</time>
      </trkpt>
      <trkpt lat="46.642147433012724" lon="12.318704221397638">
        <ele>2305.6500000000001</ele>
        <time>2023-03-10T11:11:53Z</time>
      </trkpt>
      <trkpt lat="46.642153048887849" lon="12.318582264706492">
        <ele>2306.3600000000001</ele>
        <time>2023-03-10T11:12:06Z</time>
      </trkpt>
      <trkpt lat="46.6421555634588" lon="12.3185352422297">
        <ele>2306.8699999999999</ele>
        <time>2023-03-10T11:12:18Z</time>
      </trkpt>
      <trkpt lat="46.642177272588015" lon="12.318468187004328">
        <ele>2307.1500000000001</ele>
        <time>2023-03-10T11:12:34Z</time>
      </trkpt>
      <trkpt lat="46.642216332256794" lon="12.318404149264097">
        <ele>2308.6300000000001</ele>
        <time>2023-03-10T11:12:46Z</time>
      </trkpt>
      <trkpt lat="46.642230581492186" lon="12.318370202556252">
        <ele>2309.73</ele>
        <time>2023-03-10T11:12:57Z</time>
      </trkpt>
      <trkpt lat="46.64224055595696" lon="12.318304907530546">
        <ele>2310.29</ele>
        <time>2023-03-10T11:13:17Z</time>
      </trkpt>
      <trkpt lat="46.642271066084504" lon="12.318180352449417">
        <ele>2312.5300000000002</ele>
        <time>2023-03-10T11:13:30Z</time>
      </trkpt>
      <trkpt lat="46.642285818234086" lon="12.318104328587651">
        <ele>2313.6599999999999</ele>
        <time>2023-03-10T11:13:39Z</time>
      </trkpt>
      <trkpt lat="46.642286656424403" lon="12.318111956119537">
        <ele>2313.29</ele>
        <time>2023-03-10T11:14:03Z</time>
      </trkpt>
      <trkpt lat="46.642296882346272" lon="12.317990502342582">
        <ele>2315.0300000000002</ele>
        <time>2023-03-10T11:14:15Z</time>
      </trkpt>
      <trkpt lat="46.64233292452991" lon="12.317866031080484">
        <ele>2315.6300000000001</ele>
        <time>2023-03-10T11:14:25Z</time>
      </trkpt>
      <trkpt lat="46.642334684729576" lon="12.317850608378649">
        <ele>2315.25</ele>
        <time>2023-03-10T11:14:26Z</time>
      </trkpt>
      <trkpt lat="46.642320938408375" lon="12.317694453522563">
        <ele>2317.8299999999999</ele>
        <time>2023-03-10T11:14:40Z</time>
      </trkpt>
      <trkpt lat="46.642302749678493" lon="12.317639719694853">
        <ele>2319.7199999999998</ele>
        <time>2023-03-10T11:14:50Z</time>
      </trkpt>
      <trkpt lat="46.642297888174653" lon="12.31765522621572">
        <ele>2320.71</ele>
        <time>2023-03-10T11:15:05Z</time>
      </trkpt>
      <trkpt lat="46.642271988093853" lon="12.31762932613492">
        <ele>2322.4000000000001</ele>
        <time>2023-03-10T11:15:22Z</time>
      </trkpt>
      <trkpt lat="46.642223289236426" lon="12.317550200968981">
        <ele>2323.75</ele>
        <time>2023-03-10T11:15:32Z</time>
      </trkpt>
      <trkpt lat="46.642197389155626" lon="12.317396057769656">
        <ele>2324.6900000000001</ele>
        <time>2023-03-10T11:15:45Z</time>
      </trkpt>
      <trkpt lat="46.642175177112222" lon="12.317199669778347">
        <ele>2323.7600000000002</ele>
        <time>2023-03-10T11:16:00Z</time>
      </trkpt>
      <trkpt lat="46.6421555634588" lon="12.317000851035118">
        <ele>2324.1399999999999</ele>
        <time>2023-03-10T11:16:15Z</time>
      </trkpt>
      <trkpt lat="46.642141062766314" lon="12.316815024241805">
        <ele>2324.2199999999998</ele>
        <time>2023-03-10T11:16:30Z</time>
      </trkpt>
      <trkpt lat="46.64214089512825" lon="12.316727098077536">
        <ele>2324.7800000000002</ele>
        <time>2023-03-10T11:16:41Z</time>
      </trkpt>
      <trkpt lat="46.64211843162775" lon="12.316578235477209">
        <ele>2326.1900000000001</ele>
        <time>2023-03-10T11:16:56Z</time>
      </trkpt>
      <trkpt lat="46.64210275746882" lon="12.316451584920287">
        <ele>2328.9299999999998</ele>
        <time>2023-03-10T11:17:10Z</time>
      </trkpt>
      <trkpt lat="46.642095716670156" lon="12.316421829164028">
        <ele>2329.5500000000002</ele>
        <time>2023-03-10T11:17:22Z</time>
      </trkpt>
      <trkpt lat="46.642095549032092" lon="12.316418811678886">
        <ele>2329.6199999999999</ele>
        <time>2023-03-10T11:17:36Z</time>
      </trkpt>
      <trkpt lat="46.64209202863276" lon="12.316378662362695">
        <ele>2329.79</ele>
        <time>2023-03-10T11:17:49Z</time>
      </trkpt>
      <trkpt lat="46.642079958692193" lon="12.316278498619795">
        <ele>2331.1500000000001</ele>
        <time>2023-03-10T11:18:03Z</time>
      </trkpt>
      <trkpt lat="46.642044335603714" lon="12.316138269379735">
        <ele>2333.1500000000001</ele>
        <time>2023-03-10T11:18:16Z</time>
      </trkpt>
      <trkpt lat="46.642043245956302" lon="12.316083200275898">
        <ele>2333.9699999999998</ele>
        <time>2023-03-10T11:18:28Z</time>
      </trkpt>
      <trkpt lat="46.642056154087186" lon="12.315946156159043">
        <ele>2335.46</ele>
        <time>2023-03-10T11:18:42Z</time>
      </trkpt>
      <trkpt lat="46.642064200714231" lon="12.315938277170062">
        <ele>2336.1599999999999</ele>
        <time>2023-03-10T11:18:59Z</time>
      </trkpt>
      <trkpt lat="46.64205489680171" lon="12.315912460908294">
        <ele>2336.1199999999999</ele>
        <time>2023-03-10T11:19:17Z</time>
      </trkpt>
      <trkpt lat="46.642018686980009" lon="12.315778015181422">
        <ele>2338.8800000000001</ele>
        <time>2023-03-10T11:19:31Z</time>
      </trkpt>
      <trkpt lat="46.641989685595036" lon="12.315652873367071">
        <ele>2340.5900000000001</ele>
        <time>2023-03-10T11:19:44Z</time>
      </trkpt>
      <trkpt lat="46.641958672553301" lon="12.315536281093955">
        <ele>2342.0900000000001</ele>
        <time>2023-03-10T11:19:57Z</time>
      </trkpt>
      <trkpt lat="46.641919361427426" lon="12.315428825095296">
        <ele>2343.8899999999999</ele>
        <time>2023-03-10T11:20:11Z</time>
      </trkpt>
      <trkpt lat="46.641888432204723" lon="12.315343413501978">
        <ele>2344.6599999999999</ele>
        <time>2023-03-10T11:20:23Z</time>
      </trkpt>
      <trkpt lat="46.641857922077179" lon="12.315256325528026">
        <ele>2345.8099999999999</ele>
        <time>2023-03-10T11:20:33Z</time>
      </trkpt>
      <trkpt lat="46.641828333958983" lon="12.315204190090299">
        <ele>2346.1100000000001</ele>
        <time>2023-03-10T11:20:49Z</time>
      </trkpt>
      <trkpt lat="46.64181349799037" lon="12.315175775438547">
        <ele>2346.0300000000002</ele>
        <time>2023-03-10T11:21:01Z</time>
      </trkpt>
      <trkpt lat="46.641710652038455" lon="12.314996989443898">
        <ele>2344.9000000000001</ele>
        <time>2023-03-10T11:21:18Z</time>
      </trkpt>
      <trkpt lat="46.64170159958303" lon="12.314983494579792">
        <ele>2344.7800000000002</ele>
        <time>2023-03-10T11:21:22Z</time>
      </trkpt>
      <trkpt lat="46.641649883240461" lon="12.314882408827543">
        <ele>2345.6599999999999</ele>
        <time>2023-03-10T11:21:32Z</time>
      </trkpt>
      <trkpt lat="46.641532788053155" lon="12.314678225666285">
        <ele>2346.71</ele>
        <time>2023-03-10T11:21:50Z</time>
      </trkpt>
      <trkpt lat="46.641438324004412" lon="12.314472869038582">
        <ele>2344.52</ele>
        <time>2023-03-10T11:22:07Z</time>
      </trkpt>
      <trkpt lat="46.641373364254832" lon="12.314288467168808">
        <ele>2346.6199999999999</ele>
        <time>2023-03-10T11:22:23Z</time>
      </trkpt>
      <trkpt lat="46.641294993460178" lon="12.314186207950115">
        <ele>2347.3600000000001</ele>
        <time>2023-03-10T11:22:37Z</time>
      </trkpt>
      <trkpt lat="46.641216287389398" lon="12.314100796356797">
        <ele>2350.21</ele>
        <time>2023-03-10T11:22:51Z</time>
      </trkpt>
      <trkpt lat="46.641162140294909" lon="12.314036842435598">
        <ele>2351.8899999999999</ele>
        <time>2023-03-10T11:23:04Z</time>
      </trkpt>
      <trkpt lat="46.641156692057848" lon="12.314032316207886">
        <ele>2351.6799999999998</ele>
        <time>2023-03-10T11:23:18Z</time>
      </trkpt>
      <trkpt lat="46.641087708994746" lon="12.31395143084228">
        <ele>2352.3600000000001</ele>
        <time>2023-03-10T11:23:32Z</time>
      </trkpt>
      <trkpt lat="46.640985198318958" lon="12.313848668709397">
        <ele>2354.0300000000002</ele>
        <time>2023-03-10T11:23:50Z</time>
      </trkpt>
      <trkpt lat="46.640987796708941" lon="12.313854452222586">
        <ele>2354</ele>
        <time>2023-03-10T11:24:09Z</time>
      </trkpt>
      <trkpt lat="46.640970194712281" lon="12.313835006207228">
        <ele>2354.52</ele>
        <time>2023-03-10T11:24:26Z</time>
      </trkpt>
      <trkpt lat="46.640882771462202" lon="12.313709026202559">
        <ele>2356.5300000000002</ele>
        <time>2023-03-10T11:24:41Z</time>
      </trkpt>
      <trkpt lat="46.640815632417798" lon="12.313604420050979">
        <ele>2359.3099999999999</ele>
        <time>2023-03-10T11:24:54Z</time>
      </trkpt>
      <trkpt lat="46.640753522515297" lon="12.313507609069347">
        <ele>2360.6399999999999</ele>
        <time>2023-03-10T11:25:05Z</time>
      </trkpt>
      <trkpt lat="46.640667943283916" lon="12.313409373164177">
        <ele>2361.23</ele>
        <time>2023-03-10T11:25:19Z</time>
      </trkpt>
      <trkpt lat="46.640606420114636" lon="12.313324799761176">
        <ele>2362.3800000000001</ele>
        <time>2023-03-10T11:25:33Z</time>
      </trkpt>
      <trkpt lat="46.640606503933668" lon="12.313323626294732">
        <ele>2361.6999999999998</ele>
        <time>2023-03-10T11:25:53Z</time>
      </trkpt>
      <trkpt lat="46.64056065492332" lon="12.313261767849326">
        <ele>2361.8299999999999</ele>
        <time>2023-03-10T11:26:05Z</time>
      </trkpt>
      <trkpt lat="46.640502149239182" lon="12.313160682097077">
        <ele>2362.2399999999998</ele>
        <time>2023-03-10T11:26:18Z</time>
      </trkpt>
      <trkpt lat="46.640452612191439" lon="12.313084406778216">
        <ele>2363.5700000000002</ele>
        <time>2023-03-10T11:26:29Z</time>
      </trkpt>
      <trkpt lat="46.640399387106299" lon="12.31296974234283">
        <ele>2366.04</ele>
        <time>2023-03-10T11:26:45Z</time>
      </trkpt>
      <trkpt lat="46.640352280810475" lon="12.312911823391914">
        <ele>2367.6100000000001</ele>
        <time>2023-03-10T11:26:59Z</time>
      </trkpt>
      <trkpt lat="46.640354041010141" lon="12.312916936352849">
        <ele>2368.04</ele>
        <time>2023-03-10T11:27:13Z</time>
      </trkpt>
      <trkpt lat="46.64033685810864" lon="12.312829932197928">
        <ele>2369.71</ele>
        <time>2023-03-10T11:27:27Z</time>
      </trkpt>
      <trkpt lat="46.640304671600461" lon="12.312735300511122">
        <ele>2371.8699999999999</ele>
        <time>2023-03-10T11:27:41Z</time>
      </trkpt>
      <trkpt lat="46.640311125665903" lon="12.312731277197599">
        <ele>2371.7199999999998</ele>
        <time>2023-03-10T11:27:57Z</time>
      </trkpt>
      <trkpt lat="46.640295954421163" lon="12.312716022133827">
        <ele>2371.6300000000001</ele>
        <time>2023-03-10T11:28:12Z</time>
      </trkpt>
      <trkpt lat="46.640215991064906" lon="12.312644943594933">
        <ele>2373.6399999999999</ele>
        <time>2023-03-10T11:28:24Z</time>
      </trkpt>
      <trkpt lat="46.640126137062907" lon="12.312549389898777">
        <ele>2374.4299999999998</ele>
        <time>2023-03-10T11:28:37Z</time>
      </trkpt>
      <trkpt lat="46.640039384365082" lon="12.31241762638092">
        <ele>2376.8099999999999</ele>
        <time>2023-03-10T11:28:52Z</time>
      </trkpt>
      <trkpt lat="46.639945339411497" lon="12.312310338020325">
        <ele>2379.5500000000002</ele>
        <time>2023-03-10T11:29:08Z</time>
      </trkpt>
      <trkpt lat="46.63987660780549" lon="12.312232973054051">
        <ele>2382.8000000000002</ele>
        <time>2023-03-10T11:29:21Z</time>
      </trkpt>
      <trkpt lat="46.639815419912338" lon="12.312183268368244">
        <ele>2385.29</ele>
        <time>2023-03-10T11:29:33Z</time>
      </trkpt>
      <trkpt lat="46.639753896743059" lon="12.312144879251719">
        <ele>2387.4400000000001</ele>
        <time>2023-03-10T11:29:46Z</time>
      </trkpt>
      <trkpt lat="46.639714920893312" lon="12.312148399651051">
        <ele>2388.3299999999999</ele>
        <time>2023-03-10T11:29:55Z</time>
      </trkpt>
      <trkpt lat="46.639642417430878" lon="12.312151165679097">
        <ele>2389.1700000000001</ele>
        <time>2023-03-10T11:30:08Z</time>
      </trkpt>
      <trkpt lat="46.639630347490311" lon="12.312149740755558">
        <ele>2389.0599999999999</ele>
        <time>2023-03-10T11:30:21Z</time>
      </trkpt>
      <trkpt lat="46.639632442966104" lon="12.312135826796293">
        <ele>2389.3099999999999</ele>
        <time>2023-03-10T11:30:37Z</time>
      </trkpt>
      <trkpt lat="46.639629928395152" lon="12.312128366902471">
        <ele>2388.5999999999999</ele>
        <time>2023-03-10T11:30:51Z</time>
      </trkpt>
      <trkpt lat="46.639624647796154" lon="12.3121078312397">
        <ele>2388.9899999999998</ele>
        <time>2023-03-10T11:31:08Z</time>
      </trkpt>
      <trkpt lat="46.639615511521697" lon="12.312111854553223">
        <ele>2389.5599999999999</ele>
        <time>2023-03-10T11:31:27Z</time>
      </trkpt>
      <trkpt lat="46.639616098254919" lon="12.312109423801303">
        <ele>2389.2199999999998</ele>
        <time>2023-03-10T11:31:45Z</time>
      </trkpt>
      <trkpt lat="46.639559185132384" lon="12.312074387446046">
        <ele>2389.4000000000001</ele>
        <time>2023-03-10T11:31:55Z</time>
      </trkpt>
      <trkpt lat="46.639436893165112" lon="12.312001548707485">
        <ele>2390.6900000000001</ele>
        <time>2023-03-10T11:32:11Z</time>
      </trkpt>
      <trkpt lat="46.6393649764359" lon="12.31194949708879">
        <ele>2391.7800000000002</ele>
        <time>2023-03-10T11:32:21Z</time>
      </trkpt>
      <trkpt lat="46.639258358627558" lon="12.311883950605989">
        <ele>2393.8299999999999</ele>
        <time>2023-03-10T11:32:35Z</time>
      </trkpt>
      <trkpt lat="46.639189710840583" lon="12.311818152666092">
        <ele>2395.7399999999998</ele>
        <time>2023-03-10T11:32:46Z</time>
      </trkpt>
      <trkpt lat="46.639126511290669" lon="12.31177406385541">
        <ele>2396.5599999999999</ele>
        <time>2023-03-10T11:32:56Z</time>
      </trkpt>
      <trkpt lat="46.6390385851264" lon="12.311697034165263">
        <ele>2396.5300000000002</ele>
        <time>2023-03-10T11:33:11Z</time>
      </trkpt>
      <trkpt lat="46.638974798843265" lon="12.311658142134547">
        <ele>2397.5</ele>
        <time>2023-03-10T11:33:23Z</time>
      </trkpt>
      <trkpt lat="46.638972954824567" lon="12.311656130477786">
        <ele>2397.8000000000002</ele>
        <time>2023-03-10T11:33:41Z</time>
      </trkpt>
      <trkpt lat="46.63893599063158" lon="12.311631822958589">
        <ele>2398.7600000000002</ele>
        <time>2023-03-10T11:33:54Z</time>
      </trkpt>
      <trkpt lat="46.638829121366143" lon="12.311564516276121">
        <ele>2400.75</ele>
        <time>2023-03-10T11:34:07Z</time>
      </trkpt>
      <trkpt lat="46.638755779713392" lon="12.311533000320196">
        <ele>2401.4299999999998</ele>
        <time>2023-03-10T11:34:17Z</time>
      </trkpt>
      <trkpt lat="46.63866332732141" lon="12.311486396938562">
        <ele>2401.4200000000001</ele>
        <time>2023-03-10T11:34:30Z</time>
      </trkpt>
      <trkpt lat="46.63862275891006" lon="12.311467370018363">
        <ele>2401.8200000000002</ele>
        <time>2023-03-10T11:34:42Z</time>
      </trkpt>
      <trkpt lat="46.638624686747789" lon="12.311471980065107">
        <ele>2401.9499999999998</ele>
        <time>2023-03-10T11:34:57Z</time>
      </trkpt>
      <trkpt lat="46.638574730604887" lon="12.311452450230718">
        <ele>2402.9499999999998</ele>
        <time>2023-03-10T11:35:11Z</time>
      </trkpt>
      <trkpt lat="46.638492252677679" lon="12.311418922618032">
        <ele>2405.5599999999999</ele>
        <time>2023-03-10T11:35:24Z</time>
      </trkpt>
      <trkpt lat="46.638447660952806" lon="12.311392603442073">
        <ele>2406.8400000000001</ele>
        <time>2023-03-10T11:35:35Z</time>
      </trkpt>
      <trkpt lat="46.638406170532107" lon="12.311352118849754">
        <ele>2408.1700000000001</ele>
        <time>2023-03-10T11:35:50Z</time>
      </trkpt>
      <trkpt lat="46.638330398127437" lon="12.311288248747587">
        <ele>2409.6999999999998</ele>
        <time>2023-03-10T11:36:03Z</time>
      </trkpt>
      <trkpt lat="46.638264432549477" lon="12.311215493828058">
        <ele>2410.9400000000001</ele>
        <time>2023-03-10T11:36:15Z</time>
      </trkpt>
      <trkpt lat="46.638206262141466" lon="12.311176434159279">
        <ele>2411.6599999999999</ele>
        <time>2023-03-10T11:36:25Z</time>
      </trkpt>
      <trkpt lat="46.638193856924772" lon="12.311117174103856">
        <ele>2411.6500000000001</ele>
        <time>2023-03-10T11:36:38Z</time>
      </trkpt>
      <trkpt lat="46.638184050098062" lon="12.311095800250769">
        <ele>2411.4000000000001</ele>
        <time>2023-03-10T11:36:40Z</time>
      </trkpt>
      <trkpt lat="46.638081790879369" lon="12.310919864103198">
        <ele>2410.4200000000001</ele>
        <time>2023-03-10T11:36:56Z</time>
      </trkpt>
      <trkpt lat="46.637980034574866" lon="12.31078558601439">
        <ele>2411.8600000000001</ele>
        <time>2023-03-10T11:37:10Z</time>
      </trkpt>
      <trkpt lat="46.63785170763731" lon="12.310642842203379">
        <ele>2414.6100000000001</ele>
        <time>2023-03-10T11:37:27Z</time>
      </trkpt>
      <trkpt lat="46.637706449255347" lon="12.310495236888528">
        <ele>2415.6799999999998</ele>
        <time>2023-03-10T11:37:45Z</time>
      </trkpt>
      <trkpt lat="46.637601424008608" lon="12.310427511110902">
        <ele>2416.4499999999998</ele>
        <time>2023-03-10T11:37:58Z</time>
      </trkpt>
      <trkpt lat="46.637506792321801" lon="12.310421895235777">
        <ele>2417.5900000000001</ele>
        <time>2023-03-10T11:38:10Z</time>
      </trkpt>
      <trkpt lat="46.637382991611958" lon="12.310431702062488">
        <ele>2418.5100000000002</ele>
        <time>2023-03-10T11:38:24Z</time>
      </trkpt>
      <trkpt lat="46.637300429865718" lon="12.310417285189033">
        <ele>2418.8400000000001</ele>
        <time>2023-03-10T11:38:35Z</time>
      </trkpt>
      <trkpt lat="46.637211497873068" lon="12.310366155579686">
        <ele>2418.9099999999999</ele>
        <time>2023-03-10T11:38:46Z</time>
      </trkpt>
      <trkpt lat="46.637165145948529" lon="12.310250401496887">
        <ele>2418.8200000000002</ele>
        <time>2023-03-10T11:38:57Z</time>
      </trkpt>
      <trkpt lat="46.637148633599281" lon="12.310238163918257">
        <ele>2418.52</ele>
        <time>2023-03-10T11:39:08Z</time>
      </trkpt>
      <trkpt lat="46.637138575315475" lon="12.310241768136621">
        <ele>2418.3699999999999</ele>
        <time>2023-03-10T11:39:23Z</time>
      </trkpt>
      <trkpt lat="46.637160200625658" lon="12.310230201110244">
        <ele>2418.8000000000002</ele>
        <time>2023-03-10T11:39:35Z</time>
      </trkpt>
      <trkpt lat="46.637171013280749" lon="12.310218801721931">
        <ele>2418.8099999999999</ele>
        <time>2023-03-10T11:39:54Z</time>
      </trkpt>
      <trkpt lat="46.637224992737174" lon="12.310311840847135">
        <ele>2419.5700000000002</ele>
        <time>2023-03-10T11:40:07Z</time>
      </trkpt>
      <trkpt lat="46.637221304699779" lon="12.310316115617752">
        <ele>2418.5900000000001</ele>
        <time>2023-03-10T11:40:29Z</time>
      </trkpt>
      <trkpt lat="46.637219041585922" lon="12.310334136709571">
        <ele>2417.5100000000002</ele>
        <time>2023-03-10T11:40:49Z</time>
      </trkpt>
      <trkpt lat="46.637222310528159" lon="12.310331119224429">
        <ele>2417.6199999999999</ele>
        <time>2023-03-10T11:41:01Z</time>
      </trkpt>
      <trkpt lat="46.637223232537508" lon="12.310321731492877">
        <ele>2417.77</ele>
        <time>2023-03-10T11:41:21Z</time>
      </trkpt>
      <trkpt lat="46.637220634147525" lon="12.310318127274513">
        <ele>2417.6100000000001</ele>
        <time>2023-03-10T11:41:40Z</time>
      </trkpt>
      <trkpt lat="46.637214347720146" lon="12.310318378731608">
        <ele>2417.3600000000001</ele>
        <time>2023-03-10T11:41:57Z</time>
      </trkpt>
      <trkpt lat="46.6372150182724" lon="12.310315361246467">
        <ele>2417.2399999999998</ele>
        <time>2023-03-10T11:42:11Z</time>
      </trkpt>
      <trkpt lat="46.6372184548527" lon="12.310309996828437">
        <ele>2417.3400000000001</ele>
        <time>2023-03-10T11:42:35Z</time>
      </trkpt>
      <trkpt lat="46.637230021879077" lon="12.310322402045131">
        <ele>2417.3699999999999</ele>
        <time>2023-03-10T11:42:56Z</time>
      </trkpt>
      <trkpt lat="46.637228177860379" lon="12.310318294912577">
        <ele>2417.0799999999999</ele>
        <time>2023-03-10T11:43:16Z</time>
      </trkpt>
      <trkpt lat="46.637224154546857" lon="12.310326592996716">
        <ele>2416.6199999999999</ele>
        <time>2023-03-10T11:43:33Z</time>
      </trkpt>
      <trkpt lat="46.63722968660295" lon="12.310331789776683">
        <ele>2416.4299999999998</ele>
        <time>2023-03-10T11:43:58Z</time>
      </trkpt>
      <trkpt lat="46.637226669117808" lon="12.310332376509905">
        <ele>2416.21</ele>
        <time>2023-03-10T11:44:13Z</time>
      </trkpt>
      <trkpt lat="46.637227004393935" lon="12.310331789776683">
        <ele>2416.1399999999999</ele>
        <time>2023-03-10T11:44:36Z</time>
      </trkpt>
      <trkpt lat="46.637228848412633" lon="12.310329610481858">
        <ele>2415.9099999999999</ele>
        <time>2023-03-10T11:44:55Z</time>
      </trkpt>
      <trkpt lat="46.637161541730165" lon="12.310269763693213">
        <ele>2415.6100000000001</ele>
        <time>2023-03-10T11:45:09Z</time>
      </trkpt>
      <trkpt lat="46.637053582817316" lon="12.310242187231779">
        <ele>2412.8600000000001</ele>
        <time>2023-03-10T11:45:21Z</time>
      </trkpt>
      <trkpt lat="46.636915449053049" lon="12.310278229415417">
        <ele>2408.04</ele>
        <time>2023-03-10T11:45:37Z</time>
      </trkpt>
      <trkpt lat="46.636862056329846" lon="12.310423320159316">
        <ele>2408.1700000000001</ele>
        <time>2023-03-10T11:45:51Z</time>
      </trkpt>
      <trkpt lat="46.63684168830514" lon="12.310514263808727">
        <ele>2408.5</ele>
        <time>2023-03-10T11:46:00Z</time>
      </trkpt>
      <trkpt lat="46.63682559505105" lon="12.310552485287189">
        <ele>2408.3800000000001</ele>
        <time>2023-03-10T11:46:03Z</time>
      </trkpt>
      <trkpt lat="46.636813106015325" lon="12.310660947114229">
        <ele>2408.6700000000001</ele>
        <time>2023-03-10T11:46:18Z</time>
      </trkpt>
      <trkpt lat="46.636834982782602" lon="12.310656001791358">
        <ele>2408.77</ele>
        <time>2023-03-10T11:46:33Z</time>
      </trkpt>
      <trkpt lat="46.63679868914187" lon="12.310705874115229">
        <ele>2408.7199999999998</ele>
        <time>2023-03-10T11:46:44Z</time>
      </trkpt>
      <trkpt lat="46.636841353029013" lon="12.31066832318902">
        <ele>2407.8299999999999</ele>
        <time>2023-03-10T11:46:55Z</time>
      </trkpt>
      <trkpt lat="46.6368661634624" lon="12.31061015278101">
        <ele>2409.75</ele>
        <time>2023-03-10T11:47:06Z</time>
      </trkpt>
      <trkpt lat="46.636879155412316" lon="12.310592550784349">
        <ele>2410.8299999999999</ele>
        <time>2023-03-10T11:47:21Z</time>
      </trkpt>
      <trkpt lat="46.636873874813318" lon="12.310590203851461">
        <ele>2410.9499999999998</ele>
        <time>2023-03-10T11:47:25Z</time>
      </trkpt>
      <trkpt lat="46.636893404647708" lon="12.310549300163984">
        <ele>2411.23</ele>
        <time>2023-03-10T11:47:38Z</time>
      </trkpt>
      <trkpt lat="46.636895919218659" lon="12.310502026230097">
        <ele>2410.8099999999999</ele>
        <time>2023-03-10T11:47:53Z</time>
      </trkpt>
      <trkpt lat="46.636889046058059" lon="12.310484843328595">
        <ele>2410.73</ele>
        <time>2023-03-10T11:48:05Z</time>
      </trkpt>
      <trkpt lat="46.636882675811648" lon="12.310474533587694">
        <ele>2410.7399999999998</ele>
        <time>2023-03-10T11:48:10Z</time>
      </trkpt>
      <trkpt lat="46.636946545913815" lon="12.310461457818747">
        <ele>2411.3800000000001</ele>
        <time>2023-03-10T11:48:54Z</time>
      </trkpt>
      <trkpt lat="46.636965237557888" lon="12.310484927147627">
        <ele>2411.6300000000001</ele>
        <time>2023-03-10T11:49:02Z</time>
      </trkpt>
      <trkpt lat="46.636978145688772" lon="12.310540750622749">
        <ele>2411.4699999999998</ele>
        <time>2023-03-10T11:49:23Z</time>
      </trkpt>
      <trkpt lat="46.636968338862062" lon="12.310468498617411">
        <ele>2410.9400000000001</ele>
        <time>2023-03-10T11:49:29Z</time>
      </trkpt>
      <trkpt lat="46.63690036162734" lon="12.310510240495205">
        <ele>2408.48</ele>
        <time>2023-03-10T11:49:53Z</time>
      </trkpt>
      <trkpt lat="46.636876976117492" lon="12.31050806120038">
        <ele>2407.4400000000001</ele>
        <time>2023-03-10T11:50:15Z</time>
      </trkpt>
      <trkpt lat="46.636851998046041" lon="12.31046992354095">
        <ele>2407.1300000000001</ele>
        <time>2023-03-10T11:50:36Z</time>
      </trkpt>
      <trkpt lat="46.636843532323837" lon="12.310464475303888">
        <ele>2407.5700000000002</ele>
        <time>2023-03-10T11:50:56Z</time>
      </trkpt>
      <trkpt lat="46.636870186775923" lon="12.310502948239446">
        <ele>2407.6599999999999</ele>
        <time>2023-03-10T11:51:17Z</time>
      </trkpt>
      <trkpt lat="46.636865744367242" lon="12.310512838885188">
        <ele>2407.3200000000002</ele>
        <time>2023-03-10T11:51:38Z</time>
      </trkpt>
      <trkpt lat="46.63687932305038" lon="12.310496158897877">
        <ele>2407.1100000000001</ele>
        <time>2023-03-10T11:51:59Z</time>
      </trkpt>
      <trkpt lat="46.636873288080096" lon="12.31049389578402">
        <ele>2406.73</ele>
        <time>2023-03-10T11:52:15Z</time>
      </trkpt>
      <trkpt lat="46.636865828186274" lon="12.310481574386358">
        <ele>2405.8400000000001</ele>
        <time>2023-03-10T11:52:34Z</time>
      </trkpt>
      <trkpt lat="46.636869432404637" lon="12.310489118099213">
        <ele>2405.6700000000001</ele>
        <time>2023-03-10T11:52:54Z</time>
      </trkpt>
      <trkpt lat="46.63687739521265" lon="12.310483753681183">
        <ele>2405.5799999999999</ele>
        <time>2023-03-10T11:53:12Z</time>
      </trkpt>
      <trkpt lat="46.636860966682434" lon="12.31047528795898">
        <ele>2405.5999999999999</ele>
        <time>2023-03-10T11:53:32Z</time>
      </trkpt>
      <trkpt lat="46.636863397434354" lon="12.310458859428763">
        <ele>2405.7399999999998</ele>
        <time>2023-03-10T11:53:53Z</time>
      </trkpt>
      <trkpt lat="46.636859877035022" lon="12.31046698987484">
        <ele>2405.71</ele>
        <time>2023-03-10T11:54:13Z</time>
      </trkpt>
      <trkpt lat="46.636876221746206" lon="12.310464642941952">
        <ele>2405.9699999999998</ele>
        <time>2023-03-10T11:54:31Z</time>
      </trkpt>
      <trkpt lat="46.63687638938427" lon="12.310477634891868">
        <ele>2406.5599999999999</ele>
        <time>2023-03-10T11:54:50Z</time>
      </trkpt>
      <trkpt lat="46.636871360242367" lon="12.310485430061817">
        <ele>2407.4400000000001</ele>
        <time>2023-03-10T11:55:08Z</time>
      </trkpt>
      <trkpt lat="46.636877059936523" lon="12.310492135584354">
        <ele>2407.7199999999998</ele>
        <time>2023-03-10T11:55:27Z</time>
      </trkpt>
      <trkpt lat="46.636857697740197" lon="12.310490794479847">
        <ele>2407.8200000000002</ele>
        <time>2023-03-10T11:55:48Z</time>
      </trkpt>
      <trkpt lat="46.636875718832016" lon="12.31050118803978">
        <ele>2407.8200000000002</ele>
        <time>2023-03-10T11:56:10Z</time>
      </trkpt>
      <trkpt lat="46.636874713003635" lon="12.31049096211791">
        <ele>2407.8800000000001</ele>
        <time>2023-03-10T11:56:27Z</time>
      </trkpt>
      <trkpt lat="46.636869432404637" lon="12.310484759509563">
        <ele>2408.02</ele>
        <time>2023-03-10T11:56:47Z</time>
      </trkpt>
      <trkpt lat="46.636882675811648" lon="12.310489034280181">
        <ele>2407.5999999999999</ele>
        <time>2023-03-10T11:57:05Z</time>
      </trkpt>
      <trkpt lat="46.636873036623001" lon="12.310476545244455">
        <ele>2408.3400000000001</ele>
        <time>2023-03-10T11:57:24Z</time>
      </trkpt>
      <trkpt lat="46.636876221746206" lon="12.310481406748295">
        <ele>2409.4899999999998</ele>
        <time>2023-03-10T11:57:45Z</time>
      </trkpt>
      <trkpt lat="46.636876976117492" lon="12.310473695397377">
        <ele>2410.3899999999999</ele>
        <time>2023-03-10T11:58:09Z</time>
      </trkpt>
      <trkpt lat="46.636847471818328" lon="12.310459529981017">
        <ele>2411.3400000000001</ele>
        <time>2023-03-10T11:58:30Z</time>
      </trkpt>
      <trkpt lat="46.636849315837026" lon="12.310465481132269">
        <ele>2411.9099999999999</ele>
        <time>2023-03-10T11:58:48Z</time>
      </trkpt>
      <trkpt lat="46.636836156249046" lon="12.310461290180683">
        <ele>2412.3299999999999</ele>
        <time>2023-03-10T11:59:08Z</time>
      </trkpt>
      <trkpt lat="46.636834815144539" lon="12.310460871085525">
        <ele>2411.9899999999998</ele>
        <time>2023-03-10T11:59:27Z</time>
      </trkpt>
      <trkpt lat="46.636848812922835" lon="12.310478137806058">
        <ele>2412.0300000000002</ele>
        <time>2023-03-10T11:59:48Z</time>
      </trkpt>
      <trkpt lat="46.636855853721499" lon="12.310473276302218">
        <ele>2411.9400000000001</ele>
        <time>2023-03-10T12:00:08Z</time>
      </trkpt>
      <trkpt lat="46.63688032887876" lon="12.310481909662485">
        <ele>2411.4699999999998</ele>
        <time>2023-03-10T12:00:31Z</time>
      </trkpt>
      <trkpt lat="46.636876221746206" lon="12.310478975996375">
        <ele>2410.6799999999998</ele>
        <time>2023-03-10T12:00:50Z</time>
      </trkpt>
      <trkpt lat="46.636873120442033" lon="12.310480987653136">
        <ele>2409.9099999999999</ele>
        <time>2023-03-10T12:01:08Z</time>
      </trkpt>
      <trkpt lat="46.636861050501466" lon="12.310478137806058">
        <ele>2409.7600000000002</ele>
        <time>2023-03-10T12:01:29Z</time>
      </trkpt>
      <trkpt lat="46.636846298351884" lon="12.310474533587694">
        <ele>2409.3699999999999</ele>
        <time>2023-03-10T12:01:48Z</time>
      </trkpt>
      <trkpt lat="46.636825678870082" lon="12.310473024845123">
        <ele>2409.0799999999999</ele>
        <time>2023-03-10T12:02:09Z</time>
      </trkpt>
      <trkpt lat="46.63683875463903" lon="12.310459027066827">
        <ele>2409.48</ele>
        <time>2023-03-10T12:02:29Z</time>
      </trkpt>
      <trkpt lat="46.636901283636689" lon="12.310493476688862">
        <ele>2409.1100000000001</ele>
        <time>2023-03-10T12:03:01Z</time>
      </trkpt>
      <trkpt lat="46.636881334707141" lon="12.310463720932603">
        <ele>2408.2399999999998</ele>
        <time>2023-03-10T12:03:21Z</time>
      </trkpt>
      <trkpt lat="46.636869013309479" lon="12.310461709275842">
        <ele>2408.5999999999999</ele>
        <time>2023-03-10T12:03:40Z</time>
      </trkpt>
      <trkpt lat="46.636843280866742" lon="12.310452573001385">
        <ele>2408.9200000000001</ele>
        <time>2023-03-10T12:03:55Z</time>
      </trkpt>
      <trkpt lat="46.63686566054821" lon="12.310461709275842">
        <ele>2408.71</ele>
        <time>2023-03-10T12:03:58Z</time>
      </trkpt>
      <trkpt lat="46.636902457103133" lon="12.310491716489196">
        <ele>2408.3400000000001</ele>
        <time>2023-03-10T12:04:09Z</time>
      </trkpt>
      <trkpt lat="46.636914359405637" lon="12.310583749786019">
        <ele>2407.6399999999999</ele>
        <time>2023-03-10T12:04:22Z</time>
      </trkpt>
      <trkpt lat="46.636851578950882" lon="12.310588108375669">
        <ele>2408.9400000000001</ele>
        <time>2023-03-10T12:04:42Z</time>
      </trkpt>
      <trkpt lat="46.636875383555889" lon="12.310577463358641">
        <ele>2410.5</ele>
        <time>2023-03-10T12:04:58Z</time>
      </trkpt>
      <trkpt lat="46.636867839843035" lon="12.310561034828424">
        <ele>2410.9400000000001</ele>
        <time>2023-03-10T12:05:12Z</time>
      </trkpt>
      <trkpt lat="46.636861134320498" lon="12.310568746179342">
        <ele>2411.0100000000002</ele>
        <time>2023-03-10T12:05:30Z</time>
      </trkpt>
      <trkpt lat="46.636865828186274" lon="12.310587521642447">
        <ele>2411.6399999999999</ele>
        <time>2023-03-10T12:05:49Z</time>
      </trkpt>
      <trkpt lat="46.63683976046741" lon="12.310600513592362">
        <ele>2412.3299999999999</ele>
        <time>2023-03-10T12:06:04Z</time>
      </trkpt>
      <trkpt lat="46.63682852871716" lon="12.310642087832093">
        <ele>2411.0799999999999</ele>
        <time>2023-03-10T12:06:17Z</time>
      </trkpt>
      <trkpt lat="46.636833054944873" lon="12.31064778752625">
        <ele>2411.0700000000002</ele>
        <time>2023-03-10T12:06:22Z</time>
      </trkpt>
      <trkpt lat="46.636828863993287" lon="12.310674525797367">
        <ele>2410.9099999999999</ele>
        <time>2023-03-10T12:06:24Z</time>
      </trkpt>
      <trkpt lat="46.636808998882771" lon="12.310708137229085">
        <ele>2411.6900000000001</ele>
        <time>2023-03-10T12:06:36Z</time>
      </trkpt>
      <trkpt lat="46.636785361915827" lon="12.310641752555966">
        <ele>2411.5900000000001</ele>
        <time>2023-03-10T12:06:43Z</time>
      </trkpt>
      <trkpt lat="46.636782009154558" lon="12.310595316812396">
        <ele>2411.52</ele>
        <time>2023-03-10T12:06:53Z</time>
      </trkpt>
      <trkpt lat="46.636790810152888" lon="12.31061308644712">
        <ele>2411.3800000000001</ele>
        <time>2023-03-10T12:07:07Z</time>
      </trkpt>
      <trkpt lat="46.636793073266745" lon="12.310621971264482">
        <ele>2411.8600000000001</ele>
        <time>2023-03-10T12:07:20Z</time>
      </trkpt>
      <trkpt lat="46.636792067438364" lon="12.310619121417403">
        <ele>2412.5700000000002</ele>
        <time>2023-03-10T12:07:36Z</time>
      </trkpt>
      <trkpt lat="46.636788798496127" lon="12.310617612674832">
        <ele>2411.8800000000001</ele>
        <time>2023-03-10T12:07:56Z</time>
      </trkpt>
      <trkpt lat="46.636806400492787" lon="12.310653403401375">
        <ele>2412.0900000000001</ele>
        <time>2023-03-10T12:08:17Z</time>
      </trkpt>
      <trkpt lat="46.636792737990618" lon="12.31067318469286">
        <ele>2412.48</ele>
        <time>2023-03-10T12:08:41Z</time>
      </trkpt>
      <trkpt lat="46.636803550645709" lon="12.310657761991024">
        <ele>2412.4099999999999</ele>
        <time>2023-03-10T12:08:57Z</time>
      </trkpt>
      <trkpt lat="46.636816710233688" lon="12.310645943507552">
        <ele>2413.3400000000001</ele>
        <time>2023-03-10T12:09:17Z</time>
      </trkpt>
      <trkpt lat="46.636804137378931" lon="12.310647955164313">
        <ele>2413.52</ele>
        <time>2023-03-10T12:09:36Z</time>
      </trkpt>
      <trkpt lat="46.636795504018664" lon="12.310646697878838">
        <ele>2414.21</ele>
        <time>2023-03-10T12:09:53Z</time>
      </trkpt>
      <trkpt lat="46.636796845123172" lon="12.310643512755632">
        <ele>2414.3299999999999</ele>
        <time>2023-03-10T12:10:20Z</time>
      </trkpt>
      <trkpt lat="46.636799862608314" lon="12.310655163601041">
        <ele>2413.5500000000002</ele>
        <time>2023-03-10T12:10:36Z</time>
      </trkpt>
      <trkpt lat="46.636789049953222" lon="12.310653906315565">
        <ele>2413.3000000000002</ele>
        <time>2023-03-10T12:10:55Z</time>
      </trkpt>
      <trkpt lat="46.636779578402638" lon="12.310665054246783">
        <ele>2412.0999999999999</ele>
        <time>2023-03-10T12:11:14Z</time>
      </trkpt>
      <trkpt lat="46.636788714677095" lon="12.310665054246783">
        <ele>2411.73</ele>
        <time>2023-03-10T12:11:32Z</time>
      </trkpt>
      <trkpt lat="46.636792486533523" lon="12.310656169429421">
        <ele>2411.7800000000002</ele>
        <time>2023-03-10T12:11:48Z</time>
      </trkpt>
      <trkpt lat="46.636793157085776" lon="12.31065952219069">
        <ele>2412.1999999999998</ele>
        <time>2023-03-10T12:12:05Z</time>
      </trkpt>
      <trkpt lat="46.636793240904808" lon="12.310670167207718">
        <ele>2412.6999999999998</ele>
        <time>2023-03-10T12:12:25Z</time>
      </trkpt>
      <trkpt lat="46.636789636686444" lon="12.310665557160974">
        <ele>2412.9499999999998</ele>
        <time>2023-03-10T12:12:50Z</time>
      </trkpt>
      <trkpt lat="46.636786619201303" lon="12.310659857466817">
        <ele>2413.1799999999998</ele>
        <time>2023-03-10T12:13:09Z</time>
      </trkpt>
      <trkpt lat="46.636783936992288" lon="12.310656169429421">
        <ele>2413.3400000000001</ele>
        <time>2023-03-10T12:13:27Z</time>
      </trkpt>
      <trkpt lat="46.636775890365243" lon="12.310663545504212">
        <ele>2413.9899999999998</ele>
        <time>2023-03-10T12:13:43Z</time>
      </trkpt>
      <trkpt lat="46.636784188449383" lon="12.310663713142276">
        <ele>2414.21</ele>
        <time>2023-03-10T12:14:00Z</time>
      </trkpt>
      <trkpt lat="46.636783769354224" lon="12.310672597959638">
        <ele>2414.4400000000001</ele>
        <time>2023-03-10T12:14:13Z</time>
      </trkpt>
      <trkpt lat="46.636828696355224" lon="12.310653571039438">
        <ele>2414.71</ele>
        <time>2023-03-10T12:14:25Z</time>
      </trkpt>
      <trkpt lat="46.636816710233688" lon="12.310620211064816">
        <ele>2413.8800000000001</ele>
        <time>2023-03-10T12:14:44Z</time>
      </trkpt>
      <trkpt lat="46.636816877871752" lon="12.31062138453126">
        <ele>2413.2600000000002</ele>
        <time>2023-03-10T12:15:04Z</time>
      </trkpt>
      <trkpt lat="46.636818554252386" lon="12.310631107538939">
        <ele>2413.75</ele>
        <time>2023-03-10T12:15:33Z</time>
      </trkpt>
      <trkpt lat="46.636821152642369" lon="12.310627922415733">
        <ele>2413.1100000000001</ele>
        <time>2023-03-10T12:15:51Z</time>
      </trkpt>
      <trkpt lat="46.636820398271084" lon="12.310625491663814">
        <ele>2413.1100000000001</ele>
        <time>2023-03-10T12:16:15Z</time>
      </trkpt>
      <trkpt lat="46.636814866214991" lon="12.310622641816735">
        <ele>2413.77</ele>
        <time>2023-03-10T12:17:06Z</time>
      </trkpt>
      <trkpt lat="46.636816961690784" lon="12.310626665130258">
        <ele>2414.8699999999999</ele>
        <time>2023-03-10T12:17:45Z</time>
      </trkpt>
      <trkpt lat="46.63681972771883" lon="12.310622809454799">
        <ele>2415.54</ele>
        <time>2023-03-10T12:18:29Z</time>
      </trkpt>
      <trkpt lat="46.636822409927845" lon="12.310629598796368">
        <ele>2415.9400000000001</ele>
        <time>2023-03-10T12:18:59Z</time>
      </trkpt>
      <trkpt lat="46.636818218976259" lon="12.310671340674162">
        <ele>2415.3400000000001</ele>
        <time>2023-03-10T12:19:14Z</time>
      </trkpt>
      <trkpt lat="46.636807154864073" lon="12.310664048418403">
        <ele>2414.5900000000001</ele>
        <time>2023-03-10T12:19:30Z</time>
      </trkpt>
      <trkpt lat="46.636805897578597" lon="12.310666898265481">
        <ele>2414.21</ele>
        <time>2023-03-10T12:19:50Z</time>
      </trkpt>
      <trkpt lat="46.636777399107814" lon="12.310704616829753">
        <ele>2414.04</ele>
        <time>2023-03-10T12:20:01Z</time>
      </trkpt>
      <trkpt lat="46.636790139600635" lon="12.310686595737934">
        <ele>2412.3600000000001</ele>
        <time>2023-03-10T12:20:24Z</time>
      </trkpt>
      <trkpt lat="46.636787205934525" lon="12.310692882165313">
        <ele>2412.1199999999999</ele>
        <time>2023-03-10T12:20:42Z</time>
      </trkpt>
      <trkpt lat="46.636794162914157" lon="12.310686931014061">
        <ele>2412.0700000000002</ele>
        <time>2023-03-10T12:20:56Z</time>
      </trkpt>
      <trkpt lat="46.636808412149549" lon="12.31068735010922">
        <ele>2412.4499999999998</ele>
        <time>2023-03-10T12:21:11Z</time>
      </trkpt>
      <trkpt lat="46.636823583394289" lon="12.310677710920572">
        <ele>2412.5599999999999</ele>
        <time>2023-03-10T12:21:31Z</time>
      </trkpt>
      <trkpt lat="46.636808915063739" lon="12.310672178864479">
        <ele>2413.46</ele>
        <time>2023-03-10T12:21:45Z</time>
      </trkpt>
      <trkpt lat="46.636802712455392" lon="12.310678632929921">
        <ele>2414.4299999999998</ele>
        <time>2023-03-10T12:22:07Z</time>
      </trkpt>
      <trkpt lat="46.636801706627011" lon="12.310674777254462">
        <ele>2415.3000000000002</ele>
        <time>2023-03-10T12:22:26Z</time>
      </trkpt>
      <trkpt lat="46.636796090751886" lon="12.310673268511891">
        <ele>2415.79</ele>
        <time>2023-03-10T12:22:52Z</time>
      </trkpt>
      <trkpt lat="46.636795420199633" lon="12.310699252411723">
        <ele>2415.4699999999998</ele>
        <time>2023-03-10T12:23:10Z</time>
      </trkpt>
      <trkpt lat="46.636840682476759" lon="12.310751052573323">
        <ele>2415.2199999999998</ele>
        <time>2023-03-10T12:23:20Z</time>
      </trkpt>
      <trkpt lat="46.636911341920495" lon="12.310766391456127">
        <ele>2415.0900000000001</ele>
        <time>2023-03-10T12:23:34Z</time>
      </trkpt>
      <trkpt lat="46.636903630569577" lon="12.310778545215726">
        <ele>2415.0799999999999</ele>
        <time>2023-03-10T12:23:54Z</time>
      </trkpt>
      <trkpt lat="46.636903211474419" lon="12.31077192351222">
        <ele>2415.29</ele>
        <time>2023-03-10T12:24:05Z</time>
      </trkpt>
      <trkpt lat="46.636914610862732" lon="12.310764798894525">
        <ele>2415.8200000000002</ele>
        <time>2023-03-10T12:24:23Z</time>
      </trkpt>
      <trkpt lat="46.636963309720159" lon="12.310770750045776">
        <ele>2416.1799999999998</ele>
        <time>2023-03-10T12:24:34Z</time>
      </trkpt>
      <trkpt lat="46.636959202587605" lon="12.310767229646444">
        <ele>2416.6199999999999</ele>
        <time>2023-03-10T12:24:54Z</time>
      </trkpt>
      <trkpt lat="46.636940594762564" lon="12.310765134170651">
        <ele>2416.4099999999999</ele>
        <time>2023-03-10T12:25:20Z</time>
      </trkpt>
      <trkpt lat="46.63694285787642" lon="12.310773516073823">
        <ele>2416.0300000000002</ele>
        <time>2023-03-10T12:25:30Z</time>
      </trkpt>
      <trkpt lat="46.636944869533181" lon="12.310772594064474">
        <ele>2415.6799999999998</ele>
        <time>2023-03-10T12:25:46Z</time>
      </trkpt>
      <trkpt lat="46.636951575055718" lon="12.310767481103539">
        <ele>2415.3099999999999</ele>
        <time>2023-03-10T12:26:02Z</time>
      </trkpt>
      <trkpt lat="46.636950317770243" lon="12.310761781409383">
        <ele>2414.3800000000001</ele>
        <time>2023-03-10T12:26:21Z</time>
      </trkpt>
      <trkpt lat="46.636949479579926" lon="12.310755159705877">
        <ele>2413.98</ele>
        <time>2023-03-10T12:26:42Z</time>
      </trkpt>
      <trkpt lat="46.636956604197621" lon="12.310746610164642">
        <ele>2413.5500000000002</ele>
        <time>2023-03-10T12:27:07Z</time>
      </trkpt>
      <trkpt lat="46.637034052982926" lon="12.310694307088852">
        <ele>2414.9099999999999</ele>
        <time>2023-03-10T12:27:19Z</time>
      </trkpt>
      <trkpt lat="46.637067580595613" lon="12.31064141727984">
        <ele>2415.77</ele>
        <time>2023-03-10T12:27:25Z</time>
      </trkpt>
      <trkpt lat="46.637149471789598" lon="12.310558771714568">
        <ele>2417.8400000000001</ele>
        <time>2023-03-10T12:27:39Z</time>
      </trkpt>
      <trkpt lat="46.637151734903455" lon="12.310562375932932">
        <ele>2417.23</ele>
        <time>2023-03-10T12:27:56Z</time>
      </trkpt>
      <trkpt lat="46.637159530073404" lon="12.310563800856471">
        <ele>2417.0799999999999</ele>
        <time>2023-03-10T12:28:11Z</time>
      </trkpt>
      <trkpt lat="46.637182747945189" lon="12.310554999858141">
        <ele>2416.98</ele>
        <time>2023-03-10T12:28:24Z</time>
      </trkpt>
      <trkpt lat="46.637184508144855" lon="12.310556089505553">
        <ele>2417.0999999999999</ele>
        <time>2023-03-10T12:28:39Z</time>
      </trkpt>
      <trkpt lat="46.637186100706458" lon="12.310561118647456">
        <ele>2417.1799999999998</ele>
        <time>2023-03-10T12:28:55Z</time>
      </trkpt>
      <trkpt lat="46.637181406840682" lon="12.310566483065486">
        <ele>2417.25</ele>
        <time>2023-03-10T12:29:09Z</time>
      </trkpt>
      <trkpt lat="46.637183586135507" lon="12.310567321255803">
        <ele>2416.8499999999999</ele>
        <time>2023-03-10T12:29:26Z</time>
      </trkpt>
      <trkpt lat="46.637189956381917" lon="12.310561537742615">
        <ele>2416.5100000000002</ele>
        <time>2023-03-10T12:29:51Z</time>
      </trkpt>
      <trkpt lat="46.637187525629997" lon="12.31056472286582">
        <ele>2416.04</ele>
        <time>2023-03-10T12:30:09Z</time>
      </trkpt>
      <trkpt lat="46.637187944725156" lon="12.310564890503883">
        <ele>2415.1399999999999</ele>
        <time>2023-03-10T12:30:28Z</time>
      </trkpt>
      <trkpt lat="46.63718375377357" lon="12.310562459751964">
        <ele>2414.0900000000001</ele>
        <time>2023-03-10T12:30:52Z</time>
      </trkpt>
      <trkpt lat="46.637184843420982" lon="12.310560615733266">
        <ele>2414.1900000000001</ele>
        <time>2023-03-10T12:31:08Z</time>
      </trkpt>
      <trkpt lat="46.637199763208628" lon="12.310573942959309">
        <ele>2414.46</ele>
        <time>2023-03-10T12:31:23Z</time>
      </trkpt>
      <trkpt lat="46.637241337448359" lon="12.31058718636632">
        <ele>2414.29</ele>
        <time>2023-03-10T12:31:28Z</time>
      </trkpt>
      <trkpt lat="46.637364383786917" lon="12.310569332912564">
        <ele>2414.0599999999999</ele>
        <time>2023-03-10T12:31:42Z</time>
      </trkpt>
      <trkpt lat="46.637367652729154" lon="12.310570003464818">
        <ele>2414.6799999999998</ele>
        <time>2023-03-10T12:31:58Z</time>
      </trkpt>
      <trkpt lat="46.637367568910122" lon="12.310566650703549">
        <ele>2414.8200000000002</ele>
        <time>2023-03-10T12:32:13Z</time>
      </trkpt>
      <trkpt lat="46.637410400435328" lon="12.310549048706889">
        <ele>2415.1500000000001</ele>
        <time>2023-03-10T12:32:27Z</time>
      </trkpt>
      <trkpt lat="46.637408807873726" lon="12.310549383983016">
        <ele>2415.9299999999998</ele>
        <time>2023-03-10T12:32:47Z</time>
      </trkpt>
      <trkpt lat="46.637413082644343" lon="12.310546701774001">
        <ele>2415.79</ele>
        <time>2023-03-10T12:33:01Z</time>
      </trkpt>
      <trkpt lat="46.637396737933159" lon="12.310559442266822">
        <ele>2415.48</ele>
        <time>2023-03-10T12:33:05Z</time>
      </trkpt>
      <trkpt lat="46.637283666059375" lon="12.310605458915234">
        <ele>2415.3099999999999</ele>
        <time>2023-03-10T12:33:18Z</time>
      </trkpt>
      <trkpt lat="46.637228513136506" lon="12.310619205236435">
        <ele>2415.5599999999999</ele>
        <time>2023-03-10T12:33:31Z</time>
      </trkpt>
      <trkpt lat="46.637232284992933" lon="12.310613924637437">
        <ele>2414.8099999999999</ele>
        <time>2023-03-10T12:33:46Z</time>
      </trkpt>
      <trkpt lat="46.6372409183532" lon="12.310606967657804">
        <ele>2414.9099999999999</ele>
        <time>2023-03-10T12:34:02Z</time>
      </trkpt>
      <trkpt lat="46.637332197278738" lon="12.310581654310226">
        <ele>2414.5100000000002</ele>
        <time>2023-03-10T12:34:14Z</time>
      </trkpt>
      <trkpt lat="46.637387769296765" lon="12.310558604076505">
        <ele>2414.6300000000001</ele>
        <time>2023-03-10T12:34:22Z</time>
      </trkpt>
      <trkpt lat="46.637444850057364" lon="12.310546450316906">
        <ele>2414.6599999999999</ele>
        <time>2023-03-10T12:34:31Z</time>
      </trkpt>
      <trkpt lat="46.637592706829309" lon="12.310561370104551">
        <ele>2413.4200000000001</ele>
        <time>2023-03-10T12:34:46Z</time>
      </trkpt>
      <trkpt lat="46.63766210898757" lon="12.310574781149626">
        <ele>2411.7600000000002</ele>
        <time>2023-03-10T12:34:55Z</time>
      </trkpt>
      <trkpt lat="46.63775154389441" lon="12.310618869960308">
        <ele>2410</ele>
        <time>2023-03-10T12:35:05Z</time>
      </trkpt>
      <trkpt lat="46.637849779799581" lon="12.310680476948619">
        <ele>2410.0999999999999</ele>
        <time>2023-03-10T12:35:17Z</time>
      </trkpt>
      <trkpt lat="46.637941394001245" lon="12.310753567144275">
        <ele>2409.3000000000002</ele>
        <time>2023-03-10T12:35:30Z</time>
      </trkpt>
      <trkpt lat="46.637965701520443" lon="12.310761529952288">
        <ele>2408.9699999999998</ele>
        <time>2023-03-10T12:35:35Z</time>
      </trkpt>
      <trkpt lat="46.637984728440642" lon="12.310774270445108">
        <ele>2408.77</ele>
        <time>2023-03-10T12:35:37Z</time>
      </trkpt>
      <trkpt lat="46.638093860819936" lon="12.310862867161632">
        <ele>2408.1700000000001</ele>
        <time>2023-03-10T12:35:51Z</time>
      </trkpt>
      <trkpt lat="46.63815806619823" lon="12.311001922935247">
        <ele>2408.3699999999999</ele>
        <time>2023-03-10T12:36:05Z</time>
      </trkpt>
      <trkpt lat="46.638207267969847" lon="12.311145337298512">
        <ele>2409.54</ele>
        <time>2023-03-10T12:36:18Z</time>
      </trkpt>
      <trkpt lat="46.638212129473686" lon="12.311163190752268">
        <ele>2409.27</ele>
        <time>2023-03-10T12:36:29Z</time>
      </trkpt>
      <trkpt lat="46.63821623660624" lon="12.311158832162619">
        <ele>2408.79</ele>
        <time>2023-03-10T12:36:40Z</time>
      </trkpt>
      <trkpt lat="46.638214476406574" lon="12.311170399188995">
        <ele>2409.2199999999998</ele>
        <time>2023-03-10T12:37:05Z</time>
      </trkpt>
      <trkpt lat="46.638216990977526" lon="12.31118330731988">
        <ele>2409.0900000000001</ele>
        <time>2023-03-10T12:37:28Z</time>
      </trkpt>
      <trkpt lat="46.638211961835623" lon="12.311183642596006">
        <ele>2410.1599999999999</ele>
        <time>2023-03-10T12:37:41Z</time>
      </trkpt>
      <trkpt lat="46.638226043432951" lon="12.311165118589997">
        <ele>2409.5</ele>
        <time>2023-03-10T12:37:55Z</time>
      </trkpt>
      <trkpt lat="46.638248758390546" lon="12.311162017285824">
        <ele>2409.5700000000002</ele>
        <time>2023-03-10T12:37:57Z</time>
      </trkpt>
      <trkpt lat="46.638281447812915" lon="12.311198394745588">
        <ele>2409.5100000000002</ele>
        <time>2023-03-10T12:38:01Z</time>
      </trkpt>
      <trkpt lat="46.638444475829601" lon="12.311336109414697">
        <ele>2408.9499999999998</ele>
        <time>2023-03-10T12:38:17Z</time>
      </trkpt>
      <trkpt lat="46.638596020638943" lon="12.311421018093824">
        <ele>2406.1100000000001</ele>
        <time>2023-03-10T12:38:31Z</time>
      </trkpt>
      <trkpt lat="46.638754941523075" lon="12.311497209593654">
        <ele>2402.3200000000002</ele>
        <time>2023-03-10T12:38:45Z</time>
      </trkpt>
      <trkpt lat="46.638900702819228" lon="12.311574155464768">
        <ele>2399.02</ele>
        <time>2023-03-10T12:38:58Z</time>
      </trkpt>
      <trkpt lat="46.639057192951441" lon="12.3116744030267">
        <ele>2395.9200000000001</ele>
        <time>2023-03-10T12:39:13Z</time>
      </trkpt>
      <trkpt lat="46.639195829629898" lon="12.311777332797647">
        <ele>2392.9200000000001</ele>
        <time>2023-03-10T12:39:26Z</time>
      </trkpt>
      <trkpt lat="46.639342848211527" lon="12.311906246468425">
        <ele>2390.71</ele>
        <time>2023-03-10T12:39:41Z</time>
      </trkpt>
      <trkpt lat="46.639498919248581" lon="12.312015881761909">
        <ele>2387.5500000000002</ele>
        <time>2023-03-10T12:39:56Z</time>
      </trkpt>
      <trkpt lat="46.639652224257588" lon="12.312091821804643">
        <ele>2386.0500000000002</ele>
        <time>2023-03-10T12:40:11Z</time>
      </trkpt>
      <trkpt lat="46.639651218429208" lon="12.312092073261738">
        <ele>2385.4899999999998</ele>
        <time>2023-03-10T12:40:21Z</time>
      </trkpt>
      <trkpt lat="46.639655157923698" lon="12.312104562297463">
        <ele>2386.25</ele>
        <time>2023-03-10T12:40:36Z</time>
      </trkpt>
      <trkpt lat="46.639652224257588" lon="12.312096431851387">
        <ele>2386.6799999999998</ele>
        <time>2023-03-10T12:41:06Z</time>
      </trkpt>
      <trkpt lat="46.639657588675618" lon="12.312093079090118">
        <ele>2386.4200000000001</ele>
        <time>2023-03-10T12:41:28Z</time>
      </trkpt>
      <trkpt lat="46.639686254784465" lon="12.312090815976262">
        <ele>2386.1599999999999</ele>
        <time>2023-03-10T12:41:55Z</time>
      </trkpt>
      <trkpt lat="46.63969530723989" lon="12.312098275870085">
        <ele>2386.04</ele>
        <time>2023-03-10T12:42:25Z</time>
      </trkpt>
      <trkpt lat="46.639699582010508" lon="12.312104059383273">
        <ele>2385.6399999999999</ele>
        <time>2023-03-10T12:42:47Z</time>
      </trkpt>
      <trkpt lat="46.639692038297653" lon="12.312090145424008">
        <ele>2385.9299999999998</ele>
        <time>2023-03-10T12:43:07Z</time>
      </trkpt>
      <trkpt lat="46.639691283926368" lon="12.31208142824471">
        <ele>2385.6500000000001</ele>
        <time>2023-03-10T12:43:31Z</time>
      </trkpt>
      <trkpt lat="46.639689607545733" lon="12.312081009149551">
        <ele>2385.5900000000001</ele>
        <time>2023-03-10T12:43:56Z</time>
      </trkpt>
      <trkpt lat="46.639694133773446" lon="12.312092240899801">
        <ele>2385.9299999999998</ele>
        <time>2023-03-10T12:44:16Z</time>
      </trkpt>
      <trkpt lat="46.639701342210174" lon="12.312090899795294">
        <ele>2385.8899999999999</ele>
        <time>2023-03-10T12:44:28Z</time>
      </trkpt>
      <trkpt lat="46.639773258939385" lon="12.312082350254059">
        <ele>2385.0100000000002</ele>
        <time>2023-03-10T12:44:36Z</time>
      </trkpt>
      <trkpt lat="46.639877445995808" lon="12.312196847051382">
        <ele>2380.4499999999998</ele>
        <time>2023-03-10T12:44:49Z</time>
      </trkpt>
      <trkpt lat="46.639940813183784" lon="12.312275050207973">
        <ele>2378.5900000000001</ele>
        <time>2023-03-10T12:44:57Z</time>
      </trkpt>
      <trkpt lat="46.640078527852893" lon="12.312451656907797">
        <ele>2374.5599999999999</ele>
        <time>2023-03-10T12:45:13Z</time>
      </trkpt>
      <trkpt lat="46.640187576413155" lon="12.312623234465718">
        <ele>2370.6599999999999</ele>
        <time>2023-03-10T12:45:28Z</time>
      </trkpt>
      <trkpt lat="46.640234347432852" lon="12.312761284410954">
        <ele>2367.5500000000002</ele>
        <time>2023-03-10T12:45:43Z</time>
      </trkpt>
      <trkpt lat="46.640252452343702" lon="12.312785591930151">
        <ele>2366.9699999999998</ele>
        <time>2023-03-10T12:45:58Z</time>
      </trkpt>
      <trkpt lat="46.640256559476256" lon="12.312924982979894">
        <ele>2364.7800000000002</ele>
        <time>2023-03-10T12:46:09Z</time>
      </trkpt>
      <trkpt lat="46.640279609709978" lon="12.313051968812943">
        <ele>2362.1300000000001</ele>
        <time>2023-03-10T12:46:21Z</time>
      </trkpt>
      <trkpt lat="46.640298636630177" lon="12.313095554709435">
        <ele>2362.3699999999999</ele>
        <time>2023-03-10T12:46:36Z</time>
      </trkpt>
      <trkpt lat="46.640296960249543" lon="12.313101505860686">
        <ele>2363.1300000000001</ele>
        <time>2023-03-10T12:46:58Z</time>
      </trkpt>
      <trkpt lat="46.640300396829844" lon="12.313104523345828">
        <ele>2364.1999999999998</ele>
        <time>2023-03-10T12:47:25Z</time>
      </trkpt>
      <trkpt lat="46.640296960249543" lon="12.313146349042654">
        <ele>2364.3600000000001</ele>
        <time>2023-03-10T12:47:38Z</time>
      </trkpt>
      <trkpt lat="46.640295116230845" lon="12.31315104290843">
        <ele>2365.0500000000002</ele>
        <time>2023-03-10T12:47:59Z</time>
      </trkpt>
      <trkpt lat="46.640288578346372" lon="12.313155233860016">
        <ele>2365.54</ele>
        <time>2023-03-10T12:48:22Z</time>
      </trkpt>
      <trkpt lat="46.640289165079594" lon="12.313174596056342">
        <ele>2365.3699999999999</ele>
        <time>2023-03-10T12:48:26Z</time>
      </trkpt>
      <trkpt lat="46.640298049896955" lon="12.31321357190609">
        <ele>2364.9200000000001</ele>
        <time>2023-03-10T12:48:29Z</time>
      </trkpt>
      <trkpt lat="46.640394777059555" lon="12.313372157514095">
        <ele>2363.1999999999998</ele>
        <time>2023-03-10T12:48:43Z</time>
      </trkpt>
      <trkpt lat="46.640454204753041" lon="12.313448181375861">
        <ele>2362.0999999999999</ele>
        <time>2023-03-10T12:48:56Z</time>
      </trkpt>
      <trkpt lat="46.640453953295946" lon="12.313445499166846">
        <ele>2360.9499999999998</ele>
        <time>2023-03-10T12:49:19Z</time>
      </trkpt>
      <trkpt lat="46.640458730980754" lon="12.313455389812589">
        <ele>2360.7600000000002</ele>
        <time>2023-03-10T12:49:31Z</time>
      </trkpt>
      <trkpt lat="46.640530060976744" lon="12.313544824719429">
        <ele>2358.96</ele>
        <time>2023-03-10T12:49:44Z</time>
      </trkpt>
      <trkpt lat="46.640638522803783" lon="12.313652783632278">
        <ele>2357.1399999999999</ele>
        <time>2023-03-10T12:49:59Z</time>
      </trkpt>
      <trkpt lat="46.640713876113296" lon="12.313719084486365">
        <ele>2355.3600000000001</ele>
        <time>2023-03-10T12:50:11Z</time>
      </trkpt>
      <trkpt lat="46.640853099524975" lon="12.313894433900714">
        <ele>2352.3200000000002</ele>
        <time>2023-03-10T12:50:28Z</time>
      </trkpt>
      <trkpt lat="46.640966841951013" lon="12.314037093892694">
        <ele>2349.9400000000001</ele>
        <time>2023-03-10T12:50:43Z</time>
      </trkpt>
      <trkpt lat="46.640986120328307" lon="12.314062742516398">
        <ele>2349.5799999999999</ele>
        <time>2023-03-10T12:50:46Z</time>
      </trkpt>
      <trkpt lat="46.641021659597754" lon="12.314113704487681">
        <ele>2348.6599999999999</ele>
        <time>2023-03-10T12:50:51Z</time>
      </trkpt>
      <trkpt lat="46.641138503327966" lon="12.314297435805202">
        <ele>2347.23</ele>
        <time>2023-03-10T12:51:07Z</time>
      </trkpt>
      <trkpt lat="46.641287114471197" lon="12.314439006149769">
        <ele>2345.9400000000001</ele>
        <time>2023-03-10T12:51:25Z</time>
      </trkpt>
      <trkpt lat="46.641357438638806" lon="12.314529195427895">
        <ele>2345.4699999999998</ele>
        <time>2023-03-10T12:51:39Z</time>
      </trkpt>
      <trkpt lat="46.6413629706949" lon="12.314542774111032">
        <ele>2345.73</ele>
        <time>2023-03-10T12:51:50Z</time>
      </trkpt>
      <trkpt lat="46.641394989565015" lon="12.314580408856273">
        <ele>2345.27</ele>
        <time>2023-03-10T12:51:57Z</time>
      </trkpt>
      <trkpt lat="46.641458692029119" lon="12.314669592306018">
        <ele>2344.7800000000002</ele>
        <time>2023-03-10T12:52:11Z</time>
      </trkpt>
      <trkpt lat="46.641477718949318" lon="12.314699767157435">
        <ele>2344.4499999999998</ele>
        <time>2023-03-10T12:52:25Z</time>
      </trkpt>
      <trkpt lat="46.641530022025108" lon="12.314758272841573">
        <ele>2344.2199999999998</ele>
        <time>2023-03-10T12:52:38Z</time>
      </trkpt>
      <trkpt lat="46.641536559909582" lon="12.314766487106681">
        <ele>2344.1799999999998</ele>
        <time>2023-03-10T12:52:39Z</time>
      </trkpt>
      <trkpt lat="46.641648206859827" lon="12.314917780458927">
        <ele>2344.3600000000001</ele>
        <time>2023-03-10T12:52:57Z</time>
      </trkpt>
      <trkpt lat="46.641676621511579" lon="12.3149692453444">
        <ele>2344</ele>
        <time>2023-03-10T12:53:07Z</time>
      </trkpt>
      <trkpt lat="46.641739401966333" lon="12.315067900344729">
        <ele>2344.6500000000001</ele>
        <time>2023-03-10T12:53:20Z</time>
      </trkpt>
      <trkpt lat="46.641760021448135" lon="12.315093297511339">
        <ele>2344.3000000000002</ele>
        <time>2023-03-10T12:53:31Z</time>
      </trkpt>
      <trkpt lat="46.641834117472172" lon="12.315239645540714">
        <ele>2344.46</ele>
        <time>2023-03-10T12:53:45Z</time>
      </trkpt>
      <trkpt lat="46.641865214332938" lon="12.315315250307322">
        <ele>2344.0900000000001</ele>
        <time>2023-03-10T12:53:58Z</time>
      </trkpt>
      <trkpt lat="46.641896311193705" lon="12.315390771254897">
        <ele>2342.9099999999999</ele>
        <time>2023-03-10T12:54:15Z</time>
      </trkpt>
      <trkpt lat="46.641987590119243" lon="12.315622111782432">
        <ele>2339.98</ele>
        <time>2023-03-10T12:54:33Z</time>
      </trkpt>
      <trkpt lat="46.642037210986018" lon="12.315813889726996">
        <ele>2337.1900000000001</ele>
        <time>2023-03-10T12:54:48Z</time>
      </trkpt>
      <trkpt lat="46.642053807154298" lon="12.31596602126956">
        <ele>2334.1500000000001</ele>
        <time>2023-03-10T12:55:02Z</time>
      </trkpt>
      <trkpt lat="46.642055567353964" lon="12.316010864451528">
        <ele>2333.3400000000001</ele>
        <time>2023-03-10T12:55:06Z</time>
      </trkpt>
      <trkpt lat="46.642064452171326" lon="12.31603835709393">
        <ele>2332.9499999999998</ele>
        <time>2023-03-10T12:55:08Z</time>
      </trkpt>
      <trkpt lat="46.642064787447453" lon="12.316239522770047">
        <ele>2329.6599999999999</ele>
        <time>2023-03-10T12:55:23Z</time>
      </trkpt>
      <trkpt lat="46.642090436071157" lon="12.316419817507267">
        <ele>2327.6399999999999</ele>
        <time>2023-03-10T12:55:37Z</time>
      </trkpt>
      <trkpt lat="46.642116755247116" lon="12.316589383408427">
        <ele>2324.9499999999998</ele>
        <time>2023-03-10T12:55:51Z</time>
      </trkpt>
      <trkpt lat="46.642139721661806" lon="12.316788034513593">
        <ele>2322.0999999999999</ele>
        <time>2023-03-10T12:56:07Z</time>
      </trkpt>
      <trkpt lat="46.642162185162306" lon="12.316991295665503">
        <ele>2321.52</ele>
        <time>2023-03-10T12:56:23Z</time>
      </trkpt>
      <trkpt lat="46.642184313386679" lon="12.317190449684858">
        <ele>2321.4200000000001</ele>
        <time>2023-03-10T12:56:38Z</time>
      </trkpt>
      <trkpt lat="46.642202334478498" lon="12.317376863211393">
        <ele>2322.1399999999999</ele>
        <time>2023-03-10T12:56:53Z</time>
      </trkpt>
      <trkpt lat="46.642225133255124" lon="12.317554391920567">
        <ele>2321.48</ele>
        <time>2023-03-10T12:57:08Z</time>
      </trkpt>
      <trkpt lat="46.642277603968978" lon="12.317638797685504">
        <ele>2320.4200000000001</ele>
        <time>2023-03-10T12:57:18Z</time>
      </trkpt>
      <trkpt lat="46.642331415787339" lon="12.317704427987337">
        <ele>2318.48</ele>
        <time>2023-03-10T12:57:26Z</time>
      </trkpt>
      <trkpt lat="46.642349353060126" lon="12.317937361076474">
        <ele>2317.2199999999998</ele>
        <time>2023-03-10T12:57:43Z</time>
      </trkpt>
      <trkpt lat="46.642314651980996" lon="12.318135173991323">
        <ele>2315.5900000000001</ele>
        <time>2023-03-10T12:57:58Z</time>
      </trkpt>
      <trkpt lat="46.642272910103202" lon="12.318304236978292">
        <ele>2313.6700000000001</ele>
        <time>2023-03-10T12:58:13Z</time>
      </trkpt>
      <trkpt lat="46.642254386097193" lon="12.318408591672778">
        <ele>2312.4000000000001</ele>
        <time>2023-03-10T12:58:26Z</time>
      </trkpt>
      <trkpt lat="46.642224211245775" lon="12.31845703907311">
        <ele>2311.6799999999998</ele>
        <time>2023-03-10T12:58:45Z</time>
      </trkpt>
      <trkpt lat="46.64218682795763" lon="12.318582180887461">
        <ele>2309.1700000000001</ele>
        <time>2023-03-10T12:58:59Z</time>
      </trkpt>
      <trkpt lat="46.642171069979668" lon="12.318594418466091">
        <ele>2309</ele>
        <time>2023-03-10T12:59:11Z</time>
      </trkpt>
      <trkpt lat="46.642177859321237" lon="12.318637669086456">
        <ele>2308.98</ele>
        <time>2023-03-10T12:59:26Z</time>
      </trkpt>
      <trkpt lat="46.642184732481837" lon="12.318733390420675">
        <ele>2307.8400000000001</ele>
        <time>2023-03-10T12:59:35Z</time>
      </trkpt>
      <trkpt lat="46.642190348356962" lon="12.31889046728611">
        <ele>2305.3899999999999</ele>
        <time>2023-03-10T12:59:49Z</time>
      </trkpt>
      <trkpt lat="46.642170064151287" lon="12.318973783403635">
        <ele>2303.6500000000001</ele>
        <time>2023-03-10T12:59:56Z</time>
      </trkpt>
      <trkpt lat="46.642153132706881" lon="12.319033294916153">
        <ele>2303.9400000000001</ele>
        <time>2023-03-10T13:00:11Z</time>
      </trkpt>
      <trkpt lat="46.642134943976998" lon="12.319074952974916">
        <ele>2303.5599999999999</ele>
        <time>2023-03-10T13:00:15Z</time>
      </trkpt>
      <trkpt lat="46.642123460769653" lon="12.319099847227335">
        <ele>2303.1799999999998</ele>
        <time>2023-03-10T13:00:17Z</time>
      </trkpt>
      <trkpt lat="46.642039138823748" lon="12.319306712597609">
        <ele>2299.1500000000001</ele>
        <time>2023-03-10T13:00:33Z</time>
      </trkpt>
      <trkpt lat="46.641941992565989" lon="12.319489857181907">
        <ele>2296.6399999999999</ele>
        <time>2023-03-10T13:00:49Z</time>
      </trkpt>
      <trkpt lat="46.64191760122776" lon="12.319509806111455">
        <ele>2296.0100000000002</ele>
        <time>2023-03-10T13:01:04Z</time>
      </trkpt>
      <trkpt lat="46.641823723912239" lon="12.319650370627642">
        <ele>2294.9499999999998</ele>
        <time>2023-03-10T13:01:19Z</time>
      </trkpt>
      <trkpt lat="46.641758009791374" lon="12.319810800254345">
        <ele>2294.3499999999999</ele>
        <time>2023-03-10T13:01:33Z</time>
      </trkpt>
      <trkpt lat="46.641675028949976" lon="12.319998471066356">
        <ele>2292.77</ele>
        <time>2023-03-10T13:01:49Z</time>
      </trkpt>
      <trkpt lat="46.641610404476523" lon="12.320123864337802">
        <ele>2291.8299999999999</ele>
        <time>2023-03-10T13:02:01Z</time>
      </trkpt>
      <trkpt lat="46.641507893800735" lon="12.320288652554154">
        <ele>2290.3299999999999</ele>
        <time>2023-03-10T13:02:16Z</time>
      </trkpt>
      <trkpt lat="46.641438994556665" lon="12.320381356403232">
        <ele>2290.5</ele>
        <time>2023-03-10T13:02:29Z</time>
      </trkpt>
      <trkpt lat="46.641431953758001" lon="12.320416392758489">
        <ele>2290.21</ele>
        <time>2023-03-10T13:02:32Z</time>
      </trkpt>
      <trkpt lat="46.641416447237134" lon="12.320461738854647">
        <ele>2290.0100000000002</ele>
        <time>2023-03-10T13:02:36Z</time>
      </trkpt>
      <trkpt lat="46.641331622377038" lon="12.320470036938787">
        <ele>2288.6500000000001</ele>
        <time>2023-03-10T13:02:49Z</time>
      </trkpt>
      <trkpt lat="46.641289042308927" lon="12.320605404675007">
        <ele>2286.3400000000001</ele>
        <time>2023-03-10T13:03:02Z</time>
      </trkpt>
      <trkpt lat="46.641259621828794" lon="12.320689391344786">
        <ele>2284.5799999999999</ele>
        <time>2023-03-10T13:03:11Z</time>
      </trkpt>
      <trkpt lat="46.641231877729297" lon="12.320750579237938">
        <ele>2283.4200000000001</ele>
        <time>2023-03-10T13:03:17Z</time>
      </trkpt>
      <trkpt lat="46.641179490834475" lon="12.320839175954461">
        <ele>2283.1999999999998</ele>
        <time>2023-03-10T13:03:26Z</time>
      </trkpt>
      <trkpt lat="46.641169600188732" lon="12.320858454331756">
        <ele>2282.9400000000001</ele>
        <time>2023-03-10T13:03:28Z</time>
      </trkpt>
      <trkpt lat="46.641157865524292" lon="12.32087966054678">
        <ele>2282.3699999999999</ele>
        <time>2023-03-10T13:03:30Z</time>
      </trkpt>
      <trkpt lat="46.641138754785061" lon="12.320921737700701">
        <ele>2282.0300000000002</ele>
        <time>2023-03-10T13:03:33Z</time>
      </trkpt>
      <trkpt lat="46.641135066747665" lon="12.320945877581835">
        <ele>2281.9099999999999</ele>
        <time>2023-03-10T13:03:34Z</time>
      </trkpt>
      <trkpt lat="46.641089972108603" lon="12.321035647764802">
        <ele>2277.6799999999998</ele>
        <time>2023-03-10T13:03:44Z</time>
      </trkpt>
      <trkpt lat="46.641037417575717" lon="12.32106925919652">
        <ele>2275.5500000000002</ele>
        <time>2023-03-10T13:03:51Z</time>
      </trkpt>
      <trkpt lat="46.641028868034482" lon="12.321074036881328">
        <ele>2275.3000000000002</ele>
        <time>2023-03-10T13:03:52Z</time>
      </trkpt>
      <trkpt lat="46.64095108397305" lon="12.321211332455277">
        <ele>2271.6999999999998</ele>
        <time>2023-03-10T13:04:04Z</time>
      </trkpt>
      <trkpt lat="46.640910934656858" lon="12.321285847574472">
        <ele>2270.6900000000001</ele>
        <time>2023-03-10T13:04:11Z</time>
      </trkpt>
      <trkpt lat="46.640895763412118" lon="12.321319291368127">
        <ele>2269.52</ele>
        <time>2023-03-10T13:04:14Z</time>
      </trkpt>
      <trkpt lat="46.640870617702603" lon="12.321372851729393">
        <ele>2268.3000000000002</ele>
        <time>2023-03-10T13:04:19Z</time>
      </trkpt>
      <trkpt lat="46.640827283263206" lon="12.321508303284645">
        <ele>2264.73</ele>
        <time>2023-03-10T13:04:31Z</time>
      </trkpt>
      <trkpt lat="46.640768023207784" lon="12.321718856692314">
        <ele>2260.1500000000001</ele>
        <time>2023-03-10T13:04:47Z</time>
      </trkpt>
      <trkpt lat="46.640719994902611" lon="12.321920525282621">
        <ele>2256.1999999999998</ele>
        <time>2023-03-10T13:05:02Z</time>
      </trkpt>
      <trkpt lat="46.640651682391763" lon="12.322024796158075">
        <ele>2254.98</ele>
        <time>2023-03-10T13:05:15Z</time>
      </trkpt>
      <trkpt lat="46.6406618244946" lon="12.322017084807158">
        <ele>2255.4499999999998</ele>
        <time>2023-03-10T13:05:31Z</time>
      </trkpt>
      <trkpt lat="46.640661992132664" lon="12.322020772844553">
        <ele>2256.3400000000001</ele>
        <time>2023-03-10T13:05:56Z</time>
      </trkpt>
      <trkpt lat="46.640654699876904" lon="12.322025131434202">
        <ele>2256.5700000000002</ele>
        <time>2023-03-10T13:06:16Z</time>
      </trkpt>
      <trkpt lat="46.640612538903952" lon="12.322026304900646">
        <ele>2255.7399999999998</ele>
        <time>2023-03-10T13:06:28Z</time>
      </trkpt>
      <trkpt lat="46.640518577769399" lon="12.322142980992794">
        <ele>2252.8600000000001</ele>
        <time>2023-03-10T13:06:42Z</time>
      </trkpt>
      <trkpt lat="46.640470381826162" lon="12.322271559387445">
        <ele>2250.0999999999999</ele>
        <time>2023-03-10T13:06:57Z</time>
      </trkpt>
      <trkpt lat="46.640449343249202" lon="12.32232210226357">
        <ele>2249.27</ele>
        <time>2023-03-10T13:07:13Z</time>
      </trkpt>
      <trkpt lat="46.640435345470905" lon="12.322472725063562">
        <ele>2246.1100000000001</ele>
        <time>2023-03-10T13:07:26Z</time>
      </trkpt>
      <trkpt lat="46.640413971617818" lon="12.322573307901621">
        <ele>2243.79</ele>
        <time>2023-03-10T13:07:36Z</time>
      </trkpt>
      <trkpt lat="46.640388909727335" lon="12.322730887681246">
        <ele>2240.1999999999998</ele>
        <time>2023-03-10T13:07:48Z</time>
      </trkpt>
      <trkpt lat="46.640389328822494" lon="12.322745639830828">
        <ele>2239.8400000000001</ele>
        <time>2023-03-10T13:07:49Z</time>
      </trkpt>
      <trkpt lat="46.640403494238853" lon="12.322808755561709">
        <ele>2238.9400000000001</ele>
        <time>2023-03-10T13:07:54Z</time>
      </trkpt>
      <trkpt lat="46.640411959961057" lon="12.322818897664547">
        <ele>2238.9499999999998</ele>
        <time>2023-03-10T13:07:55Z</time>
      </trkpt>
      <trkpt lat="46.640480356290936" lon="12.322917636483908">
        <ele>2238.9200000000001</ele>
        <time>2023-03-10T13:08:09Z</time>
      </trkpt>
      <trkpt lat="46.640471052378416" lon="12.322923252359033">
        <ele>2238.5100000000002</ele>
        <time>2023-03-10T13:08:30Z</time>
      </trkpt>
      <trkpt lat="46.640422102063894" lon="12.322948565706611">
        <ele>2237.6900000000001</ele>
        <time>2023-03-10T13:08:39Z</time>
      </trkpt>
      <trkpt lat="46.640332583338022" lon="12.323011513799429">
        <ele>2235.6900000000001</ele>
        <time>2023-03-10T13:08:52Z</time>
      </trkpt>
      <trkpt lat="46.640227641910315" lon="12.323113437741995">
        <ele>2231.9200000000001</ele>
        <time>2023-03-10T13:09:08Z</time>
      </trkpt>
      <trkpt lat="46.640175590291619" lon="12.323248805478215">
        <ele>2227.5999999999999</ele>
        <time>2023-03-10T13:09:22Z</time>
      </trkpt>
      <trkpt lat="46.640172488987446" lon="12.32326271943748">
        <ele>2227.0999999999999</ele>
        <time>2023-03-10T13:09:23Z</time>
      </trkpt>
      <trkpt lat="46.640167878940701" lon="12.32327738776803">
        <ele>2226.6100000000001</ele>
        <time>2023-03-10T13:09:24Z</time>
      </trkpt>
      <trkpt lat="46.640152372419834" lon="12.323423568159342">
        <ele>2222.5300000000002</ele>
        <time>2023-03-10T13:09:36Z</time>
      </trkpt>
      <trkpt lat="46.640147343277931" lon="12.323539657518268">
        <ele>2219.2600000000002</ele>
        <time>2023-03-10T13:09:48Z</time>
      </trkpt>
      <trkpt lat="46.640130411833525" lon="12.323659602552652">
        <ele>2216.25</ele>
        <time>2023-03-10T13:10:00Z</time>
      </trkpt>
      <trkpt lat="46.640135943889618" lon="12.323727663606405">
        <ele>2215.4699999999998</ele>
        <time>2023-03-10T13:10:12Z</time>
      </trkpt>
      <trkpt lat="46.640150863677263" lon="12.323750713840127">
        <ele>2214.9899999999998</ele>
        <time>2023-03-10T13:10:24Z</time>
      </trkpt>
      <trkpt lat="46.640156647190452" lon="12.32373864389956">
        <ele>2215.5500000000002</ele>
        <time>2023-03-10T13:10:45Z</time>
      </trkpt>
      <trkpt lat="46.640180367976427" lon="12.323735123500228">
        <ele>2215.3499999999999</ele>
        <time>2023-03-10T13:10:56Z</time>
      </trkpt>
      <trkpt lat="46.640209620818496" lon="12.323716431856155">
        <ele>2214.73</ele>
        <time>2023-03-10T13:10:59Z</time>
      </trkpt>
      <trkpt lat="46.640227725729346" lon="12.323712408542633">
        <ele>2214.0500000000002</ele>
        <time>2023-03-10T13:11:01Z</time>
      </trkpt>
      <trkpt lat="46.640253458172083" lon="12.323724729940295">
        <ele>2212.75</ele>
        <time>2023-03-10T13:11:03Z</time>
      </trkpt>
      <trkpt lat="46.64026209153235" lon="12.323740152642131">
        <ele>2212.0599999999999</ele>
        <time>2023-03-10T13:11:04Z</time>
      </trkpt>
      <trkpt lat="46.640268545597792" lon="12.323758425191045">
        <ele>2211.48</ele>
        <time>2023-03-10T13:11:05Z</time>
      </trkpt>
      <trkpt lat="46.640274245291948" lon="12.323775188997388">
        <ele>2211.1700000000001</ele>
        <time>2023-03-10T13:11:06Z</time>
      </trkpt>
      <trkpt lat="46.640278687700629" lon="12.323790276423097">
        <ele>2210.8800000000001</ele>
        <time>2023-03-10T13:11:07Z</time>
      </trkpt>
      <trkpt lat="46.640284890308976" lon="12.323803519830108">
        <ele>2210.6500000000001</ele>
        <time>2023-03-10T13:11:08Z</time>
      </trkpt>
      <trkpt lat="46.640337277203798" lon="12.323791533708572">
        <ele>2209.6799999999998</ele>
        <time>2023-03-10T13:11:14Z</time>
      </trkpt>
      <trkpt lat="46.640360746532679" lon="12.32374744489789">
        <ele>2208.4699999999998</ele>
        <time>2023-03-10T13:11:25Z</time>
      </trkpt>
      <trkpt lat="46.640352951362729" lon="12.323757419362664">
        <ele>2208.1500000000001</ele>
        <time>2023-03-10T13:11:41Z</time>
      </trkpt>
      <trkpt lat="46.640357142314315" lon="12.323735291138291">
        <ele>2208.4000000000001</ele>
        <time>2023-03-10T13:11:59Z</time>
      </trkpt>
      <trkpt lat="46.64036518894136" lon="12.323725149035454">
        <ele>2208.8699999999999</ele>
        <time>2023-03-10T13:12:16Z</time>
      </trkpt>
      <trkpt lat="46.640389245003462" lon="12.323716264218092">
        <ele>2208.5999999999999</ele>
        <time>2023-03-10T13:12:19Z</time>
      </trkpt>
      <trkpt lat="46.640414139255881" lon="12.323665637522936">
        <ele>2208.21</ele>
        <time>2023-03-10T13:12:28Z</time>
      </trkpt>
      <trkpt lat="46.640446074306965" lon="12.323617190122604">
        <ele>2207.4000000000001</ele>
        <time>2023-03-10T13:12:41Z</time>
      </trkpt>
      <trkpt lat="46.640499131754041" lon="12.323546027764678">
        <ele>2206.3800000000001</ele>
        <time>2023-03-10T13:12:53Z</time>
      </trkpt>
      <trkpt lat="46.640547746792436" lon="12.323462627828121">
        <ele>2204.2199999999998</ele>
        <time>2023-03-10T13:13:04Z</time>
      </trkpt>
      <trkpt lat="46.640612035989761" lon="12.323378138244152">
        <ele>2200.3099999999999</ele>
        <time>2023-03-10T13:13:16Z</time>
      </trkpt>
      <trkpt lat="46.640739776194096" lon="12.323371013626456">
        <ele>2197.9200000000001</ele>
        <time>2023-03-10T13:13:31Z</time>
      </trkpt>
      <trkpt lat="46.640812698751688" lon="12.323453156277537">
        <ele>2194.5700000000002</ele>
        <time>2023-03-10T13:13:43Z</time>
      </trkpt>
      <trkpt lat="46.640886291861534" lon="12.323528928682208">
        <ele>2191.6599999999999</ele>
        <time>2023-03-10T13:13:55Z</time>
      </trkpt>
      <trkpt lat="46.640982935205102" lon="12.323648873716593">
        <ele>2188.54</ele>
        <time>2023-03-10T13:14:10Z</time>
      </trkpt>
      <trkpt lat="46.641093911603093" lon="12.323771500959992">
        <ele>2185.71</ele>
        <time>2023-03-10T13:14:25Z</time>
      </trkpt>
      <trkpt lat="46.64120907895267" lon="12.323884489014745">
        <ele>2182.1900000000001</ele>
        <time>2023-03-10T13:14:40Z</time>
      </trkpt>
      <trkpt lat="46.641310667619109" lon="12.32399370521307">
        <ele>2179.4699999999998</ele>
        <time>2023-03-10T13:14:54Z</time>
      </trkpt>
      <trkpt lat="46.641411082819104" lon="12.324120104312897">
        <ele>2176.8600000000001</ele>
        <time>2023-03-10T13:15:10Z</time>
      </trkpt>
      <trkpt lat="46.641491884365678" lon="12.324279947206378">
        <ele>2175.1799999999998</ele>
        <time>2023-03-10T13:15:24Z</time>
      </trkpt>
      <trkpt lat="46.641545780003071" lon="12.324425205588341">
        <ele>2173.3299999999999</ele>
        <time>2023-03-10T13:15:37Z</time>
      </trkpt>
      <trkpt lat="46.641557179391384" lon="12.324465522542596">
        <ele>2173.1799999999998</ele>
        <time>2023-03-10T13:15:47Z</time>
      </trkpt>
      <trkpt lat="46.641558101400733" lon="12.324463091790676">
        <ele>2173.21</ele>
        <time>2023-03-10T13:15:57Z</time>
      </trkpt>
      <trkpt lat="46.641550557687879" lon="12.324467450380325">
        <ele>2173.2399999999998</ele>
        <time>2023-03-10T13:16:22Z</time>
      </trkpt>
      <trkpt lat="46.641538152471185" lon="12.324474155902863">
        <ele>2174.5100000000002</ele>
        <time>2023-03-10T13:16:43Z</time>
      </trkpt>
      <trkpt lat="46.641540499404073" lon="12.324477424845099">
        <ele>2174.9400000000001</ele>
        <time>2023-03-10T13:16:58Z</time>
      </trkpt>
      <trkpt lat="46.641554078087211" lon="12.324491003528237">
        <ele>2175.0999999999999</ele>
        <time>2023-03-10T13:17:09Z</time>
      </trkpt>
      <trkpt lat="46.641559274867177" lon="12.324504582211375">
        <ele>2175.04</ele>
        <time>2023-03-10T13:17:10Z</time>
      </trkpt>
      <trkpt lat="46.641562879085541" lon="12.324518663808703">
        <ele>2174.8400000000001</ele>
        <time>2023-03-10T13:17:11Z</time>
      </trkpt>
      <trkpt lat="46.641589198261499" lon="12.324704825878143">
        <ele>2171.8899999999999</ele>
        <time>2023-03-10T13:17:23Z</time>
      </trkpt>
      <trkpt lat="46.641626665368676" lon="12.324918480589986">
        <ele>2168.5100000000002</ele>
        <time>2023-03-10T13:17:39Z</time>
      </trkpt>
      <trkpt lat="46.641665138304234" lon="12.324911942705512">
        <ele>2167.1399999999999</ele>
        <time>2023-03-10T13:17:44Z</time>
      </trkpt>
      <trkpt lat="46.641673017293215" lon="12.324903979897499">
        <ele>2166.6999999999998</ele>
        <time>2023-03-10T13:17:45Z</time>
      </trkpt>
      <trkpt lat="46.641720961779356" lon="12.324872044846416">
        <ele>2164.8600000000001</ele>
        <time>2023-03-10T13:17:50Z</time>
      </trkpt>
      <trkpt lat="46.641730014234781" lon="12.324873134493828">
        <ele>2164.3499999999999</ele>
        <time>2023-03-10T13:17:51Z</time>
      </trkpt>
      <trkpt lat="46.641742251813412" lon="12.324923845008016">
        <ele>2163.3299999999999</ele>
        <time>2023-03-10T13:17:55Z</time>
      </trkpt>
      <trkpt lat="46.641772761940956" lon="12.325120232999325">
        <ele>2159.0900000000001</ele>
        <time>2023-03-10T13:18:11Z</time>
      </trkpt>
      <trkpt lat="46.641832357272506" lon="12.325257444754243">
        <ele>2156.2199999999998</ele>
        <time>2023-03-10T13:18:23Z</time>
      </trkpt>
      <trkpt lat="46.641870411112905" lon="12.325305892154574">
        <ele>2154.2600000000002</ele>
        <time>2023-03-10T13:18:35Z</time>
      </trkpt>
      <trkpt lat="46.641866639256477" lon="12.325302790850401">
        <ele>2153.9899999999998</ele>
        <time>2023-03-10T13:18:52Z</time>
      </trkpt>
      <trkpt lat="46.641856329515576" lon="12.325314274057746">
        <ele>2154.3200000000002</ele>
        <time>2023-03-10T13:19:20Z</time>
      </trkpt>
      <trkpt lat="46.64184870198369" lon="12.325318045914173">
        <ele>2154.0799999999999</ele>
        <time>2023-03-10T13:19:42Z</time>
      </trkpt>
      <trkpt lat="46.641846774145961" lon="12.325321566313505">
        <ele>2154.4699999999998</ele>
        <time>2023-03-10T13:20:07Z</time>
      </trkpt>
      <trkpt lat="46.641844091936946" lon="12.325328188017011">
        <ele>2154.6100000000001</ele>
        <time>2023-03-10T13:20:19Z</time>
      </trkpt>
      <trkpt lat="46.641837051138282" lon="12.32533254660666">
        <ele>2154.54</ele>
        <time>2023-03-10T13:20:35Z</time>
      </trkpt>
      <trkpt lat="46.6418447624892" lon="12.325361464172602">
        <ele>2153.8200000000002</ele>
        <time>2023-03-10T13:20:59Z</time>
      </trkpt>
      <trkpt lat="46.641839984804392" lon="12.325469339266419">
        <ele>2152.5999999999999</ele>
        <time>2023-03-10T13:21:10Z</time>
      </trkpt>
      <trkpt lat="46.641862615942955" lon="12.325595989823341">
        <ele>2150.1799999999998</ele>
        <time>2023-03-10T13:21:22Z</time>
      </trkpt>
      <trkpt lat="46.641858592629433" lon="12.325629685074091">
        <ele>2150.2800000000002</ele>
        <time>2023-03-10T13:21:36Z</time>
      </trkpt>
      <trkpt lat="46.641875272616744" lon="12.325669163838029">
        <ele>2149.0500000000002</ele>
        <time>2023-03-10T13:21:52Z</time>
      </trkpt>
      <trkpt lat="46.641888683661819" lon="12.325742086395621">
        <ele>2147.75</ele>
        <time>2023-03-10T13:21:58Z</time>
      </trkpt>
      <trkpt lat="46.641857754439116" lon="12.325899330899119">
        <ele>2144.5799999999999</ele>
        <time>2023-03-10T13:22:11Z</time>
      </trkpt>
      <trkpt lat="46.641845516860485" lon="12.325950292870402">
        <ele>2142.5799999999999</ele>
        <time>2023-03-10T13:22:15Z</time>
      </trkpt>
      <trkpt lat="46.641832860186696" lon="12.326002595946193">
        <ele>2141.21</ele>
        <time>2023-03-10T13:22:19Z</time>
      </trkpt>
      <trkpt lat="46.641831016167998" lon="12.326018186286092">
        <ele>2141.02</ele>
        <time>2023-03-10T13:22:20Z</time>
      </trkpt>
      <trkpt lat="46.641833866015077" lon="12.326123127713799">
        <ele>2139.8200000000002</ele>
        <time>2023-03-10T13:22:27Z</time>
      </trkpt>
      <trkpt lat="46.641844594851136" lon="12.326152212917805">
        <ele>2139.0799999999999</ele>
        <time>2023-03-10T13:22:29Z</time>
      </trkpt>
      <trkpt lat="46.641890779137611" lon="12.326299482956529">
        <ele>2133.3200000000002</ele>
        <time>2023-03-10T13:22:42Z</time>
      </trkpt>
      <trkpt lat="46.641921289265156" lon="12.326388079673052">
        <ele>2130.21</ele>
        <time>2023-03-10T13:22:50Z</time>
      </trkpt>
      <trkpt lat="46.641948446631432" lon="12.326494362205267">
        <ele>2128.0100000000002</ele>
        <time>2023-03-10T13:22:59Z</time>
      </trkpt>
      <trkpt lat="46.641984824091196" lon="12.326685134321451">
        <ele>2125.4899999999998</ele>
        <time>2023-03-10T13:23:13Z</time>
      </trkpt>
      <trkpt lat="46.642021536827087" lon="12.326836511492729">
        <ele>2122.52</ele>
        <time>2023-03-10T13:23:26Z</time>
      </trkpt>
      <trkpt lat="46.642040479928255" lon="12.326950673013926">
        <ele>2121.8299999999999</ele>
        <time>2023-03-10T13:23:37Z</time>
      </trkpt>
      <trkpt lat="46.642099572345614" lon="12.326969616115093">
        <ele>2120.9299999999998</ele>
        <time>2023-03-10T13:23:44Z</time>
      </trkpt>
      <trkpt lat="46.642110468819737" lon="12.326974226161838">
        <ele>2120.6500000000001</ele>
        <time>2023-03-10T13:23:45Z</time>
      </trkpt>
      <trkpt lat="46.642137207090855" lon="12.327010687440634">
        <ele>2119.9899999999998</ele>
        <time>2023-03-10T13:23:49Z</time>
      </trkpt>
      <trkpt lat="46.642145169898868" lon="12.327022086828947">
        <ele>2119.9499999999998</ele>
        <time>2023-03-10T13:23:50Z</time>
      </trkpt>
      <trkpt lat="46.642154473811388" lon="12.327030720189214">
        <ele>2119.8699999999999</ele>
        <time>2023-03-10T13:23:51Z</time>
      </trkpt>
      <trkpt lat="46.642248770222068" lon="12.327032228931785">
        <ele>2118.1700000000001</ele>
        <time>2023-03-10T13:24:04Z</time>
      </trkpt>
      <trkpt lat="46.642321776598692" lon="12.327066175639629">
        <ele>2115.6500000000001</ele>
        <time>2023-03-10T13:24:16Z</time>
      </trkpt>
      <trkpt lat="46.642323285341263" lon="12.32719324529171">
        <ele>2112.8000000000002</ele>
        <time>2023-03-10T13:24:28Z</time>
      </trkpt>
      <trkpt lat="46.642344826832414" lon="12.327269352972507">
        <ele>2110.9200000000001</ele>
        <time>2023-03-10T13:24:39Z</time>
      </trkpt>
      <trkpt lat="46.642313059419394" lon="12.327374126762152">
        <ele>2108.46</ele>
        <time>2023-03-10T13:24:51Z</time>
      </trkpt>
      <trkpt lat="46.642298307269812" lon="12.32741410844028">
        <ele>2107.5999999999999</ele>
        <time>2023-03-10T13:24:55Z</time>
      </trkpt>
      <trkpt lat="46.642282549291849" lon="12.327553415670991">
        <ele>2105.6900000000001</ele>
        <time>2023-03-10T13:25:07Z</time>
      </trkpt>
      <trkpt lat="46.642330577597022" lon="12.327742679044604">
        <ele>2103.6799999999998</ele>
        <time>2023-03-10T13:25:23Z</time>
      </trkpt>
      <trkpt lat="46.642371732741594" lon="12.327918531373143">
        <ele>2101.2199999999998</ele>
        <time>2023-03-10T13:25:40Z</time>
      </trkpt>
      <trkpt lat="46.642389921471477" lon="12.327980557456613">
        <ele>2100.4699999999998</ele>
        <time>2023-03-10T13:25:49Z</time>
      </trkpt>
      <trkpt lat="46.642404422163963" lon="12.328032441437244">
        <ele>2099.46</ele>
        <time>2023-03-10T13:26:02Z</time>
      </trkpt>
      <trkpt lat="46.642417833209038" lon="12.328079044818878">
        <ele>2099.4000000000001</ele>
        <time>2023-03-10T13:26:16Z</time>
      </trkpt>
      <trkpt lat="46.642483128234744" lon="12.32819052413106">
        <ele>2097.3699999999999</ele>
        <time>2023-03-10T13:26:28Z</time>
      </trkpt>
      <trkpt lat="46.642451779916883" lon="12.328240899369121">
        <ele>2094.3099999999999</ele>
        <time>2023-03-10T13:26:37Z</time>
      </trkpt>
      <trkpt lat="46.642380869016051" lon="12.32833712361753">
        <ele>2089.9400000000001</ele>
        <time>2023-03-10T13:26:48Z</time>
      </trkpt>
      <trkpt lat="46.642293194308877" lon="12.328506270423532">
        <ele>2084.0300000000002</ele>
        <time>2023-03-10T13:27:05Z</time>
      </trkpt>
      <trkpt lat="46.642214320600033" lon="12.328618336468935">
        <ele>2080.0300000000002</ele>
        <time>2023-03-10T13:27:18Z</time>
      </trkpt>
      <trkpt lat="46.642144247889519" lon="12.328694527968764">
        <ele>2077.0599999999999</ele>
        <time>2023-03-10T13:27:29Z</time>
      </trkpt>
      <trkpt lat="46.642101751640439" lon="12.328814556822181">
        <ele>2073.54</ele>
        <time>2023-03-10T13:27:41Z</time>
      </trkpt>
      <trkpt lat="46.642053555697203" lon="12.328933915123343">
        <ele>2069.46</ele>
        <time>2023-03-10T13:27:55Z</time>
      </trkpt>
      <trkpt lat="46.642035199329257" lon="12.329012956470251">
        <ele>2066.9899999999998</ele>
        <time>2023-03-10T13:28:03Z</time>
      </trkpt>
      <trkpt lat="46.641981555148959" lon="12.329011280089617">
        <ele>2065.3699999999999</ele>
        <time>2023-03-10T13:28:10Z</time>
      </trkpt>
      <trkpt lat="46.641953978687525" lon="12.329017063602805">
        <ele>2065.2399999999998</ele>
        <time>2023-03-10T13:28:20Z</time>
      </trkpt>
      <trkpt lat="46.641950542107224" lon="12.329014297574759">
        <ele>2065.1199999999999</ele>
        <time>2023-03-10T13:28:36Z</time>
      </trkpt>
      <trkpt lat="46.641945512965322" lon="12.329014297574759">
        <ele>2065.0700000000002</ele>
        <time>2023-03-10T13:28:50Z</time>
      </trkpt>
      <trkpt lat="46.641957750543952" lon="12.3290691152215">
        <ele>2063.7600000000002</ele>
        <time>2023-03-10T13:29:03Z</time>
      </trkpt>
      <trkpt lat="46.641966048628092" lon="12.329232059419155">
        <ele>2060.1599999999999</ele>
        <time>2023-03-10T13:29:18Z</time>
      </trkpt>
      <trkpt lat="46.642031176015735" lon="12.329371450468898">
        <ele>2057.6900000000001</ele>
        <time>2023-03-10T13:29:33Z</time>
      </trkpt>
      <trkpt lat="46.641948949545622" lon="12.329399362206459">
        <ele>2055.1500000000001</ele>
        <time>2023-03-10T13:29:45Z</time>
      </trkpt>
      <trkpt lat="46.641858676448464" lon="12.329394752159715">
        <ele>2052.1999999999998</ele>
        <time>2023-03-10T13:29:58Z</time>
      </trkpt>
      <trkpt lat="46.6417704988271" lon="12.329386454075575">
        <ele>2049.8800000000001</ele>
        <time>2023-03-10T13:30:10Z</time>
      </trkpt>
      <trkpt lat="46.641682153567672" lon="12.329353345558047">
        <ele>2047.51</ele>
        <time>2023-03-10T13:30:22Z</time>
      </trkpt>
      <trkpt lat="46.641652816906571" lon="12.329395087435842">
        <ele>2045.8499999999999</ele>
        <time>2023-03-10T13:30:33Z</time>
      </trkpt>
      <trkpt lat="46.64165273308754" lon="12.329386286437511">
        <ele>2045.8900000000001</ele>
        <time>2023-03-10T13:30:53Z</time>
      </trkpt>
      <trkpt lat="46.641657175496221" lon="12.329422580078244">
        <ele>2045.4200000000001</ele>
        <time>2023-03-10T13:31:06Z</time>
      </trkpt>
      <trkpt lat="46.641677292063832" lon="12.32946490868926">
        <ele>2045.3399999999999</ele>
        <time>2023-03-10T13:31:23Z</time>
      </trkpt>
      <trkpt lat="46.641680896282196" lon="12.329480079934001">
        <ele>2045.1199999999999</ele>
        <time>2023-03-10T13:31:24Z</time>
      </trkpt>
      <trkpt lat="46.641689194366336" lon="12.329524252563715">
        <ele>2044.53</ele>
        <time>2023-03-10T13:31:27Z</time>
      </trkpt>
      <trkpt lat="46.641695899888873" lon="12.329581584781408">
        <ele>2042.79</ele>
        <time>2023-03-10T13:31:32Z</time>
      </trkpt>
      <trkpt lat="46.641685171052814" lon="12.329582255333662">
        <ele>2042.51</ele>
        <time>2023-03-10T13:31:33Z</time>
      </trkpt>
      <trkpt lat="46.641587689518929" lon="12.329541016370058">
        <ele>2040.1800000000001</ele>
        <time>2023-03-10T13:31:43Z</time>
      </trkpt>
      <trkpt lat="46.641575368121266" lon="12.329543363302946">
        <ele>2040.05</ele>
        <time>2023-03-10T13:31:44Z</time>
      </trkpt>
      <trkpt lat="46.641454249620438" lon="12.329492904245853">
        <ele>2037.3199999999999</ele>
        <time>2023-03-10T13:31:56Z</time>
      </trkpt>
      <trkpt lat="46.641351236030459" lon="12.329419478774071">
        <ele>2034.1099999999999</ele>
        <time>2023-03-10T13:32:08Z</time>
      </trkpt>
      <trkpt lat="46.641248976811767" lon="12.329329792410135">
        <ele>2031.0799999999999</ele>
        <time>2023-03-10T13:32:21Z</time>
      </trkpt>
      <trkpt lat="46.641231123358011" lon="12.329326188191772">
        <ele>2030.49</ele>
        <time>2023-03-10T13:32:23Z</time>
      </trkpt>
      <trkpt lat="46.641190890222788" lon="12.329404642805457">
        <ele>2028.47</ele>
        <time>2023-03-10T13:32:31Z</time>
      </trkpt>
      <trkpt lat="46.641191309317946" lon="12.329421155154705">
        <ele>2028.3800000000001</ele>
        <time>2023-03-10T13:32:32Z</time>
      </trkpt>
      <trkpt lat="46.641173204407096" lon="12.329533807933331">
        <ele>2025.54</ele>
        <time>2023-03-10T13:32:42Z</time>
      </trkpt>
      <trkpt lat="46.641171192750335" lon="12.32952400110662">
        <ele>2025.6600000000001</ele>
        <time>2023-03-10T13:32:56Z</time>
      </trkpt>
      <trkpt lat="46.641161721199751" lon="12.32952056452632">
        <ele>2026.28</ele>
        <time>2023-03-10T13:33:12Z</time>
      </trkpt>
      <trkpt lat="46.641154680401087" lon="12.329519726336002">
        <ele>2027.8800000000001</ele>
        <time>2023-03-10T13:33:29Z</time>
      </trkpt>
      <trkpt lat="46.64115970954299" lon="12.329519642516971">
        <ele>2027.8699999999999</ele>
        <time>2023-03-10T13:33:42Z</time>
      </trkpt>
      <trkpt lat="46.641165660694242" lon="12.329516289755702">
        <ele>2027.71</ele>
        <time>2023-03-10T13:34:11Z</time>
      </trkpt>
      <trkpt lat="46.641171360388398" lon="12.329521905630827">
        <ele>2025.6199999999999</ele>
        <time>2023-03-10T13:34:40Z</time>
      </trkpt>
      <trkpt lat="46.641176724806428" lon="12.329508829861879">
        <ele>2024.1199999999999</ele>
        <time>2023-03-10T13:35:09Z</time>
      </trkpt>
      <trkpt lat="46.641173707321286" lon="12.329526348039508">
        <ele>2023.54</ele>
        <time>2023-03-10T13:35:36Z</time>
      </trkpt>
      <trkpt lat="46.641173623502254" lon="12.329522240906954">
        <ele>2024.0799999999999</ele>
        <time>2023-03-10T13:35:53Z</time>
      </trkpt>
      <trkpt lat="46.641178652644157" lon="12.329516541212797">
        <ele>2026.45</ele>
        <time>2023-03-10T13:36:27Z</time>
      </trkpt>
      <trkpt lat="46.641175467520952" lon="12.329525928944349">
        <ele>2027.3599999999999</ele>
        <time>2023-03-10T13:36:57Z</time>
      </trkpt>
      <trkpt lat="46.641176305711269" lon="12.329544788226485">
        <ele>2027.8299999999999</ele>
        <time>2023-03-10T13:37:15Z</time>
      </trkpt>
      <trkpt lat="46.641159122809768" lon="12.329680575057864">
        <ele>2023.55</ele>
        <time>2023-03-10T13:37:29Z</time>
      </trkpt>
      <trkpt lat="46.64114554412663" lon="12.32973120175302">
        <ele>2022.25</ele>
        <time>2023-03-10T13:37:34Z</time>
      </trkpt>
      <trkpt lat="46.641138838604093" lon="12.32975659891963">
        <ele>2021.6500000000001</ele>
        <time>2023-03-10T13:37:36Z</time>
      </trkpt>
      <trkpt lat="46.641119392588735" lon="12.329982994124293">
        <ele>2017.22</ele>
        <time>2023-03-10T13:37:49Z</time>
      </trkpt>
      <trkpt lat="46.641121236607432" lon="12.329997746273875">
        <ele>2016.98</ele>
        <time>2023-03-10T13:37:50Z</time>
      </trkpt>
      <trkpt lat="46.641124086454511" lon="12.33001216314733">
        <ele>2016.6400000000001</ele>
        <time>2023-03-10T13:37:51Z</time>
      </trkpt>
      <trkpt lat="46.641125259920955" lon="12.330028675496578">
        <ele>2016.3699999999999</ele>
        <time>2023-03-10T13:37:52Z</time>
      </trkpt>
      <trkpt lat="46.641116961836815" lon="12.330055329948664">
        <ele>2015.8099999999999</ele>
        <time>2023-03-10T13:37:54Z</time>
      </trkpt>
      <trkpt lat="46.641108496114612" lon="12.33006396330893">
        <ele>2015.47</ele>
        <time>2023-03-10T13:37:55Z</time>
      </trkpt>
      <trkpt lat="46.641097599640489" lon="12.330085588619113">
        <ele>2014.8099999999999</ele>
        <time>2023-03-10T13:37:57Z</time>
      </trkpt>
      <trkpt lat="46.641097599640489" lon="12.330101681873202">
        <ele>2014.46</ele>
        <time>2023-03-10T13:37:58Z</time>
      </trkpt>
      <trkpt lat="46.641102293506265" lon="12.330115428194404">
        <ele>2014.1199999999999</ele>
        <time>2023-03-10T13:37:59Z</time>
      </trkpt>
      <trkpt lat="46.641132300719619" lon="12.330220201984048">
        <ele>2012.1600000000001</ele>
        <time>2023-03-10T13:38:06Z</time>
      </trkpt>
      <trkpt lat="46.641130372881889" lon="12.330236714333296">
        <ele>2011.9000000000001</ele>
        <time>2023-03-10T13:38:07Z</time>
      </trkpt>
      <trkpt lat="46.641128277406096" lon="12.330252137035131">
        <ele>2011.6099999999999</ele>
        <time>2023-03-10T13:38:08Z</time>
      </trkpt>
      <trkpt lat="46.641129115596414" lon="12.330270996317267">
        <ele>2011.49</ele>
        <time>2023-03-10T13:38:09Z</time>
      </trkpt>
      <trkpt lat="46.641131713986397" lon="12.330288430675864">
        <ele>2011.2</ele>
        <time>2023-03-10T13:38:10Z</time>
      </trkpt>
      <trkpt lat="46.641136324033141" lon="12.330303518101573">
        <ele>2010.6700000000001</ele>
        <time>2023-03-10T13:38:11Z</time>
      </trkpt>
      <trkpt lat="46.641143532469869" lon="12.330319946631789">
        <ele>2010.3</ele>
        <time>2023-03-10T13:38:12Z</time>
      </trkpt>
      <trkpt lat="46.641151998192072" lon="12.330334447324276">
        <ele>2009.9100000000001</ele>
        <time>2023-03-10T13:38:13Z</time>
      </trkpt>
      <trkpt lat="46.641159961000085" lon="12.330347942188382">
        <ele>2009.53</ele>
        <time>2023-03-10T13:38:14Z</time>
      </trkpt>
      <trkpt lat="46.641166247427464" lon="12.330361856147647">
        <ele>2009.2</ele>
        <time>2023-03-10T13:38:15Z</time>
      </trkpt>
      <trkpt lat="46.641172282397747" lon="12.330376440659165">
        <ele>2008.8299999999999</ele>
        <time>2023-03-10T13:38:16Z</time>
      </trkpt>
      <trkpt lat="46.64117781445384" lon="12.330391863361001">
        <ele>2008.4000000000001</ele>
        <time>2023-03-10T13:38:17Z</time>
      </trkpt>
      <trkpt lat="46.641183011233807" lon="12.330407705157995">
        <ele>2007.97</ele>
        <time>2023-03-10T13:38:18Z</time>
      </trkpt>
      <trkpt lat="46.641304045915604" lon="12.330615660175681">
        <ele>2002.76</ele>
        <time>2023-03-10T13:38:35Z</time>
      </trkpt>
      <trkpt lat="46.641421979293227" lon="12.33078028075397">
        <ele>2000.3699999999999</ele>
        <time>2023-03-10T13:38:48Z</time>
      </trkpt>
      <trkpt lat="46.641511498019099" lon="12.330855801701546">
        <ele>1996.74</ele>
        <time>2023-03-10T13:38:57Z</time>
      </trkpt>
      <trkpt lat="46.641609566286206" lon="12.33100013807416">
        <ele>1992.51</ele>
        <time>2023-03-10T13:39:08Z</time>
      </trkpt>
      <trkpt lat="46.641681483015418" lon="12.331067025661469">
        <ele>1989.6900000000001</ele>
        <time>2023-03-10T13:39:15Z</time>
      </trkpt>
      <trkpt lat="46.641693636775017" lon="12.331068450585008">
        <ele>1989.29</ele>
        <time>2023-03-10T13:39:16Z</time>
      </trkpt>
      <trkpt lat="46.641706293448806" lon="12.331069791689515">
        <ele>1988.9200000000001</ele>
        <time>2023-03-10T13:39:17Z</time>
      </trkpt>
      <trkpt lat="46.641717273741961" lon="12.331075659021735">
        <ele>1988.6099999999999</ele>
        <time>2023-03-10T13:39:18Z</time>
      </trkpt>
      <trkpt lat="46.641726745292544" lon="12.331085046753287">
        <ele>1988.26</ele>
        <time>2023-03-10T13:39:19Z</time>
      </trkpt>
      <trkpt lat="46.641734540462494" lon="12.331095775589347">
        <ele>1987.8499999999999</ele>
        <time>2023-03-10T13:39:20Z</time>
      </trkpt>
      <trkpt lat="46.641748370602727" lon="12.331200884655118">
        <ele>1985.27</ele>
        <time>2023-03-10T13:39:27Z</time>
      </trkpt>
      <trkpt lat="46.64173873141408" lon="12.3312122002244">
        <ele>1984.95</ele>
        <time>2023-03-10T13:39:28Z</time>
      </trkpt>
      <trkpt lat="46.641541924327612" lon="12.331323428079486">
        <ele>1980.9000000000001</ele>
        <time>2023-03-10T13:39:44Z</time>
      </trkpt>
      <trkpt lat="46.641396917402744" lon="12.331363828852773">
        <ele>1977.6400000000001</ele>
        <time>2023-03-10T13:39:56Z</time>
      </trkpt>
      <trkpt lat="46.641384847462177" lon="12.331367349252105">
        <ele>1977.3299999999999</ele>
        <time>2023-03-10T13:39:57Z</time>
      </trkpt>
      <trkpt lat="46.641376130282879" lon="12.331400960683823">
        <ele>1976.28</ele>
        <time>2023-03-10T13:40:00Z</time>
      </trkpt>
      <trkpt lat="46.641383338719606" lon="12.331414371728897">
        <ele>1975.9400000000001</ele>
        <time>2023-03-10T13:40:01Z</time>
      </trkpt>
      <trkpt lat="46.641391552984715" lon="12.331427447497845">
        <ele>1975.6400000000001</ele>
        <time>2023-03-10T13:40:02Z</time>
      </trkpt>
      <trkpt lat="46.641399431973696" lon="12.331442786380649">
        <ele>1975.3900000000001</ele>
        <time>2023-03-10T13:40:03Z</time>
      </trkpt>
      <trkpt lat="46.641407059505582" lon="12.331459047272801">
        <ele>1975.1400000000001</ele>
        <time>2023-03-10T13:40:04Z</time>
      </trkpt>
      <trkpt lat="46.641466906294227" lon="12.331609250977635">
        <ele>1972.28</ele>
        <time>2023-03-10T13:40:16Z</time>
      </trkpt>
      <trkpt lat="46.641563465818763" lon="12.331747720018029">
        <ele>1968.8299999999999</ele>
        <time>2023-03-10T13:40:32Z</time>
      </trkpt>
      <trkpt lat="46.64157553575933" lon="12.331768171861768">
        <ele>1968.4200000000001</ele>
        <time>2023-03-10T13:40:45Z</time>
      </trkpt>
      <trkpt lat="46.641595987603068" lon="12.331816619262099">
        <ele>1967.5999999999999</ele>
        <time>2023-03-10T13:40:50Z</time>
      </trkpt>
      <trkpt lat="46.641675950959325" lon="12.331971935927868">
        <ele>1963.6300000000001</ele>
        <time>2023-03-10T13:41:04Z</time>
      </trkpt>
      <trkpt lat="46.641712915152311" lon="12.332052569836378">
        <ele>1961.4400000000001</ele>
        <time>2023-03-10T13:41:15Z</time>
      </trkpt>
      <trkpt lat="46.641759602352977" lon="12.33212448656559">
        <ele>1959.0899999999999</ele>
        <time>2023-03-10T13:41:27Z</time>
      </trkpt>
      <trkpt lat="46.641693217679858" lon="12.332217693328857">
        <ele>1956.52</ele>
        <time>2023-03-10T13:41:41Z</time>
      </trkpt>
      <trkpt lat="46.641694894060493" lon="12.332256836816669">
        <ele>1956.1300000000001</ele>
        <time>2023-03-10T13:41:44Z</time>
      </trkpt>
      <trkpt lat="46.641710652038455" lon="12.332307295873761">
        <ele>1955.0599999999999</ele>
        <time>2023-03-10T13:41:48Z</time>
      </trkpt>
      <trkpt lat="46.641716351732612" lon="12.332320036366582">
        <ele>1954.8499999999999</ele>
        <time>2023-03-10T13:41:49Z</time>
      </trkpt>
      <trkpt lat="46.641740994527936" lon="12.332369992509484">
        <ele>1953.8900000000001</ele>
        <time>2023-03-10T13:42:00Z</time>
      </trkpt>
      <trkpt lat="46.641756501048803" lon="12.332399664446712">
        <ele>1952.26</ele>
        <time>2023-03-10T13:42:10Z</time>
      </trkpt>
      <trkpt lat="46.64175683632493" lon="12.332385079935193">
        <ele>1953</ele>
        <time>2023-03-10T13:42:27Z</time>
      </trkpt>
      <trkpt lat="46.641773013398051" lon="12.332411650568247">
        <ele>1952.6099999999999</ele>
        <time>2023-03-10T13:42:31Z</time>
      </trkpt>
      <trkpt lat="46.641780221834779" lon="12.332425229251385">
        <ele>1952.3599999999999</ele>
        <time>2023-03-10T13:42:32Z</time>
      </trkpt>
      <trkpt lat="46.641787094995379" lon="12.332437550649047">
        <ele>1952.22</ele>
        <time>2023-03-10T13:42:33Z</time>
      </trkpt>
      <trkpt lat="46.641889605671167" lon="12.332659754902124">
        <ele>1949.97</ele>
        <time>2023-03-10T13:42:47Z</time>
      </trkpt>
      <trkpt lat="46.642016926780343" lon="12.332890843972564">
        <ele>1948.0799999999999</ele>
        <time>2023-03-10T13:43:03Z</time>
      </trkpt>
      <trkpt lat="46.642072331160307" lon="12.333167195320129">
        <ele>1945.29</ele>
        <time>2023-03-10T13:43:17Z</time>
      </trkpt>
      <trkpt lat="46.642143744975328" lon="12.333415551111102">
        <ele>1942.1300000000001</ele>
        <time>2023-03-10T13:43:31Z</time>
      </trkpt>
      <trkpt lat="46.642190096899867" lon="12.333585452288389">
        <ele>1940.1600000000001</ele>
        <time>2023-03-10T13:43:43Z</time>
      </trkpt>
      <trkpt lat="46.64220149628818" lon="12.333772201091051">
        <ele>1937.1800000000001</ele>
        <time>2023-03-10T13:43:57Z</time>
      </trkpt>
      <trkpt lat="46.642246674746275" lon="12.333968421444297">
        <ele>1932.98</ele>
        <time>2023-03-10T13:44:10Z</time>
      </trkpt>
      <trkpt lat="46.642251368612051" lon="12.333998931571841">
        <ele>1932.3499999999999</ele>
        <time>2023-03-10T13:44:22Z</time>
      </trkpt>
      <trkpt lat="46.642259331420064" lon="12.334018042311072">
        <ele>1931.96</ele>
        <time>2023-03-10T13:44:25Z</time>
      </trkpt>
      <trkpt lat="46.642265282571316" lon="12.334034219384193">
        <ele>1931.7</ele>
        <time>2023-03-10T13:44:26Z</time>
      </trkpt>
      <trkpt lat="46.64226989261806" lon="12.334052659571171">
        <ele>1931.29</ele>
        <time>2023-03-10T13:44:27Z</time>
      </trkpt>
      <trkpt lat="46.642272742465138" lon="12.334072859957814">
        <ele>1930.8</ele>
        <time>2023-03-10T13:44:28Z</time>
      </trkpt>
      <trkpt lat="46.642277184873819" lon="12.334092976525426">
        <ele>1930.3299999999999</ele>
        <time>2023-03-10T13:44:29Z</time>
      </trkpt>
      <trkpt lat="46.642284225672483" lon="12.334110075607896">
        <ele>1929.8900000000001</ele>
        <time>2023-03-10T13:44:30Z</time>
      </trkpt>
      <trkpt lat="46.642291517928243" lon="12.334123570472002">
        <ele>1929.5699999999999</ele>
        <time>2023-03-10T13:44:31Z</time>
      </trkpt>
      <trkpt lat="46.642298810184002" lon="12.334135724231601">
        <ele>1929.3</ele>
        <time>2023-03-10T13:44:32Z</time>
      </trkpt>
      <trkpt lat="46.642442140728235" lon="12.334299003705382">
        <ele>1925.9300000000001</ele>
        <time>2023-03-10T13:44:48Z</time>
      </trkpt>
      <trkpt lat="46.642469801008701" lon="12.334319371730089">
        <ele>1925.46</ele>
        <time>2023-03-10T13:44:57Z</time>
      </trkpt>
      <trkpt lat="46.642476171255112" lon="12.334334291517735">
        <ele>1925.3099999999999</ele>
        <time>2023-03-10T13:44:58Z</time>
      </trkpt>
      <trkpt lat="46.642483044415712" lon="12.334348624572158">
        <ele>1925.1199999999999</ele>
        <time>2023-03-10T13:44:59Z</time>
      </trkpt>
      <trkpt lat="46.642489582300186" lon="12.334360778331757">
        <ele>1924.8199999999999</ele>
        <time>2023-03-10T13:45:00Z</time>
      </trkpt>
      <trkpt lat="46.642557810992002" lon="12.334540570154786">
        <ele>1924.0599999999999</ele>
        <time>2023-03-10T13:45:14Z</time>
      </trkpt>
      <trkpt lat="46.64257432334125" lon="12.334562279284">
        <ele>1924.1800000000001</ele>
        <time>2023-03-10T13:45:16Z</time>
      </trkpt>
      <trkpt lat="46.642588237300515" lon="12.334589771926403">
        <ele>1922.9300000000001</ele>
        <time>2023-03-10T13:45:22Z</time>
      </trkpt>
      <trkpt lat="46.64259385317564" lon="12.334603099152446">
        <ele>1922.78</ele>
        <time>2023-03-10T13:45:23Z</time>
      </trkpt>
      <trkpt lat="46.642598463222384" lon="12.334616845473647">
        <ele>1922.55</ele>
        <time>2023-03-10T13:45:24Z</time>
      </trkpt>
      <trkpt lat="46.642603324726224" lon="12.334630591794848">
        <ele>1922.27</ele>
        <time>2023-03-10T13:45:25Z</time>
      </trkpt>
      <trkpt lat="46.642611119896173" lon="12.334645846858621">
        <ele>1922.2</ele>
        <time>2023-03-10T13:45:26Z</time>
      </trkpt>
      <trkpt lat="46.642620339989662" lon="12.334660263732076">
        <ele>1922.3</ele>
        <time>2023-03-10T13:45:27Z</time>
      </trkpt>
      <trkpt lat="46.642629811540246" lon="12.334672166034579">
        <ele>1922.0699999999999</ele>
        <time>2023-03-10T13:45:28Z</time>
      </trkpt>
      <trkpt lat="46.64263928309083" lon="12.3346814699471">
        <ele>1921.8399999999999</ele>
        <time>2023-03-10T13:45:29Z</time>
      </trkpt>
      <trkpt lat="46.64269158616662" lon="12.334751039743423">
        <ele>1919.8</ele>
        <time>2023-03-10T13:45:38Z</time>
      </trkpt>
      <trkpt lat="46.642825193703175" lon="12.334827734157443">
        <ele>1916.99</ele>
        <time>2023-03-10T13:45:51Z</time>
      </trkpt>
      <trkpt lat="46.64286601357162" lon="12.334826895967126">
        <ele>1916.45</ele>
        <time>2023-03-10T13:45:54Z</time>
      </trkpt>
      <trkpt lat="46.642877161502838" lon="12.334822872653604">
        <ele>1916</ele>
        <time>2023-03-10T13:45:55Z</time>
      </trkpt>
      <trkpt lat="46.642916388809681" lon="12.334858076646924">
        <ele>1914.46</ele>
        <time>2023-03-10T13:46:00Z</time>
      </trkpt>
      <trkpt lat="46.642948826774955" lon="12.334914989769459">
        <ele>1911.9100000000001</ele>
        <time>2023-03-10T13:46:08Z</time>
      </trkpt>
      <trkpt lat="46.643003895878792" lon="12.334973411634564">
        <ele>1909.02</ele>
        <time>2023-03-10T13:46:18Z</time>
      </trkpt>
      <trkpt lat="46.643046643584967" lon="12.33501959592104">
        <ele>1906.8399999999999</ele>
        <time>2023-03-10T13:46:26Z</time>
      </trkpt>
      <trkpt lat="46.643055696040392" lon="12.335025295615196">
        <ele>1906.6400000000001</ele>
        <time>2023-03-10T13:46:27Z</time>
      </trkpt>
      <trkpt lat="46.64312350563705" lon="12.335066115483642">
        <ele>1904.97</ele>
        <time>2023-03-10T13:46:39Z</time>
      </trkpt>
      <trkpt lat="46.643107496201992" lon="12.33508849516511">
        <ele>1904.4000000000001</ele>
        <time>2023-03-10T13:46:42Z</time>
      </trkpt>
      <trkpt lat="46.643048906698823" lon="12.335103414952755">
        <ele>1903.1400000000001</ele>
        <time>2023-03-10T13:46:48Z</time>
      </trkpt>
      <trkpt lat="46.643038764595985" lon="12.335111545398831">
        <ele>1902.77</ele>
        <time>2023-03-10T13:46:49Z</time>
      </trkpt>
      <trkpt lat="46.642920160666108" lon="12.335138199850917">
        <ele>1899.54</ele>
        <time>2023-03-10T13:47:03Z</time>
      </trkpt>
      <trkpt lat="46.642839778214693" lon="12.335205757990479">
        <ele>1896.02</ele>
        <time>2023-03-10T13:47:16Z</time>
      </trkpt>
      <trkpt lat="46.642869114875793" lon="12.335281195119023">
        <ele>1894.76</ele>
        <time>2023-03-10T13:47:27Z</time>
      </trkpt>
      <trkpt lat="46.642897948622704" lon="12.33528639189899">
        <ele>1893.55</ele>
        <time>2023-03-10T13:47:30Z</time>
      </trkpt>
      <trkpt lat="46.642909348011017" lon="12.335288487374783">
        <ele>1893.3</ele>
        <time>2023-03-10T13:47:31Z</time>
      </trkpt>
      <trkpt lat="46.643034908920527" lon="12.335353111848235">
        <ele>1889.5</ele>
        <time>2023-03-10T13:47:46Z</time>
      </trkpt>
      <trkpt lat="46.643042620271444" lon="12.335356380790472">
        <ele>1888.8499999999999</ele>
        <time>2023-03-10T13:47:47Z</time>
      </trkpt>
      <trkpt lat="46.643070448189974" lon="12.335372557863593">
        <ele>1888.4000000000001</ele>
        <time>2023-03-10T13:47:50Z</time>
      </trkpt>
      <trkpt lat="46.643125852569938" lon="12.335398960858583">
        <ele>1886.8099999999999</ele>
        <time>2023-03-10T13:47:57Z</time>
      </trkpt>
      <trkpt lat="46.643150495365262" lon="12.33540466055274">
        <ele>1886.1500000000001</ele>
        <time>2023-03-10T13:48:00Z</time>
      </trkpt>
      <trkpt lat="46.643160805106163" lon="12.335407678037882">
        <ele>1885.8399999999999</ele>
        <time>2023-03-10T13:48:01Z</time>
      </trkpt>
      <trkpt lat="46.643170025199652" lon="12.335414718836546">
        <ele>1885.5999999999999</ele>
        <time>2023-03-10T13:48:02Z</time>
      </trkpt>
      <trkpt lat="46.643238756805658" lon="12.335452688857913">
        <ele>1884.3599999999999</ele>
        <time>2023-03-10T13:48:10Z</time>
      </trkpt>
      <trkpt lat="46.643317462876439" lon="12.335508512333035">
        <ele>1883.24</ele>
        <time>2023-03-10T13:48:21Z</time>
      </trkpt>
      <trkpt lat="46.643324503675103" lon="12.335508512333035">
        <ele>1882.74</ele>
        <time>2023-03-10T13:48:39Z</time>
      </trkpt>
      <trkpt lat="46.643369011580944" lon="12.335536256432533">
        <ele>1881.74</ele>
        <time>2023-03-10T13:48:54Z</time>
      </trkpt>
      <trkpt lat="46.643386278301477" lon="12.335547655820847">
        <ele>1881.54</ele>
        <time>2023-03-10T13:48:56Z</time>
      </trkpt>
      <trkpt lat="46.643440844491124" lon="12.335600377991796">
        <ele>1879.6600000000001</ele>
        <time>2023-03-10T13:49:04Z</time>
      </trkpt>
      <trkpt lat="46.643525417894125" lon="12.335687130689621">
        <ele>1880.3699999999999</ele>
        <time>2023-03-10T13:49:14Z</time>
      </trkpt>
      <trkpt lat="46.643552575260401" lon="12.335761981084943">
        <ele>1879.8</ele>
        <time>2023-03-10T13:49:20Z</time>
      </trkpt>
      <trkpt lat="46.643558107316494" lon="12.335876980796456">
        <ele>1878.9200000000001</ele>
        <time>2023-03-10T13:49:29Z</time>
      </trkpt>
      <trkpt lat="46.643547210842371" lon="12.335931714624166">
        <ele>1877.5899999999999</ele>
        <time>2023-03-10T13:49:40Z</time>
      </trkpt>
      <trkpt lat="46.643540924414992" lon="12.335998602211475">
        <ele>1876.52</ele>
        <time>2023-03-10T13:49:56Z</time>
      </trkpt>
      <trkpt lat="46.643545534461737" lon="12.336034225299954">
        <ele>1876.45</ele>
        <time>2023-03-10T13:49:58Z</time>
      </trkpt>
      <trkpt lat="46.643546875566244" lon="12.336056353524327">
        <ele>1876.71</ele>
        <time>2023-03-10T13:49:59Z</time>
      </trkpt>
      <trkpt lat="46.643540672957897" lon="12.33613857999444">
        <ele>1875.6600000000001</ele>
        <time>2023-03-10T13:50:05Z</time>
      </trkpt>
      <trkpt lat="46.643539499491453" lon="12.3361752089113">
        <ele>1874.6700000000001</ele>
        <time>2023-03-10T13:50:09Z</time>
      </trkpt>
      <trkpt lat="46.643544109538198" lon="12.336243521422148">
        <ele>1874.2</ele>
        <time>2023-03-10T13:50:14Z</time>
      </trkpt>
      <trkpt lat="46.643546372652054" lon="12.336259866133332">
        <ele>1874.1500000000001</ele>
        <time>2023-03-10T13:50:15Z</time>
      </trkpt>
      <trkpt lat="46.643562465906143" lon="12.336429683491588">
        <ele>1873.29</ele>
        <time>2023-03-10T13:50:27Z</time>
      </trkpt>
      <trkpt lat="46.643601944670081" lon="12.336539821699262">
        <ele>1874.21</ele>
        <time>2023-03-10T13:50:38Z</time>
      </trkpt>
      <trkpt lat="46.643608482554555" lon="12.336556250229478">
        <ele>1874.3</ele>
        <time>2023-03-10T13:50:41Z</time>
      </trkpt>
      <trkpt lat="46.643638908863068" lon="12.336640069261193">
        <ele>1873.76</ele>
        <time>2023-03-10T13:50:53Z</time>
      </trkpt>
      <trkpt lat="46.643639327958226" lon="12.336651971563697">
        <ele>1875.99</ele>
        <time>2023-03-10T13:51:05Z</time>
      </trkpt>
      <trkpt lat="46.64364343509078" lon="12.336654989048839">
        <ele>1875.76</ele>
        <time>2023-03-10T13:51:10Z</time>
      </trkpt>
      <trkpt lat="46.643647793680429" lon="12.336670579388738">
        <ele>1875.53</ele>
        <time>2023-03-10T13:51:11Z</time>
      </trkpt>
      <trkpt lat="46.643651900812984" lon="12.336687510833144">
        <ele>1875.27</ele>
        <time>2023-03-10T13:51:12Z</time>
      </trkpt>
      <trkpt lat="46.643653577193618" lon="12.3367053642869">
        <ele>1874.97</ele>
        <time>2023-03-10T13:51:13Z</time>
      </trkpt>
      <trkpt lat="46.643650224432349" lon="12.336722714826465">
        <ele>1874.5599999999999</ele>
        <time>2023-03-10T13:51:14Z</time>
      </trkpt>
      <trkpt lat="46.643645614385605" lon="12.33674056828022">
        <ele>1874.1199999999999</ele>
        <time>2023-03-10T13:51:15Z</time>
      </trkpt>
      <trkpt lat="46.643641926348209" lon="12.336758086457849">
        <ele>1873.6800000000001</ele>
        <time>2023-03-10T13:51:16Z</time>
      </trkpt>
      <trkpt lat="46.643621223047376" lon="12.336920946836472">
        <ele>1871.3199999999999</ele>
        <time>2023-03-10T13:51:26Z</time>
      </trkpt>
      <trkpt lat="46.643610745668411" lon="12.337074000388384">
        <ele>1869.0799999999999</ele>
        <time>2023-03-10T13:51:36Z</time>
      </trkpt>
      <trkpt lat="46.643601860851049" lon="12.337101912125945">
        <ele>1868.8499999999999</ele>
        <time>2023-03-10T13:51:43Z</time>
      </trkpt>
      <trkpt lat="46.64359993301332" lon="12.33718765899539">
        <ele>1868.3299999999999</ele>
        <time>2023-03-10T13:51:50Z</time>
      </trkpt>
      <trkpt lat="46.643605213612318" lon="12.337240967899561">
        <ele>1867.95</ele>
        <time>2023-03-10T13:51:54Z</time>
      </trkpt>
      <trkpt lat="46.643606219440699" lon="12.337256222963333">
        <ele>1867.8099999999999</ele>
        <time>2023-03-10T13:51:55Z</time>
      </trkpt>
      <trkpt lat="46.643610745668411" lon="12.33743148855865">
        <ele>1865.9000000000001</ele>
        <time>2023-03-10T13:52:08Z</time>
      </trkpt>
      <trkpt lat="46.643608817830682" lon="12.337526874616742">
        <ele>1866.25</ele>
        <time>2023-03-10T13:52:18Z</time>
      </trkpt>
      <trkpt lat="46.643603453412652" lon="12.337572891265154">
        <ele>1865.52</ele>
        <time>2023-03-10T13:52:22Z</time>
      </trkpt>
      <trkpt lat="46.643592724576592" lon="12.337702391669154">
        <ele>1864.5699999999999</ele>
        <time>2023-03-10T13:52:35Z</time>
      </trkpt>
      <trkpt lat="46.643586773425341" lon="12.337776152417064">
        <ele>1863.96</ele>
        <time>2023-03-10T13:52:46Z</time>
      </trkpt>
      <trkpt lat="46.643585013225675" lon="12.337870700284839">
        <ele>1862.6400000000001</ele>
        <time>2023-03-10T13:52:55Z</time>
      </trkpt>
      <trkpt lat="46.643588282167912" lon="12.337917806580663">
        <ele>1862.6700000000001</ele>
        <time>2023-03-10T13:52:58Z</time>
      </trkpt>
      <trkpt lat="46.64358576759696" lon="12.338008917868137">
        <ele>1862.3199999999999</ele>
        <time>2023-03-10T13:53:09Z</time>
      </trkpt>
      <trkpt lat="46.643584845587611" lon="12.338007241487503">
        <ele>1862.3800000000001</ele>
        <time>2023-03-10T13:53:23Z</time>
      </trkpt>
      <trkpt lat="46.643587360158563" lon="12.338016713038087">
        <ele>1862.21</ele>
        <time>2023-03-10T13:53:45Z</time>
      </trkpt>
      <trkpt lat="46.643587108701468" lon="12.338079912588">
        <ele>1861.8599999999999</ele>
        <time>2023-03-10T13:53:53Z</time>
      </trkpt>
      <trkpt lat="46.643591299653053" lon="12.338108913972974">
        <ele>1861.71</ele>
        <time>2023-03-10T13:53:55Z</time>
      </trkpt>
      <trkpt lat="46.643595993518829" lon="12.338124504312873">
        <ele>1861.6700000000001</ele>
        <time>2023-03-10T13:53:56Z</time>
      </trkpt>
      <trkpt lat="46.643602531403303" lon="12.33814001083374">
        <ele>1861.6700000000001</ele>
        <time>2023-03-10T13:53:57Z</time>
      </trkpt>
      <trkpt lat="46.64360873401165" lon="12.338155349716544">
        <ele>1861.73</ele>
        <time>2023-03-10T13:53:58Z</time>
      </trkpt>
      <trkpt lat="46.643715938553214" lon="12.338364310562611">
        <ele>1862.1900000000001</ele>
        <time>2023-03-10T13:54:13Z</time>
      </trkpt>
      <trkpt lat="46.643720967695117" lon="12.338373279199004">
        <ele>1861.9100000000001</ele>
        <time>2023-03-10T13:54:14Z</time>
      </trkpt>
      <trkpt lat="46.643740246072412" lon="12.338409489020705">
        <ele>1862.1300000000001</ele>
        <time>2023-03-10T13:54:17Z</time>
      </trkpt>
      <trkpt lat="46.643819874152541" lon="12.338710986077785">
        <ele>1860.28</ele>
        <time>2023-03-10T13:54:36Z</time>
      </trkpt>
      <trkpt lat="46.643859269097447" lon="12.338799750432372">
        <ele>1859.0899999999999</ele>
        <time>2023-03-10T13:54:42Z</time>
      </trkpt>
      <trkpt lat="46.643858598545194" lon="12.338815927505493">
        <ele>1859.0699999999999</ele>
        <time>2023-03-10T13:54:43Z</time>
      </trkpt>
      <trkpt lat="46.643856083974242" lon="12.338962526991963">
        <ele>1857.27</ele>
        <time>2023-03-10T13:54:51Z</time>
      </trkpt>
      <trkpt lat="46.643866142258048" lon="12.33906495384872">
        <ele>1856.4000000000001</ele>
        <time>2023-03-10T13:54:58Z</time>
      </trkpt>
      <trkpt lat="46.643864130601287" lon="12.339095631614327">
        <ele>1855.48</ele>
        <time>2023-03-10T13:55:02Z</time>
      </trkpt>
      <trkpt lat="46.64385742507875" lon="12.339113904163241">
        <ele>1855.23</ele>
        <time>2023-03-10T13:55:03Z</time>
      </trkpt>
      <trkpt lat="46.6438530664891" lon="12.339132092893124">
        <ele>1855.1800000000001</ele>
        <time>2023-03-10T13:55:04Z</time>
      </trkpt>
      <trkpt lat="46.643858850002289" lon="12.339148102328181">
        <ele>1855.1199999999999</ele>
        <time>2023-03-10T13:55:05Z</time>
      </trkpt>
      <trkpt lat="46.643865220248699" lon="12.339164027944207">
        <ele>1855.0699999999999</ele>
        <time>2023-03-10T13:55:06Z</time>
      </trkpt>
      <trkpt lat="46.643875362351537" lon="12.339186239987612">
        <ele>1854.4100000000001</ele>
        <time>2023-03-10T13:55:08Z</time>
      </trkpt>
      <trkpt lat="46.643882570788264" lon="12.339201075956225">
        <ele>1854.3699999999999</ele>
        <time>2023-03-10T13:55:09Z</time>
      </trkpt>
      <trkpt lat="46.643889108672738" lon="12.339215995743871">
        <ele>1854.3699999999999</ele>
        <time>2023-03-10T13:55:10Z</time>
      </trkpt>
      <trkpt lat="46.643895646557212" lon="12.339229574427009">
        <ele>1854.45</ele>
        <time>2023-03-10T13:55:11Z</time>
      </trkpt>
      <trkpt lat="46.643901681527495" lon="12.339242231100798">
        <ele>1854.55</ele>
        <time>2023-03-10T13:55:12Z</time>
      </trkpt>
      <trkpt lat="46.643906626850367" lon="12.339255809783936">
        <ele>1854.6300000000001</ele>
        <time>2023-03-10T13:55:13Z</time>
      </trkpt>
      <trkpt lat="46.643954068422318" lon="12.33935228548944">
        <ele>1855.1500000000001</ele>
        <time>2023-03-10T13:55:26Z</time>
      </trkpt>
      <trkpt lat="46.643956834450364" lon="12.339339628815651">
        <ele>1855.47</ele>
        <time>2023-03-10T13:55:33Z</time>
      </trkpt>
      <trkpt lat="46.643975526094437" lon="12.339356644079089">
        <ele>1855.53</ele>
        <time>2023-03-10T13:55:47Z</time>
      </trkpt>
      <trkpt lat="46.643991786986589" lon="12.339374916628003">
        <ele>1855.3299999999999</ele>
        <time>2023-03-10T13:55:49Z</time>
      </trkpt>
      <trkpt lat="46.644001007080078" lon="12.339383214712143">
        <ele>1855.22</ele>
        <time>2023-03-10T13:55:50Z</time>
      </trkpt>
      <trkpt lat="46.644011400640011" lon="12.339388411492109">
        <ele>1854.9400000000001</ele>
        <time>2023-03-10T13:55:51Z</time>
      </trkpt>
      <trkpt lat="46.644022213295102" lon="12.339399810880423">
        <ele>1854.6199999999999</ele>
        <time>2023-03-10T13:55:52Z</time>
      </trkpt>
      <trkpt lat="46.644030762836337" lon="12.339417412877083">
        <ele>1854.6800000000001</ele>
        <time>2023-03-10T13:55:53Z</time>
      </trkpt>
      <trkpt lat="46.644037887454033" lon="12.339431829750538">
        <ele>1854.5999999999999</ele>
        <time>2023-03-10T13:55:54Z</time>
      </trkpt>
      <trkpt lat="46.644044928252697" lon="12.339445073157549">
        <ele>1854.55</ele>
        <time>2023-03-10T13:55:55Z</time>
      </trkpt>
      <trkpt lat="46.644052304327488" lon="12.339458484202623">
        <ele>1854.53</ele>
        <time>2023-03-10T13:55:56Z</time>
      </trkpt>
      <trkpt lat="46.644060853868723" lon="12.339475583285093">
        <ele>1854.6700000000001</ele>
        <time>2023-03-10T13:55:57Z</time>
      </trkpt>
      <trkpt lat="46.644085412845016" lon="12.339521097019315">
        <ele>1854.8199999999999</ele>
        <time>2023-03-10T13:56:01Z</time>
      </trkpt>
      <trkpt lat="46.644091699272394" lon="12.339534424245358">
        <ele>1854.8599999999999</ele>
        <time>2023-03-10T13:56:02Z</time>
      </trkpt>
      <trkpt lat="46.644098153337836" lon="12.339548422023654">
        <ele>1854.9400000000001</ele>
        <time>2023-03-10T13:56:03Z</time>
      </trkpt>
      <trkpt lat="46.644103601574898" lon="12.339561833068728">
        <ele>1854.9400000000001</ele>
        <time>2023-03-10T13:56:04Z</time>
      </trkpt>
      <trkpt lat="46.644108882173896" lon="12.339575998485088">
        <ele>1854.9200000000001</ele>
        <time>2023-03-10T13:56:05Z</time>
      </trkpt>
      <trkpt lat="46.644219690933824" lon="12.339820666238666">
        <ele>1854.4200000000001</ele>
        <time>2023-03-10T13:56:22Z</time>
      </trkpt>
      <trkpt lat="46.644243998453021" lon="12.339914543554187">
        <ele>1853.3499999999999</ele>
        <time>2023-03-10T13:56:28Z</time>
      </trkpt>
      <trkpt lat="46.644261265173554" lon="12.339959805831313">
        <ele>1852.9300000000001</ele>
        <time>2023-03-10T13:56:31Z</time>
      </trkpt>
      <trkpt lat="46.644366793334484" lon="12.340219980105758">
        <ele>1847.77</ele>
        <time>2023-03-10T13:56:49Z</time>
      </trkpt>
      <trkpt lat="46.644407361745834" lon="12.340339170768857">
        <ele>1844.3099999999999</ele>
        <time>2023-03-10T13:56:58Z</time>
      </trkpt>
      <trkpt lat="46.644394537433982" lon="12.340390048921108">
        <ele>1843.0799999999999</ele>
        <time>2023-03-10T13:57:02Z</time>
      </trkpt>
      <trkpt lat="46.644356064498425" lon="12.34048493206501">
        <ele>1840.4400000000001</ele>
        <time>2023-03-10T13:57:09Z</time>
      </trkpt>
      <trkpt lat="46.644357992336154" lon="12.340501025319099">
        <ele>1840.22</ele>
        <time>2023-03-10T13:57:10Z</time>
      </trkpt>
      <trkpt lat="46.644361848011613" lon="12.340517453849316">
        <ele>1839.95</ele>
        <time>2023-03-10T13:57:11Z</time>
      </trkpt>
      <trkpt lat="46.644365703687072" lon="12.34053279273212">
        <ele>1839.7</ele>
        <time>2023-03-10T13:57:12Z</time>
      </trkpt>
      <trkpt lat="46.644369559362531" lon="12.340547041967511">
        <ele>1839.52</ele>
        <time>2023-03-10T13:57:13Z</time>
      </trkpt>
      <trkpt lat="46.644374504685402" lon="12.340560955926776">
        <ele>1839.3199999999999</ele>
        <time>2023-03-10T13:57:14Z</time>
      </trkpt>
      <trkpt lat="46.644379198551178" lon="12.340575875714421">
        <ele>1839.03</ele>
        <time>2023-03-10T13:57:15Z</time>
      </trkpt>
      <trkpt lat="46.64438221603632" lon="12.34059046022594">
        <ele>1838.8099999999999</ele>
        <time>2023-03-10T13:57:16Z</time>
      </trkpt>
      <trkpt lat="46.644383892416954" lon="12.340606134384871">
        <ele>1838.5599999999999</ele>
        <time>2023-03-10T13:57:17Z</time>
      </trkpt>
      <trkpt lat="46.644395207986236" lon="12.340713506564498">
        <ele>1836.8299999999999</ele>
        <time>2023-03-10T13:57:24Z</time>
      </trkpt>
      <trkpt lat="46.644390346482396" lon="12.340746950358152">
        <ele>1836.6600000000001</ele>
        <time>2023-03-10T13:57:27Z</time>
      </trkpt>
      <trkpt lat="46.644379952922463" lon="12.340746279805899">
        <ele>1836.9400000000001</ele>
        <time>2023-03-10T13:57:35Z</time>
      </trkpt>
      <trkpt lat="46.644378108903766" lon="12.340721134096384">
        <ele>1837.29</ele>
        <time>2023-03-10T13:57:51Z</time>
      </trkpt>
      <trkpt lat="46.644383389502764" lon="12.340743094682693">
        <ele>1836.01</ele>
        <time>2023-03-10T13:57:56Z</time>
      </trkpt>
      <trkpt lat="46.644390681758523" lon="12.340752398595214">
        <ele>1835.9000000000001</ele>
        <time>2023-03-10T13:58:06Z</time>
      </trkpt>
      <trkpt lat="46.644385987892747" lon="12.340778298676014">
        <ele>1835.6300000000001</ele>
        <time>2023-03-10T13:58:20Z</time>
      </trkpt>
      <trkpt lat="46.644384227693081" lon="12.340772431343794">
        <ele>1835.8599999999999</ele>
        <time>2023-03-10T13:58:35Z</time>
      </trkpt>
      <trkpt lat="46.644403925165534" lon="12.340820794925094">
        <ele>1835.55</ele>
        <time>2023-03-10T13:58:54Z</time>
      </trkpt>
      <trkpt lat="46.644406355917454" lon="12.340831020846963">
        <ele>1834.9200000000001</ele>
        <time>2023-03-10T13:58:55Z</time>
      </trkpt>
      <trkpt lat="46.644412977620959" lon="12.340901680290699">
        <ele>1834.0699999999999</ele>
        <time>2023-03-10T13:59:04Z</time>
      </trkpt>
      <trkpt lat="46.644420521333814" lon="12.340957671403885">
        <ele>1833.29</ele>
        <time>2023-03-10T13:59:17Z</time>
      </trkpt>
      <trkpt lat="46.644457820802927" lon="12.341012740507722">
        <ele>1832.0699999999999</ele>
        <time>2023-03-10T13:59:29Z</time>
      </trkpt>
      <trkpt lat="46.644501490518451" lon="12.341074263677001">
        <ele>1829.79</ele>
        <time>2023-03-10T13:59:37Z</time>
      </trkpt>
      <trkpt lat="46.644508950412273" lon="12.341085243970156">
        <ele>1829.5</ele>
        <time>2023-03-10T13:59:38Z</time>
      </trkpt>
      <trkpt lat="46.644517416134477" lon="12.341096643358469">
        <ele>1829.3299999999999</ele>
        <time>2023-03-10T13:59:39Z</time>
      </trkpt>
      <trkpt lat="46.644636187702417" lon="12.341226227581501">
        <ele>1827.5599999999999</ele>
        <time>2023-03-10T13:59:53Z</time>
      </trkpt>
      <trkpt lat="46.644636858254671" lon="12.341233855113387">
        <ele>1827.23</ele>
        <time>2023-03-10T14:00:01Z</time>
      </trkpt>
      <trkpt lat="46.644717659801245" lon="12.341286158189178">
        <ele>1826.77</ele>
        <time>2023-03-10T14:00:12Z</time>
      </trkpt>
      <trkpt lat="46.644794773310423" lon="12.341467961668968">
        <ele>1823.75</ele>
        <time>2023-03-10T14:00:27Z</time>
      </trkpt>
      <trkpt lat="46.644796282052994" lon="12.341597462072968">
        <ele>1821.48</ele>
        <time>2023-03-10T14:00:39Z</time>
      </trkpt>
      <trkpt lat="46.644799131900072" lon="12.341651357710361">
        <ele>1819.8800000000001</ele>
        <time>2023-03-10T14:00:44Z</time>
      </trkpt>
      <trkpt lat="46.644823690876365" lon="12.341715143993497">
        <ele>1818.99</ele>
        <time>2023-03-10T14:00:49Z</time>
      </trkpt>
      <trkpt lat="46.644911365583539" lon="12.341852691024542">
        <ele>1817.1600000000001</ele>
        <time>2023-03-10T14:01:02Z</time>
      </trkpt>
      <trkpt lat="46.645020330324769" lon="12.341891918331385">
        <ele>1814.5999999999999</ele>
        <time>2023-03-10T14:01:13Z</time>
      </trkpt>
      <trkpt lat="46.645047320052981" lon="12.341930810362101">
        <ele>1813.95</ele>
        <time>2023-03-10T14:01:17Z</time>
      </trkpt>
      <trkpt lat="46.645088978111744" lon="12.341989483684301">
        <ele>1811.47</ele>
        <time>2023-03-10T14:01:23Z</time>
      </trkpt>
      <trkpt lat="46.645095599815249" lon="12.342001385986805">
        <ele>1811.0799999999999</ele>
        <time>2023-03-10T14:01:24Z</time>
      </trkpt>
      <trkpt lat="46.645168941468" lon="12.342146979644895">
        <ele>1808.1900000000001</ele>
        <time>2023-03-10T14:01:36Z</time>
      </trkpt>
      <trkpt lat="46.645253095775843" lon="12.34225133433938">
        <ele>1805.9400000000001</ele>
        <time>2023-03-10T14:01:47Z</time>
      </trkpt>
      <trkpt lat="46.645308416336775" lon="12.342360801994801">
        <ele>1803.6700000000001</ele>
        <time>2023-03-10T14:01:57Z</time>
      </trkpt>
      <trkpt lat="46.64533163420856" lon="12.342476723715663">
        <ele>1800.74</ele>
        <time>2023-03-10T14:02:07Z</time>
      </trkpt>
      <trkpt lat="46.645356696099043" lon="12.342538749799132">
        <ele>1799.7</ele>
        <time>2023-03-10T14:02:12Z</time>
      </trkpt>
      <trkpt lat="46.645375806838274" lon="12.342570349574089">
        <ele>1799.22</ele>
        <time>2023-03-10T14:02:15Z</time>
      </trkpt>
      <trkpt lat="46.645415453240275" lon="12.342725750058889">
        <ele>1797.3099999999999</ele>
        <time>2023-03-10T14:02:28Z</time>
      </trkpt>
      <trkpt lat="46.645435318350792" lon="12.342774029821157">
        <ele>1796.1900000000001</ele>
        <time>2023-03-10T14:02:34Z</time>
      </trkpt>
      <trkpt lat="46.645447136834264" lon="12.342789201065898">
        <ele>1795.5699999999999</ele>
        <time>2023-03-10T14:02:36Z</time>
      </trkpt>
      <trkpt lat="46.64546406827867" lon="12.342825327068567">
        <ele>1795.54</ele>
        <time>2023-03-10T14:02:45Z</time>
      </trkpt>
      <trkpt lat="46.645495584234595" lon="12.342940326780081">
        <ele>1793.4200000000001</ele>
        <time>2023-03-10T14:03:00Z</time>
      </trkpt>
      <trkpt lat="46.645499104633927" lon="12.342939991503954">
        <ele>1794.45</ele>
        <time>2023-03-10T14:03:16Z</time>
      </trkpt>
      <trkpt lat="46.645534560084343" lon="12.343003358691931">
        <ele>1793.7</ele>
        <time>2023-03-10T14:03:28Z</time>
      </trkpt>
      <trkpt lat="46.645513353869319" lon="12.343039652332664">
        <ele>1792.8199999999999</ele>
        <time>2023-03-10T14:03:33Z</time>
      </trkpt>
      <trkpt lat="46.645387290045619" lon="12.343066809698939">
        <ele>1790.8599999999999</ele>
        <time>2023-03-10T14:03:47Z</time>
      </trkpt>
      <trkpt lat="46.645262986421585" lon="12.343105869367719">
        <ele>1788.96</ele>
        <time>2023-03-10T14:04:01Z</time>
      </trkpt>
      <trkpt lat="46.645199870690703" lon="12.343150964006782">
        <ele>1787.79</ele>
        <time>2023-03-10T14:04:13Z</time>
      </trkpt>
      <trkpt lat="46.645245468243957" lon="12.343221623450518">
        <ele>1785.3399999999999</ele>
        <time>2023-03-10T14:04:25Z</time>
      </trkpt>
      <trkpt lat="46.645308081060648" lon="12.343273842707276">
        <ele>1783.27</ele>
        <time>2023-03-10T14:04:36Z</time>
      </trkpt>
      <trkpt lat="46.645334735512733" lon="12.343299072235823">
        <ele>1782.0699999999999</ele>
        <time>2023-03-10T14:04:43Z</time>
      </trkpt>
      <trkpt lat="46.645342446863651" lon="12.343309465795755">
        <ele>1781.8699999999999</ele>
        <time>2023-03-10T14:04:44Z</time>
      </trkpt>
      <trkpt lat="46.645415369421244" lon="12.343407785519958">
        <ele>1778.5799999999999</ele>
        <time>2023-03-10T14:04:57Z</time>
      </trkpt>
      <trkpt lat="46.64546842686832" lon="12.343446845188737">
        <ele>1776.4200000000001</ele>
        <time>2023-03-10T14:05:04Z</time>
      </trkpt>
      <trkpt lat="46.645484436303377" lon="12.343460759148002">
        <ele>1776.29</ele>
        <time>2023-03-10T14:05:15Z</time>
      </trkpt>
      <trkpt lat="46.645492482930422" lon="12.343471739441156">
        <ele>1776.0699999999999</ele>
        <time>2023-03-10T14:05:16Z</time>
      </trkpt>
      <trkpt lat="46.645509665831923" lon="12.343484312295914">
        <ele>1775.6199999999999</ele>
        <time>2023-03-10T14:05:18Z</time>
      </trkpt>
      <trkpt lat="46.645519891753793" lon="12.343488419428468">
        <ele>1775.3900000000001</ele>
        <time>2023-03-10T14:05:19Z</time>
      </trkpt>
      <trkpt lat="46.645530536770821" lon="12.343493280932307">
        <ele>1775.0999999999999</ele>
        <time>2023-03-10T14:05:20Z</time>
      </trkpt>
      <trkpt lat="46.645588120445609" lon="12.343573914840817">
        <ele>1771.3199999999999</ele>
        <time>2023-03-10T14:05:32Z</time>
      </trkpt>
      <trkpt lat="46.645563477650285" lon="12.343642311170697">
        <ele>1769.1500000000001</ele>
        <time>2023-03-10T14:05:42Z</time>
      </trkpt>
      <trkpt lat="46.645552832633257" lon="12.343660164624453">
        <ele>1768.71</ele>
        <time>2023-03-10T14:05:44Z</time>
      </trkpt>
      <trkpt lat="46.645533218979836" lon="12.343669217079878">
        <ele>1768.73</ele>
        <time>2023-03-10T14:05:45Z</time>
      </trkpt>
      <trkpt lat="46.645516958087683" lon="12.343674832955003">
        <ele>1768.98</ele>
        <time>2023-03-10T14:05:46Z</time>
      </trkpt>
      <trkpt lat="46.645448645576835" lon="12.34371917322278">
        <ele>1766.8</ele>
        <time>2023-03-10T14:05:57Z</time>
      </trkpt>
      <trkpt lat="46.645433809608221" lon="12.343727052211761">
        <ele>1766.45</ele>
        <time>2023-03-10T14:05:59Z</time>
      </trkpt>
      <trkpt lat="46.6453399322927" lon="12.34378170222044">
        <ele>1763.02</ele>
        <time>2023-03-10T14:06:10Z</time>
      </trkpt>
      <trkpt lat="46.645297184586525" lon="12.343844985589385">
        <ele>1760.6300000000001</ele>
        <time>2023-03-10T14:06:23Z</time>
      </trkpt>
      <trkpt lat="46.645323252305388" lon="12.343897875398397">
        <ele>1759</ele>
        <time>2023-03-10T14:06:30Z</time>
      </trkpt>
      <trkpt lat="46.645375890657306" lon="12.343949759379029">
        <ele>1756.1800000000001</ele>
        <time>2023-03-10T14:06:40Z</time>
      </trkpt>
      <trkpt lat="46.64543280377984" lon="12.34401966445148">
        <ele>1753.78</ele>
        <time>2023-03-10T14:06:51Z</time>
      </trkpt>
      <trkpt lat="46.645446801558137" lon="12.34404900111258">
        <ele>1751.3399999999999</ele>
        <time>2023-03-10T14:06:55Z</time>
      </trkpt>
      <trkpt lat="46.645495500415564" lon="12.344127371907234">
        <ele>1749.45</ele>
        <time>2023-03-10T14:07:05Z</time>
      </trkpt>
      <trkpt lat="46.645498685538769" lon="12.344142962247133">
        <ele>1749.25</ele>
        <time>2023-03-10T14:07:06Z</time>
      </trkpt>
      <trkpt lat="46.645551659166813" lon="12.344250166788697">
        <ele>1747.1600000000001</ele>
        <time>2023-03-10T14:07:17Z</time>
      </trkpt>
      <trkpt lat="46.645617205649614" lon="12.344379499554634">
        <ele>1743.49</ele>
        <time>2023-03-10T14:07:32Z</time>
      </trkpt>
      <trkpt lat="46.645656768232584" lon="12.344497013837099">
        <ele>1740.1900000000001</ele>
        <time>2023-03-10T14:07:45Z</time>
      </trkpt>
      <trkpt lat="46.645681913942099" lon="12.344546215608716">
        <ele>1738.6199999999999</ele>
        <time>2023-03-10T14:07:52Z</time>
      </trkpt>
      <trkpt lat="46.645721895620227" lon="12.344633638858795">
        <ele>1735.47</ele>
        <time>2023-03-10T14:08:03Z</time>
      </trkpt>
      <trkpt lat="46.645763972774148" lon="12.344792811200023">
        <ele>1731.46</ele>
        <time>2023-03-10T14:08:18Z</time>
      </trkpt>
      <trkpt lat="46.645786017179489" lon="12.344961622729897">
        <ele>1728.3699999999999</ele>
        <time>2023-03-10T14:08:31Z</time>
      </trkpt>
      <trkpt lat="46.645765565335751" lon="12.345057595521212">
        <ele>1726.23</ele>
        <time>2023-03-10T14:08:43Z</time>
      </trkpt>
      <trkpt lat="46.645655008032918" lon="12.34510101377964">
        <ele>1723.0699999999999</ele>
        <time>2023-03-10T14:08:57Z</time>
      </trkpt>
      <trkpt lat="46.645599268376827" lon="12.345197238028049">
        <ele>1720.9200000000001</ele>
        <time>2023-03-10T14:09:07Z</time>
      </trkpt>
      <trkpt lat="46.645596837624907" lon="12.345213331282139">
        <ele>1720.6600000000001</ele>
        <time>2023-03-10T14:09:08Z</time>
      </trkpt>
      <trkpt lat="46.645587533712387" lon="12.345238057896495">
        <ele>1720.21</ele>
        <time>2023-03-10T14:09:10Z</time>
      </trkpt>
      <trkpt lat="46.645583510398865" lon="12.345250463113189">
        <ele>1719.96</ele>
        <time>2023-03-10T14:09:11Z</time>
      </trkpt>
      <trkpt lat="46.645585605874658" lon="12.345270998775959">
        <ele>1719.5699999999999</ele>
        <time>2023-03-10T14:09:12Z</time>
      </trkpt>
      <trkpt lat="46.645576721057296" lon="12.345308382064104">
        <ele>1718.6700000000001</ele>
        <time>2023-03-10T14:09:15Z</time>
      </trkpt>
      <trkpt lat="46.645576553419232" lon="12.345335371792316">
        <ele>1718.25</ele>
        <time>2023-03-10T14:09:17Z</time>
      </trkpt>
      <trkpt lat="46.645605973899364" lon="12.345392452552915">
        <ele>1717.5799999999999</ele>
        <time>2023-03-10T14:09:23Z</time>
      </trkpt>
      <trkpt lat="46.64562919177115" lon="12.345455316826701">
        <ele>1716.1500000000001</ele>
        <time>2023-03-10T14:09:29Z</time>
      </trkpt>
      <trkpt lat="46.645705970004201" lon="12.345531592145562">
        <ele>1712.47</ele>
        <time>2023-03-10T14:09:41Z</time>
      </trkpt>
      <trkpt lat="46.645753411576152" lon="12.345601664856076">
        <ele>1709.9000000000001</ele>
        <time>2023-03-10T14:09:53Z</time>
      </trkpt>
      <trkpt lat="46.645806469023228" lon="12.345686070621014">
        <ele>1706.46</ele>
        <time>2023-03-10T14:10:04Z</time>
      </trkpt>
      <trkpt lat="46.64585399441421" lon="12.345748767256737">
        <ele>1703.6900000000001</ele>
        <time>2023-03-10T14:10:15Z</time>
      </trkpt>
      <trkpt lat="46.64586715400219" lon="12.34577190130949">
        <ele>1702.79</ele>
        <time>2023-03-10T14:10:18Z</time>
      </trkpt>
      <trkpt lat="46.645826334133744" lon="12.345833843573928">
        <ele>1700.5599999999999</ele>
        <time>2023-03-10T14:10:26Z</time>
      </trkpt>
      <trkpt lat="46.645803367719054" lon="12.345849182456732">
        <ele>1699.4400000000001</ele>
        <time>2023-03-10T14:10:27Z</time>
      </trkpt>
      <trkpt lat="46.645705802366138" lon="12.345934426411986">
        <ele>1698.5</ele>
        <time>2023-03-10T14:10:39Z</time>
      </trkpt>
      <trkpt lat="46.645719548687339" lon="12.346021514385939">
        <ele>1697.1700000000001</ele>
        <time>2023-03-10T14:10:48Z</time>
      </trkpt>
      <trkpt lat="46.645725248381495" lon="12.346050599589944">
        <ele>1696.6600000000001</ele>
        <time>2023-03-10T14:10:50Z</time>
      </trkpt>
      <trkpt lat="46.645721979439259" lon="12.346171634271741">
        <ele>1692.3399999999999</ele>
        <time>2023-03-10T14:10:59Z</time>
      </trkpt>
      <trkpt lat="46.645761290565133" lon="12.346234079450369">
        <ele>1689.97</ele>
        <time>2023-03-10T14:11:06Z</time>
      </trkpt>
      <trkpt lat="46.645791465416551" lon="12.346244221553206">
        <ele>1689.01</ele>
        <time>2023-03-10T14:11:09Z</time>
      </trkpt>
      <trkpt lat="46.645808396860957" lon="12.346245646476746">
        <ele>1689.79</ele>
        <time>2023-03-10T14:11:10Z</time>
      </trkpt>
      <trkpt lat="46.645817030221224" lon="12.346253441646695">
        <ele>1689.52</ele>
        <time>2023-03-10T14:11:11Z</time>
      </trkpt>
      <trkpt lat="46.645824825391173" lon="12.34626249410212">
        <ele>1689.21</ele>
        <time>2023-03-10T14:11:12Z</time>
      </trkpt>
      <trkpt lat="46.645846283063293" lon="12.346300045028329">
        <ele>1688.3499999999999</ele>
        <time>2023-03-10T14:11:16Z</time>
      </trkpt>
      <trkpt lat="46.645872518420219" lon="12.346411440521479">
        <ele>1684.71</ele>
        <time>2023-03-10T14:11:27Z</time>
      </trkpt>
      <trkpt lat="46.645874949172139" lon="12.346428371965885">
        <ele>1683.47</ele>
        <time>2023-03-10T14:11:28Z</time>
      </trkpt>
      <trkpt lat="46.645907554775476" lon="12.346452176570892">
        <ele>1684.27</ele>
        <time>2023-03-10T14:11:38Z</time>
      </trkpt>
      <trkpt lat="46.645932532846928" lon="12.346467263996601">
        <ele>1683.1600000000001</ele>
        <time>2023-03-10T14:11:44Z</time>
      </trkpt>
      <trkpt lat="46.645936304703355" lon="12.346481429412961">
        <ele>1682.47</ele>
        <time>2023-03-10T14:11:52Z</time>
      </trkpt>
      <trkpt lat="46.645937813445926" lon="12.346516717225313">
        <ele>1682.45</ele>
        <time>2023-03-10T14:12:02Z</time>
      </trkpt>
      <trkpt lat="46.645960947498679" lon="12.346582096070051">
        <ele>1678.6099999999999</ele>
        <time>2023-03-10T14:12:15Z</time>
      </trkpt>
      <trkpt lat="46.645968575030565" lon="12.346603134647012">
        <ele>1678.27</ele>
        <time>2023-03-10T14:12:17Z</time>
      </trkpt>
      <trkpt lat="46.645978130400181" lon="12.346702041104436">
        <ele>1675.4000000000001</ele>
        <time>2023-03-10T14:12:28Z</time>
      </trkpt>
      <trkpt lat="46.645995145663619" lon="12.34672961756587">
        <ele>1674.3699999999999</ele>
        <time>2023-03-10T14:12:30Z</time>
      </trkpt>
      <trkpt lat="46.646042503416538" lon="12.346847467124462">
        <ele>1671.8800000000001</ele>
        <time>2023-03-10T14:12:40Z</time>
      </trkpt>
      <trkpt lat="46.646045437082648" lon="12.346933800727129">
        <ele>1669.8299999999999</ele>
        <time>2023-03-10T14:12:54Z</time>
      </trkpt>
      <trkpt lat="46.6460513882339" lon="12.346926005557179">
        <ele>1669.8199999999999</ele>
        <time>2023-03-10T14:13:02Z</time>
      </trkpt>
      <trkpt lat="46.646051555871964" lon="12.34695584513247">
        <ele>1669.3299999999999</ele>
        <time>2023-03-10T14:13:05Z</time>
      </trkpt>
      <trkpt lat="46.646048370748758" lon="12.347033293917775">
        <ele>1667.7</ele>
        <time>2023-03-10T14:13:13Z</time>
      </trkpt>
      <trkpt lat="46.646045688539743" lon="12.347100349143147">
        <ele>1665</ele>
        <time>2023-03-10T14:13:20Z</time>
      </trkpt>
      <trkpt lat="46.646035211160779" lon="12.347181234508753">
        <ele>1663.6199999999999</ele>
        <time>2023-03-10T14:13:26Z</time>
      </trkpt>
      <trkpt lat="46.646028505638242" lon="12.347209230065346">
        <ele>1663.3</ele>
        <time>2023-03-10T14:13:28Z</time>
      </trkpt>
      <trkpt lat="46.646026913076639" lon="12.347227167338133">
        <ele>1663.4200000000001</ele>
        <time>2023-03-10T14:13:29Z</time>
      </trkpt>
      <trkpt lat="46.646030936390162" lon="12.347303945571184">
        <ele>1661.6600000000001</ele>
        <time>2023-03-10T14:13:36Z</time>
      </trkpt>
      <trkpt lat="46.646043844521046" lon="12.347348453477025">
        <ele>1660.71</ele>
        <time>2023-03-10T14:13:41Z</time>
      </trkpt>
      <trkpt lat="46.646050298586488" lon="12.347363540902734">
        <ele>1660.49</ele>
        <time>2023-03-10T14:13:42Z</time>
      </trkpt>
      <trkpt lat="46.64605432190001" lon="12.347379717975855">
        <ele>1660.26</ele>
        <time>2023-03-10T14:13:43Z</time>
      </trkpt>
      <trkpt lat="46.646057590842247" lon="12.347391368821263">
        <ele>1660.0899999999999</ele>
        <time>2023-03-10T14:13:44Z</time>
      </trkpt>
      <trkpt lat="46.646059937775135" lon="12.347406120970845">
        <ele>1659.78</ele>
        <time>2023-03-10T14:13:45Z</time>
      </trkpt>
      <trkpt lat="46.646061111241579" lon="12.347423806786537">
        <ele>1659.5</ele>
        <time>2023-03-10T14:13:46Z</time>
      </trkpt>
      <trkpt lat="46.646061027422547" lon="12.347441492602229">
        <ele>1659.3699999999999</ele>
        <time>2023-03-10T14:13:47Z</time>
      </trkpt>
      <trkpt lat="46.646029762923717" lon="12.347546853125095">
        <ele>1657.46</ele>
        <time>2023-03-10T14:13:56Z</time>
      </trkpt>
      <trkpt lat="46.646013082936406" lon="12.34767165966332">
        <ele>1655.5</ele>
        <time>2023-03-10T14:14:05Z</time>
      </trkpt>
      <trkpt lat="46.646017525345087" lon="12.347686579450965">
        <ele>1655.2</ele>
        <time>2023-03-10T14:14:06Z</time>
      </trkpt>
      <trkpt lat="46.646045604720712" lon="12.347745420411229">
        <ele>1653.9400000000001</ele>
        <time>2023-03-10T14:14:11Z</time>
      </trkpt>
      <trkpt lat="46.646055327728391" lon="12.347750198096037">
        <ele>1653.6199999999999</ele>
        <time>2023-03-10T14:14:12Z</time>
      </trkpt>
      <trkpt lat="46.646173177286983" lon="12.347732679918408">
        <ele>1650.8499999999999</ele>
        <time>2023-03-10T14:14:24Z</time>
      </trkpt>
      <trkpt lat="46.646349616348743" lon="12.34777919948101">
        <ele>1646.4000000000001</ele>
        <time>2023-03-10T14:14:41Z</time>
      </trkpt>
      <trkpt lat="46.646502083167434" lon="12.347748354077339">
        <ele>1642.8399999999999</ele>
        <time>2023-03-10T14:14:56Z</time>
      </trkpt>
      <trkpt lat="46.646542316302657" lon="12.347726309671998">
        <ele>1641.76</ele>
        <time>2023-03-10T14:15:00Z</time>
      </trkpt>
      <trkpt lat="46.646566540002823" lon="12.347752964124084">
        <ele>1641.1600000000001</ele>
        <time>2023-03-10T14:15:03Z</time>
      </trkpt>
      <trkpt lat="46.646571066230536" lon="12.347768554463983">
        <ele>1641.05</ele>
        <time>2023-03-10T14:15:04Z</time>
      </trkpt>
      <trkpt lat="46.646575005725026" lon="12.347784815356135">
        <ele>1640.8399999999999</ele>
        <time>2023-03-10T14:15:05Z</time>
      </trkpt>
      <trkpt lat="46.64664264768362" lon="12.347943903878331">
        <ele>1638.3599999999999</ele>
        <time>2023-03-10T14:15:17Z</time>
      </trkpt>
      <trkpt lat="46.646632170304656" lon="12.348132915794849">
        <ele>1635.79</ele>
        <time>2023-03-10T14:15:30Z</time>
      </trkpt>
      <trkpt lat="46.646630661562085" lon="12.348189242184162">
        <ele>1635.51</ele>
        <time>2023-03-10T14:15:39Z</time>
      </trkpt>
      <trkpt lat="46.64659520611167" lon="12.348272390663624">
        <ele>1634.1199999999999</ele>
        <time>2023-03-10T14:15:50Z</time>
      </trkpt>
      <trkpt lat="46.64657274261117" lon="12.348295273259282">
        <ele>1633.55</ele>
        <time>2023-03-10T14:15:53Z</time>
      </trkpt>
      <trkpt lat="46.646566204726696" lon="12.348306924104691">
        <ele>1633.28</ele>
        <time>2023-03-10T14:15:54Z</time>
      </trkpt>
      <trkpt lat="46.646561175584793" lon="12.348319999873638">
        <ele>1633</ele>
        <time>2023-03-10T14:15:55Z</time>
      </trkpt>
      <trkpt lat="46.646568384021521" lon="12.348465761169791">
        <ele>1630.1199999999999</ele>
        <time>2023-03-10T14:16:07Z</time>
      </trkpt>
      <trkpt lat="46.646577352657914" lon="12.348472885787487">
        <ele>1629.72</ele>
        <time>2023-03-10T14:16:08Z</time>
      </trkpt>
      <trkpt lat="46.646725544705987" lon="12.348655108362436">
        <ele>1625.03</ele>
        <time>2023-03-10T14:16:27Z</time>
      </trkpt>
      <trkpt lat="46.646854626014829" lon="12.348805060610175">
        <ele>1621.1600000000001</ele>
        <time>2023-03-10T14:16:42Z</time>
      </trkpt>
      <trkpt lat="46.646917657926679" lon="12.349042603746057">
        <ele>1617.22</ele>
        <time>2023-03-10T14:16:57Z</time>
      </trkpt>
      <trkpt lat="46.646970799192786" lon="12.349248211830854">
        <ele>1613.8</ele>
        <time>2023-03-10T14:17:10Z</time>
      </trkpt>
      <trkpt lat="46.64706626906991" lon="12.349468404427171">
        <ele>1610.0899999999999</ele>
        <time>2023-03-10T14:17:25Z</time>
      </trkpt>
      <trkpt lat="46.647096611559391" lon="12.349563706666231">
        <ele>1608.52</ele>
        <time>2023-03-10T14:17:34Z</time>
      </trkpt>
      <trkpt lat="46.647103736177087" lon="12.349579548463225">
        <ele>1608.1199999999999</ele>
        <time>2023-03-10T14:17:35Z</time>
      </trkpt>
      <trkpt lat="46.647117482498288" lon="12.349612405523658">
        <ele>1607.53</ele>
        <time>2023-03-10T14:17:37Z</time>
      </trkpt>
      <trkpt lat="46.647140616551042" lon="12.349676862359047">
        <ele>1606.96</ele>
        <time>2023-03-10T14:17:48Z</time>
      </trkpt>
      <trkpt lat="46.64714933373034" lon="12.349681053310633">
        <ele>1606.79</ele>
        <time>2023-03-10T14:17:59Z</time>
      </trkpt>
      <trkpt lat="46.647159224376082" lon="12.349689938127995">
        <ele>1606.54</ele>
        <time>2023-03-10T14:18:00Z</time>
      </trkpt>
      <trkpt lat="46.647168779745698" lon="12.349700080230832">
        <ele>1606.28</ele>
        <time>2023-03-10T14:18:01Z</time>
      </trkpt>
      <trkpt lat="46.647176574915648" lon="12.349712736904621">
        <ele>1606.01</ele>
        <time>2023-03-10T14:18:02Z</time>
      </trkpt>
      <trkpt lat="46.647183448076248" lon="12.349724052473903">
        <ele>1605.75</ele>
        <time>2023-03-10T14:18:03Z</time>
      </trkpt>
      <trkpt lat="46.647292915731668" lon="12.349900994449854">
        <ele>1602.03</ele>
        <time>2023-03-10T14:18:18Z</time>
      </trkpt>
      <trkpt lat="46.647431384772062" lon="12.35004105605185">
        <ele>1598.6900000000001</ele>
        <time>2023-03-10T14:18:33Z</time>
      </trkpt>
      <trkpt lat="46.647469354793429" lon="12.350061424076557">
        <ele>1597.1199999999999</ele>
        <time>2023-03-10T14:18:37Z</time>
      </trkpt>
      <trkpt lat="46.647493243217468" lon="12.350086066871881">
        <ele>1595.3800000000001</ele>
        <time>2023-03-10T14:18:40Z</time>
      </trkpt>
      <trkpt lat="46.647486872971058" lon="12.350107692182064">
        <ele>1594.3900000000001</ele>
        <time>2023-03-10T14:18:42Z</time>
      </trkpt>
      <trkpt lat="46.647504642605782" lon="12.350134262815118">
        <ele>1593.4200000000001</ele>
        <time>2023-03-10T14:18:45Z</time>
      </trkpt>
      <trkpt lat="46.647552503272891" lon="12.350139040499926">
        <ele>1591.4400000000001</ele>
        <time>2023-03-10T14:18:51Z</time>
      </trkpt>
      <trkpt lat="46.647607153281569" lon="12.350198216736317">
        <ele>1588.3900000000001</ele>
        <time>2023-03-10T14:18:59Z</time>
      </trkpt>
      <trkpt lat="46.647677728906274" lon="12.350260661914945">
        <ele>1585.74</ele>
        <time>2023-03-10T14:19:10Z</time>
      </trkpt>
      <trkpt lat="46.647745035588741" lon="12.350324615836143">
        <ele>1583.52</ele>
        <time>2023-03-10T14:19:20Z</time>
      </trkpt>
      <trkpt lat="46.647764733061194" lon="12.35033861361444">
        <ele>1582.45</ele>
        <time>2023-03-10T14:19:22Z</time>
      </trkpt>
      <trkpt lat="46.647836733609438" lon="12.350357556715608">
        <ele>1581.8299999999999</ele>
        <time>2023-03-10T14:19:27Z</time>
      </trkpt>
      <trkpt lat="46.647863388061523" lon="12.350377673283219">
        <ele>1582.1800000000001</ele>
        <time>2023-03-10T14:19:30Z</time>
      </trkpt>
      <trkpt lat="46.647886857390404" lon="12.350427964702249">
        <ele>1581.8599999999999</ele>
        <time>2023-03-10T14:19:37Z</time>
      </trkpt>
      <trkpt lat="46.647897334769368" lon="12.350431568920612">
        <ele>1581.9100000000001</ele>
        <time>2023-03-10T14:19:38Z</time>
      </trkpt>
      <trkpt lat="46.647948632016778" lon="12.350472137331963">
        <ele>1581.47</ele>
        <time>2023-03-10T14:19:47Z</time>
      </trkpt>
      <trkpt lat="46.648005712777376" lon="12.350532319396734">
        <ele>1581.3199999999999</ele>
        <time>2023-03-10T14:19:57Z</time>
      </trkpt>
      <trkpt lat="46.648082491010427" lon="12.350579760968685">
        <ele>1579.79</ele>
        <time>2023-03-10T14:20:08Z</time>
      </trkpt>
      <trkpt lat="46.648167902603745" lon="12.35063030384481">
        <ele>1577.52</ele>
        <time>2023-03-10T14:20:20Z</time>
      </trkpt>
      <trkpt lat="46.648269658908248" lon="12.350645894184709">
        <ele>1576.1099999999999</ele>
        <time>2023-03-10T14:20:32Z</time>
      </trkpt>
      <trkpt lat="46.6483239736408" lon="12.350669279694557">
        <ele>1576.47</ele>
        <time>2023-03-10T14:20:43Z</time>
      </trkpt>
      <trkpt lat="46.648345850408077" lon="12.350680930539966">
        <ele>1576.28</ele>
        <time>2023-03-10T14:20:45Z</time>
      </trkpt>
      <trkpt lat="46.648375857621431" lon="12.350693251937628">
        <ele>1575.22</ele>
        <time>2023-03-10T14:20:48Z</time>
      </trkpt>
      <trkpt lat="46.648439727723598" lon="12.350743291899562">
        <ele>1572.76</ele>
        <time>2023-03-10T14:20:56Z</time>
      </trkpt>
      <trkpt lat="46.648508375510573" lon="12.350782183930278">
        <ele>1572.01</ele>
        <time>2023-03-10T14:21:04Z</time>
      </trkpt>
      <trkpt lat="46.648549111559987" lon="12.350829038769007">
        <ele>1572.1099999999999</ele>
        <time>2023-03-10T14:21:11Z</time>
      </trkpt>
      <trkpt lat="46.64854877628386" lon="12.350899446755648">
        <ele>1572.9200000000001</ele>
        <time>2023-03-10T14:21:22Z</time>
      </trkpt>
      <trkpt lat="46.648574760183692" lon="12.350887209177017">
        <ele>1573.3800000000001</ele>
        <time>2023-03-10T14:21:28Z</time>
      </trkpt>
      <trkpt lat="46.6485864110291" lon="12.350887963548303">
        <ele>1573.3</ele>
        <time>2023-03-10T14:21:29Z</time>
      </trkpt>
      <trkpt lat="46.648612730205059" lon="12.350887712091208">
        <ele>1573</ele>
        <time>2023-03-10T14:21:32Z</time>
      </trkpt>
      <trkpt lat="46.648626225069165" lon="12.350885029882193">
        <ele>1572.8800000000001</ele>
        <time>2023-03-10T14:21:33Z</time>
      </trkpt>
      <trkpt lat="46.648649275302887" lon="12.3508829344064">
        <ele>1572.22</ele>
        <time>2023-03-10T14:21:35Z</time>
      </trkpt>
      <trkpt lat="46.648664027452469" lon="12.350887376815081">
        <ele>1572.26</ele>
        <time>2023-03-10T14:21:36Z</time>
      </trkpt>
      <trkpt lat="46.648679198697209" lon="12.350897183641791">
        <ele>1572.4100000000001</ele>
        <time>2023-03-10T14:21:37Z</time>
      </trkpt>
      <trkpt lat="46.648691352456808" lon="12.350900368764997">
        <ele>1572.3199999999999</ele>
        <time>2023-03-10T14:21:38Z</time>
      </trkpt>
      <trkpt lat="46.648701997473836" lon="12.35090296715498">
        <ele>1572.0799999999999</ele>
        <time>2023-03-10T14:21:39Z</time>
      </trkpt>
      <trkpt lat="46.648787073791027" lon="12.35091470181942">
        <ele>1570.6600000000001</ele>
        <time>2023-03-10T14:21:46Z</time>
      </trkpt>
      <trkpt lat="46.648801323026419" lon="12.350919982418418">
        <ele>1570.1500000000001</ele>
        <time>2023-03-10T14:21:47Z</time>
      </trkpt>
      <trkpt lat="46.648940127342939" lon="12.350919228047132">
        <ele>1566.52</ele>
        <time>2023-03-10T14:22:00Z</time>
      </trkpt>
      <trkpt lat="46.648970134556293" lon="12.350936075672507">
        <ele>1565.9200000000001</ele>
        <time>2023-03-10T14:22:04Z</time>
      </trkpt>
      <trkpt lat="46.64905353449285" lon="12.350974213331938">
        <ele>1564.04</ele>
        <time>2023-03-10T14:22:13Z</time>
      </trkpt>
      <trkpt lat="46.649139700457454" lon="12.351063480600715">
        <ele>1562.1800000000001</ele>
        <time>2023-03-10T14:22:26Z</time>
      </trkpt>
      <trkpt lat="46.649149088189006" lon="12.351071611046791">
        <ele>1562</ele>
        <time>2023-03-10T14:22:27Z</time>
      </trkpt>
      <trkpt lat="46.649224022403359" lon="12.351147970184684">
        <ele>1561.1199999999999</ele>
        <time>2023-03-10T14:22:38Z</time>
      </trkpt>
      <trkpt lat="46.649254448711872" lon="12.351215947419405">
        <ele>1560.3199999999999</ele>
        <time>2023-03-10T14:22:48Z</time>
      </trkpt>
      <trkpt lat="46.649276996031404" lon="12.351215779781342">
        <ele>1560.8499999999999</ele>
        <time>2023-03-10T14:22:59Z</time>
      </trkpt>
      <trkpt lat="46.649284288287163" lon="12.351220641285181">
        <ele>1560.8699999999999</ele>
        <time>2023-03-10T14:23:00Z</time>
      </trkpt>
      <trkpt lat="46.649296442046762" lon="12.351243859156966">
        <ele>1560.8499999999999</ele>
        <time>2023-03-10T14:23:02Z</time>
      </trkpt>
      <trkpt lat="46.64929929189384" lon="12.351260455325246">
        <ele>1560.6800000000001</ele>
        <time>2023-03-10T14:23:03Z</time>
      </trkpt>
      <trkpt lat="46.649310607463121" lon="12.351274788379669">
        <ele>1561.1900000000001</ele>
        <time>2023-03-10T14:23:05Z</time>
      </trkpt>
      <trkpt lat="46.649334747344255" lon="12.351326672360301">
        <ele>1561.03</ele>
        <time>2023-03-10T14:23:08Z</time>
      </trkpt>
      <trkpt lat="46.649358384311199" lon="12.351353159174323">
        <ele>1560.96</ele>
        <time>2023-03-10T14:23:11Z</time>
      </trkpt>
      <trkpt lat="46.649361737072468" lon="12.351369336247444">
        <ele>1560.46</ele>
        <time>2023-03-10T14:23:12Z</time>
      </trkpt>
      <trkpt lat="46.649375902488828" lon="12.351403115317225">
        <ele>1560.25</ele>
        <time>2023-03-10T14:23:14Z</time>
      </trkpt>
      <trkpt lat="46.649447567760944" lon="12.351572094485164">
        <ele>1559.75</ele>
        <time>2023-03-10T14:23:28Z</time>
      </trkpt>
      <trkpt lat="46.649475311860442" lon="12.351660439744592">
        <ele>1558.75</ele>
        <time>2023-03-10T14:23:35Z</time>
      </trkpt>
      <trkpt lat="46.649484531953931" lon="12.351655829697847">
        <ele>1557.4200000000001</ele>
        <time>2023-03-10T14:23:36Z</time>
      </trkpt>
      <trkpt lat="46.649495931342244" lon="12.351651471108198">
        <ele>1557.51</ele>
        <time>2023-03-10T14:23:37Z</time>
      </trkpt>
      <trkpt lat="46.649499787017703" lon="12.351667732000351">
        <ele>1557.5</ele>
        <time>2023-03-10T14:23:38Z</time>
      </trkpt>
      <trkpt lat="46.64954018779099" lon="12.351768063381314">
        <ele>1557.05</ele>
        <time>2023-03-10T14:23:48Z</time>
      </trkpt>
      <trkpt lat="46.649548234418035" lon="12.351783066987991">
        <ele>1556.99</ele>
        <time>2023-03-10T14:23:49Z</time>
      </trkpt>
      <trkpt lat="46.649625515565276" lon="12.351867724210024">
        <ele>1555.8699999999999</ele>
        <time>2023-03-10T14:23:57Z</time>
      </trkpt>
      <trkpt lat="46.649669352918863" lon="12.351895300671458">
        <ele>1556.5799999999999</ele>
        <time>2023-03-10T14:24:02Z</time>
      </trkpt>
      <trkpt lat="46.649678405374289" lon="12.351904101669788">
        <ele>1557.23</ele>
        <time>2023-03-10T14:24:03Z</time>
      </trkpt>
      <trkpt lat="46.64968921802938" lon="12.351910471916199">
        <ele>1557.8099999999999</ele>
        <time>2023-03-10T14:24:04Z</time>
      </trkpt>
      <trkpt lat="46.6496985219419" lon="12.351916590705514">
        <ele>1558.1199999999999</ele>
        <time>2023-03-10T14:24:05Z</time>
      </trkpt>
      <trkpt lat="46.649708831682801" lon="12.351922290399671">
        <ele>1558.29</ele>
        <time>2023-03-10T14:24:06Z</time>
      </trkpt>
      <trkpt lat="46.649728948250413" lon="12.351917345076799">
        <ele>1559.3399999999999</ele>
        <time>2023-03-10T14:24:07Z</time>
      </trkpt>
      <trkpt lat="46.649744706228375" lon="12.351907538250089">
        <ele>1559.8099999999999</ele>
        <time>2023-03-10T14:24:08Z</time>
      </trkpt>
      <trkpt lat="46.649748226627707" lon="12.351923380047083">
        <ele>1559.4300000000001</ele>
        <time>2023-03-10T14:24:09Z</time>
      </trkpt>
      <trkpt lat="46.649794075638056" lon="12.351936371996999">
        <ele>1558.6099999999999</ele>
        <time>2023-03-10T14:24:14Z</time>
      </trkpt>
      <trkpt lat="46.649811509996653" lon="12.35192715190351">
        <ele>1559.1199999999999</ele>
        <time>2023-03-10T14:24:15Z</time>
      </trkpt>
      <trkpt lat="46.649825340136886" lon="12.351923128589988">
        <ele>1559.3900000000001</ele>
        <time>2023-03-10T14:24:16Z</time>
      </trkpt>
      <trkpt lat="46.649835230782628" lon="12.351919440552592">
        <ele>1559.29</ele>
        <time>2023-03-10T14:24:17Z</time>
      </trkpt>
      <trkpt lat="46.64984512142837" lon="12.351926816627383">
        <ele>1559.1500000000001</ele>
        <time>2023-03-10T14:24:18Z</time>
      </trkpt>
      <trkpt lat="46.649888204410672" lon="12.351960176602006">
        <ele>1559.3</ele>
        <time>2023-03-10T14:24:22Z</time>
      </trkpt>
      <trkpt lat="46.649906057864428" lon="12.351968893781304">
        <ele>1559.0899999999999</ele>
        <time>2023-03-10T14:24:24Z</time>
      </trkpt>
      <trkpt lat="46.649919804185629" lon="12.351991944015026">
        <ele>1558.6400000000001</ele>
        <time>2023-03-10T14:24:26Z</time>
      </trkpt>
      <trkpt lat="46.649936651811004" lon="12.352012814953923">
        <ele>1558.27</ele>
        <time>2023-03-10T14:24:28Z</time>
      </trkpt>
      <trkpt lat="46.650028266012669" lon="12.352128317579627">
        <ele>1555.24</ele>
        <time>2023-03-10T14:24:42Z</time>
      </trkpt>
      <trkpt lat="46.650067074224353" lon="12.352227559313178">
        <ele>1553.26</ele>
        <time>2023-03-10T14:24:50Z</time>
      </trkpt>
      <trkpt lat="46.650075875222683" lon="12.352254297584295">
        <ele>1551.6199999999999</ele>
        <time>2023-03-10T14:24:54Z</time>
      </trkpt>
      <trkpt lat="46.650083586573601" lon="12.352273408323526">
        <ele>1551.49</ele>
        <time>2023-03-10T14:24:55Z</time>
      </trkpt>
      <trkpt lat="46.650109151378274" lon="12.3523542098701">
        <ele>1551.22</ele>
        <time>2023-03-10T14:25:02Z</time>
      </trkpt>
      <trkpt lat="46.650159442797303" lon="12.352527966722846">
        <ele>1550.8699999999999</ele>
        <time>2023-03-10T14:25:13Z</time>
      </trkpt>
      <trkpt lat="46.650181654840708" lon="12.352560572326183">
        <ele>1551.95</ele>
        <time>2023-03-10T14:25:17Z</time>
      </trkpt>
      <trkpt lat="46.65020814165473" lon="12.352581946179271">
        <ele>1551.27</ele>
        <time>2023-03-10T14:25:20Z</time>
      </trkpt>
      <trkpt lat="46.650218451395631" lon="12.35258974134922">
        <ele>1550.9300000000001</ele>
        <time>2023-03-10T14:25:21Z</time>
      </trkpt>
      <trkpt lat="46.650229096412659" lon="12.352596530690789">
        <ele>1550.97</ele>
        <time>2023-03-10T14:25:22Z</time>
      </trkpt>
      <trkpt lat="46.650239573791623" lon="12.352602733299136">
        <ele>1550.9400000000001</ele>
        <time>2023-03-10T14:25:23Z</time>
      </trkpt>
      <trkpt lat="46.650267401710153" lon="12.352622598409653">
        <ele>1550.3800000000001</ele>
        <time>2023-03-10T14:25:26Z</time>
      </trkpt>
      <trkpt lat="46.650312328711152" lon="12.352636428549886">
        <ele>1549.49</ele>
        <time>2023-03-10T14:25:31Z</time>
      </trkpt>
      <trkpt lat="46.650324650108814" lon="12.352640870958567">
        <ele>1549.3199999999999</ele>
        <time>2023-03-10T14:25:32Z</time>
      </trkpt>
      <trkpt lat="46.65033713914454" lon="12.352649169042706">
        <ele>1549.1099999999999</ele>
        <time>2023-03-10T14:25:33Z</time>
      </trkpt>
      <trkpt lat="46.650349125266075" lon="12.352657048031688">
        <ele>1548.77</ele>
        <time>2023-03-10T14:25:34Z</time>
      </trkpt>
      <trkpt lat="46.650359854102135" lon="12.352659897878766">
        <ele>1548.5899999999999</ele>
        <time>2023-03-10T14:25:35Z</time>
      </trkpt>
      <trkpt lat="46.650421628728509" lon="12.352678924798965">
        <ele>1547.3699999999999</ele>
        <time>2023-03-10T14:25:41Z</time>
      </trkpt>
      <trkpt lat="46.650474686175585" lon="12.352704489603639">
        <ele>1546.4100000000001</ele>
        <time>2023-03-10T14:25:47Z</time>
      </trkpt>
      <trkpt lat="46.65049010887742" lon="12.352715218439698">
        <ele>1546.04</ele>
        <time>2023-03-10T14:25:49Z</time>
      </trkpt>
      <trkpt lat="46.650549620389938" lon="12.352746482938528">
        <ele>1545.24</ele>
        <time>2023-03-10T14:25:56Z</time>
      </trkpt>
      <trkpt lat="46.650579711422324" lon="12.352766264230013">
        <ele>1544.6099999999999</ele>
        <time>2023-03-10T14:26:00Z</time>
      </trkpt>
      <trkpt lat="46.650615334510803" lon="12.352790739387274">
        <ele>1544.05</ele>
        <time>2023-03-10T14:26:04Z</time>
      </trkpt>
      <trkpt lat="46.650627655908465" lon="12.352812616154552">
        <ele>1543.97</ele>
        <time>2023-03-10T14:26:06Z</time>
      </trkpt>
      <trkpt lat="46.650672750547528" lon="12.352855782955885">
        <ele>1542.8800000000001</ele>
        <time>2023-03-10T14:26:11Z</time>
      </trkpt>
      <trkpt lat="46.650687335059047" lon="12.352870786562562">
        <ele>1542.4400000000001</ele>
        <time>2023-03-10T14:26:13Z</time>
      </trkpt>
      <trkpt lat="46.650697980076075" lon="12.352882688865066">
        <ele>1542.1800000000001</ele>
        <time>2023-03-10T14:26:14Z</time>
      </trkpt>
      <trkpt lat="46.650717090815306" lon="12.35288679599762">
        <ele>1541.77</ele>
        <time>2023-03-10T14:26:16Z</time>
      </trkpt>
      <trkpt lat="46.65072756819427" lon="12.352887382730842">
        <ele>1541.6700000000001</ele>
        <time>2023-03-10T14:26:17Z</time>
      </trkpt>
      <trkpt lat="46.650737375020981" lon="12.352897105738521">
        <ele>1541.6400000000001</ele>
        <time>2023-03-10T14:26:18Z</time>
      </trkpt>
      <trkpt lat="46.650745840743184" lon="12.352911774069071">
        <ele>1541.5999999999999</ele>
        <time>2023-03-10T14:26:19Z</time>
      </trkpt>
      <trkpt lat="46.650786576792598" lon="12.352949241176248">
        <ele>1541.6400000000001</ele>
        <time>2023-03-10T14:26:24Z</time>
      </trkpt>
      <trkpt lat="46.650796551257372" lon="12.352958712726831">
        <ele>1541.5899999999999</ele>
        <time>2023-03-10T14:26:25Z</time>
      </trkpt>
      <trkpt lat="46.650805603712797" lon="12.352968184277415">
        <ele>1541.46</ele>
        <time>2023-03-10T14:26:26Z</time>
      </trkpt>
      <trkpt lat="46.650880705565214" lon="12.353025013580918">
        <ele>1541.74</ele>
        <time>2023-03-10T14:26:35Z</time>
      </trkpt>
      <trkpt lat="46.650890009477735" lon="12.353028953075409">
        <ele>1541.6900000000001</ele>
        <time>2023-03-10T14:26:36Z</time>
      </trkpt>
      <trkpt lat="46.650907695293427" lon="12.353046219795942">
        <ele>1541.47</ele>
        <time>2023-03-10T14:26:38Z</time>
      </trkpt>
      <trkpt lat="46.650915071368217" lon="12.353060888126493">
        <ele>1541.1700000000001</ele>
        <time>2023-03-10T14:26:39Z</time>
      </trkpt>
      <trkpt lat="46.650922112166882" lon="12.353076143190265">
        <ele>1540.9300000000001</ele>
        <time>2023-03-10T14:26:40Z</time>
      </trkpt>
      <trkpt lat="46.650965111330152" lon="12.353116041049361">
        <ele>1540.21</ele>
        <time>2023-03-10T14:26:45Z</time>
      </trkpt>
      <trkpt lat="46.651024036109447" lon="12.353168176487088">
        <ele>1538.99</ele>
        <time>2023-03-10T14:26:52Z</time>
      </trkpt>
      <trkpt lat="46.651068795472383" lon="12.353205308318138">
        <ele>1538.52</ele>
        <time>2023-03-10T14:26:58Z</time>
      </trkpt>
      <trkpt lat="46.651122188195586" lon="12.353278566151857">
        <ele>1536.97</ele>
        <time>2023-03-10T14:27:06Z</time>
      </trkpt>
      <trkpt lat="46.651248754933476" lon="12.353414688259363">
        <ele>1534.4000000000001</ele>
        <time>2023-03-10T14:27:23Z</time>
      </trkpt>
      <trkpt lat="46.651340872049332" lon="12.35348928719759">
        <ele>1532.79</ele>
        <time>2023-03-10T14:27:35Z</time>
      </trkpt>
      <trkpt lat="46.651385128498077" lon="12.353601269423962">
        <ele>1531.73</ele>
        <time>2023-03-10T14:27:46Z</time>
      </trkpt>
      <trkpt lat="46.65138621814549" lon="12.353646028786898">
        <ele>1531.6500000000001</ele>
        <time>2023-03-10T14:27:50Z</time>
      </trkpt>
      <trkpt lat="46.651386637240648" lon="12.353660948574543">
        <ele>1531.55</ele>
        <time>2023-03-10T14:27:51Z</time>
      </trkpt>
      <trkpt lat="46.651387307792902" lon="12.353676538914442">
        <ele>1531.5599999999999</ele>
        <time>2023-03-10T14:27:52Z</time>
      </trkpt>
      <trkpt lat="46.651360569521785" lon="12.353766141459346">
        <ele>1531.27</ele>
        <time>2023-03-10T14:28:04Z</time>
      </trkpt>
      <trkpt lat="46.651337938383222" lon="12.353800171986222">
        <ele>1531.3900000000001</ele>
        <time>2023-03-10T14:28:14Z</time>
      </trkpt>
      <trkpt lat="46.65134372189641" lon="12.353816013783216">
        <ele>1530.8800000000001</ele>
        <time>2023-03-10T14:28:27Z</time>
      </trkpt>
      <trkpt lat="46.651315307244658" lon="12.35380788333714">
        <ele>1530.4000000000001</ele>
        <time>2023-03-10T14:28:37Z</time>
      </trkpt>
      <trkpt lat="46.65129292756319" lon="12.3538186121732">
        <ele>1530.24</ele>
        <time>2023-03-10T14:28:41Z</time>
      </trkpt>
      <trkpt lat="46.651282114908099" lon="12.353798076510429">
        <ele>1529.8800000000001</ele>
        <time>2023-03-10T14:28:55Z</time>
      </trkpt>
      <trkpt lat="46.651288066059351" lon="12.353775864467025">
        <ele>1529.8599999999999</ele>
        <time>2023-03-10T14:28:57Z</time>
      </trkpt>
      <trkpt lat="46.651281528174877" lon="12.353694979101419">
        <ele>1530.27</ele>
        <time>2023-03-10T14:29:19Z</time>
      </trkpt>
      <trkpt lat="46.651315977796912" lon="12.353670503944159">
        <ele>1530.46</ele>
        <time>2023-03-10T14:29:43Z</time>
      </trkpt>
      <trkpt lat="46.651290915906429" lon="12.353755831718445">
        <ele>1530.73</ele>
        <time>2023-03-10T14:30:02Z</time>
      </trkpt>
      <trkpt lat="46.651262249797583" lon="12.353762621060014">
        <ele>1530.75</ele>
        <time>2023-03-10T14:30:20Z</time>
      </trkpt>
      <trkpt lat="46.651264932006598" lon="12.353777205571532">
        <ele>1531.05</ele>
        <time>2023-03-10T14:30:41Z</time>
      </trkpt>
      <trkpt lat="46.651235930621624" lon="12.353722052648664">
        <ele>1531.75</ele>
        <time>2023-03-10T14:31:03Z</time>
      </trkpt>
      <trkpt lat="46.651216149330139" lon="12.353744599968195">
        <ele>1531.95</ele>
        <time>2023-03-10T14:31:24Z</time>
      </trkpt>
      <trkpt lat="46.651203241199255" lon="12.353776870295405">
        <ele>1531.9300000000001</ele>
        <time>2023-03-10T14:31:44Z</time>
      </trkpt>
      <trkpt lat="46.651196787133813" lon="12.353803440928459">
        <ele>1532.0599999999999</ele>
        <time>2023-03-10T14:32:02Z</time>
      </trkpt>
      <trkpt lat="46.651207599788904" lon="12.353778127580881">
        <ele>1532.3399999999999</ele>
        <time>2023-03-10T14:32:22Z</time>
      </trkpt>
      <trkpt lat="46.651182621717453" lon="12.353811822831631">
        <ele>1533.95</ele>
        <time>2023-03-10T14:32:44Z</time>
      </trkpt>
      <trkpt lat="46.651168875396252" lon="12.353760022670031">
        <ele>1535.0999999999999</ele>
        <time>2023-03-10T14:33:00Z</time>
      </trkpt>
      <trkpt lat="46.651203325018287" lon="12.353843087330461">
        <ele>1536.4300000000001</ele>
        <time>2023-03-10T14:33:27Z</time>
      </trkpt>
      <trkpt lat="46.651208102703094" lon="12.353803608566523">
        <ele>1538.6400000000001</ele>
        <time>2023-03-10T14:34:13Z</time>
      </trkpt>
      <trkpt lat="46.651235930621624" lon="12.353686178103089">
        <ele>1540.24</ele>
        <time>2023-03-10T14:34:53Z</time>
      </trkpt>
      <trkpt lat="46.651225704699755" lon="12.353603951632977">
        <ele>1541.5899999999999</ele>
        <time>2023-03-10T14:35:26Z</time>
      </trkpt>
      <trkpt lat="46.651239786297083" lon="12.353575369343162">
        <ele>1541.1900000000001</ele>
        <time>2023-03-10T14:35:47Z</time>
      </trkpt>
      <trkpt lat="46.65126702748239" lon="12.353598503395915">
        <ele>1541.1300000000001</ele>
        <time>2023-03-10T14:36:09Z</time>
      </trkpt>
      <trkpt lat="46.651304578408599" lon="12.353659691289067">
        <ele>1542.3</ele>
        <time>2023-03-10T14:36:28Z</time>
      </trkpt>
      <trkpt lat="46.651315474882722" lon="12.353643933311105">
        <ele>1543.45</ele>
        <time>2023-03-10T14:36:49Z</time>
      </trkpt>
      <trkpt lat="46.651320001110435" lon="12.353661870583892">
        <ele>1543.3</ele>
        <time>2023-03-10T14:37:12Z</time>
      </trkpt>
      <trkpt lat="46.651317067444324" lon="12.353716269135475">
        <ele>1541.95</ele>
        <time>2023-03-10T14:37:32Z</time>
      </trkpt>
      <trkpt lat="46.651316396892071" lon="12.353679472580552">
        <ele>1542.1700000000001</ele>
        <time>2023-03-10T14:37:56Z</time>
      </trkpt>
      <trkpt lat="46.651249676942825" lon="12.353618871420622">
        <ele>1544.01</ele>
        <time>2023-03-10T14:38:16Z</time>
      </trkpt>
      <trkpt lat="46.651259819045663" lon="12.353672180324793">
        <ele>1541.05</ele>
        <time>2023-03-10T14:38:37Z</time>
      </trkpt>
      <trkpt lat="46.651300638914108" lon="12.353687435388565">
        <ele>1538.3900000000001</ele>
        <time>2023-03-10T14:38:57Z</time>
      </trkpt>
      <trkpt lat="46.651317989453673" lon="12.353699337691069">
        <ele>1535.6400000000001</ele>
        <time>2023-03-10T14:39:21Z</time>
      </trkpt>
      <trkpt lat="46.651319079101086" lon="12.353710820898414">
        <ele>1533.27</ele>
        <time>2023-03-10T14:39:42Z</time>
      </trkpt>
      <trkpt lat="46.65128949098289" lon="12.353609567508101">
        <ele>1533.1600000000001</ele>
        <time>2023-03-10T14:40:04Z</time>
      </trkpt>
      <trkpt lat="46.651304662227631" lon="12.353633623570204">
        <ele>1531.71</ele>
        <time>2023-03-10T14:40:26Z</time>
      </trkpt>
      <trkpt lat="46.651313044130802" lon="12.353663798421621">
        <ele>1531.3499999999999</ele>
        <time>2023-03-10T14:40:46Z</time>
      </trkpt>
      <trkpt lat="46.651320001110435" lon="12.353715347126126">
        <ele>1530.72</ele>
        <time>2023-03-10T14:41:08Z</time>
      </trkpt>
      <trkpt lat="46.65129292756319" lon="12.353696404024959">
        <ele>1530.26</ele>
        <time>2023-03-10T14:41:29Z</time>
      </trkpt>
      <trkpt lat="46.651303907856345" lon="12.353698750957847">
        <ele>1528.2</ele>
        <time>2023-03-10T14:41:54Z</time>
      </trkpt>
      <trkpt lat="46.651317486539483" lon="12.353662457317114">
        <ele>1525.6900000000001</ele>
        <time>2023-03-10T14:42:31Z</time>
      </trkpt>
      <trkpt lat="46.651336094364524" lon="12.353688105940819">
        <ele>1524.23</ele>
        <time>2023-03-10T14:42:50Z</time>
      </trkpt>
      <trkpt lat="46.651320001110435" lon="12.353650806471705">
        <ele>1522.5</ele>
        <time>2023-03-10T14:43:13Z</time>
      </trkpt>
      <trkpt lat="46.65134028531611" lon="12.353657260537148">
        <ele>1521.3800000000001</ele>
        <time>2023-03-10T14:43:42Z</time>
      </trkpt>
      <trkpt lat="46.651339111849666" lon="12.353640832006931">
        <ele>1520.6900000000001</ele>
        <time>2023-03-10T14:44:03Z</time>
      </trkpt>
      <trkpt lat="46.65133441798389" lon="12.353626750409603">
        <ele>1520.1500000000001</ele>
        <time>2023-03-10T14:44:26Z</time>
      </trkpt>
      <trkpt lat="46.651335759088397" lon="12.353672347962856">
        <ele>1521.9400000000001</ele>
        <time>2023-03-10T14:44:47Z</time>
      </trkpt>
      <trkpt lat="46.651310278102756" lon="12.353644436225295">
        <ele>1523.01</ele>
        <time>2023-03-10T14:45:11Z</time>
      </trkpt>
      <trkpt lat="46.651311283931136" lon="12.353638652712107">
        <ele>1524.21</ele>
        <time>2023-03-10T14:45:32Z</time>
      </trkpt>
      <trkpt lat="46.65134028531611" lon="12.353716772049665">
        <ele>1524.9000000000001</ele>
        <time>2023-03-10T14:45:56Z</time>
      </trkpt>
      <trkpt lat="46.65135009214282" lon="12.353724567219615">
        <ele>1525.8699999999999</ele>
        <time>2023-03-10T14:46:17Z</time>
      </trkpt>
      <trkpt lat="46.651360904797912" lon="12.353715933859348">
        <ele>1527.6900000000001</ele>
        <time>2023-03-10T14:46:37Z</time>
      </trkpt>
      <trkpt lat="46.651351768523455" lon="12.353692296892405">
        <ele>1529.3499999999999</ele>
        <time>2023-03-10T14:46:58Z</time>
      </trkpt>
      <trkpt lat="46.651343889534473" lon="12.353660948574543">
        <ele>1530.8699999999999</ele>
        <time>2023-03-10T14:47:20Z</time>
      </trkpt>
      <trkpt lat="46.65135302580893" lon="12.353688860312104">
        <ele>1531.26</ele>
        <time>2023-03-10T14:47:39Z</time>
      </trkpt>
      <trkpt lat="46.651355540379882" lon="12.353699337691069">
        <ele>1531.4100000000001</ele>
        <time>2023-03-10T14:47:58Z</time>
      </trkpt>
      <trkpt lat="46.651348080486059" lon="12.353707300499082">
        <ele>1531.95</ele>
        <time>2023-03-10T14:48:17Z</time>
      </trkpt>
      <trkpt lat="46.651351433247328" lon="12.353714006021619">
        <ele>1532.05</ele>
        <time>2023-03-10T14:48:38Z</time>
      </trkpt>
      <trkpt lat="46.65136082097888" lon="12.353660278022289">
        <ele>1532.5899999999999</ele>
        <time>2023-03-10T14:49:04Z</time>
      </trkpt>
      <trkpt lat="46.651390912011266" lon="12.353733535856009">
        <ele>1533.22</ele>
        <time>2023-03-10T14:49:24Z</time>
      </trkpt>
      <trkpt lat="46.651413626968861" lon="12.35377854667604">
        <ele>1533.3199999999999</ele>
        <time>2023-03-10T14:49:48Z</time>
      </trkpt>
      <trkpt lat="46.651426870375872" lon="12.353759687393904">
        <ele>1533.3299999999999</ele>
        <time>2023-03-10T14:50:09Z</time>
      </trkpt>
      <trkpt lat="46.651414800435305" lon="12.35380251891911">
        <ele>1533.97</ele>
        <time>2023-03-10T14:50:32Z</time>
      </trkpt>
      <trkpt lat="46.651380015537143" lon="12.353816935792565">
        <ele>1533.79</ele>
        <time>2023-03-10T14:50:51Z</time>
      </trkpt>
      <trkpt lat="46.651380602270365" lon="12.353771422058344">
        <ele>1534.48</ele>
        <time>2023-03-10T14:51:13Z</time>
      </trkpt>
      <trkpt lat="46.651377249509096" lon="12.353750048205256">
        <ele>1534.4400000000001</ele>
        <time>2023-03-10T14:51:36Z</time>
      </trkpt>
      <trkpt lat="46.651372890919447" lon="12.353735044598579">
        <ele>1533.74</ele>
        <time>2023-03-10T14:51:57Z</time>
      </trkpt>
      <trkpt lat="46.651383535936475" lon="12.353717945516109">
        <ele>1533.4100000000001</ele>
        <time>2023-03-10T14:52:20Z</time>
      </trkpt>
      <trkpt lat="46.651398874819279" lon="12.353739235550165">
        <ele>1533.26</ele>
        <time>2023-03-10T14:52:38Z</time>
      </trkpt>
      <trkpt lat="46.651363167911768" lon="12.353694979101419">
        <ele>1533.3299999999999</ele>
        <time>2023-03-10T14:53:01Z</time>
      </trkpt>
      <trkpt lat="46.651368113234639" lon="12.353724399581552">
        <ele>1531.5599999999999</ele>
        <time>2023-03-10T14:53:21Z</time>
      </trkpt>
      <trkpt lat="46.651374567300081" lon="12.353775780647993">
        <ele>1527.6600000000001</ele>
        <time>2023-03-10T14:53:44Z</time>
      </trkpt>
      <trkpt lat="46.651385547593236" lon="12.353825066238642">
        <ele>1525.3699999999999</ele>
        <time>2023-03-10T14:54:06Z</time>
      </trkpt>
      <trkpt lat="46.65138429030776" lon="12.353813666850328">
        <ele>1523.0799999999999</ele>
        <time>2023-03-10T14:54:27Z</time>
      </trkpt>
      <trkpt lat="46.65136425755918" lon="12.353795813396573">
        <ele>1523.6700000000001</ele>
        <time>2023-03-10T14:54:50Z</time>
      </trkpt>
      <trkpt lat="46.651387559249997" lon="12.353787263855338">
        <ele>1524.1800000000001</ele>
        <time>2023-03-10T14:55:14Z</time>
      </trkpt>
      <trkpt lat="46.651399796828628" lon="12.353822300210595">
        <ele>1524.6500000000001</ele>
        <time>2023-03-10T14:55:35Z</time>
      </trkpt>
      <trkpt lat="46.6513701248914" lon="12.353771673515439">
        <ele>1524.29</ele>
        <time>2023-03-10T14:55:51Z</time>
      </trkpt>
      <trkpt lat="46.65135252289474" lon="12.353758346289396">
        <ele>1523.8800000000001</ele>
        <time>2023-03-10T14:56:02Z</time>
      </trkpt>
      <trkpt lat="46.651359060779214" lon="12.353782737627625">
        <ele>1522.95</ele>
        <time>2023-03-10T14:56:23Z</time>
      </trkpt>
      <trkpt lat="46.651379177346826" lon="12.353778462857008">
        <ele>1521.72</ele>
        <time>2023-03-10T14:56:46Z</time>
      </trkpt>
      <trkpt lat="46.651338273659348" lon="12.353638904169202">
        <ele>1521.96</ele>
        <time>2023-03-10T14:57:07Z</time>
      </trkpt>
      <trkpt lat="46.651313882321119" lon="12.353608645498753">
        <ele>1522.3699999999999</ele>
        <time>2023-03-10T14:57:27Z</time>
      </trkpt>
      <trkpt lat="46.651330729946494" lon="12.353665726259351">
        <ele>1523.1700000000001</ele>
        <time>2023-03-10T14:57:52Z</time>
      </trkpt>
      <trkpt lat="46.65131245739758" lon="12.353636473417282">
        <ele>1523.4400000000001</ele>
        <time>2023-03-10T14:58:14Z</time>
      </trkpt>
      <trkpt lat="46.65133148431778" lon="12.353676203638315">
        <ele>1522.8299999999999</ele>
        <time>2023-03-10T14:58:36Z</time>
      </trkpt>
      <trkpt lat="46.651322180405259" lon="12.353635467588902">
        <ele>1523.0999999999999</ele>
        <time>2023-03-10T14:58:51Z</time>
      </trkpt>
      <trkpt lat="46.651364509016275" lon="12.35377418808639">
        <ele>1522.6099999999999</ele>
        <time>2023-03-10T14:59:12Z</time>
      </trkpt>
      <trkpt lat="46.651321426033974" lon="12.35370721668005">
        <ele>1523.4400000000001</ele>
        <time>2023-03-10T14:59:30Z</time>
      </trkpt>
      <trkpt lat="46.651315307244658" lon="12.353705205023289">
        <ele>1523.8800000000001</ele>
        <time>2023-03-10T14:59:44Z</time>
      </trkpt>
      <trkpt lat="46.651353696361184" lon="12.353689447045326">
        <ele>1523.4000000000001</ele>
        <time>2023-03-10T15:00:04Z</time>
      </trkpt>
      <trkpt lat="46.651403484866023" lon="12.353637060150504">
        <ele>1521.8099999999999</ele>
        <time>2023-03-10T15:00:13Z</time>
      </trkpt>
      <trkpt lat="46.651433240622282" lon="12.353582158684731">
        <ele>1522.79</ele>
        <time>2023-03-10T15:00:28Z</time>
      </trkpt>
      <trkpt lat="46.651447070762515" lon="12.353612165898085">
        <ele>1527.0799999999999</ele>
        <time>2023-03-10T15:00:50Z</time>
      </trkpt>
      <trkpt lat="46.651456542313099" lon="12.353608729317784">
        <ele>1527.26</ele>
        <time>2023-03-10T15:01:12Z</time>
      </trkpt>
      <trkpt lat="46.651460314169526" lon="12.35360462218523">
        <ele>1527.3199999999999</ele>
        <time>2023-03-10T15:01:24Z</time>
      </trkpt>
      <trkpt lat="46.651448076590896" lon="12.353600431233644">
        <ele>1527.48</ele>
        <time>2023-03-10T15:01:48Z</time>
      </trkpt>
      <trkpt lat="46.651415806263685" lon="12.353594563901424">
        <ele>1527.6300000000001</ele>
        <time>2023-03-10T15:02:00Z</time>
      </trkpt>
      <trkpt lat="46.651425780728459" lon="12.353578135371208">
        <ele>1528.51</ele>
        <time>2023-03-10T15:02:20Z</time>
      </trkpt>
      <trkpt lat="46.651445645838976" lon="12.353591378778219">
        <ele>1530.3299999999999</ele>
        <time>2023-03-10T15:02:37Z</time>
      </trkpt>
      <trkpt lat="46.651477832347155" lon="12.353599006310105">
        <ele>1532.1099999999999</ele>
        <time>2023-03-10T15:02:53Z</time>
      </trkpt>
      <trkpt lat="46.651580762118101" lon="12.3536407481879">
        <ele>1531.23</ele>
        <time>2023-03-10T15:03:05Z</time>
      </trkpt>
      <trkpt lat="46.651704479008913" lon="12.353779217228293">
        <ele>1530.4100000000001</ele>
        <time>2023-03-10T15:03:22Z</time>
      </trkpt>
      <trkpt lat="46.651807157322764" lon="12.353871334344149">
        <ele>1528.9300000000001</ele>
        <time>2023-03-10T15:03:36Z</time>
      </trkpt>
      <trkpt lat="46.651847390457988" lon="12.353897066786885">
        <ele>1527.6600000000001</ele>
        <time>2023-03-10T15:03:42Z</time>
      </trkpt>
      <trkpt lat="46.651865830644965" lon="12.353907125070691">
        <ele>1527.73</ele>
        <time>2023-03-10T15:03:44Z</time>
      </trkpt>
      <trkpt lat="46.652000779286027" lon="12.353936042636633">
        <ele>1528.22</ele>
        <time>2023-03-10T15:03:58Z</time>
      </trkpt>
      <trkpt lat="46.652107900008559" lon="12.353937719017267">
        <ele>1528.45</ele>
        <time>2023-03-10T15:04:10Z</time>
      </trkpt>
      <trkpt lat="46.652111001312733" lon="12.353943921625614">
        <ele>1528.78</ele>
        <time>2023-03-10T15:04:20Z</time>
      </trkpt>
      <trkpt lat="46.652271011844277" lon="12.35406001098454">
        <ele>1527.6400000000001</ele>
        <time>2023-03-10T15:04:36Z</time>
      </trkpt>
      <trkpt lat="46.652433034032583" lon="12.354165036231279">
        <ele>1527.45</ele>
        <time>2023-03-10T15:04:51Z</time>
      </trkpt>
      <trkpt lat="46.652632271870971" lon="12.354201329872012">
        <ele>1525.47</ele>
        <time>2023-03-10T15:05:08Z</time>
      </trkpt>
      <trkpt lat="46.65284332819283" lon="12.354202084243298">
        <ele>1522.5599999999999</ele>
        <time>2023-03-10T15:05:25Z</time>
      </trkpt>
      <trkpt lat="46.653005601838231" lon="12.354215998202562">
        <ele>1520.05</ele>
        <time>2023-03-10T15:05:39Z</time>
      </trkpt>
      <trkpt lat="46.653169887140393" lon="12.354233851656318">
        <ele>1519.4400000000001</ele>
        <time>2023-03-10T15:05:54Z</time>
      </trkpt>
      <trkpt lat="46.653327802196145" lon="12.354256315156817">
        <ele>1518.54</ele>
        <time>2023-03-10T15:06:08Z</time>
      </trkpt>
      <trkpt lat="46.653507174924016" lon="12.354269390925765">
        <ele>1518.4000000000001</ele>
        <time>2023-03-10T15:06:23Z</time>
      </trkpt>
      <trkpt lat="46.653612535446882" lon="12.35427257604897">
        <ele>1517.75</ele>
        <time>2023-03-10T15:06:32Z</time>
      </trkpt>
      <trkpt lat="46.653655786067247" lon="12.354273833334446">
        <ele>1517.45</ele>
        <time>2023-03-10T15:06:36Z</time>
      </trkpt>
      <trkpt lat="46.653887210413814" lon="12.354339631274343">
        <ele>1514.73</ele>
        <time>2023-03-10T15:06:56Z</time>
      </trkpt>
      <trkpt lat="46.654060548171401" lon="12.354414649307728">
        <ele>1513.29</ele>
        <time>2023-03-10T15:07:11Z</time>
      </trkpt>
      <trkpt lat="46.654244111850858" lon="12.354483967646956">
        <ele>1512.1800000000001</ele>
        <time>2023-03-10T15:07:27Z</time>
      </trkpt>
      <trkpt lat="46.654434716328979" lon="12.354547251015902">
        <ele>1510.98</ele>
        <time>2023-03-10T15:07:44Z</time>
      </trkpt>
      <trkpt lat="46.654626158997416" lon="12.354617323726416">
        <ele>1510.05</ele>
        <time>2023-03-10T15:08:00Z</time>
      </trkpt>
      <trkpt lat="46.654798239469528" lon="12.354726707562804">
        <ele>1509.23</ele>
        <time>2023-03-10T15:08:16Z</time>
      </trkpt>
      <trkpt lat="46.654922710731626" lon="12.354740956798196">
        <ele>1508.7</ele>
        <time>2023-03-10T15:08:29Z</time>
      </trkpt>
      <trkpt lat="46.655098395422101" lon="12.354751853272319">
        <ele>1507.5899999999999</ele>
        <time>2023-03-10T15:08:44Z</time>
      </trkpt>
      <trkpt lat="46.655274834483862" lon="12.354764761403203">
        <ele>1506.55</ele>
        <time>2023-03-10T15:08:58Z</time>
      </trkpt>
      <trkpt lat="46.655473988503218" lon="12.354761743918061">
        <ele>1504.8</ele>
        <time>2023-03-10T15:09:15Z</time>
      </trkpt>
      <trkpt lat="46.655628047883511" lon="12.354757469147444">
        <ele>1503.73</ele>
        <time>2023-03-10T15:09:28Z</time>
      </trkpt>
      <trkpt lat="46.65582250803709" lon="12.354735173285007">
        <ele>1503.2</ele>
        <time>2023-03-10T15:09:43Z</time>
      </trkpt>
      <trkpt lat="46.656020488590002" lon="12.354695945978165">
        <ele>1502.3199999999999</ele>
        <time>2023-03-10T15:09:59Z</time>
      </trkpt>
      <trkpt lat="46.656236154958606" lon="12.354648252949119">
        <ele>1501.1099999999999</ele>
        <time>2023-03-10T15:10:16Z</time>
      </trkpt>
      <trkpt lat="46.656433967873454" lon="12.354616485536098">
        <ele>1498.3199999999999</ele>
        <time>2023-03-10T15:10:32Z</time>
      </trkpt>
      <trkpt lat="46.656612753868103" lon="12.354559991508722">
        <ele>1495.8299999999999</ele>
        <time>2023-03-10T15:10:47Z</time>
      </trkpt>
      <trkpt lat="46.656779972836375" lon="12.354465778917074">
        <ele>1493.95</ele>
        <time>2023-03-10T15:11:02Z</time>
      </trkpt>
      <trkpt lat="46.656973343342543" lon="12.354333261027932">
        <ele>1491.73</ele>
        <time>2023-03-10T15:11:19Z</time>
      </trkpt>
      <trkpt lat="46.657139556482434" lon="12.3541968036443">
        <ele>1489.3900000000001</ele>
        <time>2023-03-10T15:11:35Z</time>
      </trkpt>
      <trkpt lat="46.657314738258719" lon="12.354024723172188">
        <ele>1486.9400000000001</ele>
        <time>2023-03-10T15:11:53Z</time>
      </trkpt>
      <trkpt lat="46.657471898943186" lon="12.35387284308672">
        <ele>1486.8800000000001</ele>
        <time>2023-03-10T15:12:09Z</time>
      </trkpt>
      <trkpt lat="46.657536020502448" lon="12.353675030171871">
        <ele>1484.5699999999999</ele>
        <time>2023-03-10T15:12:23Z</time>
      </trkpt>
      <trkpt lat="46.657553957775235" lon="12.353462381288409">
        <ele>1483.53</ele>
        <time>2023-03-10T15:12:36Z</time>
      </trkpt>
      <trkpt lat="46.657626209780574" lon="12.35324889421463">
        <ele>1483.3</ele>
        <time>2023-03-10T15:12:49Z</time>
      </trkpt>
      <trkpt lat="46.657752860337496" lon="12.353093158453703">
        <ele>1482.3199999999999</ele>
        <time>2023-03-10T15:13:03Z</time>
      </trkpt>
      <trkpt lat="46.657964084297419" lon="12.35301872715354">
        <ele>1483.0799999999999</ele>
        <time>2023-03-10T15:13:20Z</time>
      </trkpt>
      <trkpt lat="46.658160723745823" lon="12.352918814867735">
        <ele>1483.54</ele>
        <time>2023-03-10T15:13:35Z</time>
      </trkpt>
      <trkpt lat="46.65834722109139" lon="12.352809682488441">
        <ele>1483.1600000000001</ele>
        <time>2023-03-10T15:13:51Z</time>
      </trkpt>
      <trkpt lat="46.658506477251649" lon="12.352646570652723">
        <ele>1482.5999999999999</ele>
        <time>2023-03-10T15:14:06Z</time>
      </trkpt>
      <trkpt lat="46.658643772825599" lon="12.352472813799977">
        <ele>1480.52</ele>
        <time>2023-03-10T15:14:20Z</time>
      </trkpt>
      <trkpt lat="46.658835299313068" lon="12.352357059717178">
        <ele>1480.1400000000001</ele>
        <time>2023-03-10T15:14:35Z</time>
      </trkpt>
      <trkpt lat="46.659026658162475" lon="12.352164527401328">
        <ele>1479.51</ele>
        <time>2023-03-10T15:14:53Z</time>
      </trkpt>
      <trkpt lat="46.659201001748443" lon="12.352018430829048">
        <ele>1477.0899999999999</ele>
        <time>2023-03-10T15:15:09Z</time>
      </trkpt>
      <trkpt lat="46.659392360597849" lon="12.351969899609685">
        <ele>1476.79</ele>
        <time>2023-03-10T15:15:24Z</time>
      </trkpt>
      <trkpt lat="46.659564441069961" lon="12.351826233789325">
        <ele>1473.77</ele>
        <time>2023-03-10T15:15:40Z</time>
      </trkpt>
      <trkpt lat="46.659726882353425" lon="12.351651135832071">
        <ele>1471.6800000000001</ele>
        <time>2023-03-10T15:15:56Z</time>
      </trkpt>
      <trkpt lat="46.659902147948742" lon="12.351474780589342">
        <ele>1469.3</ele>
        <time>2023-03-10T15:16:13Z</time>
      </trkpt>
      <trkpt lat="46.660124268382788" lon="12.351378640159965">
        <ele>1468.49</ele>
        <time>2023-03-10T15:16:30Z</time>
      </trkpt>
      <trkpt lat="46.660295594483614" lon="12.351320385932922">
        <ele>1467.99</ele>
        <time>2023-03-10T15:16:43Z</time>
      </trkpt>
      <trkpt lat="46.6604810860008" lon="12.35121569596231">
        <ele>1467.1700000000001</ele>
        <time>2023-03-10T15:16:58Z</time>
      </trkpt>
      <trkpt lat="46.660737320780754" lon="12.351183090358973">
        <ele>1468.55</ele>
        <time>2023-03-10T15:17:15Z</time>
      </trkpt>
      <trkpt lat="46.660951226949692" lon="12.35115023329854">
        <ele>1469.99</ele>
        <time>2023-03-10T15:17:30Z</time>
      </trkpt>
      <trkpt lat="46.661159349605441" lon="12.351135900244117">
        <ele>1469.5</ele>
        <time>2023-03-10T15:17:46Z</time>
      </trkpt>
      <trkpt lat="46.661357078701258" lon="12.3510348983109">
        <ele>1467.8</ele>
        <time>2023-03-10T15:18:02Z</time>
      </trkpt>
      <trkpt lat="46.661553215235472" lon="12.35108376480639">
        <ele>1466.4400000000001</ele>
        <time>2023-03-10T15:18:16Z</time>
      </trkpt>
      <trkpt lat="46.661760080605745" lon="12.351014697924256">
        <ele>1463.73</ele>
        <time>2023-03-10T15:18:32Z</time>
      </trkpt>
      <trkpt lat="46.661935430020094" lon="12.350965579971671">
        <ele>1461.5</ele>
        <time>2023-03-10T15:18:46Z</time>
      </trkpt>
      <trkpt lat="46.662162663415074" lon="12.350939512252808">
        <ele>1459.78</ele>
        <time>2023-03-10T15:19:03Z</time>
      </trkpt>
      <trkpt lat="46.662374809384346" lon="12.351003885269165">
        <ele>1460.49</ele>
        <time>2023-03-10T15:19:18Z</time>
      </trkpt>
      <trkpt lat="46.662595588713884" lon="12.35112190246582">
        <ele>1459.8</ele>
        <time>2023-03-10T15:19:35Z</time>
      </trkpt>
      <trkpt lat="46.662790467962623" lon="12.351125171408057">
        <ele>1460.3800000000001</ele>
        <time>2023-03-10T15:19:49Z</time>
      </trkpt>
      <trkpt lat="46.662987526506186" lon="12.351167667657137">
        <ele>1461.3499999999999</ele>
        <time>2023-03-10T15:20:04Z</time>
      </trkpt>
      <trkpt lat="46.663140412420034" lon="12.351366821676493">
        <ele>1460.78</ele>
        <time>2023-03-10T15:20:20Z</time>
      </trkpt>
      <trkpt lat="46.663250802084804" lon="12.351573938503861">
        <ele>1460.23</ele>
        <time>2023-03-10T15:20:34Z</time>
      </trkpt>
      <trkpt lat="46.663440316915512" lon="12.351799076423049">
        <ele>1460.02</ele>
        <time>2023-03-10T15:20:53Z</time>
      </trkpt>
      <trkpt lat="46.663601500913501" lon="12.35196964815259">
        <ele>1460.29</ele>
        <time>2023-03-10T15:21:09Z</time>
      </trkpt>
      <trkpt lat="46.663814401254058" lon="12.35215631313622">
        <ele>1459.8800000000001</ele>
        <time>2023-03-10T15:21:29Z</time>
      </trkpt>
      <trkpt lat="46.663985978811979" lon="12.352298134937882">
        <ele>1459.3</ele>
        <time>2023-03-10T15:21:45Z</time>
      </trkpt>
      <trkpt lat="46.66414481587708" lon="12.352435849606991">
        <ele>1459.3299999999999</ele>
        <time>2023-03-10T15:22:00Z</time>
      </trkpt>
      <trkpt lat="46.664303988218307" lon="12.352568954229355">
        <ele>1459.3399999999999</ele>
        <time>2023-03-10T15:22:15Z</time>
      </trkpt>
      <trkpt lat="46.664421586319804" lon="12.352652018889785">
        <ele>1459.0699999999999</ele>
        <time>2023-03-10T15:22:25Z</time>
      </trkpt>
      <trkpt lat="46.664543207734823" lon="12.352682026103139">
        <ele>1459.1099999999999</ele>
        <time>2023-03-10T15:22:34Z</time>
      </trkpt>
      <trkpt lat="46.664718305692077" lon="12.352745644748211">
        <ele>1457.75</ele>
        <time>2023-03-10T15:22:49Z</time>
      </trkpt>
      <trkpt lat="46.66489633731544" lon="12.352835750207305">
        <ele>1458.1500000000001</ele>
        <time>2023-03-10T15:23:04Z</time>
      </trkpt>
      <trkpt lat="46.665049809962511" lon="12.352937590330839">
        <ele>1458.77</ele>
        <time>2023-03-10T15:23:18Z</time>
      </trkpt>
      <trkpt lat="46.665196157991886" lon="12.353018475696445">
        <ele>1458.8499999999999</ele>
        <time>2023-03-10T15:23:31Z</time>
      </trkpt>
      <trkpt lat="46.66534585878253" lon="12.353090308606625">
        <ele>1458.4200000000001</ele>
        <time>2023-03-10T15:23:44Z</time>
      </trkpt>
      <trkpt lat="46.665436634793878" lon="12.353138672187924">
        <ele>1458.2</ele>
        <time>2023-03-10T15:23:52Z</time>
      </trkpt>
      <trkpt lat="46.665563033893704" lon="12.353174211457372">
        <ele>1457.4200000000001</ele>
        <time>2023-03-10T15:24:03Z</time>
      </trkpt>
      <trkpt lat="46.665728995576501" lon="12.353277979418635">
        <ele>1457.27</ele>
        <time>2023-03-10T15:24:18Z</time>
      </trkpt>
      <trkpt lat="46.665821028873324" lon="12.353352243080735">
        <ele>1456.8699999999999</ele>
        <time>2023-03-10T15:24:29Z</time>
      </trkpt>
      <trkpt lat="46.665877271443605" lon="12.353398092091084">
        <ele>1456.76</ele>
        <time>2023-03-10T15:24:34Z</time>
      </trkpt>
      <trkpt lat="46.666062930598855" lon="12.353530526161194">
        <ele>1455.75</ele>
        <time>2023-03-10T15:24:50Z</time>
      </trkpt>
      <trkpt lat="46.666187820956111" lon="12.353701097890735">
        <ele>1454.97</ele>
        <time>2023-03-10T15:25:04Z</time>
      </trkpt>
      <trkpt lat="46.666316483169794" lon="12.353897150605917">
        <ele>1454.8699999999999</ele>
        <time>2023-03-10T15:25:19Z</time>
      </trkpt>
      <trkpt lat="46.666371049359441" lon="12.353940485045314">
        <ele>1455.8699999999999</ele>
        <time>2023-03-10T15:25:30Z</time>
      </trkpt>
      <trkpt lat="46.666362583637238" lon="12.353929085657001">
        <ele>1455.8099999999999</ele>
        <time>2023-03-10T15:25:37Z</time>
      </trkpt>
      <trkpt lat="46.666411450132728" lon="12.353865969926119">
        <ele>1455.22</ele>
        <time>2023-03-10T15:25:46Z</time>
      </trkpt>
      <trkpt lat="46.666423855349422" lon="12.353879129514098">
        <ele>1454.97</ele>
        <time>2023-03-10T15:25:59Z</time>
      </trkpt>
      <trkpt lat="46.666428716853261" lon="12.353846691548824">
        <ele>1454.97</ele>
        <time>2023-03-10T15:26:02Z</time>
      </trkpt>
      <trkpt lat="46.666468782350421" lon="12.353750383481383">
        <ele>1455.9200000000001</ele>
        <time>2023-03-10T15:26:08Z</time>
      </trkpt>
      <trkpt lat="46.666474314406514" lon="12.353740157559514">
        <ele>1455.55</ele>
        <time>2023-03-10T15:26:17Z</time>
      </trkpt>
      <trkpt lat="46.666458640247583" lon="12.353747952729464">
        <ele>1453.53</ele>
        <time>2023-03-10T15:26:43Z</time>
      </trkpt>
      <trkpt lat="46.666456712409854" lon="12.353755412623286">
        <ele>1454.6900000000001</ele>
        <time>2023-03-10T15:27:03Z</time>
      </trkpt>
      <trkpt lat="46.666453443467617" lon="12.35375365242362">
        <ele>1454.05</ele>
        <time>2023-03-10T15:27:33Z</time>
      </trkpt>
      <trkpt lat="46.666454868391156" lon="12.353757005184889">
        <ele>1453.77</ele>
        <time>2023-03-10T15:28:02Z</time>
      </trkpt>
      <trkpt lat="46.666456880047917" lon="12.353773349896073">
        <ele>1454.8</ele>
        <time>2023-03-10T15:28:41Z</time>
      </trkpt>
      <trkpt lat="46.666450928896666" lon="12.353777540847659">
        <ele>1455.1300000000001</ele>
        <time>2023-03-10T15:29:17Z</time>
      </trkpt>
      <trkpt lat="46.666450258344412" lon="12.353763123974204">
        <ele>1455.4400000000001</ele>
        <time>2023-03-10T15:29:48Z</time>
      </trkpt>
    </trkseg>
  </trk>

</gpx>